<?xml version='1.0' encoding='UTF-8'?><gpx version="1.1" creator="JPX - https://github.com/jenetics/jpx" xmlns="http://www.topografix.com/GPX/1/1"><trk><trkseg><trkpt lat="44.3227774" lon="7.5524255"><ele>604.0</ele><time>2026-03-28T12:57:07.292Z</time></trkpt><trkpt lat="44.3227154" lon="7.5523626"><ele>604.0</ele><time>2026-03-28T12:57:16.291Z</time></trkpt><trkpt lat="44.3225934" lon="7.5523275"><ele>604.0</ele><time>2026-03-28T12:57:18.291Z</time></trkpt><trkpt lat="44.322519" lon="7.5523043"><ele>604.0</ele><time>2026-03-28T12:57:19.291Z</time></trkpt><trkpt lat="44.3224383" lon="7.5522738"><ele>604.0</ele><time>2026-03-28T12:57:20.292Z</time></trkpt><trkpt lat="44.3223514" lon="7.5522428"><ele>604.0</ele><time>2026-03-28T12:57:21.292Z</time></trkpt><trkpt lat="44.3222685" lon="7.5522088"><ele>604.0</ele><time>2026-03-28T12:57:22.292Z</time></trkpt><trkpt lat="44.3221973" lon="7.5521958"><ele>604.0</ele><time>2026-03-28T12:57:23.292Z</time></trkpt><trkpt lat="44.3221145" lon="7.5522015"><ele>604.0</ele><time>2026-03-28T12:57:24.291Z</time></trkpt><trkpt lat="44.3220387" lon="7.5522239"><ele>604.0</ele><time>2026-03-28T12:57:25.291Z</time></trkpt><trkpt lat="44.3219605" lon="7.5522591"><ele>604.0</ele><time>2026-03-28T12:57:26.291Z</time></trkpt><trkpt lat="44.3218798" lon="7.5522918"><ele>605.5</ele><time>2026-03-28T12:57:27.291Z</time></trkpt><trkpt lat="44.3217945" lon="7.5523278"><ele>607.0</ele><time>2026-03-28T12:57:28.292Z</time></trkpt><trkpt lat="44.32171" lon="7.5523668"><ele>608.5</ele><time>2026-03-28T12:57:29.292Z</time></trkpt><trkpt lat="44.3216268" lon="7.5524043"><ele>610.0</ele><time>2026-03-28T12:57:30.291Z</time></trkpt><trkpt lat="44.3215403" lon="7.5524466"><ele>611.5</ele><time>2026-03-28T12:57:31.292Z</time></trkpt><trkpt lat="44.3214577" lon="7.5525027"><ele>613.0</ele><time>2026-03-28T12:57:32.291Z</time></trkpt><trkpt lat="44.321363" lon="7.552558"><ele>614.0</ele><time>2026-03-28T12:57:33.291Z</time></trkpt><trkpt lat="44.3212681" lon="7.5526156"><ele>615.0</ele><time>2026-03-28T12:57:34.292Z</time></trkpt><trkpt lat="44.321178" lon="7.552672"><ele>616.0</ele><time>2026-03-28T12:57:35.291Z</time></trkpt><trkpt lat="44.3210772" lon="7.5527214"><ele>617.0</ele><time>2026-03-28T12:57:36.291Z</time></trkpt><trkpt lat="44.3209771" lon="7.5527723"><ele>618.0</ele><time>2026-03-28T12:57:37.291Z</time></trkpt><trkpt lat="44.3208772" lon="7.5528275"><ele>618.0</ele><time>2026-03-28T12:57:38.291Z</time></trkpt><trkpt lat="44.3207746" lon="7.5528674"><ele>618.0</ele><time>2026-03-28T12:57:39.292Z</time></trkpt><trkpt lat="44.3206647" lon="7.5529174"><ele>618.0</ele><time>2026-03-28T12:57:40.291Z</time></trkpt><trkpt lat="44.3205493" lon="7.5529633"><ele>618.0</ele><time>2026-03-28T12:57:41.291Z</time></trkpt><trkpt lat="44.3204308" lon="7.5530147"><ele>620.8</ele><time>2026-03-28T12:57:42.292Z</time></trkpt><trkpt lat="44.3203184" lon="7.5530759"><ele>623.5999999999999</ele><time>2026-03-28T12:57:43.292Z</time></trkpt><trkpt lat="44.320219" lon="7.5531445"><ele>626.4000000000001</ele><time>2026-03-28T12:57:44.292Z</time></trkpt><trkpt lat="44.3201179" lon="7.5531906"><ele>629.2</ele><time>2026-03-28T12:57:45.292Z</time></trkpt><trkpt lat="44.320027" lon="7.5532517"><ele>632.0</ele><time>2026-03-28T12:57:46.291Z</time></trkpt><trkpt lat="44.319933" lon="7.5533237"><ele>632.0</ele><time>2026-03-28T12:57:47.291Z</time></trkpt><trkpt lat="44.3198305" lon="7.5534027"><ele>632.0</ele><time>2026-03-28T12:57:48.291Z</time></trkpt><trkpt lat="44.3197364" lon="7.5534732"><ele>632.0</ele><time>2026-03-28T12:57:49.291Z</time></trkpt><trkpt lat="44.3196319" lon="7.5535471"><ele>632.0</ele><time>2026-03-28T12:57:50.292Z</time></trkpt><trkpt lat="44.3195416" lon="7.5535954"><ele>632.0</ele><time>2026-03-28T12:57:51.292Z</time></trkpt><trkpt lat="44.3194643" lon="7.553644"><ele>634.0</ele><time>2026-03-28T12:57:52.291Z</time></trkpt><trkpt lat="44.3193888" lon="7.5537004"><ele>636.0</ele><time>2026-03-28T12:57:53.292Z</time></trkpt><trkpt lat="44.319328" lon="7.5537604"><ele>638.0</ele><time>2026-03-28T12:57:54.291Z</time></trkpt><trkpt lat="44.3192578" lon="7.5537915"><ele>640.0</ele><time>2026-03-28T12:57:55.291Z</time></trkpt><trkpt lat="44.3191816" lon="7.5538336"><ele>642.0</ele><time>2026-03-28T12:57:56.291Z</time></trkpt><trkpt lat="44.319117" lon="7.5539197"><ele>644.0</ele><time>2026-03-28T12:57:57.291Z</time></trkpt><trkpt lat="44.3190382" lon="7.5540001"><ele>644.0</ele><time>2026-03-28T12:57:58.291Z</time></trkpt><trkpt lat="44.3189282" lon="7.554087"><ele>644.0</ele><time>2026-03-28T12:57:59.291Z</time></trkpt><trkpt lat="44.3188117" lon="7.5541904"><ele>644.0</ele><time>2026-03-28T12:58:00.291Z</time></trkpt><trkpt lat="44.3187049" lon="7.5542862"><ele>644.0</ele><time>2026-03-28T12:58:01.292Z</time></trkpt><trkpt lat="44.3185919" lon="7.5543665"><ele>646.8000000000001</ele><time>2026-03-28T12:58:02.291Z</time></trkpt><trkpt lat="44.3184885" lon="7.5544384"><ele>649.6</ele><time>2026-03-28T12:58:03.292Z</time></trkpt><trkpt lat="44.3183826" lon="7.5544763"><ele>652.4</ele><time>2026-03-28T12:58:04.291Z</time></trkpt><trkpt lat="44.3182838" lon="7.5544807"><ele>655.2</ele><time>2026-03-28T12:58:05.291Z</time></trkpt><trkpt lat="44.3181859" lon="7.5544712"><ele>658.0</ele><time>2026-03-28T12:58:06.291Z</time></trkpt><trkpt lat="44.3180911" lon="7.5544875"><ele>659.6666666666667</ele><time>2026-03-28T12:58:07.292Z</time></trkpt><trkpt lat="44.3180126" lon="7.5545231"><ele>661.3333333333334</ele><time>2026-03-28T12:58:08.291Z</time></trkpt><trkpt lat="44.3179574" lon="7.5545721"><ele>663.0</ele><time>2026-03-28T12:58:09.291Z</time></trkpt><trkpt lat="44.3178967" lon="7.5546374"><ele>664.6666666666666</ele><time>2026-03-28T12:58:10.292Z</time></trkpt><trkpt lat="44.3178253" lon="7.5547393"><ele>666.3333333333333</ele><time>2026-03-28T12:58:11.291Z</time></trkpt><trkpt lat="44.3177448" lon="7.5548376"><ele>668.0</ele><time>2026-03-28T12:58:12.291Z</time></trkpt><trkpt lat="44.3176951" lon="7.554896"><ele>669.2</ele><time>2026-03-28T12:58:13.292Z</time></trkpt><trkpt lat="44.3176179" lon="7.5549816"><ele>670.4</ele><time>2026-03-28T12:58:14.291Z</time></trkpt><trkpt lat="44.3175435" lon="7.5550537"><ele>671.6</ele><time>2026-03-28T12:58:15.292Z</time></trkpt><trkpt lat="44.3174451" lon="7.5551534"><ele>672.8000000000001</ele><time>2026-03-28T12:58:17.292Z</time></trkpt><trkpt lat="44.3173688" lon="7.5551789"><ele>674.0</ele><time>2026-03-28T12:58:19.292Z</time></trkpt><trkpt lat="44.3173074" lon="7.5551555"><ele>674.0000000000001</ele><time>2026-03-28T12:58:28.292Z</time></trkpt><trkpt lat="44.3172456" lon="7.555119"><ele>674.0</ele><time>2026-03-28T12:58:31.303Z</time></trkpt><trkpt lat="44.3171654" lon="7.5551761"><ele>674.0</ele><time>2026-03-28T12:58:33.291Z</time></trkpt><trkpt lat="44.3170916" lon="7.5552025"><ele>674.0</ele><time>2026-03-28T12:58:34.292Z</time></trkpt><trkpt lat="44.3170372" lon="7.5552484"><ele>674.0</ele><time>2026-03-28T12:58:35.291Z</time></trkpt><trkpt lat="44.3169941" lon="7.5553148"><ele>674.0000000000001</ele><time>2026-03-28T12:58:36.292Z</time></trkpt><trkpt lat="44.316924" lon="7.5552859"><ele>674.0</ele><time>2026-03-28T12:59:13.291Z</time></trkpt><trkpt lat="44.3168427" lon="7.5552025"><ele>677.3333333333333</ele><time>2026-03-28T12:59:15.291Z</time></trkpt><trkpt lat="44.3167616" lon="7.5552018"><ele>680.6666666666666</ele><time>2026-03-28T12:59:17.291Z</time></trkpt><trkpt lat="44.316737" lon="7.5552894"><ele>684.0</ele><time>2026-03-28T12:59:36.291Z</time></trkpt><trkpt lat="44.3166645" lon="7.555345"><ele>687.3333333333334</ele><time>2026-03-28T12:59:56.291Z</time></trkpt><trkpt lat="44.3166194" lon="7.5554131"><ele>690.6666666666667</ele><time>2026-03-28T13:00:16.292Z</time></trkpt><trkpt lat="44.3165285" lon="7.5554823"><ele>694.0</ele><time>2026-03-28T13:00:19.292Z</time></trkpt><trkpt lat="44.316454" lon="7.555579"><ele>698.3333333333334</ele><time>2026-03-28T13:00:21.292Z</time></trkpt><trkpt lat="44.3163978" lon="7.5556337"><ele>702.6666666666667</ele><time>2026-03-28T13:00:22.291Z</time></trkpt><trkpt lat="44.3163359" lon="7.5557024"><ele>707.0</ele><time>2026-03-28T13:00:23.292Z</time></trkpt><trkpt lat="44.316259" lon="7.5557683"><ele>711.3333333333334</ele><time>2026-03-28T13:00:24.292Z</time></trkpt><trkpt lat="44.3161647" lon="7.5558089"><ele>715.6666666666666</ele><time>2026-03-28T13:00:25.291Z</time></trkpt><trkpt lat="44.3160644" lon="7.5558529"><ele>720.0</ele><time>2026-03-28T13:00:26.291Z</time></trkpt><trkpt lat="44.3159846" lon="7.5559053"><ele>720.0</ele><time>2026-03-28T13:00:27.291Z</time></trkpt><trkpt lat="44.3158985" lon="7.5559448"><ele>720.0</ele><time>2026-03-28T13:00:28.292Z</time></trkpt><trkpt lat="44.3158246" lon="7.5559602"><ele>720.0</ele><time>2026-03-28T13:00:29.292Z</time></trkpt><trkpt lat="44.3156923" lon="7.5559518"><ele>720.0</ele><time>2026-03-28T13:00:31.291Z</time></trkpt><trkpt lat="44.3155899" lon="7.5560156"><ele>720.0</ele><time>2026-03-28T13:00:33.291Z</time></trkpt><trkpt lat="44.3154935" lon="7.556031"><ele>721.8333333333334</ele><time>2026-03-28T13:00:35.291Z</time></trkpt><trkpt lat="44.3154262" lon="7.5560532"><ele>723.6666666666666</ele><time>2026-03-28T13:00:36.291Z</time></trkpt><trkpt lat="44.3153548" lon="7.5560919"><ele>725.5</ele><time>2026-03-28T13:00:37.292Z</time></trkpt><trkpt lat="44.3152872" lon="7.5561708"><ele>727.3333333333333</ele><time>2026-03-28T13:00:38.292Z</time></trkpt><trkpt lat="44.3152213" lon="7.5562582"><ele>729.1666666666666</ele><time>2026-03-28T13:00:39.291Z</time></trkpt><trkpt lat="44.315136" lon="7.5563415"><ele>731.0</ele><time>2026-03-28T13:00:40.291Z</time></trkpt><trkpt lat="44.3150704" lon="7.5564034"><ele>733.0</ele><time>2026-03-28T13:00:41.292Z</time></trkpt><trkpt lat="44.314999" lon="7.5564742"><ele>735.0</ele><time>2026-03-28T13:00:42.291Z</time></trkpt><trkpt lat="44.3148907" lon="7.5565171"><ele>737.0</ele><time>2026-03-28T13:00:43.291Z</time></trkpt><trkpt lat="44.3148133" lon="7.556545"><ele>739.0</ele><time>2026-03-28T13:00:44.291Z</time></trkpt><trkpt lat="44.3147299" lon="7.5566312"><ele>741.0</ele><time>2026-03-28T13:00:46.292Z</time></trkpt><trkpt lat="44.3147115" lon="7.5567599"><ele>743.8333333333334</ele><time>2026-03-28T13:00:48.292Z</time></trkpt><trkpt lat="44.3146465" lon="7.556772"><ele>746.6666666666666</ele><time>2026-03-28T13:00:49.292Z</time></trkpt><trkpt lat="44.3145434" lon="7.5567258"><ele>749.5</ele><time>2026-03-28T13:00:51.291Z</time></trkpt><trkpt lat="44.3144722" lon="7.5566844"><ele>752.3333333333333</ele><time>2026-03-28T13:00:52.291Z</time></trkpt><trkpt lat="44.3144125" lon="7.5566412"><ele>755.1666666666666</ele><time>2026-03-28T13:00:53.291Z</time></trkpt><trkpt lat="44.3142919" lon="7.5565999"><ele>758.0</ele><time>2026-03-28T13:00:55.291Z</time></trkpt><trkpt lat="44.3142126" lon="7.5565839"><ele>758.0</ele><time>2026-03-28T13:00:56.292Z</time></trkpt><trkpt lat="44.3141433" lon="7.5565751"><ele>758.0</ele><time>2026-03-28T13:00:57.292Z</time></trkpt><trkpt lat="44.3140661" lon="7.5565551"><ele>758.0</ele><time>2026-03-28T13:00:58.292Z</time></trkpt><trkpt lat="44.313993" lon="7.5565588"><ele>758.0</ele><time>2026-03-28T13:00:59.291Z</time></trkpt><trkpt lat="44.3139284" lon="7.5565715"><ele>758.0</ele><time>2026-03-28T13:01:00.292Z</time></trkpt><trkpt lat="44.3138193" lon="7.556547"><ele>758.0</ele><time>2026-03-28T13:01:02.291Z</time></trkpt><trkpt lat="44.3137284" lon="7.5564325"><ele>760.5</ele><time>2026-03-28T13:01:04.291Z</time></trkpt><trkpt lat="44.3136747" lon="7.5563749"><ele>763.0</ele><time>2026-03-28T13:01:05.291Z</time></trkpt><trkpt lat="44.3136122" lon="7.5563476"><ele>765.5</ele><time>2026-03-28T13:01:06.292Z</time></trkpt><trkpt lat="44.3135486" lon="7.5563119"><ele>768.0</ele><time>2026-03-28T13:01:07.291Z</time></trkpt><trkpt lat="44.3134746" lon="7.5562686"><ele>770.5000000000001</ele><time>2026-03-28T13:01:08.291Z</time></trkpt><trkpt lat="44.3134022" lon="7.5562068"><ele>773.0</ele><time>2026-03-28T13:01:09.291Z</time></trkpt><trkpt lat="44.3133093" lon="7.5561591"><ele>775.6666666666667</ele><time>2026-03-28T13:01:10.292Z</time></trkpt><trkpt lat="44.3131974" lon="7.5561494"><ele>778.3333333333334</ele><time>2026-03-28T13:01:11.291Z</time></trkpt><trkpt lat="44.3131132" lon="7.5561204"><ele>781.0</ele><time>2026-03-28T13:01:12.291Z</time></trkpt><trkpt lat="44.313028" lon="7.5560894"><ele>783.6666666666667</ele><time>2026-03-28T13:01:13.291Z</time></trkpt><trkpt lat="44.3129524" lon="7.5560427"><ele>786.3333333333334</ele><time>2026-03-28T13:01:14.292Z</time></trkpt><trkpt lat="44.312897" lon="7.5559937"><ele>789.0</ele><time>2026-03-28T13:01:15.292Z</time></trkpt><trkpt lat="44.3128371" lon="7.5559084"><ele>789.6</ele><time>2026-03-28T13:01:16.292Z</time></trkpt><trkpt lat="44.312788" lon="7.5558162"><ele>790.2</ele><time>2026-03-28T13:01:17.291Z</time></trkpt><trkpt lat="44.3127088" lon="7.5557498"><ele>790.8000000000001</ele><time>2026-03-28T13:01:18.292Z</time></trkpt><trkpt lat="44.3126231" lon="7.5556667"><ele>791.4000000000001</ele><time>2026-03-28T13:01:19.291Z</time></trkpt><trkpt lat="44.3125406" lon="7.5555755"><ele>792.0</ele><time>2026-03-28T13:01:20.292Z</time></trkpt><trkpt lat="44.3124519" lon="7.5554903"><ele>792.0</ele><time>2026-03-28T13:01:21.291Z</time></trkpt><trkpt lat="44.3123726" lon="7.5554482"><ele>792.0</ele><time>2026-03-28T13:01:22.292Z</time></trkpt><trkpt lat="44.3123041" lon="7.5553925"><ele>792.0</ele><time>2026-03-28T13:01:23.292Z</time></trkpt><trkpt lat="44.31221" lon="7.555296"><ele>792.0</ele><time>2026-03-28T13:01:25.291Z</time></trkpt><trkpt lat="44.3121689" lon="7.5552208"><ele>792.0</ele><time>2026-03-28T13:01:26.291Z</time></trkpt><trkpt lat="44.3121058" lon="7.5551632"><ele>792.0</ele><time>2026-03-28T13:01:27.291Z</time></trkpt><trkpt lat="44.3120157" lon="7.555084"><ele>796.5</ele><time>2026-03-28T13:01:28.291Z</time></trkpt><trkpt lat="44.3119264" lon="7.5549957"><ele>801.0</ele><time>2026-03-28T13:01:29.291Z</time></trkpt><trkpt lat="44.3118437" lon="7.5549144"><ele>805.5</ele><time>2026-03-28T13:01:30.291Z</time></trkpt><trkpt lat="44.311733" lon="7.5548024"><ele>810.0</ele><time>2026-03-28T13:01:31.291Z</time></trkpt><trkpt lat="44.3116297" lon="7.5547044"><ele>810.0</ele><time>2026-03-28T13:01:32.291Z</time></trkpt><trkpt lat="44.3115387" lon="7.5545957"><ele>810.0</ele><time>2026-03-28T13:01:33.291Z</time></trkpt><trkpt lat="44.3114542" lon="7.5544754"><ele>810.0</ele><time>2026-03-28T13:01:34.292Z</time></trkpt><trkpt lat="44.3113633" lon="7.5543541"><ele>810.0</ele><time>2026-03-28T13:01:35.291Z</time></trkpt><trkpt lat="44.3112714" lon="7.5542868"><ele>815.4</ele><time>2026-03-28T13:01:36.291Z</time></trkpt><trkpt lat="44.311185" lon="7.5542263"><ele>820.8</ele><time>2026-03-28T13:01:37.291Z</time></trkpt><trkpt lat="44.3111315" lon="7.5541422"><ele>826.2</ele><time>2026-03-28T13:01:38.292Z</time></trkpt><trkpt lat="44.3111036" lon="7.5540386"><ele>831.6</ele><time>2026-03-28T13:01:39.291Z</time></trkpt><trkpt lat="44.3110759" lon="7.5539172"><ele>837.0</ele><time>2026-03-28T13:01:40.291Z</time></trkpt><trkpt lat="44.3110343" lon="7.5537747"><ele>835.6</ele><time>2026-03-28T13:01:41.291Z</time></trkpt><trkpt lat="44.3109829" lon="7.5536665"><ele>834.2</ele><time>2026-03-28T13:01:42.291Z</time></trkpt><trkpt lat="44.3109239" lon="7.5535645"><ele>832.8</ele><time>2026-03-28T13:01:43.291Z</time></trkpt><trkpt lat="44.3108606" lon="7.5534821"><ele>831.4</ele><time>2026-03-28T13:01:44.292Z</time></trkpt><trkpt lat="44.3107891" lon="7.55339"><ele>830.0</ele><time>2026-03-28T13:01:45.291Z</time></trkpt><trkpt lat="44.3107288" lon="7.5533118"><ele>830.0000000000001</ele><time>2026-03-28T13:01:46.292Z</time></trkpt><trkpt lat="44.3106604" lon="7.5532693"><ele>830.0</ele><time>2026-03-28T13:01:47.291Z</time></trkpt><trkpt lat="44.3105807" lon="7.5532373"><ele>830.0</ele><time>2026-03-28T13:01:48.292Z</time></trkpt><trkpt lat="44.310501" lon="7.5531834"><ele>830.0</ele><time>2026-03-28T13:01:49.291Z</time></trkpt><trkpt lat="44.3104129" lon="7.5531212"><ele>830.0000000000001</ele><time>2026-03-28T13:01:50.291Z</time></trkpt><trkpt lat="44.3103221" lon="7.5530665"><ele>830.0</ele><time>2026-03-28T13:01:51.291Z</time></trkpt><trkpt lat="44.3102414" lon="7.5530415"><ele>834.1666666666667</ele><time>2026-03-28T13:01:52.291Z</time></trkpt><trkpt lat="44.310171" lon="7.553023"><ele>838.3333333333334</ele><time>2026-03-28T13:01:53.292Z</time></trkpt><trkpt lat="44.3101142" lon="7.5529839"><ele>842.5</ele><time>2026-03-28T13:01:56.292Z</time></trkpt><trkpt lat="44.3100999" lon="7.5528972"><ele>846.6666666666667</ele><time>2026-03-28T13:03:29.292Z</time></trkpt><trkpt lat="44.3101146" lon="7.5527271"><ele>850.8333333333334</ele><time>2026-03-28T13:03:31.291Z</time></trkpt><trkpt lat="44.3100687" lon="7.552613"><ele>855.0</ele><time>2026-03-28T13:03:32.291Z</time></trkpt><trkpt lat="44.3100239" lon="7.5525165"><ele>855.0</ele><time>2026-03-28T13:03:33.291Z</time></trkpt><trkpt lat="44.3099406" lon="7.5523914"><ele>855.0</ele><time>2026-03-28T13:03:35.291Z</time></trkpt><trkpt lat="44.3099094" lon="7.552252"><ele>855.0</ele><time>2026-03-28T13:03:37.291Z</time></trkpt><trkpt lat="44.3099125" lon="7.5521629"><ele>855.0</ele><time>2026-03-28T13:03:38.292Z</time></trkpt><trkpt lat="44.3099153" lon="7.5520583"><ele>855.0</ele><time>2026-03-28T13:03:39.291Z</time></trkpt><trkpt lat="44.3099084" lon="7.5519302"><ele>855.0</ele><time>2026-03-28T13:03:40.292Z</time></trkpt><trkpt lat="44.3098846" lon="7.5517662"><ele>855.0</ele><time>2026-03-28T13:03:41.291Z</time></trkpt><trkpt lat="44.3098719" lon="7.5516063"><ele>855.0</ele><time>2026-03-28T13:03:42.291Z</time></trkpt><trkpt lat="44.309849" lon="7.5514477"><ele>855.0</ele><time>2026-03-28T13:03:43.292Z</time></trkpt><trkpt lat="44.3098404" lon="7.5512963"><ele>855.8333333333334</ele><time>2026-03-28T13:03:44.292Z</time></trkpt><trkpt lat="44.3098489" lon="7.5511718"><ele>856.6666666666667</ele><time>2026-03-28T13:03:45.292Z</time></trkpt><trkpt lat="44.3098692" lon="7.5510731"><ele>857.5</ele><time>2026-03-28T13:03:46.291Z</time></trkpt><trkpt lat="44.309851" lon="7.5509041"><ele>858.3333333333334</ele><time>2026-03-28T13:03:48.291Z</time></trkpt><trkpt lat="44.3098317" lon="7.5508138"><ele>859.1666666666667</ele><time>2026-03-28T13:03:49.291Z</time></trkpt><trkpt lat="44.3097603" lon="7.5507752"><ele>860.0</ele><time>2026-03-28T13:03:52.292Z</time></trkpt><trkpt lat="44.3097569" lon="7.550931"><ele>860.0</ele><time>2026-03-28T13:03:54.291Z</time></trkpt><trkpt lat="44.3097594" lon="7.5510321"><ele>860.0</ele><time>2026-03-28T13:03:55.292Z</time></trkpt><trkpt lat="44.3097274" lon="7.5512036"><ele>860.0</ele><time>2026-03-28T13:03:57.291Z</time></trkpt><trkpt lat="44.3096808" lon="7.5513048"><ele>860.0</ele><time>2026-03-28T13:03:58.292Z</time></trkpt><trkpt lat="44.309632" lon="7.5514415"><ele>860.0</ele><time>2026-03-28T13:03:59.291Z</time></trkpt><trkpt lat="44.3095928" lon="7.5515561"><ele>867.0</ele><time>2026-03-28T13:04:00.291Z</time></trkpt><trkpt lat="44.3095696" lon="7.5516483"><ele>874.0</ele><time>2026-03-28T13:04:01.291Z</time></trkpt><trkpt lat="44.3095393" lon="7.5518191"><ele>881.0</ele><time>2026-03-28T13:04:03.292Z</time></trkpt><trkpt lat="44.3095133" lon="7.5519562"><ele>888.0</ele><time>2026-03-28T13:04:04.292Z</time></trkpt><trkpt lat="44.3094822" lon="7.5520864"><ele>895.0</ele><time>2026-03-28T13:04:05.292Z</time></trkpt><trkpt lat="44.3094502" lon="7.5521909"><ele>894.9999999999999</ele><time>2026-03-28T13:04:06.291Z</time></trkpt><trkpt lat="44.3094213" lon="7.5522785"><ele>895.0</ele><time>2026-03-28T13:04:07.291Z</time></trkpt><trkpt lat="44.3093721" lon="7.5523664"><ele>895.0</ele><time>2026-03-28T13:04:08.291Z</time></trkpt><trkpt lat="44.3093228" lon="7.5524377"><ele>895.0</ele><time>2026-03-28T13:04:09.292Z</time></trkpt><trkpt lat="44.3092831" lon="7.5525291"><ele>894.9999999999999</ele><time>2026-03-28T13:04:10.292Z</time></trkpt><trkpt lat="44.3092468" lon="7.5526999"><ele>895.0</ele><time>2026-03-28T13:04:12.291Z</time></trkpt><trkpt lat="44.3092301" lon="7.5527994"><ele>893.8</ele><time>2026-03-28T13:04:13.292Z</time></trkpt><trkpt lat="44.3092081" lon="7.5529019"><ele>892.6</ele><time>2026-03-28T13:04:14.291Z</time></trkpt><trkpt lat="44.3091645" lon="7.553042"><ele>891.4000000000001</ele><time>2026-03-28T13:04:16.291Z</time></trkpt><trkpt lat="44.309087" lon="7.5531375"><ele>890.2</ele><time>2026-03-28T13:04:18.292Z</time></trkpt><trkpt lat="44.3090123" lon="7.5531144"><ele>889.0</ele><time>2026-03-28T13:04:20.292Z</time></trkpt><trkpt lat="44.3089895" lon="7.5529885"><ele>889.0</ele><time>2026-03-28T13:04:22.291Z</time></trkpt><trkpt lat="44.3089546" lon="7.5528764"><ele>889.0000000000001</ele><time>2026-03-28T13:04:24.291Z</time></trkpt><trkpt lat="44.30889" lon="7.5527872"><ele>889.0000000000001</ele><time>2026-03-28T13:09:14.291Z</time></trkpt><trkpt lat="44.3088243" lon="7.5526864"><ele>889.0</ele><time>2026-03-28T13:09:15.291Z</time></trkpt><trkpt lat="44.3087498" lon="7.5526044"><ele>889.0</ele><time>2026-03-28T13:09:16.292Z</time></trkpt><trkpt lat="44.3086651" lon="7.5525407"><ele>891.8333333333333</ele><time>2026-03-28T13:09:17.291Z</time></trkpt><trkpt lat="44.3085741" lon="7.5524971"><ele>894.6666666666666</ele><time>2026-03-28T13:09:18.291Z</time></trkpt><trkpt lat="44.3084835" lon="7.5524636"><ele>897.5</ele><time>2026-03-28T13:09:19.292Z</time></trkpt><trkpt lat="44.3084007" lon="7.552443"><ele>900.3333333333333</ele><time>2026-03-28T13:09:20.292Z</time></trkpt><trkpt lat="44.3083149" lon="7.5524226"><ele>903.1666666666666</ele><time>2026-03-28T13:09:21.292Z</time></trkpt><trkpt lat="44.3082285" lon="7.5524067"><ele>906.0</ele><time>2026-03-28T13:09:22.291Z</time></trkpt><trkpt lat="44.3081446" lon="7.5523865"><ele>906.0</ele><time>2026-03-28T13:09:23.292Z</time></trkpt><trkpt lat="44.308093" lon="7.5522897"><ele>905.9999999999999</ele><time>2026-03-28T13:09:25.291Z</time></trkpt><trkpt lat="44.308072" lon="7.5521726"><ele>905.9999999999999</ele><time>2026-03-28T13:09:26.292Z</time></trkpt><trkpt lat="44.3080599" lon="7.5520485"><ele>906.0</ele><time>2026-03-28T13:09:27.291Z</time></trkpt><trkpt lat="44.3080512" lon="7.5518992"><ele>906.0</ele><time>2026-03-28T13:09:28.292Z</time></trkpt><trkpt lat="44.3080485" lon="7.5517681"><ele>905.8333333333334</ele><time>2026-03-28T13:09:29.292Z</time></trkpt><trkpt lat="44.3080228" lon="7.5516738"><ele>905.6666666666667</ele><time>2026-03-28T13:09:30.292Z</time></trkpt><trkpt lat="44.3079907" lon="7.5515707"><ele>905.5</ele><time>2026-03-28T13:09:31.292Z</time></trkpt><trkpt lat="44.3079583" lon="7.5514662"><ele>905.3333333333334</ele><time>2026-03-28T13:09:32.291Z</time></trkpt><trkpt lat="44.3079071" lon="7.5513797"><ele>905.1666666666667</ele><time>2026-03-28T13:09:33.292Z</time></trkpt><trkpt lat="44.3078395" lon="7.551326"><ele>905.0</ele><time>2026-03-28T13:09:34.292Z</time></trkpt><trkpt lat="44.3077794" lon="7.5512678"><ele>912.2</ele><time>2026-03-28T13:09:35.291Z</time></trkpt><trkpt lat="44.307711" lon="7.5511869"><ele>919.4</ele><time>2026-03-28T13:09:36.292Z</time></trkpt><trkpt lat="44.307635" lon="7.5510913"><ele>926.5999999999999</ele><time>2026-03-28T13:09:37.291Z</time></trkpt><trkpt lat="44.3075615" lon="7.5509917"><ele>933.8</ele><time>2026-03-28T13:09:38.292Z</time></trkpt><trkpt lat="44.3074858" lon="7.5509222"><ele>941.0</ele><time>2026-03-28T13:09:39.291Z</time></trkpt><trkpt lat="44.3074171" lon="7.5508679"><ele>941.0000000000001</ele><time>2026-03-28T13:09:40.292Z</time></trkpt><trkpt lat="44.3073467" lon="7.5508287"><ele>941.0</ele><time>2026-03-28T13:09:41.291Z</time></trkpt><trkpt lat="44.3072818" lon="7.5508028"><ele>941.0</ele><time>2026-03-28T13:09:42.292Z</time></trkpt><trkpt lat="44.3071881" lon="7.5507063"><ele>941.0</ele><time>2026-03-28T13:09:44.292Z</time></trkpt><trkpt lat="44.307126" lon="7.5506505"><ele>941.0000000000001</ele><time>2026-03-28T13:09:45.291Z</time></trkpt><trkpt lat="44.3070469" lon="7.5506076"><ele>941.0</ele><time>2026-03-28T13:09:46.292Z</time></trkpt><trkpt lat="44.3069533" lon="7.5505678"><ele>940.142857142857</ele><time>2026-03-28T13:09:47.291Z</time></trkpt><trkpt lat="44.3068687" lon="7.5505506"><ele>939.2857142857142</ele><time>2026-03-28T13:09:48.291Z</time></trkpt><trkpt lat="44.3067939" lon="7.5505227"><ele>938.4285714285714</ele><time>2026-03-28T13:09:49.291Z</time></trkpt><trkpt lat="44.3067252" lon="7.5505054"><ele>937.5714285714286</ele><time>2026-03-28T13:09:50.291Z</time></trkpt><trkpt lat="44.3066578" lon="7.5504919"><ele>936.7142857142858</ele><time>2026-03-28T13:09:53.292Z</time></trkpt><trkpt lat="44.3065951" lon="7.5505234"><ele>935.857142857143</ele><time>2026-03-28T13:10:08.291Z</time></trkpt><trkpt lat="44.3065221" lon="7.5504723"><ele>935.0000000000001</ele><time>2026-03-28T13:16:07.292Z</time></trkpt><trkpt lat="44.3064585" lon="7.550446"><ele>937.1666666666667</ele><time>2026-03-28T13:16:25.292Z</time></trkpt><trkpt lat="44.3063596" lon="7.550438"><ele>939.3333333333334</ele><time>2026-03-28T13:17:57.291Z</time></trkpt><trkpt lat="44.3062617" lon="7.5504181"><ele>941.5</ele><time>2026-03-28T13:18:01.291Z</time></trkpt><trkpt lat="44.3061949" lon="7.5504531"><ele>943.6666666666667</ele><time>2026-03-28T13:18:03.292Z</time></trkpt><trkpt lat="44.3061345" lon="7.5504993"><ele>945.8333333333334</ele><time>2026-03-28T13:18:05.292Z</time></trkpt><trkpt lat="44.3060673" lon="7.5504858"><ele>948.0</ele><time>2026-03-28T13:18:07.291Z</time></trkpt><trkpt lat="44.3059429" lon="7.5504246"><ele>948.0</ele><time>2026-03-28T13:18:10.291Z</time></trkpt><trkpt lat="44.3058734" lon="7.5503637"><ele>948.0</ele><time>2026-03-28T13:18:11.291Z</time></trkpt><trkpt lat="44.3057878" lon="7.5502985"><ele>948.0</ele><time>2026-03-28T13:18:13.291Z</time></trkpt><trkpt lat="44.3057305" lon="7.5502545"><ele>948.0</ele><time>2026-03-28T13:18:19.292Z</time></trkpt><trkpt lat="44.3057635" lon="7.5503536"><ele>948.0</ele><time>2026-03-28T13:19:15.291Z</time></trkpt><trkpt lat="44.3058519" lon="7.5504317"><ele>948.0</ele><time>2026-03-28T13:19:18.291Z</time></trkpt><trkpt lat="44.3059485" lon="7.5505036"><ele>948.0</ele><time>2026-03-28T13:19:20.292Z</time></trkpt><trkpt lat="44.3060238" lon="7.5505473"><ele>948.0</ele><time>2026-03-28T13:19:21.291Z</time></trkpt><trkpt lat="44.3060988" lon="7.5505868"><ele>948.0</ele><time>2026-03-28T13:19:22.291Z</time></trkpt><trkpt lat="44.3061847" lon="7.550577"><ele>948.0</ele><time>2026-03-28T13:19:24.292Z</time></trkpt><trkpt lat="44.3062573" lon="7.5505019"><ele>948.0</ele><time>2026-03-28T13:19:26.292Z</time></trkpt><trkpt lat="44.3063529" lon="7.5504479"><ele>948.0</ele><time>2026-03-28T13:19:28.291Z</time></trkpt><trkpt lat="44.3064175" lon="7.5504567"><ele>946.142857142857</ele><time>2026-03-28T13:19:30.291Z</time></trkpt><trkpt lat="44.306477" lon="7.5504963"><ele>944.2857142857142</ele><time>2026-03-28T13:19:34.292Z</time></trkpt><trkpt lat="44.306558" lon="7.5505143"><ele>942.4285714285714</ele><time>2026-03-28T13:21:17.291Z</time></trkpt><trkpt lat="44.306619" lon="7.5505468"><ele>940.5714285714286</ele><time>2026-03-28T13:22:17.292Z</time></trkpt><trkpt lat="44.3066875" lon="7.5505719"><ele>938.7142857142858</ele><time>2026-03-28T13:22:22.291Z</time></trkpt><trkpt lat="44.3067443" lon="7.5506138"><ele>936.857142857143</ele><time>2026-03-28T13:22:25.291Z</time></trkpt><trkpt lat="44.306803" lon="7.5506566"><ele>935.0000000000001</ele><time>2026-03-28T13:22:26.291Z</time></trkpt><trkpt lat="44.3068735" lon="7.5506904"><ele>935.0000000000001</ele><time>2026-03-28T13:22:27.292Z</time></trkpt><trkpt lat="44.30695" lon="7.5507209"><ele>935.0</ele><time>2026-03-28T13:22:28.291Z</time></trkpt><trkpt lat="44.3070226" lon="7.5507531"><ele>935.0</ele><time>2026-03-28T13:22:29.291Z</time></trkpt><trkpt lat="44.3070942" lon="7.5507918"><ele>935.0</ele><time>2026-03-28T13:22:30.292Z</time></trkpt><trkpt lat="44.3071727" lon="7.5508404"><ele>935.0000000000001</ele><time>2026-03-28T13:22:31.291Z</time></trkpt><trkpt lat="44.3072517" lon="7.5508838"><ele>935.0</ele><time>2026-03-28T13:22:32.292Z</time></trkpt><trkpt lat="44.3073291" lon="7.5509262"><ele>936.2</ele><time>2026-03-28T13:22:33.291Z</time></trkpt><trkpt lat="44.3073999" lon="7.5509531"><ele>937.4</ele><time>2026-03-28T13:22:34.292Z</time></trkpt><trkpt lat="44.3074803" lon="7.5510096"><ele>938.5999999999999</ele><time>2026-03-28T13:22:35.291Z</time></trkpt><trkpt lat="44.3075621" lon="7.5510948"><ele>939.8</ele><time>2026-03-28T13:22:36.292Z</time></trkpt><trkpt lat="44.3076465" lon="7.5512099"><ele>941.0</ele><time>2026-03-28T13:22:37.291Z</time></trkpt><trkpt lat="44.3077245" lon="7.5513003"><ele>933.8</ele><time>2026-03-28T13:22:38.291Z</time></trkpt><trkpt lat="44.3078034" lon="7.5513748"><ele>926.5999999999999</ele><time>2026-03-28T13:22:39.291Z</time></trkpt><trkpt lat="44.3078893" lon="7.5514391"><ele>919.4</ele><time>2026-03-28T13:22:40.291Z</time></trkpt><trkpt lat="44.3079479" lon="7.5515575"><ele>912.2</ele><time>2026-03-28T13:22:41.292Z</time></trkpt><trkpt lat="44.3079914" lon="7.551687"><ele>905.0</ele><time>2026-03-28T13:22:42.292Z</time></trkpt><trkpt lat="44.3080273" lon="7.5518022"><ele>905.0</ele><time>2026-03-28T13:22:43.291Z</time></trkpt><trkpt lat="44.3080258" lon="7.5519403"><ele>905.0</ele><time>2026-03-28T13:22:44.291Z</time></trkpt><trkpt lat="44.3080193" lon="7.5520695"><ele>905.0</ele><time>2026-03-28T13:22:45.292Z</time></trkpt><trkpt lat="44.3080282" lon="7.5521901"><ele>905.0</ele><time>2026-03-28T13:22:46.292Z</time></trkpt><trkpt lat="44.308044" lon="7.5522904"><ele>905.0</ele><time>2026-03-28T13:22:47.291Z</time></trkpt><trkpt lat="44.3081174" lon="7.552417"><ele>905.2</ele><time>2026-03-28T13:22:49.292Z</time></trkpt><trkpt lat="44.308211" lon="7.5524406"><ele>905.4</ele><time>2026-03-28T13:22:50.292Z</time></trkpt><trkpt lat="44.3083031" lon="7.5524665"><ele>905.5999999999999</ele><time>2026-03-28T13:22:51.291Z</time></trkpt><trkpt lat="44.3084204" lon="7.5524779"><ele>905.8</ele><time>2026-03-28T13:22:52.291Z</time></trkpt><trkpt lat="44.3085187" lon="7.5525159"><ele>906.0</ele><time>2026-03-28T13:22:53.292Z</time></trkpt><trkpt lat="44.3086229" lon="7.5525545"><ele>906.0</ele><time>2026-03-28T13:22:54.292Z</time></trkpt><trkpt lat="44.3087316" lon="7.5526036"><ele>905.9999999999999</ele><time>2026-03-28T13:22:55.291Z</time></trkpt><trkpt lat="44.3088306" lon="7.5526846"><ele>905.9999999999999</ele><time>2026-03-28T13:22:56.291Z</time></trkpt><trkpt lat="44.3089209" lon="7.5527624"><ele>906.0</ele><time>2026-03-28T13:22:57.292Z</time></trkpt><trkpt lat="44.3089617" lon="7.5528783"><ele>906.0</ele><time>2026-03-28T13:22:59.291Z</time></trkpt><trkpt lat="44.3090187" lon="7.5529651"><ele>902.5999999999999</ele><time>2026-03-28T13:23:12.292Z</time></trkpt><trkpt lat="44.3090588" lon="7.5531364"><ele>899.1999999999999</ele><time>2026-03-28T13:23:14.291Z</time></trkpt><trkpt lat="44.3091266" lon="7.5531741"><ele>895.8000000000001</ele><time>2026-03-28T13:23:16.292Z</time></trkpt><trkpt lat="44.3091929" lon="7.5531607"><ele>892.4000000000001</ele><time>2026-03-28T13:23:18.291Z</time></trkpt><trkpt lat="44.3092569" lon="7.5531743"><ele>889.0</ele><time>2026-03-28T13:23:20.291Z</time></trkpt><trkpt lat="44.3093389" lon="7.5532916"><ele>888.9999999999999</ele><time>2026-03-28T13:23:22.292Z</time></trkpt><trkpt lat="44.3093885" lon="7.553463"><ele>889.0</ele><time>2026-03-28T13:23:24.292Z</time></trkpt><trkpt lat="44.3094469" lon="7.553532"><ele>889.0</ele><time>2026-03-28T13:23:26.292Z</time></trkpt><trkpt lat="44.3095067" lon="7.5535695"><ele>889.0</ele><time>2026-03-28T13:23:29.291Z</time></trkpt><trkpt lat="44.3095931" lon="7.5536248"><ele>888.9999999999999</ele><time>2026-03-28T13:23:31.292Z</time></trkpt><trkpt lat="44.3096704" lon="7.5536411"><ele>889.0</ele><time>2026-03-28T13:23:33.292Z</time></trkpt><trkpt lat="44.3097469" lon="7.5535567"><ele>884.0</ele><time>2026-03-28T13:23:35.291Z</time></trkpt><trkpt lat="44.3097873" lon="7.5534094"><ele>879.0000000000001</ele><time>2026-03-28T13:23:37.292Z</time></trkpt><trkpt lat="44.309865" lon="7.5533277"><ele>874.0000000000001</ele><time>2026-03-28T13:23:39.291Z</time></trkpt><trkpt lat="44.3099387" lon="7.5533492"><ele>869.0</ele><time>2026-03-28T13:23:41.292Z</time></trkpt><trkpt lat="44.3099854" lon="7.5535072"><ele>864.0</ele><time>2026-03-28T13:23:43.291Z</time></trkpt><trkpt lat="44.3100112" lon="7.5535915"><ele>864.0</ele><time>2026-03-28T13:23:44.291Z</time></trkpt><trkpt lat="44.310046" lon="7.553672"><ele>864.0</ele><time>2026-03-28T13:23:45.291Z</time></trkpt><trkpt lat="44.3101649" lon="7.5537004"><ele>864.0</ele><time>2026-03-28T13:23:47.292Z</time></trkpt><trkpt lat="44.3102445" lon="7.5536792"><ele>864.0</ele><time>2026-03-28T13:23:48.291Z</time></trkpt><trkpt lat="44.3103224" lon="7.5536474"><ele>864.0</ele><time>2026-03-28T13:23:49.292Z</time></trkpt><trkpt lat="44.3103949" lon="7.5536189"><ele>864.0</ele><time>2026-03-28T13:23:50.291Z</time></trkpt><trkpt lat="44.3105122" lon="7.5535838"><ele>858.6</ele><time>2026-03-28T13:23:52.291Z</time></trkpt><trkpt lat="44.3105768" lon="7.5536264"><ele>853.2</ele><time>2026-03-28T13:23:54.292Z</time></trkpt><trkpt lat="44.3106762" lon="7.5536937"><ele>847.8000000000001</ele><time>2026-03-28T13:23:56.291Z</time></trkpt><trkpt lat="44.3107703" lon="7.5537606"><ele>842.4000000000001</ele><time>2026-03-28T13:23:58.292Z</time></trkpt><trkpt lat="44.3108834" lon="7.5538457"><ele>837.0</ele><time>2026-03-28T13:24:00.292Z</time></trkpt><trkpt lat="44.3109839" lon="7.5538889"><ele>837.0</ele><time>2026-03-28T13:24:01.292Z</time></trkpt><trkpt lat="44.3110654" lon="7.553945"><ele>837.0</ele><time>2026-03-28T13:24:02.292Z</time></trkpt><trkpt lat="44.3111399" lon="7.5540008"><ele>837.0</ele><time>2026-03-28T13:24:03.292Z</time></trkpt><trkpt lat="44.3112307" lon="7.5541601"><ele>837.0</ele><time>2026-03-28T13:24:06.292Z</time></trkpt><trkpt lat="44.3112879" lon="7.5542185"><ele>837.0</ele><time>2026-03-28T13:24:07.291Z</time></trkpt><trkpt lat="44.3113574" lon="7.5542822"><ele>831.6</ele><time>2026-03-28T13:24:08.292Z</time></trkpt><trkpt lat="44.3114346" lon="7.554342"><ele>826.2</ele><time>2026-03-28T13:24:09.291Z</time></trkpt><trkpt lat="44.3115097" lon="7.5544191"><ele>820.8</ele><time>2026-03-28T13:24:10.292Z</time></trkpt><trkpt lat="44.3115865" lon="7.5544944"><ele>815.4</ele><time>2026-03-28T13:24:11.291Z</time></trkpt><trkpt lat="44.3116516" lon="7.5545884"><ele>810.0</ele><time>2026-03-28T13:24:12.292Z</time></trkpt><trkpt lat="44.31172" lon="7.5546781"><ele>810.0</ele><time>2026-03-28T13:24:13.291Z</time></trkpt><trkpt lat="44.3118061" lon="7.5547556"><ele>810.0</ele><time>2026-03-28T13:24:14.291Z</time></trkpt><trkpt lat="44.3118834" lon="7.5548436"><ele>810.0</ele><time>2026-03-28T13:24:15.292Z</time></trkpt><trkpt lat="44.3119475" lon="7.5549277"><ele>810.0</ele><time>2026-03-28T13:24:16.292Z</time></trkpt><trkpt lat="44.3120223" lon="7.5550137"><ele>810.0</ele><time>2026-03-28T13:24:17.291Z</time></trkpt><trkpt lat="44.3120959" lon="7.555098"><ele>810.0</ele><time>2026-03-28T13:24:18.292Z</time></trkpt><trkpt lat="44.3121687" lon="7.5551836"><ele>810.0</ele><time>2026-03-28T13:24:19.292Z</time></trkpt><trkpt lat="44.3122248" lon="7.5552701"><ele>810.0</ele><time>2026-03-28T13:24:20.291Z</time></trkpt><trkpt lat="44.3123166" lon="7.5553444"><ele>810.0</ele><time>2026-03-28T13:24:21.291Z</time></trkpt><trkpt lat="44.3124009" lon="7.5554194"><ele>810.0</ele><time>2026-03-28T13:24:22.291Z</time></trkpt><trkpt lat="44.3124896" lon="7.5555"><ele>806.4</ele><time>2026-03-28T13:24:23.291Z</time></trkpt><trkpt lat="44.3125788" lon="7.5555822"><ele>802.8</ele><time>2026-03-28T13:24:24.291Z</time></trkpt><trkpt lat="44.312665" lon="7.5556739"><ele>799.2</ele><time>2026-03-28T13:24:25.292Z</time></trkpt><trkpt lat="44.3127518" lon="7.5557712"><ele>795.6</ele><time>2026-03-28T13:24:26.291Z</time></trkpt><trkpt lat="44.3128197" lon="7.5558753"><ele>792.0</ele><time>2026-03-28T13:24:27.291Z</time></trkpt><trkpt lat="44.3128693" lon="7.5559724"><ele>792.0</ele><time>2026-03-28T13:24:28.292Z</time></trkpt><trkpt lat="44.3129236" lon="7.5560259"><ele>792.0</ele><time>2026-03-28T13:24:29.291Z</time></trkpt><trkpt lat="44.312991" lon="7.5560467"><ele>792.0</ele><time>2026-03-28T13:24:30.292Z</time></trkpt><trkpt lat="44.3130743" lon="7.5560743"><ele>792.0</ele><time>2026-03-28T13:24:31.291Z</time></trkpt><trkpt lat="44.3131435" lon="7.5560937"><ele>792.0</ele><time>2026-03-28T13:24:32.292Z</time></trkpt><trkpt lat="44.3132405" lon="7.5561158"><ele>792.0</ele><time>2026-03-28T13:24:33.291Z</time></trkpt><trkpt lat="44.3133443" lon="7.5561516"><ele>791.5714285714286</ele><time>2026-03-28T13:24:34.292Z</time></trkpt><trkpt lat="44.3134237" lon="7.5561739"><ele>791.1428571428571</ele><time>2026-03-28T13:24:35.292Z</time></trkpt><trkpt lat="44.3134811" lon="7.5562114"><ele>790.7142857142857</ele><time>2026-03-28T13:24:36.292Z</time></trkpt><trkpt lat="44.3135463" lon="7.5562376"><ele>790.2857142857142</ele><time>2026-03-28T13:24:37.291Z</time></trkpt><trkpt lat="44.3136168" lon="7.5562661"><ele>789.8571428571429</ele><time>2026-03-28T13:24:38.291Z</time></trkpt><trkpt lat="44.3136978" lon="7.5563164"><ele>789.4285714285713</ele><time>2026-03-28T13:24:39.291Z</time></trkpt><trkpt lat="44.3137641" lon="7.5563611"><ele>789.0</ele><time>2026-03-28T13:24:40.291Z</time></trkpt><trkpt lat="44.313823" lon="7.5564362"><ele>785.8000000000001</ele><time>2026-03-28T13:24:41.292Z</time></trkpt><trkpt lat="44.3138847" lon="7.5565011"><ele>782.6</ele><time>2026-03-28T13:24:42.292Z</time></trkpt><trkpt lat="44.3140097" lon="7.5565424"><ele>779.4</ele><time>2026-03-28T13:24:44.292Z</time></trkpt><trkpt lat="44.3140995" lon="7.5565105"><ele>776.2</ele><time>2026-03-28T13:24:45.292Z</time></trkpt><trkpt lat="44.3141824" lon="7.5564891"><ele>773.0</ele><time>2026-03-28T13:24:46.292Z</time></trkpt><trkpt lat="44.3142629" lon="7.5565072"><ele>770.8571428571429</ele><time>2026-03-28T13:24:47.291Z</time></trkpt><trkpt lat="44.3143305" lon="7.556552"><ele>768.7142857142857</ele><time>2026-03-28T13:24:48.291Z</time></trkpt><trkpt lat="44.3144024" lon="7.5565836"><ele>766.5714285714287</ele><time>2026-03-28T13:24:49.292Z</time></trkpt><trkpt lat="44.314477" lon="7.5566129"><ele>764.4285714285714</ele><time>2026-03-28T13:24:50.292Z</time></trkpt><trkpt lat="44.3145444" lon="7.5566581"><ele>762.2857142857143</ele><time>2026-03-28T13:24:51.291Z</time></trkpt><trkpt lat="44.314612" lon="7.5567019"><ele>760.1428571428572</ele><time>2026-03-28T13:24:52.292Z</time></trkpt><trkpt lat="44.3146742" lon="7.5567304"><ele>758.0</ele><time>2026-03-28T13:24:53.291Z</time></trkpt><trkpt lat="44.3147495" lon="7.5568218"><ele>754.5999999999999</ele><time>2026-03-28T13:24:55.291Z</time></trkpt><trkpt lat="44.3148106" lon="7.556735"><ele>751.1999999999999</ele><time>2026-03-28T13:24:57.291Z</time></trkpt><trkpt lat="44.314794" lon="7.5565936"><ele>747.8</ele><time>2026-03-28T13:24:59.291Z</time></trkpt><trkpt lat="44.3148443" lon="7.5565031"><ele>744.4</ele><time>2026-03-28T13:25:01.292Z</time></trkpt><trkpt lat="44.3149695" lon="7.5564276"><ele>741.0</ele><time>2026-03-28T13:25:03.291Z</time></trkpt><trkpt lat="44.3150306" lon="7.5563845"><ele>741.0</ele><time>2026-03-28T13:25:04.292Z</time></trkpt><trkpt lat="44.3151045" lon="7.5563332"><ele>741.0</ele><time>2026-03-28T13:25:05.291Z</time></trkpt><trkpt lat="44.3151766" lon="7.5562824"><ele>741.0</ele><time>2026-03-28T13:25:06.291Z</time></trkpt><trkpt lat="44.3152407" lon="7.5562286"><ele>741.0</ele><time>2026-03-28T13:25:07.291Z</time></trkpt><trkpt lat="44.315292" lon="7.5561574"><ele>741.0</ele><time>2026-03-28T13:25:08.291Z</time></trkpt><trkpt lat="44.3153339" lon="7.5560875"><ele>741.0</ele><time>2026-03-28T13:25:09.292Z</time></trkpt><trkpt lat="44.3154152" lon="7.5560229"><ele>739.3333333333334</ele><time>2026-03-28T13:25:11.291Z</time></trkpt><trkpt lat="44.3155126" lon="7.556"><ele>737.6666666666666</ele><time>2026-03-28T13:25:13.291Z</time></trkpt><trkpt lat="44.3155845" lon="7.5559625"><ele>736.0</ele><time>2026-03-28T13:25:14.291Z</time></trkpt><trkpt lat="44.3156429" lon="7.5559245"><ele>734.3333333333333</ele><time>2026-03-28T13:25:15.291Z</time></trkpt><trkpt lat="44.3157208" lon="7.5559456"><ele>732.6666666666666</ele><time>2026-03-28T13:25:16.291Z</time></trkpt><trkpt lat="44.315793" lon="7.5559744"><ele>731.0</ele><time>2026-03-28T13:25:17.291Z</time></trkpt><trkpt lat="44.3158866" lon="7.5560108"><ele>729.1666666666666</ele><time>2026-03-28T13:25:18.292Z</time></trkpt><trkpt lat="44.3159577" lon="7.5559923"><ele>727.3333333333333</ele><time>2026-03-28T13:25:19.292Z</time></trkpt><trkpt lat="44.3160453" lon="7.5559345"><ele>725.5</ele><time>2026-03-28T13:25:20.291Z</time></trkpt><trkpt lat="44.3161254" lon="7.5558536"><ele>723.6666666666666</ele><time>2026-03-28T13:25:21.291Z</time></trkpt><trkpt lat="44.3161953" lon="7.5558"><ele>721.8333333333334</ele><time>2026-03-28T13:25:22.292Z</time></trkpt><trkpt lat="44.3162747" lon="7.5557525"><ele>720.0</ele><time>2026-03-28T13:25:23.292Z</time></trkpt><trkpt lat="44.316356" lon="7.5556998"><ele>716.5</ele><time>2026-03-28T13:25:24.292Z</time></trkpt><trkpt lat="44.3164237" lon="7.5556397"><ele>713.0</ele><time>2026-03-28T13:25:25.292Z</time></trkpt><trkpt lat="44.3164482" lon="7.5555369"><ele>709.5</ele><time>2026-03-28T13:25:27.292Z</time></trkpt><trkpt lat="44.3165277" lon="7.5554509"><ele>706.0</ele><time>2026-03-28T13:25:29.291Z</time></trkpt><trkpt lat="44.316596" lon="7.555388"><ele>702.5</ele><time>2026-03-28T13:25:31.291Z</time></trkpt><trkpt lat="44.3166718" lon="7.5553525"><ele>699.0</ele><time>2026-03-28T13:25:33.291Z</time></trkpt><trkpt lat="44.3167179" lon="7.5552906"><ele>698.1666666666666</ele><time>2026-03-28T13:25:36.292Z</time></trkpt><trkpt lat="44.3167679" lon="7.5552294"><ele>697.3333333333334</ele><time>2026-03-28T13:25:43.292Z</time></trkpt><trkpt lat="44.3168244" lon="7.5551628"><ele>696.5</ele><time>2026-03-28T13:25:47.291Z</time></trkpt><trkpt lat="44.3169109" lon="7.5552439"><ele>695.6666666666667</ele><time>2026-03-28T13:25:49.291Z</time></trkpt><trkpt lat="44.3169714" lon="7.5552869"><ele>694.8333333333334</ele><time>2026-03-28T13:25:51.292Z</time></trkpt><trkpt lat="44.3170634" lon="7.5551999"><ele>694.0</ele><time>2026-03-28T13:25:54.292Z</time></trkpt><trkpt lat="44.317153" lon="7.5551564"><ele>690.0</ele><time>2026-03-28T13:25:56.291Z</time></trkpt><trkpt lat="44.3172482" lon="7.5552032"><ele>686.0</ele><time>2026-03-28T13:25:59.291Z</time></trkpt><trkpt lat="44.3173169" lon="7.5552182"><ele>682.0</ele><time>2026-03-28T13:26:02.301Z</time></trkpt><trkpt lat="44.3174182" lon="7.5551484"><ele>678.0</ele><time>2026-03-28T13:26:04.291Z</time></trkpt><trkpt lat="44.3175023" lon="7.5550788"><ele>674.0</ele><time>2026-03-28T13:26:05.291Z</time></trkpt><trkpt lat="44.3175921" lon="7.5550011"><ele>674.0</ele><time>2026-03-28T13:26:06.291Z</time></trkpt><trkpt lat="44.3176604" lon="7.5549384"><ele>674.0</ele><time>2026-03-28T13:26:07.291Z</time></trkpt><trkpt lat="44.3177255" lon="7.554883"><ele>674.0</ele><time>2026-03-28T13:26:08.292Z</time></trkpt><trkpt lat="44.3177881" lon="7.5547803"><ele>674.0</ele><time>2026-03-28T13:26:09.292Z</time></trkpt><trkpt lat="44.3178589" lon="7.5546506"><ele>674.0</ele><time>2026-03-28T13:26:10.292Z</time></trkpt><trkpt lat="44.3179175" lon="7.5545964"><ele>674.0</ele><time>2026-03-28T13:26:11.291Z</time></trkpt><trkpt lat="44.317995" lon="7.5545175"><ele>674.0</ele><time>2026-03-28T13:26:13.292Z</time></trkpt><trkpt lat="44.3180701" lon="7.5544793"><ele>674.0</ele><time>2026-03-28T13:26:15.292Z</time></trkpt><trkpt lat="44.3181308" lon="7.554514"><ele>674.0</ele><time>2026-03-28T13:26:21.292Z</time></trkpt><trkpt lat="44.3180352" lon="7.5545488"><ele>674.0</ele><time>2026-03-28T13:26:53.291Z</time></trkpt><trkpt lat="44.3179574" lon="7.5545224"><ele>674.0</ele><time>2026-03-28T13:26:54.291Z</time></trkpt><trkpt lat="44.3178776" lon="7.5545097"><ele>674.0</ele><time>2026-03-28T13:26:55.291Z</time></trkpt><trkpt lat="44.3177995" lon="7.5544973"><ele>673.0</ele><time>2026-03-28T13:26:56.291Z</time></trkpt><trkpt lat="44.3177276" lon="7.5545072"><ele>672.0</ele><time>2026-03-28T13:26:57.291Z</time></trkpt><trkpt lat="44.3176417" lon="7.5545208"><ele>671.0</ele><time>2026-03-28T13:26:58.292Z</time></trkpt><trkpt lat="44.3175539" lon="7.5545331"><ele>670.0</ele><time>2026-03-28T13:26:59.292Z</time></trkpt><trkpt lat="44.3174679" lon="7.5545373"><ele>669.0</ele><time>2026-03-28T13:27:00.292Z</time></trkpt><trkpt lat="44.3173629" lon="7.5545334"><ele>668.0</ele><time>2026-03-28T13:27:01.292Z</time></trkpt><trkpt lat="44.3172449" lon="7.5545127"><ele>670.5999999999999</ele><time>2026-03-28T13:27:02.292Z</time></trkpt><trkpt lat="44.3171363" lon="7.5544868"><ele>673.1999999999999</ele><time>2026-03-28T13:27:03.291Z</time></trkpt><trkpt lat="44.3170518" lon="7.5544385"><ele>675.8</ele><time>2026-03-28T13:27:04.292Z</time></trkpt><trkpt lat="44.3169796" lon="7.5543729"><ele>678.4</ele><time>2026-03-28T13:27:05.292Z</time></trkpt><trkpt lat="44.3169136" lon="7.5543152"><ele>681.0</ele><time>2026-03-28T13:27:06.291Z</time></trkpt><trkpt lat="44.3168281" lon="7.5542638"><ele>681.0000000000001</ele><time>2026-03-28T13:27:08.291Z</time></trkpt><trkpt lat="44.3167655" lon="7.5542271"><ele>681.0</ele><time>2026-03-28T13:27:13.291Z</time></trkpt><trkpt lat="44.3166842" lon="7.5542441"><ele>681.0</ele><time>2026-03-28T13:27:19.292Z</time></trkpt><trkpt lat="44.3166076" lon="7.55427"><ele>681.0</ele><time>2026-03-28T13:27:20.292Z</time></trkpt><trkpt lat="44.3165376" lon="7.5543017"><ele>681.0</ele><time>2026-03-28T13:27:21.291Z</time></trkpt><trkpt lat="44.316472" lon="7.5543377"><ele>681.0000000000001</ele><time>2026-03-28T13:27:22.291Z</time></trkpt><trkpt lat="44.3164101" lon="7.5543852"><ele>681.0</ele><time>2026-03-28T13:27:23.291Z</time></trkpt><trkpt lat="44.3163467" lon="7.5544511"><ele>684.0</ele><time>2026-03-28T13:27:24.291Z</time></trkpt><trkpt lat="44.3162976" lon="7.5545424"><ele>687.0</ele><time>2026-03-28T13:27:25.291Z</time></trkpt><trkpt lat="44.316257" lon="7.5546303"><ele>690.0</ele><time>2026-03-28T13:27:26.292Z</time></trkpt><trkpt lat="44.3162336" lon="7.5547177"><ele>693.0</ele><time>2026-03-28T13:27:27.291Z</time></trkpt><trkpt lat="44.3161588" lon="7.5548056"><ele>696.0</ele><time>2026-03-28T13:27:29.291Z</time></trkpt><trkpt lat="44.3160217" lon="7.554805"><ele>696.0</ele><time>2026-03-28T13:27:31.291Z</time></trkpt><trkpt lat="44.3159434" lon="7.5548297"><ele>696.0</ele><time>2026-03-28T13:27:32.292Z</time></trkpt><trkpt lat="44.3158531" lon="7.5549008"><ele>696.0</ele><time>2026-03-28T13:27:34.292Z</time></trkpt><trkpt lat="44.3157853" lon="7.5549629"><ele>696.0</ele><time>2026-03-28T13:27:36.291Z</time></trkpt><trkpt lat="44.3156516" lon="7.5549387"><ele>696.0</ele><time>2026-03-28T13:27:38.291Z</time></trkpt><trkpt lat="44.3155621" lon="7.5549732"><ele>699.0</ele><time>2026-03-28T13:27:39.291Z</time></trkpt><trkpt lat="44.315492" lon="7.5550053"><ele>702.0</ele><time>2026-03-28T13:27:40.291Z</time></trkpt><trkpt lat="44.3153994" lon="7.55501"><ele>705.0</ele><time>2026-03-28T13:27:42.291Z</time></trkpt><trkpt lat="44.3153305" lon="7.5548942"><ele>708.0</ele><time>2026-03-28T13:27:46.291Z</time></trkpt><trkpt lat="44.3152926" lon="7.5548078"><ele>711.0</ele><time>2026-03-28T13:27:47.291Z</time></trkpt><trkpt lat="44.3152521" lon="7.5547374"><ele>714.0</ele><time>2026-03-28T13:27:48.291Z</time></trkpt><trkpt lat="44.3152167" lon="7.554642"><ele>714.0</ele><time>2026-03-28T13:27:49.292Z</time></trkpt><trkpt lat="44.3151938" lon="7.5545441"><ele>714.0</ele><time>2026-03-28T13:27:50.291Z</time></trkpt><trkpt lat="44.3152101" lon="7.5544109"><ele>714.0</ele><time>2026-03-28T13:27:51.291Z</time></trkpt><trkpt lat="44.3152438" lon="7.5542663"><ele>714.0</ele><time>2026-03-28T13:27:52.292Z</time></trkpt><trkpt lat="44.3152918" lon="7.5541387"><ele>714.0</ele><time>2026-03-28T13:27:53.291Z</time></trkpt><trkpt lat="44.3153421" lon="7.5540005"><ele>713.1666666666666</ele><time>2026-03-28T13:27:54.291Z</time></trkpt><trkpt lat="44.3153723" lon="7.5538647"><ele>712.3333333333334</ele><time>2026-03-28T13:27:55.292Z</time></trkpt><trkpt lat="44.3154144" lon="7.5537504"><ele>711.5</ele><time>2026-03-28T13:27:56.292Z</time></trkpt><trkpt lat="44.3154619" lon="7.553662"><ele>710.6666666666667</ele><time>2026-03-28T13:27:57.292Z</time></trkpt><trkpt lat="44.315483" lon="7.5535681"><ele>709.8333333333334</ele><time>2026-03-28T13:27:59.291Z</time></trkpt><trkpt lat="44.3154079" lon="7.5536103"><ele>709.0</ele><time>2026-03-28T13:28:02.291Z</time></trkpt><trkpt lat="44.3153581" lon="7.5536877"><ele>709.0</ele><time>2026-03-28T13:28:03.292Z</time></trkpt><trkpt lat="44.3153037" lon="7.553769"><ele>709.0</ele><time>2026-03-28T13:28:04.291Z</time></trkpt><trkpt lat="44.3152495" lon="7.553844"><ele>709.0</ele><time>2026-03-28T13:28:05.292Z</time></trkpt><trkpt lat="44.3151735" lon="7.5539746"><ele>709.0</ele><time>2026-03-28T13:28:07.291Z</time></trkpt><trkpt lat="44.3150961" lon="7.5540973"><ele>709.0</ele><time>2026-03-28T13:28:09.291Z</time></trkpt><trkpt lat="44.3150282" lon="7.5542181"><ele>709.0</ele><time>2026-03-28T13:28:11.292Z</time></trkpt><trkpt lat="44.3149796" lon="7.5542773"><ele>709.0</ele><time>2026-03-28T13:28:13.255Z</time></trkpt><trkpt lat="44.3148505" lon="7.5543358"><ele>709.0</ele><time>2026-03-28T13:28:16.292Z</time></trkpt><trkpt lat="44.3147804" lon="7.5543882"><ele>709.0</ele><time>2026-03-28T13:28:17.291Z</time></trkpt><trkpt lat="44.3146958" lon="7.5544189"><ele>709.0</ele><time>2026-03-28T13:28:18.291Z</time></trkpt><trkpt lat="44.3146042" lon="7.5544264"><ele>713.6666666666667</ele><time>2026-03-28T13:28:19.291Z</time></trkpt><trkpt lat="44.3145266" lon="7.5544336"><ele>718.3333333333334</ele><time>2026-03-28T13:28:20.292Z</time></trkpt><trkpt lat="44.3144531" lon="7.5544756"><ele>723.0</ele><time>2026-03-28T13:28:21.292Z</time></trkpt><trkpt lat="44.3143791" lon="7.5545071"><ele>727.6666666666666</ele><time>2026-03-28T13:28:22.291Z</time></trkpt><trkpt lat="44.3143146" lon="7.5545208"><ele>732.3333333333333</ele><time>2026-03-28T13:28:23.291Z</time></trkpt><trkpt lat="44.3142384" lon="7.5545256"><ele>737.0</ele><time>2026-03-28T13:28:24.291Z</time></trkpt><trkpt lat="44.3141477" lon="7.5543928"><ele>737.0</ele><time>2026-03-28T13:28:26.291Z</time></trkpt><trkpt lat="44.314117" lon="7.5542722"><ele>737.0</ele><time>2026-03-28T13:28:27.292Z</time></trkpt><trkpt lat="44.3141083" lon="7.554177"><ele>737.0</ele><time>2026-03-28T13:28:28.292Z</time></trkpt><trkpt lat="44.3141223" lon="7.5540676"><ele>737.0</ele><time>2026-03-28T13:28:29.291Z</time></trkpt><trkpt lat="44.3141665" lon="7.5539987"><ele>737.0</ele><time>2026-03-28T13:28:32.291Z</time></trkpt><trkpt lat="44.3141578" lon="7.5538973"><ele>737.0</ele><time>2026-03-28T13:30:09.291Z</time></trkpt><trkpt lat="44.3142245" lon="7.5538418"><ele>737.0</ele><time>2026-03-28T13:30:39.292Z</time></trkpt><trkpt lat="44.3142671" lon="7.5537672"><ele>737.0</ele><time>2026-03-28T13:31:21.292Z</time></trkpt><trkpt lat="44.3143106" lon="7.5536717"><ele>737.0</ele><time>2026-03-28T13:31:44.292Z</time></trkpt><trkpt lat="44.3143401" lon="7.5535741"><ele>737.0</ele><time>2026-03-28T13:31:45.291Z</time></trkpt><trkpt lat="44.3144228" lon="7.553459"><ele>737.0</ele><time>2026-03-28T13:31:46.291Z</time></trkpt><trkpt lat="44.3144916" lon="7.5533332"><ele>736.3333333333333</ele><time>2026-03-28T13:31:47.291Z</time></trkpt><trkpt lat="44.3145413" lon="7.5532212"><ele>735.6666666666666</ele><time>2026-03-28T13:31:48.291Z</time></trkpt><trkpt lat="44.3145757" lon="7.5531118"><ele>735.0</ele><time>2026-03-28T13:31:49.291Z</time></trkpt><trkpt lat="44.3145997" lon="7.5530216"><ele>734.3333333333334</ele><time>2026-03-28T13:31:50.291Z</time></trkpt><trkpt lat="44.3145908" lon="7.5529123"><ele>733.6666666666667</ele><time>2026-03-28T13:31:51.292Z</time></trkpt><trkpt lat="44.3145754" lon="7.5528041"><ele>733.0</ele><time>2026-03-28T13:31:52.291Z</time></trkpt><trkpt lat="44.3144857" lon="7.552642"><ele>729.5</ele><time>2026-03-28T13:31:53.291Z</time></trkpt><trkpt lat="44.3144044" lon="7.5524964"><ele>726.0</ele><time>2026-03-28T13:31:54.292Z</time></trkpt><trkpt lat="44.3143261" lon="7.5523634"><ele>722.5</ele><time>2026-03-28T13:31:55.292Z</time></trkpt><trkpt lat="44.3142447" lon="7.5522385"><ele>719.0</ele><time>2026-03-28T13:31:56.292Z</time></trkpt><trkpt lat="44.3141681" lon="7.552118"><ele>716.5</ele><time>2026-03-28T13:31:57.291Z</time></trkpt><trkpt lat="44.3140951" lon="7.552034"><ele>714.0</ele><time>2026-03-28T13:31:58.292Z</time></trkpt><trkpt lat="44.3140236" lon="7.5519735"><ele>711.5</ele><time>2026-03-28T13:31:59.291Z</time></trkpt><trkpt lat="44.3139672" lon="7.5519138"><ele>709.0</ele><time>2026-03-28T13:32:00.292Z</time></trkpt><trkpt lat="44.3139582" lon="7.551743"><ele>706.5</ele><time>2026-03-28T13:32:02.292Z</time></trkpt><trkpt lat="44.313981" lon="7.5516538"><ele>704.0</ele><time>2026-03-28T13:32:10.292Z</time></trkpt><trkpt lat="44.3140522" lon="7.5515831"><ele>704.0</ele><time>2026-03-28T13:32:14.301Z</time></trkpt><trkpt lat="44.3141121" lon="7.5515112"><ele>704.0</ele><time>2026-03-28T13:32:15.292Z</time></trkpt><trkpt lat="44.3141414" lon="7.5514167"><ele>704.0</ele><time>2026-03-28T13:32:16.292Z</time></trkpt><trkpt lat="44.3141322" lon="7.5512652"><ele>704.0</ele><time>2026-03-28T13:32:18.292Z</time></trkpt><trkpt lat="44.3141385" lon="7.5511758"><ele>704.0</ele><time>2026-03-28T13:32:20.292Z</time></trkpt><trkpt lat="44.3142665" lon="7.5511724"><ele>704.0</ele><time>2026-03-28T13:32:22.292Z</time></trkpt><trkpt lat="44.3143614" lon="7.5511744"><ele>704.0</ele><time>2026-03-28T13:32:23.291Z</time></trkpt><trkpt lat="44.3144658" lon="7.5511726"><ele>704.0</ele><time>2026-03-28T13:32:24.292Z</time></trkpt><trkpt lat="44.3145732" lon="7.5511978"><ele>704.0</ele><time>2026-03-28T13:32:25.292Z</time></trkpt><trkpt lat="44.3146964" lon="7.5512303"><ele>704.0</ele><time>2026-03-28T13:32:26.291Z</time></trkpt><trkpt lat="44.3148052" lon="7.5512598"><ele>701.75</ele><time>2026-03-28T13:32:27.292Z</time></trkpt><trkpt lat="44.3149212" lon="7.5512833"><ele>699.5</ele><time>2026-03-28T13:32:28.292Z</time></trkpt><trkpt lat="44.3150133" lon="7.551336"><ele>697.25</ele><time>2026-03-28T13:32:29.292Z</time></trkpt><trkpt lat="44.3151105" lon="7.5514216"><ele>695.0</ele><time>2026-03-28T13:32:30.292Z</time></trkpt><trkpt lat="44.3152165" lon="7.5515302"><ele>695.0</ele><time>2026-03-28T13:32:31.291Z</time></trkpt><trkpt lat="44.3153079" lon="7.5516856"><ele>695.0</ele><time>2026-03-28T13:32:32.291Z</time></trkpt><trkpt lat="44.3154" lon="7.5518329"><ele>695.0</ele><time>2026-03-28T13:32:33.291Z</time></trkpt><trkpt lat="44.3154818" lon="7.5519485"><ele>695.0</ele><time>2026-03-28T13:32:34.291Z</time></trkpt><trkpt lat="44.3155635" lon="7.5520227"><ele>690.75</ele><time>2026-03-28T13:32:35.291Z</time></trkpt><trkpt lat="44.3156539" lon="7.5520824"><ele>686.5</ele><time>2026-03-28T13:32:36.291Z</time></trkpt><trkpt lat="44.3157474" lon="7.5521269"><ele>682.25</ele><time>2026-03-28T13:32:37.291Z</time></trkpt><trkpt lat="44.3159144" lon="7.5521538"><ele>678.0</ele><time>2026-03-28T13:32:38.291Z</time></trkpt><trkpt lat="44.316084" lon="7.5521743"><ele>678.0</ele><time>2026-03-28T13:32:39.292Z</time></trkpt><trkpt lat="44.3162212" lon="7.5521619"><ele>678.0</ele><time>2026-03-28T13:32:40.292Z</time></trkpt><trkpt lat="44.3163201" lon="7.5521315"><ele>678.0</ele><time>2026-03-28T13:32:41.291Z</time></trkpt><trkpt lat="44.3164342" lon="7.5520341"><ele>678.0</ele><time>2026-03-28T13:32:42.292Z</time></trkpt><trkpt lat="44.3165612" lon="7.5519354"><ele>679.8</ele><time>2026-03-28T13:32:43.291Z</time></trkpt><trkpt lat="44.3166676" lon="7.5518668"><ele>681.5999999999999</ele><time>2026-03-28T13:32:44.291Z</time></trkpt><trkpt lat="44.3167757" lon="7.5517865"><ele>683.4000000000001</ele><time>2026-03-28T13:32:45.292Z</time></trkpt><trkpt lat="44.3168726" lon="7.5517123"><ele>685.2</ele><time>2026-03-28T13:32:46.291Z</time></trkpt><trkpt lat="44.3169581" lon="7.5516676"><ele>687.0</ele><time>2026-03-28T13:32:47.292Z</time></trkpt><trkpt lat="44.3170417" lon="7.5516176"><ele>687.0</ele><time>2026-03-28T13:32:48.291Z</time></trkpt><trkpt lat="44.3171076" lon="7.5515618"><ele>687.0</ele><time>2026-03-28T13:32:49.291Z</time></trkpt><trkpt lat="44.3171733" lon="7.5514963"><ele>687.0</ele><time>2026-03-28T13:32:50.292Z</time></trkpt><trkpt lat="44.3172132" lon="7.5513938"><ele>687.0</ele><time>2026-03-28T13:32:51.292Z</time></trkpt><trkpt lat="44.3172158" lon="7.551267"><ele>687.0</ele><time>2026-03-28T13:32:52.291Z</time></trkpt><trkpt lat="44.3172068" lon="7.5511239"><ele>687.0</ele><time>2026-03-28T13:32:53.291Z</time></trkpt><trkpt lat="44.3171858" lon="7.55096"><ele>687.4000000000001</ele><time>2026-03-28T13:32:54.291Z</time></trkpt><trkpt lat="44.3171613" lon="7.5508233"><ele>687.8000000000001</ele><time>2026-03-28T13:32:55.292Z</time></trkpt><trkpt lat="44.3171434" lon="7.5506975"><ele>688.2</ele><time>2026-03-28T13:32:56.291Z</time></trkpt><trkpt lat="44.3171347" lon="7.5505781"><ele>688.6</ele><time>2026-03-28T13:32:57.291Z</time></trkpt><trkpt lat="44.3171623" lon="7.5504451"><ele>689.0</ele><time>2026-03-28T13:32:58.291Z</time></trkpt><trkpt lat="44.3171911" lon="7.5503248"><ele>687.0</ele><time>2026-03-28T13:32:59.291Z</time></trkpt><trkpt lat="44.3172122" lon="7.5502244"><ele>685.0</ele><time>2026-03-28T13:33:00.292Z</time></trkpt><trkpt lat="44.3172614" lon="7.5501613"><ele>683.0</ele><time>2026-03-28T13:33:02.291Z</time></trkpt><trkpt lat="44.3173356" lon="7.5501913"><ele>681.0</ele><time>2026-03-28T13:33:04.291Z</time></trkpt><trkpt lat="44.3174108" lon="7.5502917"><ele>679.0</ele><time>2026-03-28T13:33:06.291Z</time></trkpt><trkpt lat="44.3174859" lon="7.550238"><ele>677.0</ele><time>2026-03-28T13:33:08.291Z</time></trkpt><trkpt lat="44.3174472" lon="7.5500791"><ele>677.0</ele><time>2026-03-28T13:33:10.292Z</time></trkpt><trkpt lat="44.3173596" lon="7.5500072"><ele>677.0</ele><time>2026-03-28T13:33:11.292Z</time></trkpt><trkpt lat="44.3172806" lon="7.5499453"><ele>677.0</ele><time>2026-03-28T13:33:12.291Z</time></trkpt><trkpt lat="44.31721" lon="7.5498941"><ele>677.0</ele><time>2026-03-28T13:33:13.292Z</time></trkpt><trkpt lat="44.3171892" lon="7.5497972"><ele>677.0</ele><time>2026-03-28T13:33:15.291Z</time></trkpt><trkpt lat="44.3172898" lon="7.5498166"><ele>677.0</ele><time>2026-03-28T13:33:17.292Z</time></trkpt><trkpt lat="44.3173902" lon="7.5498544"><ele>673.2</ele><time>2026-03-28T13:33:18.291Z</time></trkpt><trkpt lat="44.3174797" lon="7.5498842"><ele>669.4000000000001</ele><time>2026-03-28T13:33:19.291Z</time></trkpt><trkpt lat="44.3175655" lon="7.5498786"><ele>665.5999999999999</ele><time>2026-03-28T13:33:20.292Z</time></trkpt><trkpt lat="44.3176588" lon="7.5498779"><ele>661.8</ele><time>2026-03-28T13:33:21.291Z</time></trkpt><trkpt lat="44.3177689" lon="7.5498723"><ele>658.0</ele><time>2026-03-28T13:33:22.291Z</time></trkpt><trkpt lat="44.3178669" lon="7.5498678"><ele>658.0</ele><time>2026-03-28T13:33:23.292Z</time></trkpt><trkpt lat="44.3179936" lon="7.5498942"><ele>658.0</ele><time>2026-03-28T13:33:24.291Z</time></trkpt><trkpt lat="44.3181028" lon="7.5498828"><ele>658.0</ele><time>2026-03-28T13:33:25.291Z</time></trkpt><trkpt lat="44.3182194" lon="7.5498572"><ele>658.0</ele><time>2026-03-28T13:33:26.292Z</time></trkpt><trkpt lat="44.3183267" lon="7.549859"><ele>655.0</ele><time>2026-03-28T13:33:27.292Z</time></trkpt><trkpt lat="44.3184294" lon="7.5498751"><ele>652.0</ele><time>2026-03-28T13:33:28.292Z</time></trkpt><trkpt lat="44.3185228" lon="7.549888"><ele>649.0</ele><time>2026-03-28T13:33:29.291Z</time></trkpt><trkpt lat="44.3186013" lon="7.5499229"><ele>646.0</ele><time>2026-03-28T13:33:30.291Z</time></trkpt><trkpt lat="44.3186839" lon="7.5499096"><ele>643.0</ele><time>2026-03-28T13:33:31.291Z</time></trkpt><trkpt lat="44.3187586" lon="7.5498851"><ele>640.0</ele><time>2026-03-28T13:33:32.291Z</time></trkpt><trkpt lat="44.3188753" lon="7.549895"><ele>637.8</ele><time>2026-03-28T13:33:33.292Z</time></trkpt><trkpt lat="44.318979" lon="7.5499222"><ele>635.6</ele><time>2026-03-28T13:33:34.292Z</time></trkpt><trkpt lat="44.3190774" lon="7.549943"><ele>633.4</ele><time>2026-03-28T13:33:35.292Z</time></trkpt><trkpt lat="44.3191758" lon="7.5499333"><ele>631.2</ele><time>2026-03-28T13:33:36.292Z</time></trkpt><trkpt lat="44.3192725" lon="7.5499026"><ele>629.0</ele><time>2026-03-28T13:33:37.291Z</time></trkpt><trkpt lat="44.3193595" lon="7.5498328"><ele>629.0</ele><time>2026-03-28T13:33:38.292Z</time></trkpt><trkpt lat="44.3194468" lon="7.549761"><ele>629.0</ele><time>2026-03-28T13:33:39.291Z</time></trkpt><trkpt lat="44.31952" lon="7.5497088"><ele>629.0</ele><time>2026-03-28T13:33:40.292Z</time></trkpt><trkpt lat="44.3195889" lon="7.5496613"><ele>629.0</ele><time>2026-03-28T13:33:41.292Z</time></trkpt><trkpt lat="44.3196686" lon="7.5496309"><ele>629.0</ele><time>2026-03-28T13:33:42.292Z</time></trkpt><trkpt lat="44.3197483" lon="7.5496129"><ele>629.0</ele><time>2026-03-28T13:33:43.291Z</time></trkpt><trkpt lat="44.3198297" lon="7.5495767"><ele>626.4</ele><time>2026-03-28T13:33:44.291Z</time></trkpt><trkpt lat="44.3199075" lon="7.5495126"><ele>623.8</ele><time>2026-03-28T13:33:45.292Z</time></trkpt><trkpt lat="44.3199883" lon="7.5494375"><ele>621.2</ele><time>2026-03-28T13:33:46.291Z</time></trkpt><trkpt lat="44.3200555" lon="7.5493557"><ele>618.6</ele><time>2026-03-28T13:33:47.292Z</time></trkpt><trkpt lat="44.3201116" lon="7.5492594"><ele>616.0</ele><time>2026-03-28T13:33:48.292Z</time></trkpt><trkpt lat="44.3201519" lon="7.5491508"><ele>616.0</ele><time>2026-03-28T13:33:49.291Z</time></trkpt><trkpt lat="44.3202026" lon="7.549051"><ele>616.0</ele><time>2026-03-28T13:33:50.292Z</time></trkpt><trkpt lat="44.3202765" lon="7.5489828"><ele>616.0</ele><time>2026-03-28T13:33:51.291Z</time></trkpt><trkpt lat="44.3203758" lon="7.5489286"><ele>616.0</ele><time>2026-03-28T13:33:52.292Z</time></trkpt><trkpt lat="44.3204674" lon="7.5488747"><ele>616.0</ele><time>2026-03-28T13:33:53.291Z</time></trkpt><trkpt lat="44.3205377" lon="7.548843"><ele>616.3333333333334</ele><time>2026-03-28T13:33:54.292Z</time></trkpt><trkpt lat="44.3206073" lon="7.5488059"><ele>616.6666666666667</ele><time>2026-03-28T13:33:55.291Z</time></trkpt><trkpt lat="44.3206819" lon="7.5487903"><ele>617.0</ele><time>2026-03-28T13:34:08.292Z</time></trkpt><trkpt lat="44.3207183" lon="7.5488646"><ele>617.3333333333334</ele><time>2026-03-28T13:34:13.291Z</time></trkpt><trkpt lat="44.3207224" lon="7.5487748"><ele>617.6666666666666</ele><time>2026-03-28T13:35:34.292Z</time></trkpt><trkpt lat="44.3206272" lon="7.5486327"><ele>618.0</ele><time>2026-03-28T13:35:36.292Z</time></trkpt><trkpt lat="44.3205706" lon="7.5485322"><ele>617.1999999999999</ele><time>2026-03-28T13:35:37.292Z</time></trkpt><trkpt lat="44.320514" lon="7.5484367"><ele>616.4</ele><time>2026-03-28T13:35:38.292Z</time></trkpt><trkpt lat="44.3204468" lon="7.5483273"><ele>615.5999999999999</ele><time>2026-03-28T13:35:39.291Z</time></trkpt><trkpt lat="44.3203687" lon="7.5482107"><ele>614.8</ele><time>2026-03-28T13:35:40.291Z</time></trkpt><trkpt lat="44.3202872" lon="7.5480908"><ele>614.0</ele><time>2026-03-28T13:35:41.291Z</time></trkpt><trkpt lat="44.3202114" lon="7.5479758"><ele>614.0</ele><time>2026-03-28T13:35:42.291Z</time></trkpt><trkpt lat="44.3201351" lon="7.5478633"><ele>614.0</ele><time>2026-03-28T13:35:43.291Z</time></trkpt><trkpt lat="44.320071" lon="7.5477682"><ele>614.0</ele><time>2026-03-28T13:35:44.291Z</time></trkpt><trkpt lat="44.3200161" lon="7.5476715"><ele>614.0</ele><time>2026-03-28T13:35:45.292Z</time></trkpt><trkpt lat="44.319972" lon="7.5475822"><ele>614.0</ele><time>2026-03-28T13:35:46.291Z</time></trkpt><trkpt lat="44.3199114" lon="7.5475149"><ele>614.0</ele><time>2026-03-28T13:35:47.291Z</time></trkpt><trkpt lat="44.319827" lon="7.5474744"><ele>614.0</ele><time>2026-03-28T13:35:48.292Z</time></trkpt><trkpt lat="44.3197359" lon="7.5474271"><ele>614.0</ele><time>2026-03-28T13:35:49.292Z</time></trkpt><trkpt lat="44.31964" lon="7.5473905"><ele>614.0</ele><time>2026-03-28T13:35:50.291Z</time></trkpt><trkpt lat="44.3195287" lon="7.5473406"><ele>614.0</ele><time>2026-03-28T13:35:51.291Z</time></trkpt><trkpt lat="44.3194233" lon="7.5472818"><ele>614.0</ele><time>2026-03-28T13:35:52.291Z</time></trkpt><trkpt lat="44.3193318" lon="7.5472247"><ele>615.6666666666666</ele><time>2026-03-28T13:35:53.291Z</time></trkpt><trkpt lat="44.3192524" lon="7.5471723"><ele>617.3333333333333</ele><time>2026-03-28T13:35:54.292Z</time></trkpt><trkpt lat="44.3191867" lon="7.5471134"><ele>619.0</ele><time>2026-03-28T13:35:55.292Z</time></trkpt><trkpt lat="44.319121" lon="7.5470443"><ele>620.6666666666666</ele><time>2026-03-28T13:35:56.292Z</time></trkpt><trkpt lat="44.3190596" lon="7.5469568"><ele>622.3333333333334</ele><time>2026-03-28T13:35:57.291Z</time></trkpt><trkpt lat="44.3189881" lon="7.54686"><ele>624.0</ele><time>2026-03-28T13:35:58.292Z</time></trkpt><trkpt lat="44.3189224" lon="7.5467538"><ele>629.0</ele><time>2026-03-28T13:35:59.292Z</time></trkpt><trkpt lat="44.3188475" lon="7.5466307"><ele>634.0</ele><time>2026-03-28T13:36:00.291Z</time></trkpt><trkpt lat="44.318769" lon="7.5465125"><ele>639.0</ele><time>2026-03-28T13:36:01.292Z</time></trkpt><trkpt lat="44.3186793" lon="7.5463839"><ele>644.0</ele><time>2026-03-28T13:36:02.292Z</time></trkpt><trkpt lat="44.3185771" lon="7.546256"><ele>641.75</ele><time>2026-03-28T13:36:03.291Z</time></trkpt><trkpt lat="44.3184638" lon="7.5461306"><ele>639.5</ele><time>2026-03-28T13:36:04.292Z</time></trkpt><trkpt lat="44.3183447" lon="7.5460016"><ele>637.25</ele><time>2026-03-28T13:36:05.291Z</time></trkpt><trkpt lat="44.3182302" lon="7.5458808"><ele>635.0</ele><time>2026-03-28T13:36:06.292Z</time></trkpt><trkpt lat="44.3181286" lon="7.5457702"><ele>638.0</ele><time>2026-03-28T13:36:07.291Z</time></trkpt><trkpt lat="44.3180361" lon="7.5456611"><ele>641.0</ele><time>2026-03-28T13:36:08.292Z</time></trkpt><trkpt lat="44.3179473" lon="7.5455772"><ele>644.0</ele><time>2026-03-28T13:36:09.291Z</time></trkpt><trkpt lat="44.3178694" lon="7.5455216"><ele>647.0</ele><time>2026-03-28T13:36:10.292Z</time></trkpt><trkpt lat="44.3177928" lon="7.5454652"><ele>650.0</ele><time>2026-03-28T13:36:11.291Z</time></trkpt><trkpt lat="44.3177263" lon="7.5454337"><ele>650.0</ele><time>2026-03-28T13:36:12.291Z</time></trkpt><trkpt lat="44.3176634" lon="7.5453958"><ele>650.0</ele><time>2026-03-28T13:36:13.291Z</time></trkpt><trkpt lat="44.3176072" lon="7.5453325"><ele>650.0</ele><time>2026-03-28T13:36:14.291Z</time></trkpt><trkpt lat="44.3175711" lon="7.5452411"><ele>650.0</ele><time>2026-03-28T13:36:15.291Z</time></trkpt><trkpt lat="44.3175465" lon="7.5451475"><ele>650.0</ele><time>2026-03-28T13:36:16.292Z</time></trkpt><trkpt lat="44.3175371" lon="7.5450223"><ele>650.0</ele><time>2026-03-28T13:36:17.292Z</time></trkpt><trkpt lat="44.3175128" lon="7.5448995"><ele>650.2</ele><time>2026-03-28T13:36:18.291Z</time></trkpt><trkpt lat="44.31747" lon="7.5447868"><ele>650.4</ele><time>2026-03-28T13:36:19.291Z</time></trkpt><trkpt lat="44.3174192" lon="7.5446729"><ele>650.5999999999999</ele><time>2026-03-28T13:36:20.291Z</time></trkpt><trkpt lat="44.317377" lon="7.5445303"><ele>650.8</ele><time>2026-03-28T13:36:21.291Z</time></trkpt><trkpt lat="44.3173142" lon="7.5443948"><ele>651.0</ele><time>2026-03-28T13:36:22.292Z</time></trkpt><trkpt lat="44.317241" lon="7.544285"><ele>653.8333333333334</ele><time>2026-03-28T13:36:23.292Z</time></trkpt><trkpt lat="44.317168" lon="7.5442203"><ele>656.6666666666666</ele><time>2026-03-28T13:36:24.291Z</time></trkpt><trkpt lat="44.3170934" lon="7.5441758"><ele>659.5</ele><time>2026-03-28T13:36:25.291Z</time></trkpt><trkpt lat="44.3170071" lon="7.5441334"><ele>662.3333333333333</ele><time>2026-03-28T13:36:26.291Z</time></trkpt><trkpt lat="44.3169185" lon="7.544098"><ele>665.1666666666666</ele><time>2026-03-28T13:36:27.291Z</time></trkpt><trkpt lat="44.3168383" lon="7.5440568"><ele>668.0</ele><time>2026-03-28T13:36:28.291Z</time></trkpt><trkpt lat="44.3167717" lon="7.5440106"><ele>668.0</ele><time>2026-03-28T13:36:29.291Z</time></trkpt><trkpt lat="44.3167034" lon="7.5439329"><ele>668.0</ele><time>2026-03-28T13:36:30.292Z</time></trkpt><trkpt lat="44.316627" lon="7.5438578"><ele>668.0</ele><time>2026-03-28T13:36:31.291Z</time></trkpt><trkpt lat="44.3165389" lon="7.5437987"><ele>668.0</ele><time>2026-03-28T13:36:32.291Z</time></trkpt><trkpt lat="44.3164361" lon="7.5437386"><ele>668.0</ele><time>2026-03-28T13:36:33.291Z</time></trkpt><trkpt lat="44.3163225" lon="7.5436736"><ele>670.0</ele><time>2026-03-28T13:36:34.292Z</time></trkpt><trkpt lat="44.3162168" lon="7.5435915"><ele>672.0</ele><time>2026-03-28T13:36:35.292Z</time></trkpt><trkpt lat="44.3161274" lon="7.5434915"><ele>674.0</ele><time>2026-03-28T13:36:36.291Z</time></trkpt><trkpt lat="44.3160578" lon="7.5434138"><ele>676.0</ele><time>2026-03-28T13:36:37.292Z</time></trkpt><trkpt lat="44.3159658" lon="7.543354"><ele>678.0</ele><time>2026-03-28T13:36:39.291Z</time></trkpt><trkpt lat="44.315924" lon="7.5432549"><ele>678.0</ele><time>2026-03-28T13:36:41.291Z</time></trkpt><trkpt lat="44.3159571" lon="7.5431002"><ele>678.0</ele><time>2026-03-28T13:36:43.292Z</time></trkpt><trkpt lat="44.3160006" lon="7.5429681"><ele>678.0</ele><time>2026-03-28T13:36:45.292Z</time></trkpt><trkpt lat="44.3160349" lon="7.5428908"><ele>678.0</ele><time>2026-03-28T13:36:47.291Z</time></trkpt><trkpt lat="44.3160603" lon="7.5427899"><ele>678.0</ele><time>2026-03-28T13:36:53.292Z</time></trkpt><trkpt lat="44.31608" lon="7.5426374"><ele>680.0</ele><time>2026-03-28T13:36:55.292Z</time></trkpt><trkpt lat="44.3160427" lon="7.5425273"><ele>682.0</ele><time>2026-03-28T13:36:57.292Z</time></trkpt><trkpt lat="44.315905" lon="7.5425352"><ele>684.0</ele><time>2026-03-28T13:36:59.292Z</time></trkpt><trkpt lat="44.3158063" lon="7.5426184"><ele>686.0</ele><time>2026-03-28T13:37:01.291Z</time></trkpt><trkpt lat="44.3156991" lon="7.5426837"><ele>686.0</ele><time>2026-03-28T13:37:03.291Z</time></trkpt><trkpt lat="44.3155758" lon="7.5427226"><ele>686.0</ele><time>2026-03-28T13:37:05.291Z</time></trkpt><trkpt lat="44.3154974" lon="7.5427504"><ele>686.0</ele><time>2026-03-28T13:37:07.291Z</time></trkpt><trkpt lat="44.3154349" lon="7.5427188"><ele>686.0</ele><time>2026-03-28T13:37:11.291Z</time></trkpt><trkpt lat="44.3154208" lon="7.5426193"><ele>686.0</ele><time>2026-03-28T13:37:14.292Z</time></trkpt><trkpt lat="44.3153588" lon="7.5425191"><ele>686.0</ele><time>2026-03-28T13:37:16.292Z</time></trkpt><trkpt lat="44.315232" lon="7.5424235"><ele>689.3333333333333</ele><time>2026-03-28T13:37:18.291Z</time></trkpt><trkpt lat="44.3151638" lon="7.5423665"><ele>692.6666666666666</ele><time>2026-03-28T13:37:19.291Z</time></trkpt><trkpt lat="44.3150822" lon="7.5423117"><ele>696.0</ele><time>2026-03-28T13:37:20.292Z</time></trkpt><trkpt lat="44.3149915" lon="7.5422599"><ele>699.3333333333334</ele><time>2026-03-28T13:37:21.292Z</time></trkpt><trkpt lat="44.3149094" lon="7.5422376"><ele>702.6666666666667</ele><time>2026-03-28T13:37:22.292Z</time></trkpt><trkpt lat="44.3148343" lon="7.5421884"><ele>706.0</ele><time>2026-03-28T13:37:23.292Z</time></trkpt><trkpt lat="44.3147652" lon="7.5421398"><ele>709.0</ele><time>2026-03-28T13:37:24.291Z</time></trkpt><trkpt lat="44.3146958" lon="7.5420855"><ele>712.0</ele><time>2026-03-28T13:37:25.292Z</time></trkpt><trkpt lat="44.3146358" lon="7.5420573"><ele>715.0</ele><time>2026-03-28T13:37:26.291Z</time></trkpt><trkpt lat="44.3145626" lon="7.5420589"><ele>718.0</ele><time>2026-03-28T13:37:27.292Z</time></trkpt><trkpt lat="44.3144974" lon="7.5420728"><ele>721.0</ele><time>2026-03-28T13:37:28.292Z</time></trkpt><trkpt lat="44.3144224" lon="7.5420389"><ele>724.0</ele><time>2026-03-28T13:37:29.291Z</time></trkpt><trkpt lat="44.3143636" lon="7.5419962"><ele>727.0</ele><time>2026-03-28T13:37:30.291Z</time></trkpt><trkpt lat="44.3142452" lon="7.5418985"><ele>727.3333333333334</ele><time>2026-03-28T13:37:32.291Z</time></trkpt><trkpt lat="44.3141592" lon="7.5418622"><ele>727.6666666666667</ele><time>2026-03-28T13:37:33.291Z</time></trkpt><trkpt lat="44.3140717" lon="7.5418371"><ele>728.0</ele><time>2026-03-28T13:37:34.291Z</time></trkpt><trkpt lat="44.3139925" lon="7.5418231"><ele>728.3333333333334</ele><time>2026-03-28T13:37:35.291Z</time></trkpt><trkpt lat="44.313927" lon="7.5418225"><ele>728.6666666666666</ele><time>2026-03-28T13:37:36.291Z</time></trkpt><trkpt lat="44.3138147" lon="7.5418112"><ele>729.0</ele><time>2026-03-28T13:37:38.291Z</time></trkpt><trkpt lat="44.3137424" lon="7.541781"><ele>732.0</ele><time>2026-03-28T13:37:40.291Z</time></trkpt><trkpt lat="44.313699" lon="7.5416951"><ele>735.0</ele><time>2026-03-28T13:37:50.291Z</time></trkpt><trkpt lat="44.3136251" lon="7.5415987"><ele>738.0</ele><time>2026-03-28T13:37:52.291Z</time></trkpt><trkpt lat="44.3135315" lon="7.541577"><ele>741.0</ele><time>2026-03-28T13:37:55.292Z</time></trkpt><trkpt lat="44.3134661" lon="7.5415782"><ele>744.0</ele><time>2026-03-28T13:37:59.291Z</time></trkpt><trkpt lat="44.3133885" lon="7.541639"><ele>747.0</ele><time>2026-03-28T13:38:05.292Z</time></trkpt><trkpt lat="44.31328" lon="7.541685"><ele>747.0</ele><time>2026-03-28T13:38:07.292Z</time></trkpt><trkpt lat="44.3132183" lon="7.5417297"><ele>747.0</ele><time>2026-03-28T13:38:08.291Z</time></trkpt><trkpt lat="44.3131621" lon="7.5417993"><ele>747.0</ele><time>2026-03-28T13:38:09.291Z</time></trkpt><trkpt lat="44.3131163" lon="7.5418631"><ele>747.0</ele><time>2026-03-28T13:38:10.291Z</time></trkpt><trkpt lat="44.3130329" lon="7.5419488"><ele>747.0</ele><time>2026-03-28T13:38:12.291Z</time></trkpt><trkpt lat="44.3129187" lon="7.5420771"><ele>750.3333333333334</ele><time>2026-03-28T13:38:14.291Z</time></trkpt><trkpt lat="44.3128383" lon="7.5421622"><ele>753.6666666666666</ele><time>2026-03-28T13:38:15.291Z</time></trkpt><trkpt lat="44.312766" lon="7.542218"><ele>757.0</ele><time>2026-03-28T13:38:16.292Z</time></trkpt><trkpt lat="44.3127072" lon="7.542252"><ele>760.3333333333333</ele><time>2026-03-28T13:38:17.292Z</time></trkpt><trkpt lat="44.3126521" lon="7.5423205"><ele>763.6666666666666</ele><time>2026-03-28T13:38:18.292Z</time></trkpt><trkpt lat="44.3126063" lon="7.5423964"><ele>767.0</ele><time>2026-03-28T13:38:19.292Z</time></trkpt><trkpt lat="44.3125549" lon="7.5424681"><ele>767.0</ele><time>2026-03-28T13:38:20.291Z</time></trkpt><trkpt lat="44.3124934" lon="7.5425501"><ele>767.0</ele><time>2026-03-28T13:38:22.291Z</time></trkpt><trkpt lat="44.3124314" lon="7.5425779"><ele>767.0</ele><time>2026-03-28T13:38:30.292Z</time></trkpt><trkpt lat="44.3123575" lon="7.5425945"><ele>767.0</ele><time>2026-03-28T13:38:55.292Z</time></trkpt><trkpt lat="44.3122788" lon="7.5426169"><ele>767.0</ele><time>2026-03-28T13:38:58.291Z</time></trkpt><trkpt lat="44.3122225" lon="7.5426979"><ele>767.0</ele><time>2026-03-28T13:39:03.292Z</time></trkpt><trkpt lat="44.3121802" lon="7.5427791"><ele>767.0</ele><time>2026-03-28T13:39:07.291Z</time></trkpt><trkpt lat="44.3121301" lon="7.5427232"><ele>767.0</ele><time>2026-03-28T13:39:14.291Z</time></trkpt><trkpt lat="44.3122085" lon="7.5427574"><ele>767.0</ele><time>2026-03-28T13:39:26.292Z</time></trkpt><trkpt lat="44.3122907" lon="7.5428395"><ele>767.0</ele><time>2026-03-28T13:39:28.292Z</time></trkpt><trkpt lat="44.3123456" lon="7.5427867"><ele>767.0</ele><time>2026-03-28T13:44:34.291Z</time></trkpt><trkpt lat="44.3124018" lon="7.5427327"><ele>767.0</ele><time>2026-03-28T13:45:15.292Z</time></trkpt><trkpt lat="44.312423" lon="7.5426472"><ele>767.0</ele><time>2026-03-28T13:45:17.291Z</time></trkpt><trkpt lat="44.3124864" lon="7.5425748"><ele>767.0</ele><time>2026-03-28T13:45:36.291Z</time></trkpt><trkpt lat="44.312427" lon="7.5425169"><ele>767.0</ele><time>2026-03-28T13:45:47.292Z</time></trkpt><trkpt lat="44.3123619" lon="7.5425325"><ele>767.0</ele><time>2026-03-28T13:46:39.292Z</time></trkpt><trkpt lat="44.3124279" lon="7.5424979"><ele>767.0</ele><time>2026-03-28T13:46:52.291Z</time></trkpt><trkpt lat="44.312542" lon="7.5423571"><ele>767.0</ele><time>2026-03-28T13:46:54.291Z</time></trkpt><trkpt lat="44.3125933" lon="7.5422814"><ele>767.0</ele><time>2026-03-28T13:46:55.291Z</time></trkpt><trkpt lat="44.3126683" lon="7.542205"><ele>767.0</ele><time>2026-03-28T13:46:56.292Z</time></trkpt><trkpt lat="44.3127551" lon="7.5421439"><ele>767.0</ele><time>2026-03-28T13:46:57.292Z</time></trkpt><trkpt lat="44.3128493" lon="7.542066"><ele>767.0</ele><time>2026-03-28T13:46:58.291Z</time></trkpt><trkpt lat="44.3129493" lon="7.5419932"><ele>767.0</ele><time>2026-03-28T13:46:59.291Z</time></trkpt><trkpt lat="44.3129934" lon="7.5418859"><ele>767.0</ele><time>2026-03-28T13:47:00.292Z</time></trkpt><trkpt lat="44.3130601" lon="7.5417989"><ele>763.6666666666666</ele><time>2026-03-28T13:47:01.292Z</time></trkpt><trkpt lat="44.3131159" lon="7.5417297"><ele>760.3333333333333</ele><time>2026-03-28T13:47:02.292Z</time></trkpt><trkpt lat="44.3131827" lon="7.5416555"><ele>757.0</ele><time>2026-03-28T13:47:03.291Z</time></trkpt><trkpt lat="44.3132447" lon="7.5416065"><ele>753.6666666666666</ele><time>2026-03-28T13:47:04.291Z</time></trkpt><trkpt lat="44.3133234" lon="7.5415948"><ele>750.3333333333334</ele><time>2026-03-28T13:47:05.291Z</time></trkpt><trkpt lat="44.3134448" lon="7.5415412"><ele>747.0</ele><time>2026-03-28T13:47:07.291Z</time></trkpt><trkpt lat="44.3135429" lon="7.5415429"><ele>747.0</ele><time>2026-03-28T13:47:09.291Z</time></trkpt><trkpt lat="44.3136091" lon="7.5415488"><ele>747.0</ele><time>2026-03-28T13:47:12.292Z</time></trkpt><trkpt lat="44.3137237" lon="7.5416759"><ele>747.0</ele><time>2026-03-28T13:47:14.292Z</time></trkpt><trkpt lat="44.3137786" lon="7.5417366"><ele>747.0</ele><time>2026-03-28T13:47:15.291Z</time></trkpt><trkpt lat="44.3138678" lon="7.541765"><ele>747.0</ele><time>2026-03-28T13:47:16.292Z</time></trkpt><trkpt lat="44.3139739" lon="7.5417915"><ele>744.0</ele><time>2026-03-28T13:47:17.292Z</time></trkpt><trkpt lat="44.3140723" lon="7.5418194"><ele>741.0</ele><time>2026-03-28T13:47:18.292Z</time></trkpt><trkpt lat="44.3141604" lon="7.5418433"><ele>738.0</ele><time>2026-03-28T13:47:19.292Z</time></trkpt><trkpt lat="44.3142454" lon="7.5418718"><ele>735.0</ele><time>2026-03-28T13:47:20.292Z</time></trkpt><trkpt lat="44.3143017" lon="7.5419249"><ele>732.0</ele><time>2026-03-28T13:47:21.292Z</time></trkpt><trkpt lat="44.3143765" lon="7.5419724"><ele>729.0</ele><time>2026-03-28T13:47:22.291Z</time></trkpt><trkpt lat="44.3144464" lon="7.5420193"><ele>729.0</ele><time>2026-03-28T13:47:23.291Z</time></trkpt><trkpt lat="44.3145638" lon="7.5420219"><ele>729.0</ele><time>2026-03-28T13:47:25.292Z</time></trkpt><trkpt lat="44.3146383" lon="7.5420232"><ele>729.0</ele><time>2026-03-28T13:47:26.292Z</time></trkpt><trkpt lat="44.3147034" lon="7.5420651"><ele>729.0</ele><time>2026-03-28T13:47:27.291Z</time></trkpt><trkpt lat="44.3148084" lon="7.5421715"><ele>729.0</ele><time>2026-03-28T13:47:29.291Z</time></trkpt><trkpt lat="44.3148918" lon="7.5422097"><ele>724.4000000000001</ele><time>2026-03-28T13:47:30.291Z</time></trkpt><trkpt lat="44.3149953" lon="7.5422407"><ele>719.8</ele><time>2026-03-28T13:47:31.291Z</time></trkpt><trkpt lat="44.3150902" lon="7.5422739"><ele>715.2</ele><time>2026-03-28T13:47:32.292Z</time></trkpt><trkpt lat="44.3152139" lon="7.5423154"><ele>710.5999999999999</ele><time>2026-03-28T13:47:33.291Z</time></trkpt><trkpt lat="44.3153251" lon="7.5423493"><ele>706.0</ele><time>2026-03-28T13:47:34.291Z</time></trkpt><trkpt lat="44.3153903" lon="7.5424001"><ele>706.0</ele><time>2026-03-28T13:47:35.292Z</time></trkpt><trkpt lat="44.3154577" lon="7.5425224"><ele>706.0</ele><time>2026-03-28T13:47:37.291Z</time></trkpt><trkpt lat="44.3154692" lon="7.542625"><ele>706.0</ele><time>2026-03-28T13:47:39.292Z</time></trkpt><trkpt lat="44.315521" lon="7.542701"><ele>706.0</ele><time>2026-03-28T13:47:41.291Z</time></trkpt><trkpt lat="44.3155862" lon="7.5426873"><ele>706.0</ele><time>2026-03-28T13:47:50.292Z</time></trkpt><trkpt lat="44.3156598" lon="7.5426539"><ele>706.0</ele><time>2026-03-28T13:47:51.292Z</time></trkpt><trkpt lat="44.3157281" lon="7.542627"><ele>702.6666666666667</ele><time>2026-03-28T13:47:52.291Z</time></trkpt><trkpt lat="44.3157934" lon="7.5425695"><ele>699.3333333333334</ele><time>2026-03-28T13:47:53.291Z</time></trkpt><trkpt lat="44.3158623" lon="7.5425457"><ele>696.0</ele><time>2026-03-28T13:47:54.291Z</time></trkpt><trkpt lat="44.3159502" lon="7.5424994"><ele>692.6666666666666</ele><time>2026-03-28T13:47:56.292Z</time></trkpt><trkpt lat="44.3160141" lon="7.5424983"><ele>689.3333333333333</ele><time>2026-03-28T13:47:57.291Z</time></trkpt><trkpt lat="44.3161105" lon="7.5425375"><ele>686.0</ele><time>2026-03-28T13:47:59.291Z</time></trkpt><trkpt lat="44.31611" lon="7.5426509"><ele>686.0</ele><time>2026-03-28T13:48:01.292Z</time></trkpt><trkpt lat="44.3160892" lon="7.5427756"><ele>686.0</ele><time>2026-03-28T13:48:03.291Z</time></trkpt><trkpt lat="44.316039" lon="7.5429316"><ele>686.0</ele><time>2026-03-28T13:48:05.291Z</time></trkpt><trkpt lat="44.3160004" lon="7.5430165"><ele>686.0</ele><time>2026-03-28T13:48:06.292Z</time></trkpt><trkpt lat="44.3159641" lon="7.5431019"><ele>686.0</ele><time>2026-03-28T13:48:07.291Z</time></trkpt><trkpt lat="44.3159383" lon="7.543252"><ele>684.4</ele><time>2026-03-28T13:48:09.291Z</time></trkpt><trkpt lat="44.3158711" lon="7.5433423"><ele>682.8</ele><time>2026-03-28T13:48:16.292Z</time></trkpt><trkpt lat="44.3158088" lon="7.5433164"><ele>681.1999999999999</ele><time>2026-03-28T13:48:17.291Z</time></trkpt><trkpt lat="44.3156745" lon="7.5432218"><ele>679.5999999999999</ele><time>2026-03-28T13:48:19.292Z</time></trkpt><trkpt lat="44.3156108" lon="7.5431749"><ele>678.0</ele><time>2026-03-28T13:48:20.291Z</time></trkpt><trkpt lat="44.3155372" lon="7.5431789"><ele>682.25</ele><time>2026-03-28T13:48:21.292Z</time></trkpt><trkpt lat="44.31546" lon="7.543186"><ele>686.5</ele><time>2026-03-28T13:48:22.291Z</time></trkpt><trkpt lat="44.3153473" lon="7.5433434"><ele>690.75</ele><time>2026-03-28T13:48:23.291Z</time></trkpt><trkpt lat="44.3152507" lon="7.5434449"><ele>695.0</ele><time>2026-03-28T13:48:24.292Z</time></trkpt><trkpt lat="44.3151498" lon="7.5435295"><ele>695.0</ele><time>2026-03-28T13:48:25.292Z</time></trkpt><trkpt lat="44.3150415" lon="7.5436219"><ele>695.0</ele><time>2026-03-28T13:48:26.291Z</time></trkpt><trkpt lat="44.3149306" lon="7.5437062"><ele>695.0</ele><time>2026-03-28T13:48:27.292Z</time></trkpt><trkpt lat="44.3148297" lon="7.543742"><ele>695.0</ele><time>2026-03-28T13:48:28.291Z</time></trkpt><trkpt lat="44.3147246" lon="7.5437772"><ele>698.5</ele><time>2026-03-28T13:48:29.291Z</time></trkpt><trkpt lat="44.3146045" lon="7.5438096"><ele>702.0</ele><time>2026-03-28T13:48:30.292Z</time></trkpt><trkpt lat="44.3144696" lon="7.5438394"><ele>705.5</ele><time>2026-03-28T13:48:31.292Z</time></trkpt><trkpt lat="44.3143557" lon="7.5438634"><ele>709.0</ele><time>2026-03-28T13:48:32.292Z</time></trkpt><trkpt lat="44.3142334" lon="7.5438825"><ele>709.0</ele><time>2026-03-28T13:48:33.292Z</time></trkpt><trkpt lat="44.3141352" lon="7.5439378"><ele>709.0</ele><time>2026-03-28T13:48:34.291Z</time></trkpt><trkpt lat="44.3140474" lon="7.5439643"><ele>709.0</ele><time>2026-03-28T13:48:35.291Z</time></trkpt><trkpt lat="44.3139606" lon="7.5439991"><ele>709.0</ele><time>2026-03-28T13:48:36.291Z</time></trkpt><trkpt lat="44.3138794" lon="7.5440271"><ele>709.0</ele><time>2026-03-28T13:48:37.291Z</time></trkpt><trkpt lat="44.3138075" lon="7.5440647"><ele>709.0</ele><time>2026-03-28T13:48:38.291Z</time></trkpt><trkpt lat="44.3137447" lon="7.544118"><ele>712.4000000000001</ele><time>2026-03-28T13:48:44.291Z</time></trkpt><trkpt lat="44.3136768" lon="7.5441647"><ele>715.8</ele><time>2026-03-28T13:48:46.291Z</time></trkpt><trkpt lat="44.3135625" lon="7.5442228"><ele>719.2</ele><time>2026-03-28T13:48:48.291Z</time></trkpt><trkpt lat="44.3134935" lon="7.5442638"><ele>722.5999999999999</ele><time>2026-03-28T13:48:49.291Z</time></trkpt><trkpt lat="44.3133891" lon="7.5443371"><ele>726.0</ele><time>2026-03-28T13:48:50.291Z</time></trkpt><trkpt lat="44.313296" lon="7.544409"><ele>726.0</ele><time>2026-03-28T13:48:51.291Z</time></trkpt><trkpt lat="44.3132011" lon="7.544462"><ele>726.0</ele><time>2026-03-28T13:48:52.292Z</time></trkpt><trkpt lat="44.3130972" lon="7.5445259"><ele>726.0</ele><time>2026-03-28T13:48:53.292Z</time></trkpt><trkpt lat="44.3129997" lon="7.5446004"><ele>726.0</ele><time>2026-03-28T13:48:54.291Z</time></trkpt><trkpt lat="44.3129326" lon="7.5446556"><ele>726.0</ele><time>2026-03-28T13:48:55.291Z</time></trkpt><trkpt lat="44.3128624" lon="7.5447425"><ele>731.1999999999999</ele><time>2026-03-28T13:48:56.292Z</time></trkpt><trkpt lat="44.3127946" lon="7.5448624"><ele>736.4</ele><time>2026-03-28T13:48:57.292Z</time></trkpt><trkpt lat="44.3127257" lon="7.5449649"><ele>741.6</ele><time>2026-03-28T13:48:58.291Z</time></trkpt><trkpt lat="44.3126797" lon="7.5450425"><ele>746.8</ele><time>2026-03-28T13:48:59.291Z</time></trkpt><trkpt lat="44.3126802" lon="7.545135"><ele>752.0</ele><time>2026-03-28T13:49:00.292Z</time></trkpt><trkpt lat="44.3127479" lon="7.5452529"><ele>753.2</ele><time>2026-03-28T13:49:02.291Z</time></trkpt><trkpt lat="44.3128474" lon="7.5454061"><ele>754.4000000000001</ele><time>2026-03-28T13:49:04.291Z</time></trkpt><trkpt lat="44.3128739" lon="7.5455254"><ele>755.5999999999999</ele><time>2026-03-28T13:49:05.291Z</time></trkpt><trkpt lat="44.3128944" lon="7.5456488"><ele>756.8</ele><time>2026-03-28T13:49:06.291Z</time></trkpt><trkpt lat="44.3128904" lon="7.5457636"><ele>758.0</ele><time>2026-03-28T13:49:07.291Z</time></trkpt><trkpt lat="44.3128855" lon="7.5458788"><ele>758.0000000000001</ele><time>2026-03-28T13:49:08.292Z</time></trkpt><trkpt lat="44.3129255" lon="7.5459703"><ele>758.0</ele><time>2026-03-28T13:49:09.291Z</time></trkpt><trkpt lat="44.312977" lon="7.546033"><ele>758.0</ele><time>2026-03-28T13:49:10.291Z</time></trkpt><trkpt lat="44.3130124" lon="7.546106"><ele>758.0</ele><time>2026-03-28T13:49:11.292Z</time></trkpt><trkpt lat="44.3130438" lon="7.5462152"><ele>758.0</ele><time>2026-03-28T13:49:13.292Z</time></trkpt><trkpt lat="44.3129691" lon="7.5462578"><ele>758.0000000000001</ele><time>2026-03-28T13:49:20.291Z</time></trkpt><trkpt lat="44.3129067" lon="7.5462422"><ele>758.0</ele><time>2026-03-28T13:49:21.292Z</time></trkpt><trkpt lat="44.3128342" lon="7.5462265"><ele>758.0</ele><time>2026-03-28T13:49:22.291Z</time></trkpt><trkpt lat="44.3127717" lon="7.5461929"><ele>758.0</ele><time>2026-03-28T13:49:23.292Z</time></trkpt><trkpt lat="44.3127056" lon="7.546151"><ele>758.0</ele><time>2026-03-28T13:49:24.292Z</time></trkpt><trkpt lat="44.3126401" lon="7.5461217"><ele>758.0</ele><time>2026-03-28T13:49:26.292Z</time></trkpt><trkpt lat="44.3126097" lon="7.5462437"><ele>758.0</ele><time>2026-03-28T13:49:29.292Z</time></trkpt><trkpt lat="44.3126151" lon="7.5464007"><ele>758.0</ele><time>2026-03-28T13:49:31.291Z</time></trkpt><trkpt lat="44.3125914" lon="7.5464939"><ele>760.8333333333333</ele><time>2026-03-28T13:49:32.292Z</time></trkpt><trkpt lat="44.3125458" lon="7.5465643"><ele>763.6666666666666</ele><time>2026-03-28T13:49:33.291Z</time></trkpt><trkpt lat="44.3124468" lon="7.5465187"><ele>766.5</ele><time>2026-03-28T13:49:35.291Z</time></trkpt><trkpt lat="44.3123878" lon="7.5464567"><ele>769.3333333333333</ele><time>2026-03-28T13:49:36.291Z</time></trkpt><trkpt lat="44.312324" lon="7.5464178"><ele>772.1666666666666</ele><time>2026-03-28T13:49:37.291Z</time></trkpt><trkpt lat="44.3121932" lon="7.546426"><ele>775.0</ele><time>2026-03-28T13:49:39.292Z</time></trkpt><trkpt lat="44.3121125" lon="7.5464231"><ele>778.6666666666666</ele><time>2026-03-28T13:49:40.291Z</time></trkpt><trkpt lat="44.3120309" lon="7.5464193"><ele>782.3333333333333</ele><time>2026-03-28T13:49:41.292Z</time></trkpt><trkpt lat="44.3119617" lon="7.5464399"><ele>786.0</ele><time>2026-03-28T13:49:42.291Z</time></trkpt><trkpt lat="44.3118916" lon="7.5464042"><ele>789.6666666666667</ele><time>2026-03-28T13:49:43.291Z</time></trkpt><trkpt lat="44.3118119" lon="7.5463721"><ele>793.3333333333334</ele><time>2026-03-28T13:49:44.292Z</time></trkpt><trkpt lat="44.3116762" lon="7.5463907"><ele>797.0</ele><time>2026-03-28T13:49:46.292Z</time></trkpt><trkpt lat="44.3116071" lon="7.5463944"><ele>797.0000000000001</ele><time>2026-03-28T13:49:47.291Z</time></trkpt><trkpt lat="44.3115324" lon="7.5464071"><ele>797.0</ele><time>2026-03-28T13:49:48.292Z</time></trkpt><trkpt lat="44.3114549" lon="7.5464284"><ele>797.0</ele><time>2026-03-28T13:49:49.292Z</time></trkpt><trkpt lat="44.3113683" lon="7.5464448"><ele>797.0</ele><time>2026-03-28T13:49:50.291Z</time></trkpt><trkpt lat="44.3112805" lon="7.5464514"><ele>797.0000000000001</ele><time>2026-03-28T13:49:51.291Z</time></trkpt><trkpt lat="44.3111817" lon="7.5464179"><ele>797.0</ele><time>2026-03-28T13:49:52.291Z</time></trkpt><trkpt lat="44.3110708" lon="7.5463945"><ele>802.8</ele><time>2026-03-28T13:49:53.291Z</time></trkpt><trkpt lat="44.3109514" lon="7.5463737"><ele>808.6</ele><time>2026-03-28T13:49:54.291Z</time></trkpt><trkpt lat="44.3108533" lon="7.5463365"><ele>814.4</ele><time>2026-03-28T13:49:55.291Z</time></trkpt><trkpt lat="44.3107722" lon="7.5462922"><ele>820.1999999999999</ele><time>2026-03-28T13:49:56.291Z</time></trkpt><trkpt lat="44.3107229" lon="7.5461628"><ele>826.0</ele><time>2026-03-28T13:49:58.291Z</time></trkpt><trkpt lat="44.3106838" lon="7.5460769"><ele>827.0</ele><time>2026-03-28T13:50:01.291Z</time></trkpt><trkpt lat="44.3106631" lon="7.5462144"><ele>828.0</ele><time>2026-03-28T13:51:02.291Z</time></trkpt><trkpt lat="44.3107053" lon="7.5463724"><ele>829.0</ele><time>2026-03-28T13:51:04.291Z</time></trkpt><trkpt lat="44.3107307" lon="7.5464619"><ele>830.0</ele><time>2026-03-28T13:51:05.291Z</time></trkpt><trkpt lat="44.3107757" lon="7.546524"><ele>831.0</ele><time>2026-03-28T13:51:06.291Z</time></trkpt><trkpt lat="44.310864" lon="7.5465897"><ele>831.0</ele><time>2026-03-28T13:51:08.291Z</time></trkpt><trkpt lat="44.3109049" lon="7.5466576"><ele>831.0</ele><time>2026-03-28T13:51:10.292Z</time></trkpt><trkpt lat="44.310913" lon="7.5467634"><ele>831.0</ele><time>2026-03-28T13:51:13.291Z</time></trkpt><trkpt lat="44.3109548" lon="7.5468486"><ele>831.0</ele><time>2026-03-28T13:51:16.291Z</time></trkpt><trkpt lat="44.3110293" lon="7.5469155"><ele>831.0</ele><time>2026-03-28T13:51:19.292Z</time></trkpt><trkpt lat="44.3111072" lon="7.5469484"><ele>831.0</ele><time>2026-03-28T13:51:21.291Z</time></trkpt><trkpt lat="44.311209" lon="7.5470387"><ele>833.0</ele><time>2026-03-28T13:51:23.291Z</time></trkpt><trkpt lat="44.3112623" lon="7.5471041"><ele>835.0</ele><time>2026-03-28T13:51:24.292Z</time></trkpt><trkpt lat="44.3113629" lon="7.5471958"><ele>837.0</ele><time>2026-03-28T13:51:26.291Z</time></trkpt><trkpt lat="44.3114443" lon="7.5472421"><ele>839.0</ele><time>2026-03-28T13:51:28.292Z</time></trkpt><trkpt lat="44.3115248" lon="7.5472843"><ele>841.0</ele><time>2026-03-28T13:51:30.291Z</time></trkpt><trkpt lat="44.3116048" lon="7.5473206"><ele>843.0</ele><time>2026-03-28T13:51:32.292Z</time></trkpt><trkpt lat="44.3116988" lon="7.547362"><ele>837.8333333333334</ele><time>2026-03-28T13:51:34.291Z</time></trkpt><trkpt lat="44.3117712" lon="7.547392"><ele>832.6666666666667</ele><time>2026-03-28T13:51:36.292Z</time></trkpt><trkpt lat="44.3118428" lon="7.5474574"><ele>827.5</ele><time>2026-03-28T13:51:40.291Z</time></trkpt><trkpt lat="44.3119054" lon="7.5475252"><ele>822.3333333333334</ele><time>2026-03-28T13:51:43.291Z</time></trkpt><trkpt lat="44.3118959" lon="7.5476232"><ele>817.1666666666667</ele><time>2026-03-28T13:52:03.291Z</time></trkpt><trkpt lat="44.3118299" lon="7.5476729"><ele>812.0</ele><time>2026-03-28T13:52:05.291Z</time></trkpt><trkpt lat="44.3117309" lon="7.5477024"><ele>812.0</ele><time>2026-03-28T13:52:07.292Z</time></trkpt><trkpt lat="44.3116496" lon="7.5478197"><ele>812.0</ele><time>2026-03-28T13:52:09.291Z</time></trkpt><trkpt lat="44.3115581" lon="7.5480021"><ele>812.0</ele><time>2026-03-28T13:52:11.292Z</time></trkpt><trkpt lat="44.3114861" lon="7.5481056"><ele>812.0</ele><time>2026-03-28T13:52:12.291Z</time></trkpt><trkpt lat="44.3114093" lon="7.5482003"><ele>817.6666666666667</ele><time>2026-03-28T13:52:13.291Z</time></trkpt><trkpt lat="44.3113508" lon="7.5482823"><ele>823.3333333333334</ele><time>2026-03-28T13:52:14.292Z</time></trkpt><trkpt lat="44.3113132" lon="7.5483816"><ele>829.0</ele><time>2026-03-28T13:52:15.291Z</time></trkpt><trkpt lat="44.3112484" lon="7.5484786"><ele>834.6666666666667</ele><time>2026-03-28T13:52:16.291Z</time></trkpt><trkpt lat="44.3111969" lon="7.5485798"><ele>840.3333333333334</ele><time>2026-03-28T13:52:17.292Z</time></trkpt><trkpt lat="44.3111707" lon="7.5486738"><ele>846.0</ele><time>2026-03-28T13:52:18.292Z</time></trkpt><trkpt lat="44.3111435" lon="7.5487574"><ele>846.0</ele><time>2026-03-28T13:52:19.291Z</time></trkpt><trkpt lat="44.3110957" lon="7.5488682"><ele>846.0</ele><time>2026-03-28T13:52:20.292Z</time></trkpt><trkpt lat="44.3110288" lon="7.5489798"><ele>846.0</ele><time>2026-03-28T13:52:21.292Z</time></trkpt><trkpt lat="44.3109451" lon="7.5491008"><ele>846.0</ele><time>2026-03-28T13:52:22.291Z</time></trkpt><trkpt lat="44.3108722" lon="7.5491786"><ele>846.0</ele><time>2026-03-28T13:52:23.291Z</time></trkpt><trkpt lat="44.3108158" lon="7.5492413"><ele>846.0</ele><time>2026-03-28T13:52:24.291Z</time></trkpt><trkpt lat="44.3107491" lon="7.5493325"><ele>846.0</ele><time>2026-03-28T13:52:25.292Z</time></trkpt><trkpt lat="44.3106739" lon="7.5494424"><ele>846.0</ele><time>2026-03-28T13:52:26.291Z</time></trkpt><trkpt lat="44.3105985" lon="7.5495148"><ele>846.0</ele><time>2026-03-28T13:52:27.291Z</time></trkpt><trkpt lat="44.3105108" lon="7.5495679"><ele>846.0</ele><time>2026-03-28T13:52:28.291Z</time></trkpt><trkpt lat="44.3104301" lon="7.5495774"><ele>850.5999999999999</ele><time>2026-03-28T13:52:29.291Z</time></trkpt><trkpt lat="44.3102901" lon="7.5496695"><ele>855.2</ele><time>2026-03-28T13:52:31.291Z</time></trkpt><trkpt lat="44.310217" lon="7.5497706"><ele>859.8000000000001</ele><time>2026-03-28T13:52:32.291Z</time></trkpt><trkpt lat="44.3101614" lon="7.549881"><ele>864.4000000000001</ele><time>2026-03-28T13:52:33.291Z</time></trkpt><trkpt lat="44.310109" lon="7.5499848"><ele>869.0</ele><time>2026-03-28T13:52:34.292Z</time></trkpt><trkpt lat="44.3100681" lon="7.5500585"><ele>869.0</ele><time>2026-03-28T13:52:40.291Z</time></trkpt><trkpt lat="44.3101254" lon="7.5500207"><ele>869.0</ele><time>2026-03-28T14:07:27.296Z</time></trkpt><trkpt lat="44.310142" lon="7.5499212"><ele>869.0</ele><time>2026-03-28T14:07:55.279Z</time></trkpt><trkpt lat="44.3101578" lon="7.5498176"><ele>869.0</ele><time>2026-03-28T14:33:26.291Z</time></trkpt><trkpt lat="44.3101791" lon="7.5499116"><ele>869.0</ele><time>2026-03-28T14:33:38.303Z</time></trkpt><trkpt lat="44.3102367" lon="7.549872"><ele>869.0</ele><time>2026-03-28T14:33:43.303Z</time></trkpt><trkpt lat="44.31029" lon="7.5497815"><ele>869.0</ele><time>2026-03-28T14:33:46.303Z</time></trkpt><trkpt lat="44.3103218" lon="7.5496759"><ele>869.0000000000001</ele><time>2026-03-28T14:33:49.302Z</time></trkpt><trkpt lat="44.3103448" lon="7.5495869"><ele>869.0</ele><time>2026-03-28T14:34:35.324Z</time></trkpt><trkpt lat="44.3104011" lon="7.5494985"><ele>869.0</ele><time>2026-03-28T14:34:38.338Z</time></trkpt><trkpt lat="44.3104557" lon="7.5494317"><ele>869.0</ele><time>2026-03-28T14:34:42.292Z</time></trkpt><trkpt lat="44.3105125" lon="7.5493845"><ele>869.0000000000001</ele><time>2026-03-28T14:34:45.219Z</time></trkpt><trkpt lat="44.3105592" lon="7.5493224"><ele>869.0</ele><time>2026-03-28T14:34:48.291Z</time></trkpt><trkpt lat="44.310461" lon="7.549285"><ele>870.6666666666667</ele><time>2026-03-28T14:34:49.291Z</time></trkpt><trkpt lat="44.3103534" lon="7.5492588"><ele>872.3333333333334</ele><time>2026-03-28T14:34:51.291Z</time></trkpt><trkpt lat="44.3102827" lon="7.5492082"><ele>874.0</ele><time>2026-03-28T14:34:53.299Z</time></trkpt><trkpt lat="44.3102153" lon="7.5492127"><ele>875.6666666666667</ele><time>2026-03-28T14:34:58.3Z</time></trkpt><trkpt lat="44.310156" lon="7.5491744"><ele>877.3333333333334</ele><time>2026-03-28T14:45:19.292Z</time></trkpt><trkpt lat="44.3102344" lon="7.549191"><ele>879.0</ele><time>2026-03-28T14:57:14.291Z</time></trkpt><trkpt lat="44.3102972" lon="7.5492402"><ele>879.0</ele><time>2026-03-28T14:57:22.291Z</time></trkpt><trkpt lat="44.310352" lon="7.5492914"><ele>879.0</ele><time>2026-03-28T14:57:27.292Z</time></trkpt><trkpt lat="44.3104084" lon="7.5493334"><ele>879.0</ele><time>2026-03-28T14:57:32.292Z</time></trkpt><trkpt lat="44.3104744" lon="7.5494084"><ele>879.0</ele><time>2026-03-28T14:57:38.291Z</time></trkpt><trkpt lat="44.3105425" lon="7.5494661"><ele>879.0</ele><time>2026-03-28T14:57:42.292Z</time></trkpt><trkpt lat="44.3106046" lon="7.5494174"><ele>879.0</ele><time>2026-03-28T14:58:07.292Z</time></trkpt><trkpt lat="44.3106638" lon="7.5493664"><ele>879.0</ele><time>2026-03-28T14:58:10.291Z</time></trkpt><trkpt lat="44.3107348" lon="7.5492799"><ele>874.2857142857143</ele><time>2026-03-28T14:58:13.291Z</time></trkpt><trkpt lat="44.3107772" lon="7.5492135"><ele>869.5714285714287</ele><time>2026-03-28T14:58:16.291Z</time></trkpt><trkpt lat="44.3108313" lon="7.5491655"><ele>864.8571428571429</ele><time>2026-03-28T14:58:25.291Z</time></trkpt><trkpt lat="44.3108413" lon="7.5490541"><ele>860.1428571428571</ele><time>2026-03-28T14:59:02.291Z</time></trkpt><trkpt lat="44.3108264" lon="7.5489451"><ele>855.4285714285714</ele><time>2026-03-28T14:59:05.291Z</time></trkpt><trkpt lat="44.3107568" lon="7.5489431"><ele>850.7142857142857</ele><time>2026-03-28T14:59:08.291Z</time></trkpt><trkpt lat="44.3108242" lon="7.5488983"><ele>846.0</ele><time>2026-03-28T14:59:31.291Z</time></trkpt><trkpt lat="44.3108651" lon="7.548988"><ele>846.0</ele><time>2026-03-28T14:59:34.291Z</time></trkpt><trkpt lat="44.3108605" lon="7.5491072"><ele>846.0</ele><time>2026-03-28T14:59:36.292Z</time></trkpt><trkpt lat="44.3108405" lon="7.5492177"><ele>846.0</ele><time>2026-03-28T14:59:38.292Z</time></trkpt><trkpt lat="44.3107535" lon="7.5493337"><ele>846.0</ele><time>2026-03-28T14:59:40.292Z</time></trkpt><trkpt lat="44.3106771" lon="7.5494323"><ele>846.0</ele><time>2026-03-28T14:59:42.291Z</time></trkpt><trkpt lat="44.3105961" lon="7.5495017"><ele>849.8333333333334</ele><time>2026-03-28T14:59:44.292Z</time></trkpt><trkpt lat="44.3105239" lon="7.5495486"><ele>853.6666666666667</ele><time>2026-03-28T14:59:46.292Z</time></trkpt><trkpt lat="44.3104439" lon="7.5495822"><ele>857.5</ele><time>2026-03-28T14:59:58.291Z</time></trkpt><trkpt lat="44.3103636" lon="7.5495342"><ele>861.3333333333334</ele><time>2026-03-28T15:00:14.292Z</time></trkpt><trkpt lat="44.3103125" lon="7.5494747"><ele>865.1666666666667</ele><time>2026-03-28T15:00:16.291Z</time></trkpt><trkpt lat="44.3103518" lon="7.5495708"><ele>869.0</ele><time>2026-03-28T15:05:31.292Z</time></trkpt><trkpt lat="44.3104248" lon="7.5495536"><ele>869.0000000000001</ele><time>2026-03-28T15:05:36.291Z</time></trkpt><trkpt lat="44.3104899" lon="7.5495428"><ele>869.0</ele><time>2026-03-28T15:05:39.291Z</time></trkpt><trkpt lat="44.3105628" lon="7.5494977"><ele>869.0</ele><time>2026-03-28T15:05:43.292Z</time></trkpt><trkpt lat="44.3106214" lon="7.5494396"><ele>869.0</ele><time>2026-03-28T15:08:37.292Z</time></trkpt><trkpt lat="44.3106764" lon="7.5493695"><ele>869.0000000000001</ele><time>2026-03-28T15:08:40.291Z</time></trkpt><trkpt lat="44.3107411" lon="7.5492736"><ele>869.0</ele><time>2026-03-28T15:08:42.291Z</time></trkpt><trkpt lat="44.3108323" lon="7.5491179"><ele>865.4000000000001</ele><time>2026-03-28T15:08:44.291Z</time></trkpt><trkpt lat="44.3108881" lon="7.5490567"><ele>861.8000000000001</ele><time>2026-03-28T15:08:45.291Z</time></trkpt><trkpt lat="44.3109787" lon="7.5489146"><ele>858.2</ele><time>2026-03-28T15:08:47.292Z</time></trkpt><trkpt lat="44.31107" lon="7.5487654"><ele>854.5999999999999</ele><time>2026-03-28T15:08:49.291Z</time></trkpt><trkpt lat="44.3111307" lon="7.5486549"><ele>851.0</ele><time>2026-03-28T15:08:51.292Z</time></trkpt><trkpt lat="44.3111616" lon="7.5485602"><ele>851.0000000000001</ele><time>2026-03-28T15:08:53.291Z</time></trkpt><trkpt lat="44.3112163" lon="7.5484427"><ele>851.0</ele><time>2026-03-28T15:08:55.292Z</time></trkpt><trkpt lat="44.3112723" lon="7.5483739"><ele>851.0</ele><time>2026-03-28T15:08:56.291Z</time></trkpt><trkpt lat="44.3113192" lon="7.5482929"><ele>851.0</ele><time>2026-03-28T15:08:57.292Z</time></trkpt><trkpt lat="44.3113758" lon="7.5482078"><ele>851.0000000000001</ele><time>2026-03-28T15:08:58.291Z</time></trkpt><trkpt lat="44.3114158" lon="7.5481319"><ele>851.0</ele><time>2026-03-28T15:08:59.291Z</time></trkpt><trkpt lat="44.3114663" lon="7.5480319"><ele>844.6666666666667</ele><time>2026-03-28T15:09:00.292Z</time></trkpt><trkpt lat="44.3115072" lon="7.5479496"><ele>838.3333333333334</ele><time>2026-03-28T15:09:01.291Z</time></trkpt><trkpt lat="44.3115537" lon="7.547863"><ele>832.0</ele><time>2026-03-28T15:09:02.291Z</time></trkpt><trkpt lat="44.3116294" lon="7.5477281"><ele>825.6666666666667</ele><time>2026-03-28T15:09:04.291Z</time></trkpt><trkpt lat="44.3116842" lon="7.5476809"><ele>819.3333333333334</ele><time>2026-03-28T15:09:07.304Z</time></trkpt><trkpt lat="44.3117758" lon="7.5476504"><ele>813.0</ele><time>2026-03-28T15:09:08.291Z</time></trkpt><trkpt lat="44.3118542" lon="7.5476373"><ele>812.8</ele><time>2026-03-28T15:09:11.291Z</time></trkpt><trkpt lat="44.3119391" lon="7.5476141"><ele>812.5999999999999</ele><time>2026-03-28T15:09:14.233Z</time></trkpt><trkpt lat="44.3120492" lon="7.5476138"><ele>812.4000000000001</ele><time>2026-03-28T15:09:15.292Z</time></trkpt><trkpt lat="44.3121402" lon="7.5476125"><ele>812.2</ele><time>2026-03-28T15:09:16.292Z</time></trkpt><trkpt lat="44.3122368" lon="7.547609"><ele>812.0</ele><time>2026-03-28T15:09:17.292Z</time></trkpt><trkpt lat="44.3123664" lon="7.5476135"><ele>807.2</ele><time>2026-03-28T15:09:19.292Z</time></trkpt><trkpt lat="44.3124307" lon="7.5475872"><ele>802.4000000000001</ele><time>2026-03-28T15:09:20.291Z</time></trkpt><trkpt lat="44.3125577" lon="7.5475382"><ele>797.5999999999999</ele><time>2026-03-28T15:09:22.291Z</time></trkpt><trkpt lat="44.3126486" lon="7.5474534"><ele>792.8</ele><time>2026-03-28T15:09:24.291Z</time></trkpt><trkpt lat="44.3126874" lon="7.5473269"><ele>788.0</ele><time>2026-03-28T15:09:26.292Z</time></trkpt><trkpt lat="44.3126103" lon="7.5471744"><ele>788.0</ele><time>2026-03-28T15:09:28.291Z</time></trkpt><trkpt lat="44.3125458" lon="7.5470848"><ele>788.0</ele><time>2026-03-28T15:09:29.292Z</time></trkpt><trkpt lat="44.3124674" lon="7.5470173"><ele>788.0</ele><time>2026-03-28T15:09:30.291Z</time></trkpt><trkpt lat="44.3124002" lon="7.5469525"><ele>788.0</ele><time>2026-03-28T15:09:31.292Z</time></trkpt><trkpt lat="44.3123191" lon="7.546869"><ele>788.0</ele><time>2026-03-28T15:09:33.291Z</time></trkpt><trkpt lat="44.3122912" lon="7.5467542"><ele>789.2857142857143</ele><time>2026-03-28T15:09:36.292Z</time></trkpt><trkpt lat="44.3122639" lon="7.5466701"><ele>790.5714285714287</ele><time>2026-03-28T15:09:38.291Z</time></trkpt><trkpt lat="44.3122117" lon="7.5465959"><ele>791.8571428571429</ele><time>2026-03-28T15:09:40.292Z</time></trkpt><trkpt lat="44.3122204" lon="7.5464575"><ele>793.1428571428571</ele><time>2026-03-28T15:09:42.292Z</time></trkpt><trkpt lat="44.3122619" lon="7.5463716"><ele>794.4285714285714</ele><time>2026-03-28T15:09:44.291Z</time></trkpt><trkpt lat="44.312324" lon="7.5463519"><ele>795.7142857142857</ele><time>2026-03-28T15:09:46.291Z</time></trkpt><trkpt lat="44.3123878" lon="7.5463802"><ele>797.0</ele><time>2026-03-28T15:09:48.292Z</time></trkpt><trkpt lat="44.3124389" lon="7.5464392"><ele>793.3333333333334</ele><time>2026-03-28T15:09:51.291Z</time></trkpt><trkpt lat="44.3125051" lon="7.5464593"><ele>789.6666666666667</ele><time>2026-03-28T15:09:58.291Z</time></trkpt><trkpt lat="44.3125273" lon="7.5463583"><ele>786.0</ele><time>2026-03-28T15:09:59.292Z</time></trkpt><trkpt lat="44.3125387" lon="7.5462499"><ele>782.3333333333333</ele><time>2026-03-28T15:10:00.291Z</time></trkpt><trkpt lat="44.312554" lon="7.5461342"><ele>778.6666666666666</ele><time>2026-03-28T15:10:01.291Z</time></trkpt><trkpt lat="44.3125321" lon="7.5460046"><ele>775.0</ele><time>2026-03-28T15:10:03.292Z</time></trkpt><trkpt lat="44.3125903" lon="7.5460438"><ele>771.6</ele><time>2026-03-28T15:10:17.292Z</time></trkpt><trkpt lat="44.3126909" lon="7.5461664"><ele>768.2</ele><time>2026-03-28T15:10:21.291Z</time></trkpt><trkpt lat="44.3127979" lon="7.5461863"><ele>764.8</ele><time>2026-03-28T15:10:22.291Z</time></trkpt><trkpt lat="44.3128921" lon="7.5461726"><ele>761.4</ele><time>2026-03-28T15:10:23.291Z</time></trkpt><trkpt lat="44.3129729" lon="7.5461506"><ele>758.0</ele><time>2026-03-28T15:10:24.292Z</time></trkpt><trkpt lat="44.3130266" lon="7.5460831"><ele>758.0</ele><time>2026-03-28T15:10:26.292Z</time></trkpt><trkpt lat="44.3129858" lon="7.5459792"><ele>758.0</ele><time>2026-03-28T15:10:28.291Z</time></trkpt><trkpt lat="44.3129004" lon="7.5458729"><ele>758.0</ele><time>2026-03-28T15:10:30.291Z</time></trkpt><trkpt lat="44.3128789" lon="7.5457567"><ele>758.0</ele><time>2026-03-28T15:10:31.291Z</time></trkpt><trkpt lat="44.3128828" lon="7.5456366"><ele>758.0</ele><time>2026-03-28T15:10:32.292Z</time></trkpt><trkpt lat="44.3128921" lon="7.5455341"><ele>758.0</ele><time>2026-03-28T15:10:33.291Z</time></trkpt><trkpt lat="44.3128888" lon="7.5454281"><ele>756.8</ele><time>2026-03-28T15:10:34.291Z</time></trkpt><trkpt lat="44.3128584" lon="7.5453182"><ele>755.5999999999999</ele><time>2026-03-28T15:10:35.291Z</time></trkpt><trkpt lat="44.3128263" lon="7.5452065"><ele>754.4000000000001</ele><time>2026-03-28T15:10:36.291Z</time></trkpt><trkpt lat="44.31276" lon="7.5451613"><ele>753.2</ele><time>2026-03-28T15:10:37.291Z</time></trkpt><trkpt lat="44.3126844" lon="7.5450567"><ele>752.0</ele><time>2026-03-28T15:10:39.292Z</time></trkpt><trkpt lat="44.3127111" lon="7.5449079"><ele>752.0</ele><time>2026-03-28T15:10:41.292Z</time></trkpt><trkpt lat="44.3127605" lon="7.5448126"><ele>752.0</ele><time>2026-03-28T15:10:42.292Z</time></trkpt><trkpt lat="44.312809" lon="7.5447071"><ele>752.0</ele><time>2026-03-28T15:10:43.292Z</time></trkpt><trkpt lat="44.3128651" lon="7.5446064"><ele>752.0</ele><time>2026-03-28T15:10:44.292Z</time></trkpt><trkpt lat="44.3129075" lon="7.5445152"><ele>752.0</ele><time>2026-03-28T15:10:45.291Z</time></trkpt><trkpt lat="44.3129987" lon="7.5444731"><ele>752.0</ele><time>2026-03-28T15:10:46.29Z</time></trkpt><trkpt lat="44.3130786" lon="7.5444302"><ele>747.6666666666666</ele><time>2026-03-28T15:10:47.291Z</time></trkpt><trkpt lat="44.3131394" lon="7.5443815"><ele>743.3333333333333</ele><time>2026-03-28T15:10:48.292Z</time></trkpt><trkpt lat="44.3132171" lon="7.5443357"><ele>739.0</ele><time>2026-03-28T15:10:49.292Z</time></trkpt><trkpt lat="44.3132908" lon="7.5442955"><ele>734.6666666666666</ele><time>2026-03-28T15:10:50.291Z</time></trkpt><trkpt lat="44.3133607" lon="7.5442595"><ele>730.3333333333334</ele><time>2026-03-28T15:10:51.291Z</time></trkpt><trkpt lat="44.3134843" lon="7.5442062"><ele>726.0</ele><time>2026-03-28T15:10:53.292Z</time></trkpt><trkpt lat="44.313561" lon="7.5441776"><ele>726.0</ele><time>2026-03-28T15:10:54.292Z</time></trkpt><trkpt lat="44.3136433" lon="7.5441405"><ele>726.0</ele><time>2026-03-28T15:10:55.292Z</time></trkpt><trkpt lat="44.3137482" lon="7.5440998"><ele>726.0</ele><time>2026-03-28T15:10:56.291Z</time></trkpt><trkpt lat="44.3138084" lon="7.5440695"><ele>726.0</ele><time>2026-03-28T15:10:57.291Z</time></trkpt><trkpt lat="44.3138435" lon="7.5439799"><ele>726.0</ele><time>2026-03-28T15:11:00.292Z</time></trkpt><trkpt lat="44.3139283" lon="7.5439469"><ele>726.0</ele><time>2026-03-28T15:11:04.291Z</time></trkpt><trkpt lat="44.3140308" lon="7.5439392"><ele>722.5999999999999</ele><time>2026-03-28T15:11:07.292Z</time></trkpt><trkpt lat="44.3140882" lon="7.5438846"><ele>719.2</ele><time>2026-03-28T15:11:09.292Z</time></trkpt><trkpt lat="44.3142102" lon="7.5438326"><ele>715.8</ele><time>2026-03-28T15:11:12.292Z</time></trkpt><trkpt lat="44.31428" lon="7.5438147"><ele>712.4000000000001</ele><time>2026-03-28T15:11:13.291Z</time></trkpt><trkpt lat="44.3143675" lon="7.5437896"><ele>709.0</ele><time>2026-03-28T15:11:14.292Z</time></trkpt><trkpt lat="44.3144753" lon="7.5437604"><ele>709.0</ele><time>2026-03-28T15:11:15.291Z</time></trkpt><trkpt lat="44.3145907" lon="7.5437305"><ele>709.0</ele><time>2026-03-28T15:11:16.291Z</time></trkpt><trkpt lat="44.3146703" lon="7.5437087"><ele>709.0</ele><time>2026-03-28T15:11:17.291Z</time></trkpt><trkpt lat="44.3147501" lon="7.5436728"><ele>709.0</ele><time>2026-03-28T15:11:18.291Z</time></trkpt><trkpt lat="44.3148246" lon="7.5436341"><ele>709.0</ele><time>2026-03-28T15:11:19.292Z</time></trkpt><trkpt lat="44.3149113" lon="7.5435804"><ele>706.2</ele><time>2026-03-28T15:11:20.292Z</time></trkpt><trkpt lat="44.3150167" lon="7.543513"><ele>703.4000000000001</ele><time>2026-03-28T15:11:21.292Z</time></trkpt><trkpt lat="44.3151059" lon="7.5434594"><ele>700.6</ele><time>2026-03-28T15:11:22.291Z</time></trkpt><trkpt lat="44.3151853" lon="7.5433684"><ele>697.8</ele><time>2026-03-28T15:11:23.292Z</time></trkpt><trkpt lat="44.3152692" lon="7.5432691"><ele>695.0</ele><time>2026-03-28T15:11:24.291Z</time></trkpt><trkpt lat="44.3153385" lon="7.5431886"><ele>695.0</ele><time>2026-03-28T15:11:25.291Z</time></trkpt><trkpt lat="44.3154337" lon="7.5431228"><ele>695.0</ele><time>2026-03-28T15:11:26.291Z</time></trkpt><trkpt lat="44.3155218" lon="7.5430758"><ele>695.0</ele><time>2026-03-28T15:11:27.291Z</time></trkpt><trkpt lat="44.315595" lon="7.5430493"><ele>695.0</ele><time>2026-03-28T15:11:28.291Z</time></trkpt><trkpt lat="44.3156672" lon="7.5431806"><ele>695.0</ele><time>2026-03-28T15:11:29.291Z</time></trkpt><trkpt lat="44.3157341" lon="7.5432976"><ele>692.1666666666666</ele><time>2026-03-28T15:11:30.292Z</time></trkpt><trkpt lat="44.3158445" lon="7.5433267"><ele>689.3333333333333</ele><time>2026-03-28T15:11:32.291Z</time></trkpt><trkpt lat="44.3159105" lon="7.5432908"><ele>686.5</ele><time>2026-03-28T15:11:33.292Z</time></trkpt><trkpt lat="44.3159975" lon="7.5433313"><ele>683.6666666666666</ele><time>2026-03-28T15:12:16.292Z</time></trkpt><trkpt lat="44.3160614" lon="7.5434207"><ele>680.8333333333334</ele><time>2026-03-28T15:12:17.291Z</time></trkpt><trkpt lat="44.3161235" lon="7.5434992"><ele>678.0</ele><time>2026-03-28T15:12:18.292Z</time></trkpt><trkpt lat="44.3161948" lon="7.543568"><ele>678.0</ele><time>2026-03-28T15:12:19.292Z</time></trkpt><trkpt lat="44.3162885" lon="7.5436348"><ele>678.0</ele><time>2026-03-28T15:12:20.292Z</time></trkpt><trkpt lat="44.3163827" lon="7.5436847"><ele>678.0</ele><time>2026-03-28T15:12:21.291Z</time></trkpt><trkpt lat="44.3164774" lon="7.5437413"><ele>678.0</ele><time>2026-03-28T15:12:22.291Z</time></trkpt><trkpt lat="44.31657" lon="7.5438211"><ele>678.0</ele><time>2026-03-28T15:12:23.292Z</time></trkpt><trkpt lat="44.3166677" lon="7.5438857"><ele>676.0</ele><time>2026-03-28T15:12:24.292Z</time></trkpt><trkpt lat="44.3167362" lon="7.54397"><ele>674.0</ele><time>2026-03-28T15:12:25.292Z</time></trkpt><trkpt lat="44.3168282" lon="7.5440304"><ele>672.0</ele><time>2026-03-28T15:12:26.291Z</time></trkpt><trkpt lat="44.3169285" lon="7.5440731"><ele>670.0</ele><time>2026-03-28T15:12:27.292Z</time></trkpt><trkpt lat="44.3170222" lon="7.5441131"><ele>668.0</ele><time>2026-03-28T15:12:28.292Z</time></trkpt><trkpt lat="44.3170934" lon="7.5441728"><ele>668.0</ele><time>2026-03-28T15:12:29.291Z</time></trkpt><trkpt lat="44.3171871" lon="7.5442255"><ele>668.0</ele><time>2026-03-28T15:12:30.291Z</time></trkpt><trkpt lat="44.3172471" lon="7.5443321"><ele>668.0</ele><time>2026-03-28T15:12:31.291Z</time></trkpt><trkpt lat="44.3173094" lon="7.5444415"><ele>668.0</ele><time>2026-03-28T15:12:32.291Z</time></trkpt><trkpt lat="44.3173562" lon="7.544559"><ele>668.0</ele><time>2026-03-28T15:12:33.292Z</time></trkpt><trkpt lat="44.3174013" lon="7.5446773"><ele>665.1666666666666</ele><time>2026-03-28T15:12:34.292Z</time></trkpt><trkpt lat="44.3174434" lon="7.544783"><ele>662.3333333333333</ele><time>2026-03-28T15:12:35.291Z</time></trkpt><trkpt lat="44.3174938" lon="7.5448802"><ele>659.5</ele><time>2026-03-28T15:12:36.292Z</time></trkpt><trkpt lat="44.317534" lon="7.544993"><ele>656.6666666666666</ele><time>2026-03-28T15:12:37.291Z</time></trkpt><trkpt lat="44.3175457" lon="7.5451109"><ele>653.8333333333334</ele><time>2026-03-28T15:12:38.291Z</time></trkpt><trkpt lat="44.3175497" lon="7.5452173"><ele>651.0</ele><time>2026-03-28T15:12:39.291Z</time></trkpt><trkpt lat="44.317567" lon="7.5453036"><ele>650.8</ele><time>2026-03-28T15:12:40.291Z</time></trkpt><trkpt lat="44.3176554" lon="7.5454183"><ele>650.5999999999999</ele><time>2026-03-28T15:12:42.291Z</time></trkpt><trkpt lat="44.3177219" lon="7.545449"><ele>650.4</ele><time>2026-03-28T15:12:43.292Z</time></trkpt><trkpt lat="44.3178046" lon="7.5454802"><ele>650.2</ele><time>2026-03-28T15:12:44.291Z</time></trkpt><trkpt lat="44.3178825" lon="7.5455312"><ele>650.0</ele><time>2026-03-28T15:12:45.292Z</time></trkpt><trkpt lat="44.3179608" lon="7.5455978"><ele>650.0</ele><time>2026-03-28T15:12:46.292Z</time></trkpt><trkpt lat="44.3180424" lon="7.5456744"><ele>650.0</ele><time>2026-03-28T15:12:47.292Z</time></trkpt><trkpt lat="44.3181217" lon="7.5457602"><ele>650.0</ele><time>2026-03-28T15:12:48.292Z</time></trkpt><trkpt lat="44.3182105" lon="7.5458632"><ele>650.0</ele><time>2026-03-28T15:12:49.292Z</time></trkpt><trkpt lat="44.3183021" lon="7.5459515"><ele>650.0</ele><time>2026-03-28T15:12:50.292Z</time></trkpt><trkpt lat="44.3183894" lon="7.5460467"><ele>648.5</ele><time>2026-03-28T15:12:51.291Z</time></trkpt><trkpt lat="44.318477" lon="7.5461409"><ele>647.0</ele><time>2026-03-28T15:12:52.291Z</time></trkpt><trkpt lat="44.3185701" lon="7.5462465"><ele>645.5</ele><time>2026-03-28T15:12:53.292Z</time></trkpt><trkpt lat="44.3186577" lon="7.546367"><ele>644.0</ele><time>2026-03-28T15:12:54.291Z</time></trkpt><trkpt lat="44.3187574" lon="7.5464852"><ele>644.0</ele><time>2026-03-28T15:12:55.292Z</time></trkpt><trkpt lat="44.3188393" lon="7.5466019"><ele>644.0</ele><time>2026-03-28T15:12:56.291Z</time></trkpt><trkpt lat="44.3189213" lon="7.5467124"><ele>644.0</ele><time>2026-03-28T15:12:57.291Z</time></trkpt><trkpt lat="44.3189949" lon="7.5468287"><ele>644.0</ele><time>2026-03-28T15:12:58.291Z</time></trkpt><trkpt lat="44.3190687" lon="7.5469352"><ele>644.0</ele><time>2026-03-28T15:12:59.292Z</time></trkpt><trkpt lat="44.3191525" lon="7.5470326"><ele>640.0</ele><time>2026-03-28T15:13:00.291Z</time></trkpt><trkpt lat="44.3192496" lon="7.5471182"><ele>636.0</ele><time>2026-03-28T15:13:01.292Z</time></trkpt><trkpt lat="44.3193563" lon="7.5471972"><ele>632.0</ele><time>2026-03-28T15:13:02.291Z</time></trkpt><trkpt lat="44.3194726" lon="7.5472554"><ele>628.0</ele><time>2026-03-28T15:13:03.291Z</time></trkpt><trkpt lat="44.3195793" lon="7.5473162"><ele>628.0</ele><time>2026-03-28T15:13:04.291Z</time></trkpt><trkpt lat="44.3196823" lon="7.5473731"><ele>628.0</ele><time>2026-03-28T15:13:05.292Z</time></trkpt><trkpt lat="44.3197725" lon="7.5474255"><ele>628.0</ele><time>2026-03-28T15:13:06.291Z</time></trkpt><trkpt lat="44.3198558" lon="7.5474735"><ele>628.0</ele><time>2026-03-28T15:13:08.292Z</time></trkpt><trkpt lat="44.3199082" lon="7.5474171"><ele>628.0</ele><time>2026-03-28T15:13:11.291Z</time></trkpt><trkpt lat="44.3198901" lon="7.5472356"><ele>626.6</ele><time>2026-03-28T15:13:13.292Z</time></trkpt><trkpt lat="44.3198687" lon="7.5471108"><ele>625.1999999999999</ele><time>2026-03-28T15:13:14.292Z</time></trkpt><trkpt lat="44.3198445" lon="7.5469721"><ele>623.8</ele><time>2026-03-28T15:13:15.291Z</time></trkpt><trkpt lat="44.3198223" lon="7.5468308"><ele>622.4</ele><time>2026-03-28T15:13:16.292Z</time></trkpt><trkpt lat="44.3197912" lon="7.5466737"><ele>621.0</ele><time>2026-03-28T15:13:17.291Z</time></trkpt><trkpt lat="44.3197677" lon="7.5465108"><ele>621.5</ele><time>2026-03-28T15:13:18.291Z</time></trkpt><trkpt lat="44.3197309" lon="7.5463439"><ele>622.0</ele><time>2026-03-28T15:13:19.291Z</time></trkpt><trkpt lat="44.3196826" lon="7.5461744"><ele>622.5</ele><time>2026-03-28T15:13:20.292Z</time></trkpt><trkpt lat="44.3196291" lon="7.5460032"><ele>623.0</ele><time>2026-03-28T15:13:21.291Z</time></trkpt><trkpt lat="44.3195729" lon="7.5458373"><ele>623.0</ele><time>2026-03-28T15:13:22.291Z</time></trkpt><trkpt lat="44.3195247" lon="7.5456793"><ele>623.0</ele><time>2026-03-28T15:13:23.292Z</time></trkpt><trkpt lat="44.3194946" lon="7.5455027"><ele>623.0</ele><time>2026-03-28T15:13:24.292Z</time></trkpt><trkpt lat="44.3194691" lon="7.5453189"><ele>623.0</ele><time>2026-03-28T15:13:25.291Z</time></trkpt><trkpt lat="44.3194475" lon="7.5451325"><ele>624.0</ele><time>2026-03-28T15:13:26.292Z</time></trkpt><trkpt lat="44.3194259" lon="7.5449472"><ele>625.0</ele><time>2026-03-28T15:13:27.291Z</time></trkpt><trkpt lat="44.3194051" lon="7.5447645"><ele>626.0</ele><time>2026-03-28T15:13:28.292Z</time></trkpt><trkpt lat="44.3193833" lon="7.5445795"><ele>627.0</ele><time>2026-03-28T15:13:29.292Z</time></trkpt><trkpt lat="44.3193708" lon="7.5443981"><ele>627.8000000000001</ele><time>2026-03-28T15:13:30.291Z</time></trkpt><trkpt lat="44.3193594" lon="7.544246"><ele>628.6</ele><time>2026-03-28T15:13:31.291Z</time></trkpt><trkpt lat="44.3193489" lon="7.5441278"><ele>629.4000000000001</ele><time>2026-03-28T15:13:32.292Z</time></trkpt><trkpt lat="44.3193317" lon="7.5440202"><ele>630.2</ele><time>2026-03-28T15:13:33.291Z</time></trkpt><trkpt lat="44.3193172" lon="7.5439263"><ele>631.0</ele><time>2026-03-28T15:13:34.291Z</time></trkpt><trkpt lat="44.3192982" lon="7.54377"><ele>631.0</ele><time>2026-03-28T15:13:36.291Z</time></trkpt><trkpt lat="44.3193636" lon="7.5436366"><ele>631.0</ele><time>2026-03-28T15:13:38.291Z</time></trkpt><trkpt lat="44.3194047" lon="7.5435451"><ele>631.0</ele><time>2026-03-28T15:13:39.291Z</time></trkpt><trkpt lat="44.319433" lon="7.5434395"><ele>631.0</ele><time>2026-03-28T15:13:40.292Z</time></trkpt><trkpt lat="44.3194478" lon="7.543338"><ele>631.0</ele><time>2026-03-28T15:13:41.292Z</time></trkpt><trkpt lat="44.3194669" lon="7.5432367"><ele>631.0</ele><time>2026-03-28T15:13:42.291Z</time></trkpt><trkpt lat="44.3194637" lon="7.5431202"><ele>631.0</ele><time>2026-03-28T15:13:43.292Z</time></trkpt><trkpt lat="44.3194529" lon="7.5430203"><ele>631.0</ele><time>2026-03-28T15:13:44.292Z</time></trkpt><trkpt lat="44.3194245" lon="7.5429221"><ele>631.0</ele><time>2026-03-28T15:13:45.291Z</time></trkpt><trkpt lat="44.3193794" lon="7.5428305"><ele>631.0</ele><time>2026-03-28T15:13:46.292Z</time></trkpt><trkpt lat="44.3193202" lon="7.5427406"><ele>631.0</ele><time>2026-03-28T15:13:47.292Z</time></trkpt><trkpt lat="44.3192568" lon="7.5426534"><ele>631.0</ele><time>2026-03-28T15:13:48.291Z</time></trkpt><trkpt lat="44.3192011" lon="7.5425535"><ele>632.2</ele><time>2026-03-28T15:13:49.291Z</time></trkpt><trkpt lat="44.3191494" lon="7.5424307"><ele>633.4000000000001</ele><time>2026-03-28T15:13:50.291Z</time></trkpt><trkpt lat="44.3191019" lon="7.5422965"><ele>634.6</ele><time>2026-03-28T15:13:51.291Z</time></trkpt><trkpt lat="44.3190402" lon="7.5421585"><ele>635.8000000000001</ele><time>2026-03-28T15:13:52.291Z</time></trkpt><trkpt lat="44.318963" lon="7.5420318"><ele>637.0</ele><time>2026-03-28T15:13:53.291Z</time></trkpt><trkpt lat="44.3188818" lon="7.5418991"><ele>637.75</ele><time>2026-03-28T15:13:54.291Z</time></trkpt><trkpt lat="44.3188088" lon="7.5417583"><ele>638.5</ele><time>2026-03-28T15:13:55.291Z</time></trkpt><trkpt lat="44.3187407" lon="7.5416136"><ele>639.25</ele><time>2026-03-28T15:13:56.292Z</time></trkpt><trkpt lat="44.3186566" lon="7.5414721"><ele>640.0</ele><time>2026-03-28T15:13:57.292Z</time></trkpt><trkpt lat="44.3185684" lon="7.5413437"><ele>641.5</ele><time>2026-03-28T15:13:58.291Z</time></trkpt><trkpt lat="44.3184823" lon="7.5412111"><ele>643.0</ele><time>2026-03-28T15:13:59.292Z</time></trkpt><trkpt lat="44.3183989" lon="7.5410943"><ele>644.5</ele><time>2026-03-28T15:14:00.291Z</time></trkpt><trkpt lat="44.3183233" lon="7.5409684"><ele>646.0</ele><time>2026-03-28T15:14:01.291Z</time></trkpt><trkpt lat="44.3182566" lon="7.5408603"><ele>646.0</ele><time>2026-03-28T15:14:02.291Z</time></trkpt><trkpt lat="44.3181921" lon="7.5407514"><ele>646.0</ele><time>2026-03-28T15:14:03.291Z</time></trkpt><trkpt lat="44.3181373" lon="7.5406382"><ele>646.0</ele><time>2026-03-28T15:14:04.291Z</time></trkpt><trkpt lat="44.3180887" lon="7.5405494"><ele>646.0</ele><time>2026-03-28T15:14:05.291Z</time></trkpt><trkpt lat="44.318043" lon="7.5404283"><ele>646.0</ele><time>2026-03-28T15:14:06.291Z</time></trkpt><trkpt lat="44.3180031" lon="7.5403173"><ele>646.0</ele><time>2026-03-28T15:14:07.291Z</time></trkpt><trkpt lat="44.3179699" lon="7.5402096"><ele>646.0</ele><time>2026-03-28T15:14:08.291Z</time></trkpt><trkpt lat="44.317953" lon="7.5401099"><ele>646.0</ele><time>2026-03-28T15:14:09.291Z</time></trkpt><trkpt lat="44.3179547" lon="7.5400075"><ele>646.0</ele><time>2026-03-28T15:14:10.291Z</time></trkpt><trkpt lat="44.3179697" lon="7.5399089"><ele>646.0</ele><time>2026-03-28T15:14:11.291Z</time></trkpt><trkpt lat="44.3179954" lon="7.5398045"><ele>646.0</ele><time>2026-03-28T15:14:12.292Z</time></trkpt><trkpt lat="44.3180214" lon="7.5396902"><ele>649.5</ele><time>2026-03-28T15:14:13.292Z</time></trkpt><trkpt lat="44.3180691" lon="7.539562"><ele>653.0</ele><time>2026-03-28T15:14:14.292Z</time></trkpt><trkpt lat="44.3181134" lon="7.5394264"><ele>656.5</ele><time>2026-03-28T15:14:15.291Z</time></trkpt><trkpt lat="44.3181562" lon="7.5392532"><ele>660.0</ele><time>2026-03-28T15:14:16.292Z</time></trkpt><trkpt lat="44.3182343" lon="7.5391088"><ele>660.8</ele><time>2026-03-28T15:14:17.292Z</time></trkpt><trkpt lat="44.3182849" lon="7.5389765"><ele>661.6</ele><time>2026-03-28T15:14:18.291Z</time></trkpt><trkpt lat="44.3183349" lon="7.5388575"><ele>662.4000000000001</ele><time>2026-03-28T15:14:19.292Z</time></trkpt><trkpt lat="44.3183455" lon="7.5387535"><ele>663.2</ele><time>2026-03-28T15:14:20.292Z</time></trkpt><trkpt lat="44.318338" lon="7.538622"><ele>664.0</ele><time>2026-03-28T15:14:21.292Z</time></trkpt><trkpt lat="44.3183708" lon="7.5384976"><ele>666.2</ele><time>2026-03-28T15:14:22.291Z</time></trkpt><trkpt lat="44.3184187" lon="7.5383881"><ele>668.4000000000001</ele><time>2026-03-28T15:14:23.292Z</time></trkpt><trkpt lat="44.3184831" lon="7.5382692"><ele>670.6</ele><time>2026-03-28T15:14:24.291Z</time></trkpt><trkpt lat="44.3185471" lon="7.5381389"><ele>672.8</ele><time>2026-03-28T15:14:25.292Z</time></trkpt><trkpt lat="44.3186108" lon="7.5380151"><ele>675.0</ele><time>2026-03-28T15:14:26.292Z</time></trkpt><trkpt lat="44.3186744" lon="7.5379082"><ele>677.0</ele><time>2026-03-28T15:14:27.291Z</time></trkpt><trkpt lat="44.3187295" lon="7.5378408"><ele>679.0</ele><time>2026-03-28T15:14:28.291Z</time></trkpt><trkpt lat="44.3188014" lon="7.5377116"><ele>681.0</ele><time>2026-03-28T15:14:30.292Z</time></trkpt><trkpt lat="44.3188749" lon="7.5376287"><ele>683.0</ele><time>2026-03-28T15:14:32.292Z</time></trkpt><trkpt lat="44.3189353" lon="7.5375812"><ele>685.0</ele><time>2026-03-28T15:14:33.291Z</time></trkpt><trkpt lat="44.3190098" lon="7.537496"><ele>685.1666666666667</ele><time>2026-03-28T15:14:34.291Z</time></trkpt><trkpt lat="44.3190618" lon="7.5374288"><ele>685.3333333333334</ele><time>2026-03-28T15:14:35.291Z</time></trkpt><trkpt lat="44.3191132" lon="7.5373652"><ele>685.5</ele><time>2026-03-28T15:14:36.291Z</time></trkpt><trkpt lat="44.3191648" lon="7.5372865"><ele>685.6666666666666</ele><time>2026-03-28T15:14:37.291Z</time></trkpt><trkpt lat="44.3192302" lon="7.5372298"><ele>685.8333333333333</ele><time>2026-03-28T15:14:38.291Z</time></trkpt><trkpt lat="44.3193062" lon="7.5371708"><ele>686.0</ele><time>2026-03-28T15:14:39.292Z</time></trkpt><trkpt lat="44.319374" lon="7.5371003"><ele>690.0</ele><time>2026-03-28T15:14:40.291Z</time></trkpt><trkpt lat="44.319443" lon="7.5370246"><ele>694.0</ele><time>2026-03-28T15:14:41.291Z</time></trkpt><trkpt lat="44.3195073" lon="7.5368863"><ele>698.0</ele><time>2026-03-28T15:14:42.291Z</time></trkpt><trkpt lat="44.3195722" lon="7.5367527"><ele>702.0</ele><time>2026-03-28T15:14:43.292Z</time></trkpt><trkpt lat="44.3196581" lon="7.5366389"><ele>706.0</ele><time>2026-03-28T15:14:44.292Z</time></trkpt><trkpt lat="44.3197324" lon="7.5365217"><ele>707.0</ele><time>2026-03-28T15:14:45.292Z</time></trkpt><trkpt lat="44.319798" lon="7.5364082"><ele>708.0</ele><time>2026-03-28T15:14:46.291Z</time></trkpt><trkpt lat="44.3198519" lon="7.5363326"><ele>709.0</ele><time>2026-03-28T15:14:47.291Z</time></trkpt><trkpt lat="44.3199153" lon="7.5362763"><ele>710.0</ele><time>2026-03-28T15:14:48.291Z</time></trkpt><trkpt lat="44.3199633" lon="7.5362011"><ele>711.0</ele><time>2026-03-28T15:14:49.291Z</time></trkpt><trkpt lat="44.3200002" lon="7.5360985"><ele>712.0</ele><time>2026-03-28T15:14:50.291Z</time></trkpt><trkpt lat="44.3200204" lon="7.5359853"><ele>712.0</ele><time>2026-03-28T15:14:51.291Z</time></trkpt><trkpt lat="44.3200461" lon="7.5358798"><ele>712.0</ele><time>2026-03-28T15:14:52.292Z</time></trkpt><trkpt lat="44.3200771" lon="7.5357903"><ele>712.0</ele><time>2026-03-28T15:14:53.291Z</time></trkpt><trkpt lat="44.320126" lon="7.5357109"><ele>712.0</ele><time>2026-03-28T15:14:54.291Z</time></trkpt><trkpt lat="44.3201847" lon="7.5356166"><ele>712.0</ele><time>2026-03-28T15:14:55.291Z</time></trkpt><trkpt lat="44.3202303" lon="7.53552"><ele>712.0</ele><time>2026-03-28T15:14:56.292Z</time></trkpt><trkpt lat="44.3202606" lon="7.5354303"><ele>715.0</ele><time>2026-03-28T15:14:57.291Z</time></trkpt><trkpt lat="44.3202803" lon="7.535326"><ele>718.0</ele><time>2026-03-28T15:14:58.291Z</time></trkpt><trkpt lat="44.3203028" lon="7.5352247"><ele>721.0</ele><time>2026-03-28T15:14:59.292Z</time></trkpt><trkpt lat="44.3203103" lon="7.535085"><ele>724.0</ele><time>2026-03-28T15:15:00.292Z</time></trkpt><trkpt lat="44.3203447" lon="7.5349464"><ele>727.0</ele><time>2026-03-28T15:15:01.291Z</time></trkpt><trkpt lat="44.3203764" lon="7.5348113"><ele>727.0</ele><time>2026-03-28T15:15:02.291Z</time></trkpt><trkpt lat="44.3204107" lon="7.5347165"><ele>727.0</ele><time>2026-03-28T15:15:03.291Z</time></trkpt><trkpt lat="44.320448" lon="7.5345859"><ele>727.0</ele><time>2026-03-28T15:15:04.292Z</time></trkpt><trkpt lat="44.3204683" lon="7.5344617"><ele>727.0</ele><time>2026-03-28T15:15:05.292Z</time></trkpt><trkpt lat="44.3204756" lon="7.5343593"><ele>727.0</ele><time>2026-03-28T15:15:06.292Z</time></trkpt><trkpt lat="44.3204601" lon="7.5342321"><ele>727.0</ele><time>2026-03-28T15:15:07.292Z</time></trkpt><trkpt lat="44.3204607" lon="7.5341088"><ele>725.5</ele><time>2026-03-28T15:15:08.291Z</time></trkpt><trkpt lat="44.3204814" lon="7.5339992"><ele>724.0</ele><time>2026-03-28T15:15:09.291Z</time></trkpt><trkpt lat="44.3205145" lon="7.5339183"><ele>722.5</ele><time>2026-03-28T15:15:10.292Z</time></trkpt><trkpt lat="44.3205699" lon="7.5338466"><ele>721.0</ele><time>2026-03-28T15:15:11.292Z</time></trkpt><trkpt lat="44.3206319" lon="7.5337683"><ele>719.5</ele><time>2026-03-28T15:15:13.291Z</time></trkpt><trkpt lat="44.3207287" lon="7.5336781"><ele>718.0</ele><time>2026-03-28T15:15:15.292Z</time></trkpt><trkpt lat="44.3208141" lon="7.5336441"><ele>721.8</ele><time>2026-03-28T15:15:17.292Z</time></trkpt><trkpt lat="44.3208992" lon="7.5335579"><ele>725.5999999999999</ele><time>2026-03-28T15:15:19.291Z</time></trkpt><trkpt lat="44.3209584" lon="7.5334714"><ele>729.4000000000001</ele><time>2026-03-28T15:15:20.292Z</time></trkpt><trkpt lat="44.3210191" lon="7.5333676"><ele>733.2</ele><time>2026-03-28T15:15:21.291Z</time></trkpt><trkpt lat="44.321074" lon="7.5332876"><ele>737.0</ele><time>2026-03-28T15:15:22.292Z</time></trkpt><trkpt lat="44.3211501" lon="7.533232"><ele>737.0</ele><time>2026-03-28T15:15:23.292Z</time></trkpt><trkpt lat="44.3212267" lon="7.5331821"><ele>737.0</ele><time>2026-03-28T15:15:24.292Z</time></trkpt><trkpt lat="44.3213283" lon="7.5330966"><ele>737.0</ele><time>2026-03-28T15:15:26.291Z</time></trkpt><trkpt lat="44.3214033" lon="7.533071"><ele>737.0</ele><time>2026-03-28T15:15:27.291Z</time></trkpt><trkpt lat="44.321473" lon="7.5330395"><ele>737.0</ele><time>2026-03-28T15:15:28.292Z</time></trkpt><trkpt lat="44.3215615" lon="7.532905"><ele>737.1666666666666</ele><time>2026-03-28T15:15:30.292Z</time></trkpt><trkpt lat="44.3216253" lon="7.5327905"><ele>737.3333333333333</ele><time>2026-03-28T15:15:31.292Z</time></trkpt><trkpt lat="44.3216797" lon="7.5326817"><ele>737.5</ele><time>2026-03-28T15:15:32.292Z</time></trkpt><trkpt lat="44.3217103" lon="7.5325815"><ele>737.6666666666666</ele><time>2026-03-28T15:15:33.291Z</time></trkpt><trkpt lat="44.3217278" lon="7.532489"><ele>737.8333333333334</ele><time>2026-03-28T15:15:34.292Z</time></trkpt><trkpt lat="44.3217482" lon="7.5323565"><ele>738.0</ele><time>2026-03-28T15:15:36.291Z</time></trkpt><trkpt lat="44.3217674" lon="7.5322708"><ele>738.0</ele><time>2026-03-28T15:15:38.291Z</time></trkpt><trkpt lat="44.3217788" lon="7.5321589"><ele>738.0</ele><time>2026-03-28T15:15:40.292Z</time></trkpt><trkpt lat="44.32174" lon="7.5320319"><ele>738.0</ele><time>2026-03-28T15:15:42.291Z</time></trkpt><trkpt lat="44.3216853" lon="7.5318613"><ele>738.0</ele><time>2026-03-28T15:15:44.292Z</time></trkpt><trkpt lat="44.3216516" lon="7.5317426"><ele>738.0</ele><time>2026-03-28T15:15:45.292Z</time></trkpt><trkpt lat="44.321602" lon="7.5315936"><ele>738.5</ele><time>2026-03-28T15:15:46.291Z</time></trkpt><trkpt lat="44.3215461" lon="7.5314529"><ele>739.0</ele><time>2026-03-28T15:15:47.291Z</time></trkpt><trkpt lat="44.321504" lon="7.5313133"><ele>739.5</ele><time>2026-03-28T15:15:48.291Z</time></trkpt><trkpt lat="44.3214561" lon="7.5311679"><ele>740.0</ele><time>2026-03-28T15:15:49.291Z</time></trkpt><trkpt lat="44.321401" lon="7.53102"><ele>742.0</ele><time>2026-03-28T15:15:50.291Z</time></trkpt><trkpt lat="44.3213262" lon="7.5308796"><ele>744.0</ele><time>2026-03-28T15:15:51.292Z</time></trkpt><trkpt lat="44.321247" lon="7.5307564"><ele>746.0</ele><time>2026-03-28T15:15:52.292Z</time></trkpt><trkpt lat="44.3211649" lon="7.5306251"><ele>748.0</ele><time>2026-03-28T15:15:53.292Z</time></trkpt><trkpt lat="44.3210838" lon="7.5304996"><ele>749.0</ele><time>2026-03-28T15:15:54.291Z</time></trkpt><trkpt lat="44.3209978" lon="7.530381"><ele>750.0</ele><time>2026-03-28T15:15:55.291Z</time></trkpt><trkpt lat="44.3209139" lon="7.5302668"><ele>751.0</ele><time>2026-03-28T15:15:56.291Z</time></trkpt><trkpt lat="44.3208342" lon="7.530122"><ele>752.0</ele><time>2026-03-28T15:15:57.291Z</time></trkpt><trkpt lat="44.3207514" lon="7.5299758"><ele>752.0</ele><time>2026-03-28T15:15:58.292Z</time></trkpt><trkpt lat="44.3206814" lon="7.5298297"><ele>752.0</ele><time>2026-03-28T15:15:59.292Z</time></trkpt><trkpt lat="44.3206238" lon="7.5296575"><ele>752.0</ele><time>2026-03-28T15:16:00.292Z</time></trkpt><trkpt lat="44.3205823" lon="7.529471"><ele>752.0</ele><time>2026-03-28T15:16:01.292Z</time></trkpt><trkpt lat="44.3205476" lon="7.5292734"><ele>751.6666666666666</ele><time>2026-03-28T15:16:02.291Z</time></trkpt><trkpt lat="44.3205018" lon="7.52908"><ele>751.3333333333334</ele><time>2026-03-28T15:16:03.291Z</time></trkpt><trkpt lat="44.3204154" lon="7.5288888"><ele>751.0</ele><time>2026-03-28T15:16:04.292Z</time></trkpt><trkpt lat="44.3203442" lon="7.5286933"><ele>754.5</ele><time>2026-03-28T15:16:05.292Z</time></trkpt><trkpt lat="44.3202686" lon="7.5284999"><ele>758.0</ele><time>2026-03-28T15:16:06.291Z</time></trkpt><trkpt lat="44.3202074" lon="7.5283433"><ele>761.5</ele><time>2026-03-28T15:16:07.291Z</time></trkpt><trkpt lat="44.3201302" lon="7.5282647"><ele>765.0</ele><time>2026-03-28T15:16:08.292Z</time></trkpt><trkpt lat="44.3200379" lon="7.5282141"><ele>765.0</ele><time>2026-03-28T15:16:09.292Z</time></trkpt><trkpt lat="44.319948" lon="7.5281461"><ele>765.0</ele><time>2026-03-28T15:16:10.292Z</time></trkpt><trkpt lat="44.3199046" lon="7.5280009"><ele>765.0</ele><time>2026-03-28T15:16:11.292Z</time></trkpt><trkpt lat="44.3198421" lon="7.5278588"><ele>765.0</ele><time>2026-03-28T15:16:12.291Z</time></trkpt><trkpt lat="44.3197537" lon="7.5277352"><ele>769.5</ele><time>2026-03-28T15:16:13.291Z</time></trkpt><trkpt lat="44.3196529" lon="7.5276504"><ele>774.0</ele><time>2026-03-28T15:16:14.292Z</time></trkpt><trkpt lat="44.3195528" lon="7.5275862"><ele>778.5</ele><time>2026-03-28T15:16:15.292Z</time></trkpt><trkpt lat="44.3194533" lon="7.5275161"><ele>783.0</ele><time>2026-03-28T15:16:16.291Z</time></trkpt><trkpt lat="44.3193563" lon="7.5274344"><ele>783.0</ele><time>2026-03-28T15:16:17.292Z</time></trkpt><trkpt lat="44.3192537" lon="7.5273354"><ele>783.0</ele><time>2026-03-28T15:16:18.291Z</time></trkpt><trkpt lat="44.3191511" lon="7.5272209"><ele>783.0</ele><time>2026-03-28T15:16:19.291Z</time></trkpt><trkpt lat="44.3190541" lon="7.5271064"><ele>783.0</ele><time>2026-03-28T15:16:20.291Z</time></trkpt><trkpt lat="44.318973" lon="7.5270072"><ele>784.4</ele><time>2026-03-28T15:16:21.291Z</time></trkpt><trkpt lat="44.318927" lon="7.5269316"><ele>785.8</ele><time>2026-03-28T15:16:22.291Z</time></trkpt><trkpt lat="44.3188961" lon="7.5268433"><ele>787.2</ele><time>2026-03-28T15:16:23.292Z</time></trkpt><trkpt lat="44.3188821" lon="7.5267128"><ele>788.6</ele><time>2026-03-28T15:16:24.291Z</time></trkpt><trkpt lat="44.3188785" lon="7.5265625"><ele>790.0</ele><time>2026-03-28T15:16:25.291Z</time></trkpt><trkpt lat="44.3188618" lon="7.5263787"><ele>788.75</ele><time>2026-03-28T15:16:26.291Z</time></trkpt><trkpt lat="44.3188518" lon="7.5262022"><ele>787.5</ele><time>2026-03-28T15:16:27.291Z</time></trkpt><trkpt lat="44.3188297" lon="7.526013"><ele>786.25</ele><time>2026-03-28T15:16:28.292Z</time></trkpt><trkpt lat="44.3188025" lon="7.5258472"><ele>785.0</ele><time>2026-03-28T15:16:29.291Z</time></trkpt><trkpt lat="44.318772" lon="7.5256909"><ele>785.0000000000001</ele><time>2026-03-28T15:16:30.291Z</time></trkpt><trkpt lat="44.3187382" lon="7.5255545"><ele>785.0</ele><time>2026-03-28T15:16:31.292Z</time></trkpt><trkpt lat="44.3186537" lon="7.5254807"><ele>785.0</ele><time>2026-03-28T15:16:32.291Z</time></trkpt><trkpt lat="44.318593" lon="7.5254299"><ele>785.0</ele><time>2026-03-28T15:16:33.292Z</time></trkpt><trkpt lat="44.3185493" lon="7.5253468"><ele>785.0000000000001</ele><time>2026-03-28T15:16:35.291Z</time></trkpt><trkpt lat="44.3185066" lon="7.5252766"><ele>785.0</ele><time>2026-03-28T15:17:44.291Z</time></trkpt><trkpt lat="44.3184548" lon="7.5251582"><ele>787.75</ele><time>2026-03-28T15:17:46.291Z</time></trkpt><trkpt lat="44.3183371" lon="7.524939"><ele>790.5</ele><time>2026-03-28T15:17:48.291Z</time></trkpt><trkpt lat="44.3182674" lon="7.5248157"><ele>793.25</ele><time>2026-03-28T15:17:49.291Z</time></trkpt><trkpt lat="44.3181823" lon="7.5247057"><ele>796.0</ele><time>2026-03-28T15:17:50.292Z</time></trkpt><trkpt lat="44.3180917" lon="7.5246039"><ele>800.0</ele><time>2026-03-28T15:17:51.291Z</time></trkpt><trkpt lat="44.317985" lon="7.5245403"><ele>804.0</ele><time>2026-03-28T15:17:52.292Z</time></trkpt><trkpt lat="44.3178533" lon="7.5245083"><ele>808.0</ele><time>2026-03-28T15:17:53.292Z</time></trkpt><trkpt lat="44.3177155" lon="7.5244837"><ele>812.0</ele><time>2026-03-28T15:17:54.291Z</time></trkpt><trkpt lat="44.3175879" lon="7.5244516"><ele>812.0</ele><time>2026-03-28T15:17:55.292Z</time></trkpt><trkpt lat="44.3174638" lon="7.5244137"><ele>812.0</ele><time>2026-03-28T15:17:56.291Z</time></trkpt><trkpt lat="44.3173824" lon="7.5243395"><ele>812.0</ele><time>2026-03-28T15:17:57.291Z</time></trkpt><trkpt lat="44.3173038" lon="7.5242182"><ele>812.0</ele><time>2026-03-28T15:17:58.291Z</time></trkpt><trkpt lat="44.3172328" lon="7.5240453"><ele>812.5</ele><time>2026-03-28T15:17:59.291Z</time></trkpt><trkpt lat="44.3171667" lon="7.5238576"><ele>813.0</ele><time>2026-03-28T15:18:00.291Z</time></trkpt><trkpt lat="44.3171007" lon="7.5236852"><ele>813.5</ele><time>2026-03-28T15:18:01.292Z</time></trkpt><trkpt lat="44.3170394" lon="7.5235211"><ele>814.0</ele><time>2026-03-28T15:18:02.292Z</time></trkpt><trkpt lat="44.3169951" lon="7.523396"><ele>814.0</ele><time>2026-03-28T15:18:03.291Z</time></trkpt><trkpt lat="44.3169537" lon="7.5232769"><ele>814.0</ele><time>2026-03-28T15:18:04.292Z</time></trkpt><trkpt lat="44.3169255" lon="7.5231357"><ele>814.0</ele><time>2026-03-28T15:18:05.292Z</time></trkpt><trkpt lat="44.3168883" lon="7.5230007"><ele>814.0</ele><time>2026-03-28T15:18:06.291Z</time></trkpt><trkpt lat="44.3168338" lon="7.5228697"><ele>814.0</ele><time>2026-03-28T15:18:07.292Z</time></trkpt><trkpt lat="44.3167756" lon="7.5227599"><ele>814.8333333333333</ele><time>2026-03-28T15:18:08.291Z</time></trkpt><trkpt lat="44.3167205" lon="7.5226846"><ele>815.6666666666666</ele><time>2026-03-28T15:18:09.291Z</time></trkpt><trkpt lat="44.3166799" lon="7.5225937"><ele>816.5</ele><time>2026-03-28T15:18:10.291Z</time></trkpt><trkpt lat="44.3166294" lon="7.5224652"><ele>817.3333333333333</ele><time>2026-03-28T15:18:11.291Z</time></trkpt><trkpt lat="44.3165744" lon="7.5223423"><ele>818.1666666666666</ele><time>2026-03-28T15:18:12.291Z</time></trkpt><trkpt lat="44.3165136" lon="7.5222576"><ele>819.0</ele><time>2026-03-28T15:18:13.292Z</time></trkpt><trkpt lat="44.3164467" lon="7.5221715"><ele>820.0</ele><time>2026-03-28T15:18:14.291Z</time></trkpt><trkpt lat="44.3163854" lon="7.522065"><ele>821.0</ele><time>2026-03-28T15:18:15.291Z</time></trkpt><trkpt lat="44.3163541" lon="7.5219463"><ele>822.0</ele><time>2026-03-28T15:18:16.292Z</time></trkpt><trkpt lat="44.3163305" lon="7.5218183"><ele>823.0</ele><time>2026-03-28T15:18:17.291Z</time></trkpt><trkpt lat="44.3162868" lon="7.5216553"><ele>824.0</ele><time>2026-03-28T15:18:18.291Z</time></trkpt><trkpt lat="44.3162339" lon="7.5214919"><ele>827.8000000000001</ele><time>2026-03-28T15:18:19.291Z</time></trkpt><trkpt lat="44.3161916" lon="7.5213291"><ele>831.6</ele><time>2026-03-28T15:18:20.291Z</time></trkpt><trkpt lat="44.3161524" lon="7.5211916"><ele>835.4</ele><time>2026-03-28T15:18:21.291Z</time></trkpt><trkpt lat="44.3161288" lon="7.5210935"><ele>839.2</ele><time>2026-03-28T15:18:22.292Z</time></trkpt><trkpt lat="44.3160877" lon="7.5209399"><ele>843.0</ele><time>2026-03-28T15:18:24.291Z</time></trkpt><trkpt lat="44.3160446" lon="7.5208395"><ele>845.0</ele><time>2026-03-28T15:18:25.292Z</time></trkpt><trkpt lat="44.3159963" lon="7.5207255"><ele>847.0</ele><time>2026-03-28T15:18:26.292Z</time></trkpt><trkpt lat="44.3159435" lon="7.5205985"><ele>849.0</ele><time>2026-03-28T15:18:27.291Z</time></trkpt><trkpt lat="44.3158933" lon="7.5204741"><ele>851.0</ele><time>2026-03-28T15:18:28.291Z</time></trkpt><trkpt lat="44.3158433" lon="7.520354"><ele>853.0</ele><time>2026-03-28T15:18:29.292Z</time></trkpt><trkpt lat="44.3157845" lon="7.5202219"><ele>853.8333333333333</ele><time>2026-03-28T15:18:30.292Z</time></trkpt><trkpt lat="44.3157658" lon="7.5201059"><ele>854.6666666666666</ele><time>2026-03-28T15:18:31.291Z</time></trkpt><trkpt lat="44.3157492" lon="7.5200029"><ele>855.5</ele><time>2026-03-28T15:18:32.291Z</time></trkpt><trkpt lat="44.3157422" lon="7.5199063"><ele>856.3333333333333</ele><time>2026-03-28T15:18:33.291Z</time></trkpt><trkpt lat="44.3157201" lon="7.5197948"><ele>857.1666666666666</ele><time>2026-03-28T15:18:34.292Z</time></trkpt><trkpt lat="44.3156774" lon="7.519673"><ele>858.0</ele><time>2026-03-28T15:18:35.291Z</time></trkpt><trkpt lat="44.3156377" lon="7.5195651"><ele>859.7142857142858</ele><time>2026-03-28T15:18:36.292Z</time></trkpt><trkpt lat="44.315606" lon="7.5194793"><ele>861.4285714285714</ele><time>2026-03-28T15:18:37.291Z</time></trkpt><trkpt lat="44.3155684" lon="7.5193975"><ele>863.1428571428571</ele><time>2026-03-28T15:18:38.291Z</time></trkpt><trkpt lat="44.3155223" lon="7.5193174"><ele>864.8571428571429</ele><time>2026-03-28T15:18:39.292Z</time></trkpt><trkpt lat="44.3154891" lon="7.519236"><ele>866.5714285714286</ele><time>2026-03-28T15:18:41.291Z</time></trkpt><trkpt lat="44.3154879" lon="7.5191295"><ele>868.2857142857143</ele><time>2026-03-28T15:18:44.292Z</time></trkpt><trkpt lat="44.3154755" lon="7.5190021"><ele>870.0</ele><time>2026-03-28T15:18:46.292Z</time></trkpt><trkpt lat="44.3155251" lon="7.5188778"><ele>873.3333333333334</ele><time>2026-03-28T15:18:48.291Z</time></trkpt><trkpt lat="44.3155536" lon="7.5187768"><ele>876.6666666666667</ele><time>2026-03-28T15:18:49.292Z</time></trkpt><trkpt lat="44.3155788" lon="7.5186881"><ele>880.0</ele><time>2026-03-28T15:18:50.291Z</time></trkpt><trkpt lat="44.3155196" lon="7.518723"><ele>883.3333333333334</ele><time>2026-03-28T15:18:59.291Z</time></trkpt><trkpt lat="44.3154315" lon="7.5186849"><ele>886.6666666666667</ele><time>2026-03-28T15:19:01.292Z</time></trkpt><trkpt lat="44.3153374" lon="7.5186341"><ele>890.0</ele><time>2026-03-28T15:19:03.291Z</time></trkpt><trkpt lat="44.3152669" lon="7.5185883"><ele>890.0000000000001</ele><time>2026-03-28T15:19:05.292Z</time></trkpt><trkpt lat="44.3153558" lon="7.5186392"><ele>890.0</ele><time>2026-03-28T15:19:06.263Z</time></trkpt><trkpt lat="44.3154145" lon="7.5185503"><ele>890.0</ele><time>2026-03-28T15:19:09.291Z</time></trkpt><trkpt lat="44.315474" lon="7.5184369"><ele>890.0</ele><time>2026-03-28T15:19:12.291Z</time></trkpt><trkpt lat="44.3155152" lon="7.5183624"><ele>890.0000000000001</ele><time>2026-03-28T15:19:14.291Z</time></trkpt><trkpt lat="44.315562" lon="7.5182552"><ele>890.0</ele><time>2026-03-28T15:19:17.292Z</time></trkpt><trkpt lat="44.3155759" lon="7.5181392"><ele>894.4</ele><time>2026-03-28T15:19:21.292Z</time></trkpt><trkpt lat="44.3154774" lon="7.5181241"><ele>898.8</ele><time>2026-03-28T15:19:22.291Z</time></trkpt><trkpt lat="44.3153634" lon="7.5180502"><ele>903.2</ele><time>2026-03-28T15:19:23.292Z</time></trkpt><trkpt lat="44.3153072" lon="7.517989"><ele>907.6</ele><time>2026-03-28T15:19:24.291Z</time></trkpt><trkpt lat="44.3152351" lon="7.51797"><ele>912.0</ele><time>2026-03-28T15:19:29.291Z</time></trkpt><trkpt lat="44.3151476" lon="7.5180379"><ele>912.0</ele><time>2026-03-28T15:19:33.291Z</time></trkpt><trkpt lat="44.315072" lon="7.518028"><ele>912.0</ele><time>2026-03-28T15:19:35.291Z</time></trkpt><trkpt lat="44.3149651" lon="7.5179901"><ele>912.0</ele><time>2026-03-28T15:19:37.292Z</time></trkpt><trkpt lat="44.3148363" lon="7.5179273"><ele>912.0</ele><time>2026-03-28T15:19:39.292Z</time></trkpt><trkpt lat="44.3147766" lon="7.5178874"><ele>912.0</ele><time>2026-03-28T15:19:40.291Z</time></trkpt><trkpt lat="44.3147104" lon="7.5178759"><ele>915.75</ele><time>2026-03-28T15:19:41.292Z</time></trkpt><trkpt lat="44.3145332" lon="7.5179088"><ele>919.5</ele><time>2026-03-28T15:19:43.291Z</time></trkpt><trkpt lat="44.3144399" lon="7.5179381"><ele>923.25</ele><time>2026-03-28T15:19:44.291Z</time></trkpt><trkpt lat="44.3143218" lon="7.5179511"><ele>927.0</ele><time>2026-03-28T15:19:45.291Z</time></trkpt><trkpt lat="44.3142217" lon="7.5179631"><ele>927.0</ele><time>2026-03-28T15:19:46.292Z</time></trkpt><trkpt lat="44.3141157" lon="7.5179693"><ele>927.0</ele><time>2026-03-28T15:19:47.291Z</time></trkpt><trkpt lat="44.3140247" lon="7.5179739"><ele>927.0</ele><time>2026-03-28T15:19:48.291Z</time></trkpt><trkpt lat="44.3139232" lon="7.517959"><ele>927.0</ele><time>2026-03-28T15:19:49.292Z</time></trkpt><trkpt lat="44.3138342" lon="7.5179532"><ele>927.0</ele><time>2026-03-28T15:19:50.291Z</time></trkpt><trkpt lat="44.313751" lon="7.5179701"><ele>925.0</ele><time>2026-03-28T15:19:51.291Z</time></trkpt><trkpt lat="44.3136707" lon="7.5179886"><ele>923.0</ele><time>2026-03-28T15:19:52.291Z</time></trkpt><trkpt lat="44.3135897" lon="7.5180917"><ele>921.0</ele><time>2026-03-28T15:19:54.292Z</time></trkpt><trkpt lat="44.313488" lon="7.5182011"><ele>919.0</ele><time>2026-03-28T15:19:56.292Z</time></trkpt><trkpt lat="44.3134439" lon="7.5182716"><ele>917.0</ele><time>2026-03-28T15:19:57.291Z</time></trkpt><trkpt lat="44.3133917" lon="7.5183328"><ele>917.0</ele><time>2026-03-28T15:19:58.291Z</time></trkpt><trkpt lat="44.3133245" lon="7.5184108"><ele>917.0</ele><time>2026-03-28T15:20:00.292Z</time></trkpt><trkpt lat="44.3132943" lon="7.5184991"><ele>917.0</ele><time>2026-03-28T15:20:05.292Z</time></trkpt><trkpt lat="44.3131295" lon="7.5186848"><ele>917.0</ele><time>2026-03-28T15:20:20.291Z</time></trkpt><trkpt lat="44.3130452" lon="7.5187876"><ele>920.5</ele><time>2026-03-28T15:20:21.291Z</time></trkpt><trkpt lat="44.3129117" lon="7.5189053"><ele>924.0</ele><time>2026-03-28T15:20:22.292Z</time></trkpt><trkpt lat="44.3128257" lon="7.5189943"><ele>927.5</ele><time>2026-03-28T15:20:23.292Z</time></trkpt><trkpt lat="44.3127582" lon="7.5190828"><ele>931.0</ele><time>2026-03-28T15:20:30.291Z</time></trkpt><trkpt lat="44.31266" lon="7.519299"><ele>930.9999999999999</ele><time>2026-03-28T15:20:32.291Z</time></trkpt><trkpt lat="44.3126185" lon="7.5194006"><ele>931.0</ele><time>2026-03-28T15:20:33.292Z</time></trkpt><trkpt lat="44.3125654" lon="7.5194938"><ele>931.0</ele><time>2026-03-28T15:20:34.292Z</time></trkpt><trkpt lat="44.3125233" lon="7.5195894"><ele>931.0</ele><time>2026-03-28T15:20:35.291Z</time></trkpt><trkpt lat="44.3124349" lon="7.5196664"><ele>930.9999999999999</ele><time>2026-03-28T15:20:37.291Z</time></trkpt><trkpt lat="44.3124079" lon="7.5197582"><ele>931.0</ele><time>2026-03-28T15:20:38.292Z</time></trkpt><trkpt lat="44.3123694" lon="7.5198419"><ele>933.0</ele><time>2026-03-28T15:20:40.291Z</time></trkpt><trkpt lat="44.312309" lon="7.5198851"><ele>935.0</ele><time>2026-03-28T15:20:43.291Z</time></trkpt><trkpt lat="44.3122242" lon="7.5201965"><ele>937.0</ele><time>2026-03-28T15:20:53.292Z</time></trkpt><trkpt lat="44.3121621" lon="7.5204368"><ele>942.75</ele><time>2026-03-28T15:20:54.291Z</time></trkpt><trkpt lat="44.3121139" lon="7.5206178"><ele>948.5</ele><time>2026-03-28T15:20:55.292Z</time></trkpt><trkpt lat="44.3120714" lon="7.5208332"><ele>954.25</ele><time>2026-03-28T15:20:56.291Z</time></trkpt><trkpt lat="44.3120346" lon="7.5210121"><ele>960.0</ele><time>2026-03-28T15:20:57.291Z</time></trkpt><trkpt lat="44.3120438" lon="7.5211891"><ele>959.75</ele><time>2026-03-28T15:20:58.291Z</time></trkpt><trkpt lat="44.3120384" lon="7.5213531"><ele>959.5</ele><time>2026-03-28T15:20:59.291Z</time></trkpt><trkpt lat="44.3120812" lon="7.5215208"><ele>959.25</ele><time>2026-03-28T15:21:00.292Z</time></trkpt><trkpt lat="44.3121057" lon="7.5216839"><ele>959.0</ele><time>2026-03-28T15:21:01.291Z</time></trkpt><trkpt lat="44.3121608" lon="7.5217833"><ele>959.0</ele><time>2026-03-28T15:21:02.291Z</time></trkpt><trkpt lat="44.3121993" lon="7.5218889"><ele>959.0000000000001</ele><time>2026-03-28T15:21:03.292Z</time></trkpt><trkpt lat="44.3122471" lon="7.5220302"><ele>959.0000000000001</ele><time>2026-03-28T15:21:05.291Z</time></trkpt><trkpt lat="44.3122297" lon="7.5221418"><ele>959.0</ele><time>2026-03-28T15:21:07.291Z</time></trkpt><trkpt lat="44.3122765" lon="7.5222116"><ele>959.0</ele><time>2026-03-28T15:21:11.291Z</time></trkpt><trkpt lat="44.3124206" lon="7.5221446"><ele>952.1666666666667</ele><time>2026-03-28T15:21:12.291Z</time></trkpt><trkpt lat="44.3125154" lon="7.5221122"><ele>945.3333333333334</ele><time>2026-03-28T15:21:13.291Z</time></trkpt><trkpt lat="44.3126001" lon="7.5220456"><ele>938.5</ele><time>2026-03-28T15:21:14.291Z</time></trkpt><trkpt lat="44.3126704" lon="7.5220061"><ele>931.6666666666667</ele><time>2026-03-28T15:21:15.292Z</time></trkpt><trkpt lat="44.3127244" lon="7.522064"><ele>924.8333333333334</ele><time>2026-03-28T15:21:17.291Z</time></trkpt><trkpt lat="44.3127697" lon="7.5221818"><ele>918.0</ele><time>2026-03-28T15:21:18.292Z</time></trkpt><trkpt lat="44.3128092" lon="7.5222663"><ele>917.0</ele><time>2026-03-28T15:21:19.291Z</time></trkpt><trkpt lat="44.3127693" lon="7.5223553"><ele>916.0</ele><time>2026-03-28T15:21:20.291Z</time></trkpt><trkpt lat="44.3126237" lon="7.5224899"><ele>915.0</ele><time>2026-03-28T15:21:22.291Z</time></trkpt><trkpt lat="44.3125493" lon="7.5225452"><ele>914.0</ele><time>2026-03-28T15:21:23.291Z</time></trkpt><trkpt lat="44.312465" lon="7.522635"><ele>913.0</ele><time>2026-03-28T15:21:24.292Z</time></trkpt><trkpt lat="44.3124049" lon="7.5227151"><ele>912.9999999999999</ele><time>2026-03-28T15:21:25.292Z</time></trkpt><trkpt lat="44.312343" lon="7.5228503"><ele>913.0</ele><time>2026-03-28T15:21:26.292Z</time></trkpt><trkpt lat="44.3122907" lon="7.5229625"><ele>913.0</ele><time>2026-03-28T15:21:27.292Z</time></trkpt><trkpt lat="44.3123327" lon="7.5230705"><ele>913.0</ele><time>2026-03-28T15:21:28.292Z</time></trkpt><trkpt lat="44.3123475" lon="7.5231789"><ele>912.9999999999999</ele><time>2026-03-28T15:21:29.292Z</time></trkpt><trkpt lat="44.3123632" lon="7.5232702"><ele>913.0</ele><time>2026-03-28T15:21:30.292Z</time></trkpt><trkpt lat="44.3123678" lon="7.5233593"><ele>912.1666666666666</ele><time>2026-03-28T15:21:31.292Z</time></trkpt><trkpt lat="44.3123431" lon="7.5234511"><ele>911.3333333333333</ele><time>2026-03-28T15:21:32.291Z</time></trkpt><trkpt lat="44.3123312" lon="7.5235448"><ele>910.5</ele><time>2026-03-28T15:21:33.292Z</time></trkpt><trkpt lat="44.3123878" lon="7.5236308"><ele>909.6666666666667</ele><time>2026-03-28T15:21:34.291Z</time></trkpt><trkpt lat="44.3124239" lon="7.5237137"><ele>908.8333333333334</ele><time>2026-03-28T15:21:35.292Z</time></trkpt><trkpt lat="44.3125353" lon="7.5238504"><ele>908.0</ele><time>2026-03-28T15:21:36.291Z</time></trkpt><trkpt lat="44.3126071" lon="7.5239591"><ele>907.5000000000001</ele><time>2026-03-28T15:21:37.292Z</time></trkpt><trkpt lat="44.312681" lon="7.5239712"><ele>907.0</ele><time>2026-03-28T15:21:38.292Z</time></trkpt><trkpt lat="44.3127484" lon="7.5240033"><ele>906.5</ele><time>2026-03-28T15:21:39.291Z</time></trkpt><trkpt lat="44.3128357" lon="7.5240019"><ele>906.0</ele><time>2026-03-28T15:21:41.291Z</time></trkpt><trkpt lat="44.3129133" lon="7.5240719"><ele>905.5000000000001</ele><time>2026-03-28T15:21:43.291Z</time></trkpt><trkpt lat="44.3129089" lon="7.5241613"><ele>905.0</ele><time>2026-03-28T15:21:45.291Z</time></trkpt><trkpt lat="44.3128556" lon="7.524232"><ele>905.0</ele><time>2026-03-28T15:21:47.291Z</time></trkpt><trkpt lat="44.3127671" lon="7.5242265"><ele>905.0</ele><time>2026-03-28T15:21:49.292Z</time></trkpt><trkpt lat="44.3126574" lon="7.524209"><ele>905.0</ele><time>2026-03-28T15:21:50.292Z</time></trkpt><trkpt lat="44.3125285" lon="7.5241808"><ele>905.0</ele><time>2026-03-28T15:21:52.291Z</time></trkpt><trkpt lat="44.3123576" lon="7.5241662"><ele>905.0</ele><time>2026-03-28T15:21:54.292Z</time></trkpt><trkpt lat="44.3122781" lon="7.5241642"><ele>905.0</ele><time>2026-03-28T15:21:55.292Z</time></trkpt><trkpt lat="44.3122103" lon="7.5241266"><ele>905.0</ele><time>2026-03-28T15:21:57.291Z</time></trkpt><trkpt lat="44.3121413" lon="7.5240959"><ele>905.0</ele><time>2026-03-28T15:22:00.291Z</time></trkpt><trkpt lat="44.3120464" lon="7.5240684"><ele>905.0</ele><time>2026-03-28T15:22:02.292Z</time></trkpt><trkpt lat="44.3118806" lon="7.5240464"><ele>908.0</ele><time>2026-03-28T15:22:04.291Z</time></trkpt><trkpt lat="44.3117863" lon="7.5240378"><ele>911.0</ele><time>2026-03-28T15:22:05.292Z</time></trkpt><trkpt lat="44.3116539" lon="7.5240105"><ele>914.0</ele><time>2026-03-28T15:22:06.292Z</time></trkpt><trkpt lat="44.3115541" lon="7.5239938"><ele>917.0</ele><time>2026-03-28T15:22:07.292Z</time></trkpt><trkpt lat="44.3114786" lon="7.523996"><ele>920.0</ele><time>2026-03-28T15:22:08.291Z</time></trkpt><trkpt lat="44.3114139" lon="7.5240011"><ele>920.0</ele><time>2026-03-28T15:22:09.292Z</time></trkpt><trkpt lat="44.3113278" lon="7.5239958"><ele>920.0</ele><time>2026-03-28T15:22:11.291Z</time></trkpt><trkpt lat="44.3114056" lon="7.5240374"><ele>920.0</ele><time>2026-03-28T15:24:30.292Z</time></trkpt><trkpt lat="44.3115219" lon="7.5240339"><ele>920.0</ele><time>2026-03-28T15:24:31.291Z</time></trkpt><trkpt lat="44.3116376" lon="7.5240284"><ele>920.0</ele><time>2026-03-28T15:24:32.292Z</time></trkpt><trkpt lat="44.3117352" lon="7.5240366"><ele>920.0000000000001</ele><time>2026-03-28T15:24:33.292Z</time></trkpt><trkpt lat="44.3118125" lon="7.5240545"><ele>920.0</ele><time>2026-03-28T15:24:34.291Z</time></trkpt><trkpt lat="44.3118963" lon="7.5240502"><ele>920.0</ele><time>2026-03-28T15:24:36.291Z</time></trkpt><trkpt lat="44.3119735" lon="7.5240483"><ele>920.0</ele><time>2026-03-28T15:24:39.292Z</time></trkpt><trkpt lat="44.3119965" lon="7.5239606"><ele>920.0000000000001</ele><time>2026-03-28T15:24:42.292Z</time></trkpt><trkpt lat="44.3119907" lon="7.5238099"><ele>920.0</ele><time>2026-03-28T15:24:45.292Z</time></trkpt><trkpt lat="44.3119883" lon="7.5237157"><ele>923.2</ele><time>2026-03-28T15:24:46.292Z</time></trkpt><trkpt lat="44.3119793" lon="7.5236038"><ele>926.4</ele><time>2026-03-28T15:24:47.291Z</time></trkpt><trkpt lat="44.3119691" lon="7.5234779"><ele>929.5999999999999</ele><time>2026-03-28T15:24:48.291Z</time></trkpt><trkpt lat="44.3119489" lon="7.5233358"><ele>932.8</ele><time>2026-03-28T15:24:49.292Z</time></trkpt><trkpt lat="44.3119438" lon="7.5231992"><ele>936.0</ele><time>2026-03-28T15:24:50.292Z</time></trkpt><trkpt lat="44.3119366" lon="7.5230614"><ele>936.0</ele><time>2026-03-28T15:24:51.291Z</time></trkpt><trkpt lat="44.3119271" lon="7.5229192"><ele>935.9999999999999</ele><time>2026-03-28T15:24:52.292Z</time></trkpt><trkpt lat="44.3119362" lon="7.5227742"><ele>935.9999999999999</ele><time>2026-03-28T15:24:53.291Z</time></trkpt><trkpt lat="44.311954" lon="7.5226202"><ele>936.0</ele><time>2026-03-28T15:24:54.292Z</time></trkpt><trkpt lat="44.3119937" lon="7.522459"><ele>936.0</ele><time>2026-03-28T15:24:55.292Z</time></trkpt><trkpt lat="44.3120302" lon="7.5223244"><ele>938.4</ele><time>2026-03-28T15:24:56.291Z</time></trkpt><trkpt lat="44.312077" lon="7.5222037"><ele>940.8</ele><time>2026-03-28T15:24:57.291Z</time></trkpt><trkpt lat="44.312139" lon="7.522099"><ele>943.1999999999999</ele><time>2026-03-28T15:24:58.291Z</time></trkpt><trkpt lat="44.3122034" lon="7.5220356"><ele>945.5999999999999</ele><time>2026-03-28T15:24:59.291Z</time></trkpt><trkpt lat="44.31236" lon="7.5220579"><ele>948.0</ele><time>2026-03-28T15:25:01.292Z</time></trkpt><trkpt lat="44.3124683" lon="7.5220491"><ele>943.0</ele><time>2026-03-28T15:25:02.292Z</time></trkpt><trkpt lat="44.3125619" lon="7.5220157"><ele>938.0</ele><time>2026-03-28T15:25:03.291Z</time></trkpt><trkpt lat="44.3126349" lon="7.5219965"><ele>933.0</ele><time>2026-03-28T15:25:04.291Z</time></trkpt><trkpt lat="44.3126949" lon="7.5221027"><ele>928.0</ele><time>2026-03-28T15:25:06.291Z</time></trkpt><trkpt lat="44.3127343" lon="7.5221819"><ele>923.0</ele><time>2026-03-28T15:25:07.291Z</time></trkpt><trkpt lat="44.3127071" lon="7.5223327"><ele>918.0</ele><time>2026-03-28T15:25:09.292Z</time></trkpt><trkpt lat="44.3126264" lon="7.522399"><ele>917.0</ele><time>2026-03-28T15:25:10.292Z</time></trkpt><trkpt lat="44.3125376" lon="7.5224503"><ele>916.0</ele><time>2026-03-28T15:25:11.292Z</time></trkpt><trkpt lat="44.3124856" lon="7.5225118"><ele>915.0</ele><time>2026-03-28T15:25:12.291Z</time></trkpt><trkpt lat="44.3125362" lon="7.5226214"><ele>914.0</ele><time>2026-03-28T15:25:14.291Z</time></trkpt><trkpt lat="44.3126653" lon="7.5225883"><ele>913.0</ele><time>2026-03-28T15:25:16.291Z</time></trkpt><trkpt lat="44.3127471" lon="7.5225524"><ele>913.0</ele><time>2026-03-28T15:25:18.291Z</time></trkpt></trkseg><trkseg><trkpt lat="44.3128153" lon="7.5225414"><ele>913.0</ele><time>2026-03-28T15:44:47.23Z</time></trkpt><trkpt lat="44.3128968" lon="7.5225567"><ele>913.0</ele><time>2026-03-28T15:44:50.327Z</time></trkpt><trkpt lat="44.3129837" lon="7.5225423"><ele>913.0</ele><time>2026-03-28T15:44:53.328Z</time></trkpt><trkpt lat="44.3130861" lon="7.5224388"><ele>913.0</ele><time>2026-03-28T15:44:54.291Z</time></trkpt><trkpt lat="44.3131586" lon="7.5223762"><ele>913.0</ele><time>2026-03-28T15:44:55.291Z</time></trkpt><trkpt lat="44.3132488" lon="7.5223034"><ele>908.0</ele><time>2026-03-28T15:44:57.292Z</time></trkpt><trkpt lat="44.3133069" lon="7.5222198"><ele>903.0</ele><time>2026-03-28T15:44:59.292Z</time></trkpt><trkpt lat="44.3132395" lon="7.5220792"><ele>898.0</ele><time>2026-03-28T15:45:01.292Z</time></trkpt><trkpt lat="44.3132157" lon="7.5219755"><ele>893.0</ele><time>2026-03-28T15:45:02.292Z</time></trkpt><trkpt lat="44.313181" lon="7.5218572"><ele>888.0</ele><time>2026-03-28T15:45:03.291Z</time></trkpt><trkpt lat="44.3131637" lon="7.5217458"><ele>888.0</ele><time>2026-03-28T15:45:04.292Z</time></trkpt><trkpt lat="44.3131098" lon="7.5215903"><ele>888.0</ele><time>2026-03-28T15:45:05.292Z</time></trkpt><trkpt lat="44.3130664" lon="7.5214406"><ele>888.0</ele><time>2026-03-28T15:45:06.291Z</time></trkpt><trkpt lat="44.3130371" lon="7.5212969"><ele>888.0</ele><time>2026-03-28T15:45:07.292Z</time></trkpt><trkpt lat="44.3130198" lon="7.5211669"><ele>888.0</ele><time>2026-03-28T15:45:08.291Z</time></trkpt><trkpt lat="44.3130049" lon="7.5210571"><ele>890.2</ele><time>2026-03-28T15:45:09.292Z</time></trkpt><trkpt lat="44.3130254" lon="7.5209476"><ele>892.4</ele><time>2026-03-28T15:45:10.291Z</time></trkpt><trkpt lat="44.3130784" lon="7.5208577"><ele>894.6000000000001</ele><time>2026-03-28T15:45:11.291Z</time></trkpt><trkpt lat="44.3131531" lon="7.5207891"><ele>896.8000000000001</ele><time>2026-03-28T15:45:12.292Z</time></trkpt><trkpt lat="44.3132708" lon="7.5208434"><ele>899.0</ele><time>2026-03-28T15:45:13.292Z</time></trkpt><trkpt lat="44.3133782" lon="7.5208449"><ele>899.0</ele><time>2026-03-28T15:45:14.292Z</time></trkpt><trkpt lat="44.3134607" lon="7.520867"><ele>899.0</ele><time>2026-03-28T15:45:15.292Z</time></trkpt><trkpt lat="44.3135614" lon="7.5209501"><ele>899.0</ele><time>2026-03-28T15:45:17.291Z</time></trkpt><trkpt lat="44.3137061" lon="7.5210738"><ele>899.0</ele><time>2026-03-28T15:45:19.292Z</time></trkpt><trkpt lat="44.3138118" lon="7.5211314"><ele>899.0</ele><time>2026-03-28T15:45:20.292Z</time></trkpt><trkpt lat="44.3138913" lon="7.5211915"><ele>899.0000000000001</ele><time>2026-03-28T15:45:21.291Z</time></trkpt><trkpt lat="44.3139754" lon="7.521225"><ele>899.0000000000001</ele><time>2026-03-28T15:45:22.292Z</time></trkpt><trkpt lat="44.3140406" lon="7.5212585"><ele>899.0</ele><time>2026-03-28T15:45:23.292Z</time></trkpt><trkpt lat="44.3141005" lon="7.5212968"><ele>899.0</ele><time>2026-03-28T15:45:24.292Z</time></trkpt><trkpt lat="44.3142492" lon="7.5213695"><ele>889.8000000000001</ele><time>2026-03-28T15:45:26.292Z</time></trkpt><trkpt lat="44.3143438" lon="7.5213996"><ele>880.6000000000001</ele><time>2026-03-28T15:45:27.291Z</time></trkpt><trkpt lat="44.3144349" lon="7.5214479"><ele>871.4</ele><time>2026-03-28T15:45:28.291Z</time></trkpt><trkpt lat="44.3145204" lon="7.5214749"><ele>862.2</ele><time>2026-03-28T15:45:29.291Z</time></trkpt><trkpt lat="44.3146014" lon="7.5214953"><ele>853.0</ele><time>2026-03-28T15:45:30.292Z</time></trkpt><trkpt lat="44.3147127" lon="7.5215142"><ele>851.5</ele><time>2026-03-28T15:45:31.291Z</time></trkpt><trkpt lat="44.3148344" lon="7.52154"><ele>850.0</ele><time>2026-03-28T15:45:32.291Z</time></trkpt><trkpt lat="44.3149759" lon="7.5215645"><ele>848.5</ele><time>2026-03-28T15:45:33.292Z</time></trkpt><trkpt lat="44.315112" lon="7.5215609"><ele>847.0</ele><time>2026-03-28T15:45:34.292Z</time></trkpt><trkpt lat="44.315222" lon="7.5215561"><ele>847.0</ele><time>2026-03-28T15:45:35.291Z</time></trkpt><trkpt lat="44.3153145" lon="7.5215847"><ele>847.0</ele><time>2026-03-28T15:45:36.291Z</time></trkpt><trkpt lat="44.3154151" lon="7.5216625"><ele>847.0</ele><time>2026-03-28T15:45:37.291Z</time></trkpt><trkpt lat="44.3155317" lon="7.5217124"><ele>847.0</ele><time>2026-03-28T15:45:38.291Z</time></trkpt><trkpt lat="44.315636" lon="7.5218157"><ele>846.0</ele><time>2026-03-28T15:45:39.292Z</time></trkpt><trkpt lat="44.3157351" lon="7.5219253"><ele>845.0</ele><time>2026-03-28T15:45:40.292Z</time></trkpt><trkpt lat="44.3158426" lon="7.522031"><ele>844.0</ele><time>2026-03-28T15:45:41.291Z</time></trkpt><trkpt lat="44.3159747" lon="7.5221162"><ele>843.0</ele><time>2026-03-28T15:45:42.292Z</time></trkpt><trkpt lat="44.3160828" lon="7.5222267"><ele>838.25</ele><time>2026-03-28T15:45:43.291Z</time></trkpt><trkpt lat="44.3161895" lon="7.5223394"><ele>833.5</ele><time>2026-03-28T15:45:44.292Z</time></trkpt><trkpt lat="44.3163046" lon="7.5224466"><ele>828.75</ele><time>2026-03-28T15:45:45.291Z</time></trkpt><trkpt lat="44.3164372" lon="7.5225263"><ele>824.0</ele><time>2026-03-28T15:45:46.292Z</time></trkpt><trkpt lat="44.3165341" lon="7.5225999"><ele>823.0</ele><time>2026-03-28T15:45:47.292Z</time></trkpt><trkpt lat="44.316627" lon="7.5226529"><ele>822.0</ele><time>2026-03-28T15:45:48.291Z</time></trkpt><trkpt lat="44.3167256" lon="7.5227245"><ele>821.0</ele><time>2026-03-28T15:45:49.291Z</time></trkpt><trkpt lat="44.3168051" lon="7.5228236"><ele>820.0</ele><time>2026-03-28T15:45:50.292Z</time></trkpt><trkpt lat="44.3168782" lon="7.5229651"><ele>819.0</ele><time>2026-03-28T15:45:51.292Z</time></trkpt><trkpt lat="44.3169191" lon="7.5231151"><ele>818.0</ele><time>2026-03-28T15:45:52.291Z</time></trkpt><trkpt lat="44.3169492" lon="7.5232651"><ele>817.0</ele><time>2026-03-28T15:45:53.291Z</time></trkpt><trkpt lat="44.3169659" lon="7.5234002"><ele>816.0</ele><time>2026-03-28T15:45:54.291Z</time></trkpt><trkpt lat="44.3169715" lon="7.5235256"><ele>815.0</ele><time>2026-03-28T15:45:55.292Z</time></trkpt><trkpt lat="44.3169923" lon="7.5236494"><ele>814.0</ele><time>2026-03-28T15:45:56.291Z</time></trkpt><trkpt lat="44.3170426" lon="7.5238011"><ele>813.5</ele><time>2026-03-28T15:45:57.292Z</time></trkpt><trkpt lat="44.317109" lon="7.5239962"><ele>813.0</ele><time>2026-03-28T15:45:58.291Z</time></trkpt><trkpt lat="44.3171717" lon="7.524163"><ele>812.5</ele><time>2026-03-28T15:45:59.292Z</time></trkpt><trkpt lat="44.3172342" lon="7.5242989"><ele>812.0</ele><time>2026-03-28T15:46:00.292Z</time></trkpt><trkpt lat="44.317274" lon="7.5243992"><ele>812.0</ele><time>2026-03-28T15:46:01.291Z</time></trkpt><trkpt lat="44.317326" lon="7.5244958"><ele>812.0</ele><time>2026-03-28T15:46:02.291Z</time></trkpt><trkpt lat="44.3173929" lon="7.5245942"><ele>812.0</ele><time>2026-03-28T15:46:03.292Z</time></trkpt><trkpt lat="44.3175356" lon="7.5245327"><ele>812.0</ele><time>2026-03-28T15:46:04.291Z</time></trkpt><trkpt lat="44.3176572" lon="7.5245101"><ele>812.0000000000001</ele><time>2026-03-28T15:46:05.291Z</time></trkpt><trkpt lat="44.3177436" lon="7.5245152"><ele>812.0</ele><time>2026-03-28T15:46:06.292Z</time></trkpt><trkpt lat="44.3178342" lon="7.5245209"><ele>812.0</ele><time>2026-03-28T15:46:07.291Z</time></trkpt><trkpt lat="44.317925" lon="7.5245308"><ele>812.0</ele><time>2026-03-28T15:46:08.291Z</time></trkpt><trkpt lat="44.3180084" lon="7.524563"><ele>812.0000000000001</ele><time>2026-03-28T15:46:09.291Z</time></trkpt><trkpt lat="44.3180707" lon="7.5246155"><ele>812.0</ele><time>2026-03-28T15:46:10.292Z</time></trkpt><trkpt lat="44.3181639" lon="7.5247229"><ele>809.3333333333334</ele><time>2026-03-28T15:46:12.292Z</time></trkpt><trkpt lat="44.3182411" lon="7.5248296"><ele>806.6666666666667</ele><time>2026-03-28T15:46:14.292Z</time></trkpt><trkpt lat="44.3182767" lon="7.524903"><ele>804.0</ele><time>2026-03-28T15:46:15.292Z</time></trkpt><trkpt lat="44.3183256" lon="7.5249731"><ele>801.3333333333333</ele><time>2026-03-28T15:46:16.291Z</time></trkpt><trkpt lat="44.3183779" lon="7.5250475"><ele>798.6666666666666</ele><time>2026-03-28T15:46:17.291Z</time></trkpt><trkpt lat="44.3184354" lon="7.5251316"><ele>796.0</ele><time>2026-03-28T15:46:18.291Z</time></trkpt><trkpt lat="44.3184904" lon="7.5252043"><ele>795.9999999999999</ele><time>2026-03-28T15:46:19.291Z</time></trkpt><trkpt lat="44.3185307" lon="7.5252784"><ele>796.0</ele><time>2026-03-28T15:46:20.291Z</time></trkpt><trkpt lat="44.3184982" lon="7.5253679"><ele>796.0</ele><time>2026-03-28T15:46:23.291Z</time></trkpt><trkpt lat="44.318395" lon="7.5253066"><ele>796.0</ele><time>2026-03-28T15:46:25.292Z</time></trkpt><trkpt lat="44.3183189" lon="7.5252433"><ele>795.9999999999999</ele><time>2026-03-28T15:46:26.292Z</time></trkpt><trkpt lat="44.3182386" lon="7.5251832"><ele>796.0</ele><time>2026-03-28T15:46:27.291Z</time></trkpt><trkpt lat="44.3181419" lon="7.5250841"><ele>795.5999999999999</ele><time>2026-03-28T15:46:28.291Z</time></trkpt><trkpt lat="44.3180412" lon="7.524995"><ele>795.2</ele><time>2026-03-28T15:46:29.292Z</time></trkpt><trkpt lat="44.3179578" lon="7.5248999"><ele>794.8</ele><time>2026-03-28T15:46:30.292Z</time></trkpt><trkpt lat="44.3178663" lon="7.5248397"><ele>794.4000000000001</ele><time>2026-03-28T15:46:31.291Z</time></trkpt><trkpt lat="44.3177525" lon="7.5248238"><ele>794.0</ele><time>2026-03-28T15:46:32.291Z</time></trkpt><trkpt lat="44.3176275" lon="7.5248226"><ele>794.0</ele><time>2026-03-28T15:46:33.291Z</time></trkpt><trkpt lat="44.3174907" lon="7.5248636"><ele>794.0</ele><time>2026-03-28T15:46:34.291Z</time></trkpt><trkpt lat="44.3173493" lon="7.524906"><ele>794.0</ele><time>2026-03-28T15:46:35.291Z</time></trkpt><trkpt lat="44.3172193" lon="7.5249526"><ele>794.0</ele><time>2026-03-28T15:46:36.291Z</time></trkpt><trkpt lat="44.317122" lon="7.5249806"><ele>791.75</ele><time>2026-03-28T15:46:37.292Z</time></trkpt><trkpt lat="44.3170428" lon="7.5249982"><ele>789.5</ele><time>2026-03-28T15:46:38.292Z</time></trkpt><trkpt lat="44.316952" lon="7.5249358"><ele>787.25</ele><time>2026-03-28T15:46:39.291Z</time></trkpt><trkpt lat="44.3168555" lon="7.524826"><ele>785.0</ele><time>2026-03-28T15:46:40.291Z</time></trkpt><trkpt lat="44.3167383" lon="7.5246647"><ele>785.0</ele><time>2026-03-28T15:46:41.292Z</time></trkpt><trkpt lat="44.3166287" lon="7.5245031"><ele>785.0</ele><time>2026-03-28T15:46:42.291Z</time></trkpt><trkpt lat="44.3165208" lon="7.5243493"><ele>785.0</ele><time>2026-03-28T15:46:43.291Z</time></trkpt><trkpt lat="44.3164348" lon="7.5242043"><ele>785.0</ele><time>2026-03-28T15:46:44.291Z</time></trkpt><trkpt lat="44.3163449" lon="7.5240847"><ele>785.0</ele><time>2026-03-28T15:46:45.292Z</time></trkpt><trkpt lat="44.3162264" lon="7.5240179"><ele>785.0</ele><time>2026-03-28T15:46:46.291Z</time></trkpt><trkpt lat="44.3161033" lon="7.5239884"><ele>785.0</ele><time>2026-03-28T15:46:47.292Z</time></trkpt><trkpt lat="44.31599" lon="7.5239927"><ele>785.0</ele><time>2026-03-28T15:46:48.291Z</time></trkpt><trkpt lat="44.3159116" lon="7.5240421"><ele>785.0</ele><time>2026-03-28T15:46:49.292Z</time></trkpt><trkpt lat="44.3158378" lon="7.5240931"><ele>785.0</ele><time>2026-03-28T15:46:50.291Z</time></trkpt><trkpt lat="44.3157463" lon="7.5241272"><ele>785.0</ele><time>2026-03-28T15:46:51.292Z</time></trkpt><trkpt lat="44.3156421" lon="7.5241263"><ele>785.0</ele><time>2026-03-28T15:46:52.292Z</time></trkpt><trkpt lat="44.3155305" lon="7.524038"><ele>785.0</ele><time>2026-03-28T15:46:53.291Z</time></trkpt><trkpt lat="44.3153913" lon="7.5240322"><ele>783.0</ele><time>2026-03-28T15:46:54.291Z</time></trkpt><trkpt lat="44.315264" lon="7.5240397"><ele>781.0</ele><time>2026-03-28T15:46:55.291Z</time></trkpt><trkpt lat="44.3151699" lon="7.5240511"><ele>779.0</ele><time>2026-03-28T15:46:56.292Z</time></trkpt><trkpt lat="44.3151042" lon="7.5240636"><ele>777.0</ele><time>2026-03-28T15:46:57.292Z</time></trkpt><trkpt lat="44.3149979" lon="7.5239898"><ele>775.0</ele><time>2026-03-28T15:46:59.291Z</time></trkpt><trkpt lat="44.3149442" lon="7.5239243"><ele>774.9999999999999</ele><time>2026-03-28T15:47:00.291Z</time></trkpt><trkpt lat="44.3148825" lon="7.5238545"><ele>775.0</ele><time>2026-03-28T15:47:03.291Z</time></trkpt><trkpt lat="44.3148374" lon="7.523949"><ele>775.0</ele><time>2026-03-28T15:47:06.291Z</time></trkpt><trkpt lat="44.3148094" lon="7.5240338"><ele>775.0</ele><time>2026-03-28T15:47:07.292Z</time></trkpt><trkpt lat="44.3147886" lon="7.5241307"><ele>774.9999999999999</ele><time>2026-03-28T15:47:08.291Z</time></trkpt><trkpt lat="44.3148141" lon="7.5242492"><ele>775.0</ele><time>2026-03-28T15:47:09.292Z</time></trkpt><trkpt lat="44.3148355" lon="7.5243635"><ele>775.0</ele><time>2026-03-28T15:47:10.291Z</time></trkpt><trkpt lat="44.3148378" lon="7.5244952"><ele>775.0</ele><time>2026-03-28T15:47:12.291Z</time></trkpt><trkpt lat="44.3148138" lon="7.5245915"><ele>775.0</ele><time>2026-03-28T15:47:32.291Z</time></trkpt><trkpt lat="44.3148201" lon="7.5247301"><ele>775.0</ele><time>2026-03-28T15:47:48.291Z</time></trkpt><trkpt lat="44.314811" lon="7.5248672"><ele>775.0</ele><time>2026-03-28T15:47:50.292Z</time></trkpt><trkpt lat="44.3147705" lon="7.525003"><ele>772.3333333333333</ele><time>2026-03-28T15:47:52.291Z</time></trkpt><trkpt lat="44.314782" lon="7.5250948"><ele>769.6666666666666</ele><time>2026-03-28T15:47:53.291Z</time></trkpt><trkpt lat="44.314799" lon="7.5252743"><ele>767.0</ele><time>2026-03-28T15:47:55.291Z</time></trkpt><trkpt lat="44.3148256" lon="7.5254112"><ele>764.3333333333333</ele><time>2026-03-28T15:47:57.291Z</time></trkpt><trkpt lat="44.3148441" lon="7.5255007"><ele>761.6666666666666</ele><time>2026-03-28T15:47:59.292Z</time></trkpt><trkpt lat="44.3148428" lon="7.5256117"><ele>759.0</ele><time>2026-03-28T15:48:01.292Z</time></trkpt><trkpt lat="44.3148533" lon="7.5257326"><ele>757.2</ele><time>2026-03-28T15:48:03.292Z</time></trkpt><trkpt lat="44.3149081" lon="7.5258492"><ele>755.4000000000001</ele><time>2026-03-28T15:48:05.292Z</time></trkpt><trkpt lat="44.3149336" lon="7.525935"><ele>753.6</ele><time>2026-03-28T15:48:06.291Z</time></trkpt><trkpt lat="44.3149879" lon="7.5260871"><ele>751.8</ele><time>2026-03-28T15:48:08.291Z</time></trkpt><trkpt lat="44.3150021" lon="7.5262636"><ele>750.0</ele><time>2026-03-28T15:48:10.292Z</time></trkpt><trkpt lat="44.3150002" lon="7.5263576"><ele>749.0</ele><time>2026-03-28T15:48:11.292Z</time></trkpt><trkpt lat="44.315012" lon="7.5265111"><ele>748.0</ele><time>2026-03-28T15:48:13.291Z</time></trkpt><trkpt lat="44.3150485" lon="7.52663"><ele>747.0</ele><time>2026-03-28T15:48:15.291Z</time></trkpt><trkpt lat="44.3151198" lon="7.5266927"><ele>746.0</ele><time>2026-03-28T15:48:17.291Z</time></trkpt><trkpt lat="44.3151847" lon="7.5267664"><ele>745.0</ele><time>2026-03-28T15:48:19.291Z</time></trkpt><trkpt lat="44.3152242" lon="7.5268364"><ele>744.0</ele><time>2026-03-28T15:48:21.292Z</time></trkpt><trkpt lat="44.3152766" lon="7.526925"><ele>744.0</ele><time>2026-03-28T15:48:23.291Z</time></trkpt><trkpt lat="44.315329" lon="7.5270131"><ele>744.0</ele><time>2026-03-28T15:48:25.291Z</time></trkpt><trkpt lat="44.3154186" lon="7.5271434"><ele>744.0</ele><time>2026-03-28T15:48:27.291Z</time></trkpt><trkpt lat="44.3154823" lon="7.5272123"><ele>744.0</ele><time>2026-03-28T15:48:28.292Z</time></trkpt><trkpt lat="44.315533" lon="7.5272899"><ele>744.0</ele><time>2026-03-28T15:48:29.291Z</time></trkpt><trkpt lat="44.3155882" lon="7.5273515"><ele>744.0</ele><time>2026-03-28T15:48:30.291Z</time></trkpt><trkpt lat="44.3156328" lon="7.5274543"><ele>739.2</ele><time>2026-03-28T15:48:31.292Z</time></trkpt><trkpt lat="44.315653" lon="7.5275608"><ele>734.4000000000001</ele><time>2026-03-28T15:48:32.291Z</time></trkpt><trkpt lat="44.3157394" lon="7.5276795"><ele>729.6</ele><time>2026-03-28T15:48:34.291Z</time></trkpt><trkpt lat="44.3157961" lon="7.5277557"><ele>724.8</ele><time>2026-03-28T15:48:35.291Z</time></trkpt><trkpt lat="44.3158312" lon="7.5276523"><ele>720.0</ele><time>2026-03-28T15:48:40.291Z</time></trkpt><trkpt lat="44.315907" lon="7.5275732"><ele>720.0</ele><time>2026-03-28T15:48:44.291Z</time></trkpt><trkpt lat="44.3159941" lon="7.5276321"><ele>720.0</ele><time>2026-03-28T15:48:46.292Z</time></trkpt><trkpt lat="44.3160188" lon="7.5277358"><ele>720.0</ele><time>2026-03-28T15:48:47.291Z</time></trkpt><trkpt lat="44.3160727" lon="7.5278657"><ele>720.0</ele><time>2026-03-28T15:48:49.292Z</time></trkpt><trkpt lat="44.316124" lon="7.5279288"><ele>720.0</ele><time>2026-03-28T15:48:50.292Z</time></trkpt><trkpt lat="44.3162365" lon="7.5280154"><ele>719.8333333333334</ele><time>2026-03-28T15:48:52.292Z</time></trkpt><trkpt lat="44.3162854" lon="7.5280718"><ele>719.6666666666666</ele><time>2026-03-28T15:48:53.291Z</time></trkpt><trkpt lat="44.3163236" lon="7.5281427"><ele>719.5</ele><time>2026-03-28T15:48:54.292Z</time></trkpt><trkpt lat="44.3163795" lon="7.5282333"><ele>719.3333333333333</ele><time>2026-03-28T15:48:55.291Z</time></trkpt><trkpt lat="44.3164133" lon="7.5283721"><ele>719.1666666666666</ele><time>2026-03-28T15:48:56.291Z</time></trkpt><trkpt lat="44.3164253" lon="7.5284956"><ele>719.0</ele><time>2026-03-28T15:48:57.291Z</time></trkpt><trkpt lat="44.3164313" lon="7.5286306"><ele>717.4000000000001</ele><time>2026-03-28T15:48:58.291Z</time></trkpt><trkpt lat="44.3164316" lon="7.5287694"><ele>715.8</ele><time>2026-03-28T15:48:59.292Z</time></trkpt><trkpt lat="44.3164376" lon="7.5288985"><ele>714.2</ele><time>2026-03-28T15:49:00.291Z</time></trkpt><trkpt lat="44.3164603" lon="7.5290241"><ele>712.5999999999999</ele><time>2026-03-28T15:49:01.292Z</time></trkpt><trkpt lat="44.3164783" lon="7.529144"><ele>711.0</ele><time>2026-03-28T15:49:02.292Z</time></trkpt><trkpt lat="44.3164951" lon="7.5292675"><ele>711.0</ele><time>2026-03-28T15:49:03.291Z</time></trkpt><trkpt lat="44.3165102" lon="7.5294165"><ele>711.0</ele><time>2026-03-28T15:49:04.291Z</time></trkpt><trkpt lat="44.3164922" lon="7.5295794"><ele>711.0</ele><time>2026-03-28T15:49:05.291Z</time></trkpt><trkpt lat="44.3165155" lon="7.5297119"><ele>711.0</ele><time>2026-03-28T15:49:06.291Z</time></trkpt><trkpt lat="44.3165573" lon="7.5298091"><ele>711.0</ele><time>2026-03-28T15:49:07.291Z</time></trkpt><trkpt lat="44.3166027" lon="7.5299155"><ele>709.25</ele><time>2026-03-28T15:49:08.291Z</time></trkpt><trkpt lat="44.3166756" lon="7.5300568"><ele>707.5</ele><time>2026-03-28T15:49:09.291Z</time></trkpt><trkpt lat="44.3167448" lon="7.5301964"><ele>705.75</ele><time>2026-03-28T15:49:10.291Z</time></trkpt><trkpt lat="44.3167704" lon="7.5303526"><ele>704.0</ele><time>2026-03-28T15:49:11.291Z</time></trkpt><trkpt lat="44.3167929" lon="7.5304884"><ele>703.5</ele><time>2026-03-28T15:49:12.291Z</time></trkpt><trkpt lat="44.3168295" lon="7.5306127"><ele>703.0</ele><time>2026-03-28T15:49:13.291Z</time></trkpt><trkpt lat="44.3168824" lon="7.530729"><ele>702.5</ele><time>2026-03-28T15:49:14.291Z</time></trkpt><trkpt lat="44.3169187" lon="7.5308222"><ele>702.0</ele><time>2026-03-28T15:49:15.291Z</time></trkpt><trkpt lat="44.3169403" lon="7.5309181"><ele>701.5</ele><time>2026-03-28T15:49:16.291Z</time></trkpt><trkpt lat="44.3169687" lon="7.5310069"><ele>701.0</ele><time>2026-03-28T15:49:17.292Z</time></trkpt><trkpt lat="44.3170064" lon="7.5311398"><ele>700.0</ele><time>2026-03-28T15:49:18.292Z</time></trkpt><trkpt lat="44.3170531" lon="7.5312881"><ele>699.0</ele><time>2026-03-28T15:49:19.292Z</time></trkpt><trkpt lat="44.3171034" lon="7.5314275"><ele>698.0</ele><time>2026-03-28T15:49:20.292Z</time></trkpt><trkpt lat="44.317145" lon="7.5315467"><ele>697.0</ele><time>2026-03-28T15:49:21.291Z</time></trkpt><trkpt lat="44.3171722" lon="7.5316821"><ele>696.0</ele><time>2026-03-28T15:49:22.291Z</time></trkpt><trkpt lat="44.3171978" lon="7.5318353"><ele>696.0</ele><time>2026-03-28T15:49:23.291Z</time></trkpt><trkpt lat="44.3172248" lon="7.5319944"><ele>696.0</ele><time>2026-03-28T15:49:24.292Z</time></trkpt><trkpt lat="44.317252" lon="7.532138"><ele>696.0</ele><time>2026-03-28T15:49:25.291Z</time></trkpt><trkpt lat="44.3172884" lon="7.5322765"><ele>696.0</ele><time>2026-03-28T15:49:26.291Z</time></trkpt><trkpt lat="44.3173583" lon="7.5324257"><ele>693.4</ele><time>2026-03-28T15:49:27.291Z</time></trkpt><trkpt lat="44.317422" lon="7.5325881"><ele>690.8</ele><time>2026-03-28T15:49:28.291Z</time></trkpt><trkpt lat="44.3174785" lon="7.5327372"><ele>688.1999999999999</ele><time>2026-03-28T15:49:29.291Z</time></trkpt><trkpt lat="44.3175266" lon="7.5328497"><ele>685.5999999999999</ele><time>2026-03-28T15:49:30.292Z</time></trkpt><trkpt lat="44.3175178" lon="7.5329488"><ele>683.0</ele><time>2026-03-28T15:49:31.291Z</time></trkpt><trkpt lat="44.3175004" lon="7.5330421"><ele>682.6666666666666</ele><time>2026-03-28T15:49:32.292Z</time></trkpt><trkpt lat="44.3174539" lon="7.5331521"><ele>682.3333333333333</ele><time>2026-03-28T15:49:33.291Z</time></trkpt><trkpt lat="44.3174089" lon="7.5332616"><ele>682.0</ele><time>2026-03-28T15:49:34.291Z</time></trkpt><trkpt lat="44.3173816" lon="7.5333683"><ele>681.6666666666666</ele><time>2026-03-28T15:49:35.291Z</time></trkpt><trkpt lat="44.317352" lon="7.5334726"><ele>681.3333333333334</ele><time>2026-03-28T15:49:36.292Z</time></trkpt><trkpt lat="44.3173238" lon="7.5335669"><ele>681.0</ele><time>2026-03-28T15:49:37.291Z</time></trkpt><trkpt lat="44.3172996" lon="7.5336567"><ele>681.1666666666666</ele><time>2026-03-28T15:49:38.291Z</time></trkpt><trkpt lat="44.3172817" lon="7.533745"><ele>681.3333333333334</ele><time>2026-03-28T15:49:39.292Z</time></trkpt><trkpt lat="44.3172385" lon="7.5339009"><ele>681.5</ele><time>2026-03-28T15:49:41.292Z</time></trkpt><trkpt lat="44.3171866" lon="7.5340431"><ele>681.6666666666667</ele><time>2026-03-28T15:49:43.291Z</time></trkpt><trkpt lat="44.3171571" lon="7.5341279"><ele>681.8333333333334</ele><time>2026-03-28T15:49:44.292Z</time></trkpt><trkpt lat="44.3171386" lon="7.534234"><ele>682.0</ele><time>2026-03-28T15:49:45.291Z</time></trkpt><trkpt lat="44.3171225" lon="7.5343415"><ele>682.0</ele><time>2026-03-28T15:49:46.291Z</time></trkpt><trkpt lat="44.3171123" lon="7.534453"><ele>682.0</ele><time>2026-03-28T15:49:47.292Z</time></trkpt><trkpt lat="44.3171044" lon="7.5345432"><ele>682.0</ele><time>2026-03-28T15:49:48.291Z</time></trkpt><trkpt lat="44.317047" lon="7.5346669"><ele>682.0</ele><time>2026-03-28T15:49:50.292Z</time></trkpt><trkpt lat="44.3169383" lon="7.5347311"><ele>682.0</ele><time>2026-03-28T15:49:52.291Z</time></trkpt><trkpt lat="44.316828" lon="7.5347655"><ele>681.4000000000001</ele><time>2026-03-28T15:49:54.291Z</time></trkpt><trkpt lat="44.3167791" lon="7.5349014"><ele>680.8000000000001</ele><time>2026-03-28T15:49:56.292Z</time></trkpt><trkpt lat="44.316873" lon="7.5349965"><ele>680.2</ele><time>2026-03-28T15:49:58.291Z</time></trkpt><trkpt lat="44.3169533" lon="7.5349686"><ele>679.6</ele><time>2026-03-28T15:49:59.291Z</time></trkpt><trkpt lat="44.317029" lon="7.5348726"><ele>679.0</ele><time>2026-03-28T15:50:00.291Z</time></trkpt><trkpt lat="44.3170887" lon="7.5347281"><ele>679.0</ele><time>2026-03-28T15:50:01.292Z</time></trkpt><trkpt lat="44.3170952" lon="7.534611"><ele>679.0</ele><time>2026-03-28T15:50:02.291Z</time></trkpt><trkpt lat="44.3171021" lon="7.5344739"><ele>679.0</ele><time>2026-03-28T15:50:04.292Z</time></trkpt><trkpt lat="44.3170413" lon="7.5344129"><ele>679.0</ele><time>2026-03-28T15:50:06.292Z</time></trkpt><trkpt lat="44.3169593" lon="7.5345272"><ele>679.0</ele><time>2026-03-28T15:50:08.292Z</time></trkpt><trkpt lat="44.3169233" lon="7.5346288"><ele>679.0</ele><time>2026-03-28T15:50:09.292Z</time></trkpt><trkpt lat="44.316909" lon="7.5347415"><ele>679.0</ele><time>2026-03-28T15:50:10.292Z</time></trkpt><trkpt lat="44.3169187" lon="7.5348457"><ele>679.0</ele><time>2026-03-28T15:50:11.291Z</time></trkpt><trkpt lat="44.3168782" lon="7.5349529"><ele>679.0</ele><time>2026-03-28T15:50:13.292Z</time></trkpt><trkpt lat="44.3167919" lon="7.534864"><ele>679.0</ele><time>2026-03-28T15:50:15.292Z</time></trkpt><trkpt lat="44.3167716" lon="7.5347759"><ele>679.0</ele><time>2026-03-28T15:50:16.292Z</time></trkpt><trkpt lat="44.3168703" lon="7.5347087"><ele>679.0</ele><time>2026-03-28T15:50:17.291Z</time></trkpt><trkpt lat="44.3169789" lon="7.5346775"><ele>679.0</ele><time>2026-03-28T15:50:18.291Z</time></trkpt><trkpt lat="44.3170901" lon="7.5346811"><ele>679.0</ele><time>2026-03-28T15:50:19.292Z</time></trkpt><trkpt lat="44.3171614" lon="7.5348284"><ele>679.0</ele><time>2026-03-28T15:50:21.292Z</time></trkpt><trkpt lat="44.3171853" lon="7.5349489"><ele>679.0</ele><time>2026-03-28T15:50:22.292Z</time></trkpt><trkpt lat="44.3171958" lon="7.5350729"><ele>679.0</ele><time>2026-03-28T15:50:23.292Z</time></trkpt><trkpt lat="44.3172041" lon="7.5351647"><ele>679.0</ele><time>2026-03-28T15:50:24.291Z</time></trkpt><trkpt lat="44.3172004" lon="7.5352699"><ele>679.0</ele><time>2026-03-28T15:50:26.291Z</time></trkpt><trkpt lat="44.3172007" lon="7.53538"><ele>679.0</ele><time>2026-03-28T15:50:28.292Z</time></trkpt><trkpt lat="44.3172" lon="7.5354762"><ele>679.0</ele><time>2026-03-28T15:50:29.292Z</time></trkpt><trkpt lat="44.3172048" lon="7.5355963"><ele>679.0</ele><time>2026-03-28T15:50:30.291Z</time></trkpt><trkpt lat="44.317215" lon="7.5357167"><ele>678.8000000000001</ele><time>2026-03-28T15:50:31.291Z</time></trkpt><trkpt lat="44.3172367" lon="7.5358242"><ele>678.6</ele><time>2026-03-28T15:50:32.291Z</time></trkpt><trkpt lat="44.317282" lon="7.5359314"><ele>678.4</ele><time>2026-03-28T15:50:33.292Z</time></trkpt><trkpt lat="44.3173418" lon="7.5360416"><ele>678.2</ele><time>2026-03-28T15:50:34.292Z</time></trkpt><trkpt lat="44.3173941" lon="7.5361539"><ele>678.0</ele><time>2026-03-28T15:50:35.292Z</time></trkpt><trkpt lat="44.3174312" lon="7.5362682"><ele>663.0</ele><time>2026-03-28T15:50:36.291Z</time></trkpt><trkpt lat="44.3174633" lon="7.536382"><ele>663.0</ele><time>2026-03-28T15:50:37.292Z</time></trkpt><trkpt lat="44.3174835" lon="7.5364873"><ele>663.0</ele><time>2026-03-28T15:50:38.292Z</time></trkpt><trkpt lat="44.3174969" lon="7.5365779"><ele>663.0</ele><time>2026-03-28T15:50:39.291Z</time></trkpt><trkpt lat="44.3175005" lon="7.5366823"><ele>663.0</ele><time>2026-03-28T15:50:41.292Z</time></trkpt></trkseg><trkseg><trkpt lat="44.3181239" lon="7.5499291"><ele>644.5</ele><time>2026-03-28T16:32:05.324Z</time></trkpt><trkpt lat="44.3180117" lon="7.5499012"><ele>649.0</ele><time>2026-03-28T16:32:07.312Z</time></trkpt><trkpt lat="44.3178763" lon="7.5498899"><ele>653.5</ele><time>2026-03-28T16:32:08.312Z</time></trkpt><trkpt lat="44.3177682" lon="7.5498694"><ele>658.0</ele><time>2026-03-28T16:32:09.312Z</time></trkpt><trkpt lat="44.317664" lon="7.5498574"><ele>658.0</ele><time>2026-03-28T16:32:10.312Z</time></trkpt><trkpt lat="44.3175502" lon="7.5498723"><ele>658.0</ele><time>2026-03-28T16:32:11.313Z</time></trkpt><trkpt lat="44.3174542" lon="7.5498924"><ele>658.0</ele><time>2026-03-28T16:32:12.313Z</time></trkpt><trkpt lat="44.317359" lon="7.5498943"><ele>658.0</ele><time>2026-03-28T16:32:13.312Z</time></trkpt><trkpt lat="44.3172873" lon="7.5498639"><ele>658.0</ele><time>2026-03-28T16:32:14.313Z</time></trkpt><trkpt lat="44.3171829" lon="7.5498546"><ele>658.0</ele><time>2026-03-28T16:32:16.312Z</time></trkpt><trkpt lat="44.317281" lon="7.5499841"><ele>658.0</ele><time>2026-03-28T16:32:18.313Z</time></trkpt><trkpt lat="44.3173966" lon="7.5500646"><ele>658.0</ele><time>2026-03-28T16:32:19.313Z</time></trkpt><trkpt lat="44.3174851" lon="7.5501361"><ele>658.0</ele><time>2026-03-28T16:32:20.312Z</time></trkpt><trkpt lat="44.3175384" lon="7.5502444"><ele>658.0</ele><time>2026-03-28T16:32:22.313Z</time></trkpt><trkpt lat="44.3174772" lon="7.5502882"><ele>658.0</ele><time>2026-03-28T16:32:23.312Z</time></trkpt><trkpt lat="44.3174041" lon="7.5502393"><ele>658.0</ele><time>2026-03-28T16:32:25.313Z</time></trkpt><trkpt lat="44.3173448" lon="7.5501806"><ele>658.0</ele><time>2026-03-28T16:32:26.313Z</time></trkpt><trkpt lat="44.3172772" lon="7.5502046"><ele>658.0</ele><time>2026-03-28T16:32:28.312Z</time></trkpt><trkpt lat="44.3172316" lon="7.5503194"><ele>658.0</ele><time>2026-03-28T16:34:44.312Z</time></trkpt><trkpt lat="44.3172187" lon="7.5504405"><ele>664.2</ele><time>2026-03-28T16:34:46.312Z</time></trkpt><trkpt lat="44.3171828" lon="7.5506147"><ele>670.4</ele><time>2026-03-28T16:34:48.312Z</time></trkpt><trkpt lat="44.3171937" lon="7.5507559"><ele>676.6</ele><time>2026-03-28T16:34:49.312Z</time></trkpt><trkpt lat="44.3172073" lon="7.5508992"><ele>682.8000000000001</ele><time>2026-03-28T16:34:50.313Z</time></trkpt><trkpt lat="44.3172102" lon="7.5510337"><ele>689.0</ele><time>2026-03-28T16:34:51.312Z</time></trkpt><trkpt lat="44.3172182" lon="7.5511746"><ele>688.6</ele><time>2026-03-28T16:34:52.313Z</time></trkpt><trkpt lat="44.3172141" lon="7.5513039"><ele>688.2</ele><time>2026-03-28T16:34:53.312Z</time></trkpt><trkpt lat="44.3171852" lon="7.5514298"><ele>687.8000000000001</ele><time>2026-03-28T16:34:54.313Z</time></trkpt><trkpt lat="44.3171304" lon="7.5515281"><ele>687.4000000000001</ele><time>2026-03-28T16:34:55.312Z</time></trkpt><trkpt lat="44.3170801" lon="7.5516275"><ele>687.0</ele><time>2026-03-28T16:34:56.312Z</time></trkpt><trkpt lat="44.3169854" lon="7.5517136"><ele>687.0</ele><time>2026-03-28T16:34:57.313Z</time></trkpt><trkpt lat="44.3169151" lon="7.5517089"><ele>687.0</ele><time>2026-03-28T16:34:58.312Z</time></trkpt><trkpt lat="44.3168246" lon="7.5516973"><ele>687.0</ele><time>2026-03-28T16:35:00.312Z</time></trkpt><trkpt lat="44.316799" lon="7.5516048"><ele>687.0</ele><time>2026-03-28T16:35:09.313Z</time></trkpt><trkpt lat="44.3167734" lon="7.5514464"><ele>687.0</ele><time>2026-03-28T16:35:11.313Z</time></trkpt><trkpt lat="44.3167356" lon="7.5512749"><ele>687.4000000000001</ele><time>2026-03-28T16:35:13.312Z</time></trkpt><trkpt lat="44.3167205" lon="7.5511789"><ele>687.8000000000001</ele><time>2026-03-28T16:35:14.312Z</time></trkpt><trkpt lat="44.3167073" lon="7.5510431"><ele>688.2</ele><time>2026-03-28T16:35:16.312Z</time></trkpt><trkpt lat="44.3166396" lon="7.5509905"><ele>688.6</ele><time>2026-03-28T16:35:18.313Z</time></trkpt><trkpt lat="44.3165431" lon="7.5509615"><ele>689.0</ele><time>2026-03-28T16:35:20.312Z</time></trkpt><trkpt lat="44.3164319" lon="7.5509258"><ele>692.8333333333333</ele><time>2026-03-28T16:35:26.313Z</time></trkpt><trkpt lat="44.3163234" lon="7.550863"><ele>696.6666666666666</ele><time>2026-03-28T16:35:28.313Z</time></trkpt><trkpt lat="44.3162531" lon="7.5508491"><ele>700.5</ele><time>2026-03-28T16:35:30.313Z</time></trkpt><trkpt lat="44.3162001" lon="7.550795"><ele>704.3333333333334</ele><time>2026-03-28T16:35:32.313Z</time></trkpt><trkpt lat="44.3161164" lon="7.5508876"><ele>708.1666666666667</ele><time>2026-03-28T16:35:35.312Z</time></trkpt><trkpt lat="44.3160666" lon="7.550956"><ele>712.0</ele><time>2026-03-28T16:35:36.312Z</time></trkpt><trkpt lat="44.3159711" lon="7.5510312"><ele>712.0</ele><time>2026-03-28T16:35:38.312Z</time></trkpt><trkpt lat="44.3158737" lon="7.5510589"><ele>712.0</ele><time>2026-03-28T16:35:40.312Z</time></trkpt><trkpt lat="44.3157736" lon="7.5509886"><ele>712.0</ele><time>2026-03-28T16:35:42.312Z</time></trkpt><trkpt lat="44.3157043" lon="7.5509604"><ele>712.0</ele><time>2026-03-28T16:35:43.312Z</time></trkpt><trkpt lat="44.3156367" lon="7.5509139"><ele>712.0</ele><time>2026-03-28T16:35:44.312Z</time></trkpt><trkpt lat="44.3155674" lon="7.5508529"><ele>712.0</ele><time>2026-03-28T16:35:46.312Z</time></trkpt><trkpt lat="44.315524" lon="7.5507754"><ele>713.1666666666667</ele><time>2026-03-28T16:35:49.312Z</time></trkpt><trkpt lat="44.3154817" lon="7.5506981"><ele>714.3333333333334</ele><time>2026-03-28T16:35:51.245Z</time></trkpt><trkpt lat="44.315383" lon="7.550631"><ele>715.5</ele><time>2026-03-28T16:35:52.312Z</time></trkpt><trkpt lat="44.3153146" lon="7.5505928"><ele>716.6666666666666</ele><time>2026-03-28T16:35:53.313Z</time></trkpt><trkpt lat="44.3152575" lon="7.5505502"><ele>717.8333333333333</ele><time>2026-03-28T16:35:54.313Z</time></trkpt><trkpt lat="44.3152065" lon="7.5504979"><ele>719.0</ele><time>2026-03-28T16:35:58.312Z</time></trkpt><trkpt lat="44.3152758" lon="7.5505442"><ele>719.0</ele><time>2026-03-28T16:36:12.313Z</time></trkpt><trkpt lat="44.3153976" lon="7.5506615"><ele>719.0</ele><time>2026-03-28T16:36:14.313Z</time></trkpt><trkpt lat="44.3154666" lon="7.550779"><ele>719.0</ele><time>2026-03-28T16:36:16.312Z</time></trkpt><trkpt lat="44.3155435" lon="7.5507547"><ele>719.0</ele><time>2026-03-28T16:36:19.313Z</time></trkpt><trkpt lat="44.3156253" lon="7.5508257"><ele>719.0</ele><time>2026-03-28T16:36:23.353Z</time></trkpt><trkpt lat="44.3157238" lon="7.5508785"><ele>717.6</ele><time>2026-03-28T16:36:26.312Z</time></trkpt><trkpt lat="44.3158048" lon="7.5509536"><ele>716.2</ele><time>2026-03-28T16:36:28.324Z</time></trkpt><trkpt lat="44.3158657" lon="7.5509777"><ele>714.8000000000001</ele><time>2026-03-28T16:36:29.313Z</time></trkpt><trkpt lat="44.3159764" lon="7.5509722"><ele>713.4000000000001</ele><time>2026-03-28T16:36:31.312Z</time></trkpt><trkpt lat="44.3160474" lon="7.5509531"><ele>712.0</ele><time>2026-03-28T16:36:33.312Z</time></trkpt><trkpt lat="44.3161327" lon="7.5508408"><ele>712.0</ele><time>2026-03-28T16:36:36.312Z</time></trkpt><trkpt lat="44.316163" lon="7.5507633"><ele>712.0</ele><time>2026-03-28T16:36:38.313Z</time></trkpt><trkpt lat="44.316229" lon="7.5508282"><ele>712.0</ele><time>2026-03-28T16:36:40.359Z</time></trkpt><trkpt lat="44.3163075" lon="7.5508722"><ele>712.0</ele><time>2026-03-28T16:36:42.313Z</time></trkpt><trkpt lat="44.3164117" lon="7.5508918"><ele>712.0</ele><time>2026-03-28T16:36:44.312Z</time></trkpt><trkpt lat="44.3165447" lon="7.5509283"><ele>707.4000000000001</ele><time>2026-03-28T16:36:46.312Z</time></trkpt><trkpt lat="44.3166607" lon="7.5509652"><ele>702.8000000000001</ele><time>2026-03-28T16:36:48.312Z</time></trkpt><trkpt lat="44.3167253" lon="7.5510022"><ele>698.2</ele><time>2026-03-28T16:36:50.313Z</time></trkpt><trkpt lat="44.3167347" lon="7.5511389"><ele>693.6</ele><time>2026-03-28T16:36:52.312Z</time></trkpt><trkpt lat="44.3167371" lon="7.5512791"><ele>689.0</ele><time>2026-03-28T16:36:54.312Z</time></trkpt><trkpt lat="44.3167769" lon="7.5514001"><ele>688.6666666666666</ele><time>2026-03-28T16:36:56.312Z</time></trkpt><trkpt lat="44.3168246" lon="7.5515042"><ele>688.3333333333333</ele><time>2026-03-28T16:36:59.312Z</time></trkpt><trkpt lat="44.3168355" lon="7.5516025"><ele>688.0</ele><time>2026-03-28T16:37:01.313Z</time></trkpt><trkpt lat="44.3167349" lon="7.5516506"><ele>687.6666666666666</ele><time>2026-03-28T16:37:04.313Z</time></trkpt><trkpt lat="44.3166317" lon="7.551721"><ele>687.3333333333334</ele><time>2026-03-28T16:37:06.313Z</time></trkpt><trkpt lat="44.3165761" lon="7.551774"><ele>687.0</ele><time>2026-03-28T16:37:07.312Z</time></trkpt><trkpt lat="44.3165014" lon="7.5517991"><ele>687.0</ele><time>2026-03-28T16:37:09.312Z</time></trkpt><trkpt lat="44.3164364" lon="7.5517994"><ele>687.0</ele><time>2026-03-28T16:37:11.312Z</time></trkpt><trkpt lat="44.3163746" lon="7.5517718"><ele>687.0</ele><time>2026-03-28T16:37:13.312Z</time></trkpt><trkpt lat="44.3164643" lon="7.5517812"><ele>687.0</ele><time>2026-03-28T16:37:48.312Z</time></trkpt><trkpt lat="44.3165468" lon="7.5517711"><ele>687.0</ele><time>2026-03-28T16:37:50.312Z</time></trkpt><trkpt lat="44.3166358" lon="7.5517205"><ele>687.0</ele><time>2026-03-28T16:37:52.312Z</time></trkpt><trkpt lat="44.316733" lon="7.5516611"><ele>687.0</ele><time>2026-03-28T16:37:54.313Z</time></trkpt><trkpt lat="44.3167948" lon="7.5516252"><ele>687.0</ele><time>2026-03-28T16:37:55.312Z</time></trkpt><trkpt lat="44.3167197" lon="7.5516987"><ele>687.0</ele><time>2026-03-28T16:37:59.313Z</time></trkpt><trkpt lat="44.3166312" lon="7.5517436"><ele>687.0</ele><time>2026-03-28T16:38:00.313Z</time></trkpt><trkpt lat="44.3165315" lon="7.5517915"><ele>687.0</ele><time>2026-03-28T16:38:01.313Z</time></trkpt><trkpt lat="44.316432" lon="7.5518363"><ele>688.75</ele><time>2026-03-28T16:38:02.312Z</time></trkpt><trkpt lat="44.3163407" lon="7.5519361"><ele>690.5</ele><time>2026-03-28T16:38:03.312Z</time></trkpt><trkpt lat="44.3162499" lon="7.5520155"><ele>692.25</ele><time>2026-03-28T16:38:04.312Z</time></trkpt><trkpt lat="44.3161298" lon="7.5520317"><ele>694.0</ele><time>2026-03-28T16:38:05.313Z</time></trkpt><trkpt lat="44.3159939" lon="7.5520186"><ele>694.0</ele><time>2026-03-28T16:38:06.312Z</time></trkpt><trkpt lat="44.3158563" lon="7.5520073"><ele>694.0</ele><time>2026-03-28T16:38:07.312Z</time></trkpt><trkpt lat="44.3157193" lon="7.55198"><ele>694.0</ele><time>2026-03-28T16:38:08.312Z</time></trkpt><trkpt lat="44.3156054" lon="7.551941"><ele>694.0</ele><time>2026-03-28T16:38:09.313Z</time></trkpt><trkpt lat="44.3155243" lon="7.5518809"><ele>694.25</ele><time>2026-03-28T16:38:10.312Z</time></trkpt><trkpt lat="44.3154355" lon="7.5517788"><ele>694.5</ele><time>2026-03-28T16:38:11.312Z</time></trkpt><trkpt lat="44.3153416" lon="7.5516744"><ele>694.75</ele><time>2026-03-28T16:38:12.312Z</time></trkpt><trkpt lat="44.3152515" lon="7.5515061"><ele>695.0</ele><time>2026-03-28T16:38:13.312Z</time></trkpt><trkpt lat="44.3151488" lon="7.5513781"><ele>695.0</ele><time>2026-03-28T16:38:14.312Z</time></trkpt><trkpt lat="44.315042" lon="7.551275"><ele>695.0</ele><time>2026-03-28T16:38:15.312Z</time></trkpt><trkpt lat="44.3149475" lon="7.551181"><ele>695.0</ele><time>2026-03-28T16:38:16.313Z</time></trkpt><trkpt lat="44.3148325" lon="7.5511428"><ele>695.0</ele><time>2026-03-28T16:38:17.313Z</time></trkpt><trkpt lat="44.3147043" lon="7.5511218"><ele>700.25</ele><time>2026-03-28T16:38:18.312Z</time></trkpt><trkpt lat="44.3145657" lon="7.5510945"><ele>705.5</ele><time>2026-03-28T16:38:19.313Z</time></trkpt><trkpt lat="44.3144137" lon="7.5511008"><ele>710.75</ele><time>2026-03-28T16:38:20.313Z</time></trkpt><trkpt lat="44.314268" lon="7.5510961"><ele>716.0</ele><time>2026-03-28T16:38:21.313Z</time></trkpt><trkpt lat="44.3141571" lon="7.5511076"><ele>716.0</ele><time>2026-03-28T16:38:22.312Z</time></trkpt><trkpt lat="44.3140858" lon="7.5511693"><ele>716.0</ele><time>2026-03-28T16:38:24.312Z</time></trkpt><trkpt lat="44.3141199" lon="7.5513565"><ele>716.0</ele><time>2026-03-28T16:38:26.312Z</time></trkpt><trkpt lat="44.3141218" lon="7.5514825"><ele>716.0</ele><time>2026-03-28T16:38:27.312Z</time></trkpt><trkpt lat="44.3140893" lon="7.5515722"><ele>716.0</ele><time>2026-03-28T16:38:28.313Z</time></trkpt><trkpt lat="44.3140231" lon="7.5516346"><ele>717.5999999999999</ele><time>2026-03-28T16:38:29.313Z</time></trkpt><trkpt lat="44.3139528" lon="7.5517006"><ele>719.2</ele><time>2026-03-28T16:38:30.313Z</time></trkpt><trkpt lat="44.3138802" lon="7.5517586"><ele>720.8</ele><time>2026-03-28T16:38:31.313Z</time></trkpt><trkpt lat="44.3139274" lon="7.5516901"><ele>722.4000000000001</ele><time>2026-03-28T16:38:35.312Z</time></trkpt><trkpt lat="44.3138459" lon="7.5516712"><ele>724.0</ele><time>2026-03-28T16:38:38.313Z</time></trkpt><trkpt lat="44.3137213" lon="7.551613"><ele>724.0</ele><time>2026-03-28T16:38:40.312Z</time></trkpt><trkpt lat="44.3136566" lon="7.5515728"><ele>724.0</ele><time>2026-03-28T16:38:41.312Z</time></trkpt><trkpt lat="44.3135885" lon="7.5515809"><ele>724.0</ele><time>2026-03-28T16:38:43.312Z</time></trkpt><trkpt lat="44.3135064" lon="7.5515809"><ele>724.0</ele><time>2026-03-28T16:39:06.312Z</time></trkpt><trkpt lat="44.3134279" lon="7.5516112"><ele>724.0</ele><time>2026-03-28T16:39:08.312Z</time></trkpt><trkpt lat="44.3133486" lon="7.5516144"><ele>724.0</ele><time>2026-03-28T16:39:11.312Z</time></trkpt><trkpt lat="44.3132767" lon="7.5516026"><ele>724.0</ele><time>2026-03-28T16:39:13.313Z</time></trkpt><trkpt lat="44.313216" lon="7.551542"><ele>724.0</ele><time>2026-03-28T16:39:14.313Z</time></trkpt><trkpt lat="44.313125" lon="7.5515044"><ele>724.0</ele><time>2026-03-28T16:39:16.312Z</time></trkpt><trkpt lat="44.312997" lon="7.5514952"><ele>724.0</ele><time>2026-03-28T16:39:18.313Z</time></trkpt><trkpt lat="44.3128967" lon="7.5514454"><ele>724.0</ele><time>2026-03-28T16:39:19.313Z</time></trkpt><trkpt lat="44.312812" lon="7.5514355"><ele>729.0</ele><time>2026-03-28T16:39:20.312Z</time></trkpt><trkpt lat="44.3127206" lon="7.5514017"><ele>734.0</ele><time>2026-03-28T16:39:21.313Z</time></trkpt><trkpt lat="44.3126191" lon="7.5513673"><ele>739.0</ele><time>2026-03-28T16:39:22.312Z</time></trkpt><trkpt lat="44.3125337" lon="7.5513021"><ele>744.0</ele><time>2026-03-28T16:39:23.313Z</time></trkpt><trkpt lat="44.3124462" lon="7.5512323"><ele>749.0</ele><time>2026-03-28T16:39:24.313Z</time></trkpt><trkpt lat="44.3123578" lon="7.5511645"><ele>749.0</ele><time>2026-03-28T16:39:25.312Z</time></trkpt><trkpt lat="44.3122524" lon="7.5511339"><ele>749.0</ele><time>2026-03-28T16:39:27.313Z</time></trkpt><trkpt lat="44.3123084" lon="7.5511967"><ele>749.0</ele><time>2026-03-28T16:39:33.312Z</time></trkpt><trkpt lat="44.312313" lon="7.5512851"><ele>749.0</ele><time>2026-03-28T16:39:34.312Z</time></trkpt><trkpt lat="44.3123137" lon="7.5514183"><ele>749.0</ele><time>2026-03-28T16:39:36.312Z</time></trkpt><trkpt lat="44.312226" lon="7.5513666"><ele>749.0</ele><time>2026-03-28T16:39:39.312Z</time></trkpt><trkpt lat="44.3121415" lon="7.5512634"><ele>753.6666666666666</ele><time>2026-03-28T16:39:41.312Z</time></trkpt><trkpt lat="44.3120903" lon="7.5512034"><ele>758.3333333333333</ele><time>2026-03-28T16:39:42.312Z</time></trkpt><trkpt lat="44.3120201" lon="7.5511939"><ele>763.0</ele><time>2026-03-28T16:39:43.313Z</time></trkpt><trkpt lat="44.3119466" lon="7.5511865"><ele>767.6666666666666</ele><time>2026-03-28T16:39:44.312Z</time></trkpt><trkpt lat="44.3118688" lon="7.5511809"><ele>772.3333333333334</ele><time>2026-03-28T16:39:45.312Z</time></trkpt><trkpt lat="44.3117748" lon="7.5511522"><ele>777.0</ele><time>2026-03-28T16:39:46.313Z</time></trkpt><trkpt lat="44.3116831" lon="7.5511236"><ele>777.0</ele><time>2026-03-28T16:39:47.313Z</time></trkpt><trkpt lat="44.3116162" lon="7.5511559"><ele>777.0</ele><time>2026-03-28T16:39:48.312Z</time></trkpt><trkpt lat="44.3115322" lon="7.5511451"><ele>777.0</ele><time>2026-03-28T16:39:49.313Z</time></trkpt><trkpt lat="44.3114471" lon="7.5511228"><ele>777.0</ele><time>2026-03-28T16:39:50.313Z</time></trkpt><trkpt lat="44.3113662" lon="7.5511063"><ele>777.0</ele><time>2026-03-28T16:39:51.313Z</time></trkpt><trkpt lat="44.311317" lon="7.5512217"><ele>777.0</ele><time>2026-03-28T16:39:53.313Z</time></trkpt><trkpt lat="44.311351" lon="7.5513108"><ele>776.3333333333334</ele><time>2026-03-28T16:39:55.312Z</time></trkpt><trkpt lat="44.3114123" lon="7.5514103"><ele>775.6666666666667</ele><time>2026-03-28T16:39:56.313Z</time></trkpt><trkpt lat="44.3114527" lon="7.5514934"><ele>775.0</ele><time>2026-03-28T16:39:57.312Z</time></trkpt><trkpt lat="44.3114857" lon="7.5515973"><ele>774.3333333333334</ele><time>2026-03-28T16:39:58.312Z</time></trkpt><trkpt lat="44.311509" lon="7.5517171"><ele>773.6666666666667</ele><time>2026-03-28T16:39:59.313Z</time></trkpt><trkpt lat="44.3115132" lon="7.5518458"><ele>773.0</ele><time>2026-03-28T16:40:00.312Z</time></trkpt><trkpt lat="44.3114658" lon="7.5519967"><ele>780.6666666666667</ele><time>2026-03-28T16:40:02.313Z</time></trkpt><trkpt lat="44.3113669" lon="7.5520565"><ele>788.3333333333334</ele><time>2026-03-28T16:40:04.312Z</time></trkpt><trkpt lat="44.3112619" lon="7.5521112"><ele>796.0</ele><time>2026-03-28T16:40:05.313Z</time></trkpt><trkpt lat="44.3111933" lon="7.5521454"><ele>803.6666666666667</ele><time>2026-03-28T16:40:06.312Z</time></trkpt><trkpt lat="44.3111055" lon="7.5521596"><ele>811.3333333333334</ele><time>2026-03-28T16:40:08.313Z</time></trkpt><trkpt lat="44.3110421" lon="7.5521916"><ele>819.0</ele><time>2026-03-28T16:40:10.313Z</time></trkpt><trkpt lat="44.310931" lon="7.5522272"><ele>819.0</ele><time>2026-03-28T16:40:12.313Z</time></trkpt><trkpt lat="44.3108208" lon="7.5522701"><ele>819.0</ele><time>2026-03-28T16:40:14.313Z</time></trkpt><trkpt lat="44.3106868" lon="7.55224"><ele>819.0</ele><time>2026-03-28T16:40:16.312Z</time></trkpt><trkpt lat="44.3106117" lon="7.5522281"><ele>819.0</ele><time>2026-03-28T16:40:17.313Z</time></trkpt><trkpt lat="44.3104961" lon="7.5521918"><ele>819.0</ele><time>2026-03-28T16:40:19.312Z</time></trkpt><trkpt lat="44.3104531" lon="7.5521054"><ele>825.0</ele><time>2026-03-28T16:40:21.313Z</time></trkpt><trkpt lat="44.3104453" lon="7.552015"><ele>831.0</ele><time>2026-03-28T16:40:25.313Z</time></trkpt><trkpt lat="44.3104617" lon="7.5518586"><ele>837.0</ele><time>2026-03-28T16:41:17.312Z</time></trkpt><trkpt lat="44.310482" lon="7.551694"><ele>843.0</ele><time>2026-03-28T16:41:20.313Z</time></trkpt><trkpt lat="44.3104886" lon="7.5516006"><ele>849.0</ele><time>2026-03-28T16:41:30.313Z</time></trkpt><trkpt lat="44.3104977" lon="7.5515052"><ele>855.0</ele><time>2026-03-28T16:41:38.313Z</time></trkpt><trkpt lat="44.3105101" lon="7.5516269"><ele>855.0</ele><time>2026-03-28T16:42:21.313Z</time></trkpt><trkpt lat="44.3105105" lon="7.5517258"><ele>855.0</ele><time>2026-03-28T16:42:23.313Z</time></trkpt><trkpt lat="44.3105074" lon="7.5518471"><ele>855.0</ele><time>2026-03-28T16:42:25.313Z</time></trkpt><trkpt lat="44.3104996" lon="7.5519766"><ele>855.0</ele><time>2026-03-28T16:42:27.312Z</time></trkpt><trkpt lat="44.310557" lon="7.5520838"><ele>855.0</ele><time>2026-03-28T16:42:54.313Z</time></trkpt><trkpt lat="44.31062" lon="7.5521101"><ele>855.0</ele><time>2026-03-28T16:42:55.313Z</time></trkpt><trkpt lat="44.310725" lon="7.5521395"><ele>849.0</ele><time>2026-03-28T16:42:57.312Z</time></trkpt><trkpt lat="44.3108174" lon="7.5521583"><ele>843.0</ele><time>2026-03-28T16:42:59.312Z</time></trkpt><trkpt lat="44.3109209" lon="7.5521826"><ele>837.0</ele><time>2026-03-28T16:43:01.312Z</time></trkpt><trkpt lat="44.3109821" lon="7.5521508"><ele>831.0</ele><time>2026-03-28T16:43:02.313Z</time></trkpt><trkpt lat="44.3110438" lon="7.5521204"><ele>825.0</ele><time>2026-03-28T16:43:03.313Z</time></trkpt><trkpt lat="44.3111307" lon="7.5520866"><ele>819.0</ele><time>2026-03-28T16:43:05.313Z</time></trkpt><trkpt lat="44.3112002" lon="7.5520715"><ele>817.4000000000001</ele><time>2026-03-28T16:43:08.312Z</time></trkpt><trkpt lat="44.3112912" lon="7.5520397"><ele>815.8</ele><time>2026-03-28T16:43:10.312Z</time></trkpt><trkpt lat="44.3113842" lon="7.5520012"><ele>814.2</ele><time>2026-03-28T16:43:12.313Z</time></trkpt><trkpt lat="44.3114763" lon="7.5519433"><ele>812.5999999999999</ele><time>2026-03-28T16:43:14.313Z</time></trkpt><trkpt lat="44.3115539" lon="7.5518858"><ele>811.0</ele><time>2026-03-28T16:43:16.312Z</time></trkpt><trkpt lat="44.3115429" lon="7.5517806"><ele>804.6666666666666</ele><time>2026-03-28T16:43:19.312Z</time></trkpt><trkpt lat="44.3115163" lon="7.5516657"><ele>798.3333333333333</ele><time>2026-03-28T16:43:21.313Z</time></trkpt><trkpt lat="44.3114834" lon="7.5515833"><ele>792.0</ele><time>2026-03-28T16:43:25.312Z</time></trkpt><trkpt lat="44.3114853" lon="7.5517253"><ele>785.6666666666667</ele><time>2026-03-28T16:43:30.312Z</time></trkpt><trkpt lat="44.3114909" lon="7.551846"><ele>779.3333333333334</ele><time>2026-03-28T16:43:31.312Z</time></trkpt><trkpt lat="44.3114735" lon="7.5519463"><ele>773.0</ele><time>2026-03-28T16:43:32.313Z</time></trkpt><trkpt lat="44.3114203" lon="7.5520096"><ele>780.6666666666667</ele><time>2026-03-28T16:43:33.313Z</time></trkpt><trkpt lat="44.3113661" lon="7.5520634"><ele>788.3333333333334</ele><time>2026-03-28T16:43:34.312Z</time></trkpt><trkpt lat="44.3112817" lon="7.5520978"><ele>796.0</ele><time>2026-03-28T16:43:35.313Z</time></trkpt><trkpt lat="44.3111868" lon="7.5521448"><ele>803.6666666666667</ele><time>2026-03-28T16:43:36.312Z</time></trkpt><trkpt lat="44.3111246" lon="7.55216"><ele>811.3333333333334</ele><time>2026-03-28T16:43:37.312Z</time></trkpt><trkpt lat="44.3110408" lon="7.5521859"><ele>819.0</ele><time>2026-03-28T16:43:39.313Z</time></trkpt><trkpt lat="44.3109448" lon="7.5522388"><ele>819.0</ele><time>2026-03-28T16:43:41.313Z</time></trkpt><trkpt lat="44.3108785" lon="7.55226"><ele>819.0</ele><time>2026-03-28T16:43:42.312Z</time></trkpt><trkpt lat="44.3108162" lon="7.5522826"><ele>819.0</ele><time>2026-03-28T16:43:43.313Z</time></trkpt><trkpt lat="44.310705" lon="7.5522453"><ele>819.0</ele><time>2026-03-28T16:43:45.313Z</time></trkpt><trkpt lat="44.3106222" lon="7.5521947"><ele>819.0</ele><time>2026-03-28T16:43:47.313Z</time></trkpt><trkpt lat="44.3105535" lon="7.5522085"><ele>819.0</ele><time>2026-03-28T16:43:49.313Z</time></trkpt><trkpt lat="44.3106458" lon="7.5522152"><ele>819.0</ele><time>2026-03-28T16:43:55.312Z</time></trkpt><trkpt lat="44.3107544" lon="7.552242"><ele>819.0</ele><time>2026-03-28T16:43:57.313Z</time></trkpt><trkpt lat="44.3108188" lon="7.5522211"><ele>819.0</ele><time>2026-03-28T16:43:58.313Z</time></trkpt><trkpt lat="44.3109308" lon="7.5521966"><ele>819.0</ele><time>2026-03-28T16:44:00.312Z</time></trkpt><trkpt lat="44.3110301" lon="7.552189"><ele>819.0</ele><time>2026-03-28T16:44:02.312Z</time></trkpt><trkpt lat="44.3110984" lon="7.5521696"><ele>819.0</ele><time>2026-03-28T16:44:04.312Z</time></trkpt><trkpt lat="44.3111445" lon="7.5520971"><ele>819.0</ele><time>2026-03-28T16:44:08.313Z</time></trkpt><trkpt lat="44.3112481" lon="7.5520469"><ele>819.0</ele><time>2026-03-28T16:44:11.313Z</time></trkpt><trkpt lat="44.3113166" lon="7.5519976"><ele>819.0</ele><time>2026-03-28T16:44:12.312Z</time></trkpt><trkpt lat="44.3113857" lon="7.551951"><ele>819.0</ele><time>2026-03-28T16:44:13.312Z</time></trkpt><trkpt lat="44.3114538" lon="7.5519287"><ele>819.0</ele><time>2026-03-28T16:44:14.312Z</time></trkpt><trkpt lat="44.3115194" lon="7.5518498"><ele>811.3333333333334</ele><time>2026-03-28T16:44:17.312Z</time></trkpt><trkpt lat="44.3115416" lon="7.551729"><ele>803.6666666666667</ele><time>2026-03-28T16:44:19.312Z</time></trkpt><trkpt lat="44.3115291" lon="7.5515736"><ele>796.0</ele><time>2026-03-28T16:44:21.313Z</time></trkpt><trkpt lat="44.3115246" lon="7.551662"><ele>788.3333333333334</ele><time>2026-03-28T16:44:26.312Z</time></trkpt><trkpt lat="44.3115271" lon="7.5517595"><ele>780.6666666666667</ele><time>2026-03-28T16:44:27.312Z</time></trkpt><trkpt lat="44.3115284" lon="7.5518577"><ele>773.0</ele><time>2026-03-28T16:44:28.312Z</time></trkpt><trkpt lat="44.3115258" lon="7.5519478"><ele>773.0000000000001</ele><time>2026-03-28T16:44:29.313Z</time></trkpt><trkpt lat="44.3114489" lon="7.5520016"><ele>773.0</ele><time>2026-03-28T16:44:30.313Z</time></trkpt><trkpt lat="44.3113644" lon="7.5520365"><ele>773.0</ele><time>2026-03-28T16:44:31.313Z</time></trkpt><trkpt lat="44.3112803" lon="7.5520849"><ele>773.0</ele><time>2026-03-28T16:44:32.312Z</time></trkpt><trkpt lat="44.3111845" lon="7.5521219"><ele>773.0000000000001</ele><time>2026-03-28T16:44:33.313Z</time></trkpt><trkpt lat="44.311115" lon="7.552142"><ele>773.0</ele><time>2026-03-28T16:44:34.312Z</time></trkpt><trkpt lat="44.311021" lon="7.5521719"><ele>782.2</ele><time>2026-03-28T16:44:36.312Z</time></trkpt><trkpt lat="44.3109153" lon="7.5522012"><ele>791.4</ele><time>2026-03-28T16:44:38.313Z</time></trkpt><trkpt lat="44.3107715" lon="7.5522296"><ele>800.6</ele><time>2026-03-28T16:44:40.312Z</time></trkpt><trkpt lat="44.3107" lon="7.5522038"><ele>809.8000000000001</ele><time>2026-03-28T16:44:41.312Z</time></trkpt><trkpt lat="44.3106337" lon="7.5521794"><ele>819.0</ele><time>2026-03-28T16:44:42.313Z</time></trkpt><trkpt lat="44.3105273" lon="7.5521098"><ele>819.0</ele><time>2026-03-28T16:44:44.313Z</time></trkpt><trkpt lat="44.310616" lon="7.5521936"><ele>819.0</ele><time>2026-03-28T16:45:02.313Z</time></trkpt><trkpt lat="44.3106805" lon="7.5522298"><ele>819.0</ele><time>2026-03-28T16:45:03.313Z</time></trkpt><trkpt lat="44.3107846" lon="7.5522313"><ele>819.0</ele><time>2026-03-28T16:45:05.312Z</time></trkpt><trkpt lat="44.3109113" lon="7.5521742"><ele>819.0</ele><time>2026-03-28T16:45:07.312Z</time></trkpt><trkpt lat="44.3109794" lon="7.552133"><ele>819.0</ele><time>2026-03-28T16:45:08.313Z</time></trkpt><trkpt lat="44.3110482" lon="7.5520978"><ele>819.0</ele><time>2026-03-28T16:45:09.313Z</time></trkpt><trkpt lat="44.3111118" lon="7.5520467"><ele>819.0</ele><time>2026-03-28T16:45:11.313Z</time></trkpt><trkpt lat="44.3111908" lon="7.5520784"><ele>819.0</ele><time>2026-03-28T16:45:14.313Z</time></trkpt><trkpt lat="44.3113006" lon="7.5520238"><ele>819.0</ele><time>2026-03-28T16:45:16.313Z</time></trkpt><trkpt lat="44.3113594" lon="7.5519801"><ele>819.0</ele><time>2026-03-28T16:45:17.313Z</time></trkpt><trkpt lat="44.3114158" lon="7.5519377"><ele>811.3333333333334</ele><time>2026-03-28T16:45:18.313Z</time></trkpt><trkpt lat="44.3115099" lon="7.5518826"><ele>803.6666666666667</ele><time>2026-03-28T16:45:20.313Z</time></trkpt><trkpt lat="44.3115029" lon="7.551742"><ele>796.0</ele><time>2026-03-28T16:45:23.312Z</time></trkpt><trkpt lat="44.3114997" lon="7.5516192"><ele>788.3333333333334</ele><time>2026-03-28T16:45:25.312Z</time></trkpt><trkpt lat="44.3114555" lon="7.5515555"><ele>780.6666666666667</ele><time>2026-03-28T16:45:28.312Z</time></trkpt><trkpt lat="44.3115143" lon="7.551615"><ele>773.0</ele><time>2026-03-28T16:45:33.312Z</time></trkpt><trkpt lat="44.3115266" lon="7.5517083"><ele>773.0000000000001</ele><time>2026-03-28T16:45:34.312Z</time></trkpt><trkpt lat="44.3115341" lon="7.5518025"><ele>773.0</ele><time>2026-03-28T16:45:35.312Z</time></trkpt><trkpt lat="44.311527" lon="7.5519178"><ele>773.0</ele><time>2026-03-28T16:45:36.312Z</time></trkpt><trkpt lat="44.3114919" lon="7.551994"><ele>773.0</ele><time>2026-03-28T16:45:37.312Z</time></trkpt><trkpt lat="44.3114333" lon="7.5520572"><ele>773.0000000000001</ele><time>2026-03-28T16:45:38.312Z</time></trkpt><trkpt lat="44.3113184" lon="7.5520746"><ele>773.0</ele><time>2026-03-28T16:45:39.312Z</time></trkpt><trkpt lat="44.3112124" lon="7.5521045"><ele>780.6666666666667</ele><time>2026-03-28T16:45:40.312Z</time></trkpt><trkpt lat="44.3111266" lon="7.5521359"><ele>788.3333333333334</ele><time>2026-03-28T16:45:41.312Z</time></trkpt><trkpt lat="44.3110551" lon="7.5521694"><ele>796.0</ele><time>2026-03-28T16:45:42.312Z</time></trkpt><trkpt lat="44.3109558" lon="7.552224"><ele>803.6666666666667</ele><time>2026-03-28T16:45:44.312Z</time></trkpt><trkpt lat="44.3108844" lon="7.5522386"><ele>811.3333333333334</ele><time>2026-03-28T16:45:45.313Z</time></trkpt><trkpt lat="44.3108152" lon="7.5522203"><ele>819.0</ele><time>2026-03-28T16:45:46.313Z</time></trkpt><trkpt lat="44.3107498" lon="7.5522072"><ele>819.0</ele><time>2026-03-28T16:45:47.313Z</time></trkpt><trkpt lat="44.310679" lon="7.5521975"><ele>819.0</ele><time>2026-03-28T16:45:48.312Z</time></trkpt><trkpt lat="44.3106118" lon="7.5521747"><ele>819.0</ele><time>2026-03-28T16:45:49.313Z</time></trkpt><trkpt lat="44.3105064" lon="7.5521347"><ele>819.0</ele><time>2026-03-28T16:45:51.313Z</time></trkpt><trkpt lat="44.3104475" lon="7.5520705"><ele>819.0</ele><time>2026-03-28T16:45:53.312Z</time></trkpt><trkpt lat="44.3104469" lon="7.5519794"><ele>819.0</ele><time>2026-03-28T16:46:03.313Z</time></trkpt><trkpt lat="44.3104489" lon="7.5520792"><ele>819.0</ele><time>2026-03-28T16:46:28.313Z</time></trkpt><trkpt lat="44.3105254" lon="7.5521311"><ele>819.0</ele><time>2026-03-28T16:47:26.313Z</time></trkpt><trkpt lat="44.3106077" lon="7.5521817"><ele>819.0</ele><time>2026-03-28T16:47:28.312Z</time></trkpt><trkpt lat="44.3107208" lon="7.5522376"><ele>819.0</ele><time>2026-03-28T16:47:30.312Z</time></trkpt><trkpt lat="44.3108379" lon="7.55224"><ele>819.0</ele><time>2026-03-28T16:47:32.313Z</time></trkpt><trkpt lat="44.310901" lon="7.5522087"><ele>819.0</ele><time>2026-03-28T16:47:33.313Z</time></trkpt><trkpt lat="44.3109669" lon="7.5521744"><ele>819.0</ele><time>2026-03-28T16:47:34.312Z</time></trkpt><trkpt lat="44.3110347" lon="7.5521458"><ele>819.0</ele><time>2026-03-28T16:47:35.313Z</time></trkpt><trkpt lat="44.3111034" lon="7.5520778"><ele>819.0</ele><time>2026-03-28T16:47:37.313Z</time></trkpt><trkpt lat="44.311177" lon="7.5520873"><ele>819.0</ele><time>2026-03-28T16:47:39.312Z</time></trkpt><trkpt lat="44.3112552" lon="7.5521176"><ele>819.0</ele><time>2026-03-28T16:48:25.313Z</time></trkpt><trkpt lat="44.311326" lon="7.5520564"><ele>817.6666666666666</ele><time>2026-03-28T16:48:27.313Z</time></trkpt><trkpt lat="44.3113791" lon="7.5519944"><ele>816.3333333333333</ele><time>2026-03-28T16:48:28.313Z</time></trkpt><trkpt lat="44.3114862" lon="7.5519351"><ele>815.0</ele><time>2026-03-28T16:48:30.313Z</time></trkpt><trkpt lat="44.3115127" lon="7.5517921"><ele>813.6666666666666</ele><time>2026-03-28T16:48:33.312Z</time></trkpt><trkpt lat="44.3115109" lon="7.5516955"><ele>812.3333333333333</ele><time>2026-03-28T16:48:34.313Z</time></trkpt><trkpt lat="44.311501" lon="7.5515995"><ele>811.0</ele><time>2026-03-28T16:48:35.313Z</time></trkpt><trkpt lat="44.3114457" lon="7.5514889"><ele>811.0</ele><time>2026-03-28T16:48:37.313Z</time></trkpt><trkpt lat="44.3113833" lon="7.5513348"><ele>811.0</ele><time>2026-03-28T16:48:39.313Z</time></trkpt><trkpt lat="44.3113905" lon="7.5511963"><ele>811.0</ele><time>2026-03-28T16:48:41.313Z</time></trkpt><trkpt lat="44.3114828" lon="7.5511704"><ele>811.0</ele><time>2026-03-28T16:48:45.312Z</time></trkpt><trkpt lat="44.3115505" lon="7.5511886"><ele>811.0</ele><time>2026-03-28T16:48:46.312Z</time></trkpt><trkpt lat="44.3116243" lon="7.5512159"><ele>804.6666666666666</ele><time>2026-03-28T16:48:47.312Z</time></trkpt><trkpt lat="44.3116953" lon="7.5512353"><ele>798.3333333333333</ele><time>2026-03-28T16:48:48.313Z</time></trkpt><trkpt lat="44.3117675" lon="7.5512577"><ele>792.0</ele><time>2026-03-28T16:48:49.312Z</time></trkpt><trkpt lat="44.3118889" lon="7.5512851"><ele>785.6666666666667</ele><time>2026-03-28T16:48:51.312Z</time></trkpt><trkpt lat="44.3119691" lon="7.5512898"><ele>779.3333333333334</ele><time>2026-03-28T16:48:52.312Z</time></trkpt><trkpt lat="44.3120386" lon="7.5512895"><ele>773.0</ele><time>2026-03-28T16:48:53.313Z</time></trkpt><trkpt lat="44.3121148" lon="7.5513045"><ele>773.0</ele><time>2026-03-28T16:48:54.312Z</time></trkpt><trkpt lat="44.3122165" lon="7.5513261"><ele>773.0</ele><time>2026-03-28T16:48:56.312Z</time></trkpt><trkpt lat="44.3122965" lon="7.5514445"><ele>773.0</ele><time>2026-03-28T16:48:58.312Z</time></trkpt><trkpt lat="44.3123747" lon="7.5515147"><ele>773.0</ele><time>2026-03-28T16:49:00.313Z</time></trkpt><trkpt lat="44.3123774" lon="7.5513927"><ele>773.0</ele><time>2026-03-28T16:49:02.312Z</time></trkpt><trkpt lat="44.3123598" lon="7.5512503"><ele>769.0000000000001</ele><time>2026-03-28T16:49:04.312Z</time></trkpt><trkpt lat="44.3124273" lon="7.5512794"><ele>765.0</ele><time>2026-03-28T16:49:07.313Z</time></trkpt><trkpt lat="44.3124716" lon="7.5513493"><ele>761.0</ele><time>2026-03-28T16:49:09.232Z</time></trkpt><trkpt lat="44.3126132" lon="7.5513899"><ele>757.0</ele><time>2026-03-28T16:49:10.312Z</time></trkpt><trkpt lat="44.3126737" lon="7.5514169"><ele>753.0</ele><time>2026-03-28T16:49:11.312Z</time></trkpt><trkpt lat="44.3127375" lon="7.5514491"><ele>749.0</ele><time>2026-03-28T16:49:12.312Z</time></trkpt><trkpt lat="44.3128603" lon="7.5514919"><ele>749.0</ele><time>2026-03-28T16:49:14.313Z</time></trkpt><trkpt lat="44.3129448" lon="7.5514783"><ele>749.0</ele><time>2026-03-28T16:49:15.313Z</time></trkpt><trkpt lat="44.3130133" lon="7.5514856"><ele>749.0</ele><time>2026-03-28T16:49:16.313Z</time></trkpt><trkpt lat="44.3131291" lon="7.5514928"><ele>749.0</ele><time>2026-03-28T16:49:18.312Z</time></trkpt><trkpt lat="44.313244" lon="7.551517"><ele>749.0</ele><time>2026-03-28T16:49:20.313Z</time></trkpt><trkpt lat="44.3133291" lon="7.5515707"><ele>744.0</ele><time>2026-03-28T16:49:22.313Z</time></trkpt><trkpt lat="44.3134587" lon="7.5515592"><ele>739.0</ele><time>2026-03-28T16:49:24.313Z</time></trkpt><trkpt lat="44.3135609" lon="7.5515567"><ele>734.0</ele><time>2026-03-28T16:49:26.312Z</time></trkpt><trkpt lat="44.3136408" lon="7.5515639"><ele>729.0</ele><time>2026-03-28T16:49:38.312Z</time></trkpt><trkpt lat="44.3137478" lon="7.5516113"><ele>724.0</ele><time>2026-03-28T16:49:39.313Z</time></trkpt><trkpt lat="44.313844" lon="7.5516546"><ele>721.1428571428571</ele><time>2026-03-28T16:49:40.312Z</time></trkpt><trkpt lat="44.3139173" lon="7.5516643"><ele>718.2857142857142</ele><time>2026-03-28T16:49:42.313Z</time></trkpt><trkpt lat="44.3139793" lon="7.5517001"><ele>715.4285714285714</ele><time>2026-03-28T16:49:54.313Z</time></trkpt><trkpt lat="44.3140328" lon="7.5516512"><ele>712.5714285714286</ele><time>2026-03-28T16:49:55.312Z</time></trkpt><trkpt lat="44.3140859" lon="7.5515769"><ele>709.7142857142857</ele><time>2026-03-28T16:49:56.313Z</time></trkpt><trkpt lat="44.314123" lon="7.5514725"><ele>706.8571428571429</ele><time>2026-03-28T16:49:57.313Z</time></trkpt><trkpt lat="44.314135" lon="7.5513607"><ele>704.0</ele><time>2026-03-28T16:49:58.312Z</time></trkpt><trkpt lat="44.3141157" lon="7.5512687"><ele>706.4000000000001</ele><time>2026-03-28T16:49:59.312Z</time></trkpt><trkpt lat="44.3140937" lon="7.5511798"><ele>708.8</ele><time>2026-03-28T16:50:00.313Z</time></trkpt><trkpt lat="44.3141424" lon="7.5511154"><ele>711.2</ele><time>2026-03-28T16:50:02.312Z</time></trkpt><trkpt lat="44.3142843" lon="7.5511004"><ele>713.5999999999999</ele><time>2026-03-28T16:50:04.312Z</time></trkpt><trkpt lat="44.3143841" lon="7.5511003"><ele>716.0</ele><time>2026-03-28T16:50:05.312Z</time></trkpt><trkpt lat="44.3145004" lon="7.5510835"><ele>716.0</ele><time>2026-03-28T16:50:06.312Z</time></trkpt><trkpt lat="44.3146231" lon="7.5510988"><ele>716.0</ele><time>2026-03-28T16:50:07.312Z</time></trkpt><trkpt lat="44.3147345" lon="7.5511187"><ele>716.0</ele><time>2026-03-28T16:50:08.313Z</time></trkpt><trkpt lat="44.314829" lon="7.5511247"><ele>716.0</ele><time>2026-03-28T16:50:09.312Z</time></trkpt><trkpt lat="44.3149216" lon="7.5511415"><ele>716.0</ele><time>2026-03-28T16:50:10.312Z</time></trkpt><trkpt lat="44.3149922" lon="7.551202"><ele>711.8</ele><time>2026-03-28T16:50:11.312Z</time></trkpt><trkpt lat="44.3150716" lon="7.5512684"><ele>707.5999999999999</ele><time>2026-03-28T16:50:12.312Z</time></trkpt><trkpt lat="44.3151605" lon="7.5513638"><ele>703.4</ele><time>2026-03-28T16:50:13.313Z</time></trkpt><trkpt lat="44.3152472" lon="7.5514769"><ele>699.2</ele><time>2026-03-28T16:50:14.312Z</time></trkpt><trkpt lat="44.315323" lon="7.5515842"><ele>695.0</ele><time>2026-03-28T16:50:15.312Z</time></trkpt><trkpt lat="44.3153864" lon="7.5516873"><ele>695.0</ele><time>2026-03-28T16:50:16.313Z</time></trkpt><trkpt lat="44.3154469" lon="7.5517882"><ele>695.0</ele><time>2026-03-28T16:50:17.313Z</time></trkpt><trkpt lat="44.3154965" lon="7.5518532"><ele>695.0</ele><time>2026-03-28T16:50:18.313Z</time></trkpt><trkpt lat="44.3155859" lon="7.5519637"><ele>695.0</ele><time>2026-03-28T16:50:20.313Z</time></trkpt><trkpt lat="44.3157003" lon="7.5519906"><ele>695.0</ele><time>2026-03-28T16:50:22.313Z</time></trkpt><trkpt lat="44.3157978" lon="7.5520163"><ele>694.8333333333333</ele><time>2026-03-28T16:50:24.312Z</time></trkpt><trkpt lat="44.3158814" lon="7.5520619"><ele>694.6666666666666</ele><time>2026-03-28T16:50:26.312Z</time></trkpt><trkpt lat="44.3159845" lon="7.5520643"><ele>694.5</ele><time>2026-03-28T16:50:28.313Z</time></trkpt><trkpt lat="44.3160749" lon="7.5520771"><ele>694.3333333333334</ele><time>2026-03-28T16:50:30.312Z</time></trkpt><trkpt lat="44.3161612" lon="7.5520957"><ele>694.1666666666667</ele><time>2026-03-28T16:50:32.313Z</time></trkpt><trkpt lat="44.3162341" lon="7.5521015"><ele>694.0</ele><time>2026-03-28T16:50:34.313Z</time></trkpt><trkpt lat="44.3163115" lon="7.5520285"><ele>694.0</ele><time>2026-03-28T16:50:36.313Z</time></trkpt><trkpt lat="44.3163697" lon="7.5519745"><ele>694.0</ele><time>2026-03-28T16:50:38.313Z</time></trkpt><trkpt lat="44.31643" lon="7.5519225"><ele>694.0</ele><time>2026-03-28T16:50:41.312Z</time></trkpt><trkpt lat="44.3165147" lon="7.5518802"><ele>694.0</ele><time>2026-03-28T16:51:36.313Z</time></trkpt><trkpt lat="44.3165837" lon="7.5518398"><ele>694.0</ele><time>2026-03-28T16:51:37.313Z</time></trkpt><trkpt lat="44.3166502" lon="7.5518047"><ele>694.0</ele><time>2026-03-28T16:51:38.312Z</time></trkpt><trkpt lat="44.3167103" lon="7.5517693"><ele>694.0</ele><time>2026-03-28T16:51:39.312Z</time></trkpt><trkpt lat="44.3168202" lon="7.5516903"><ele>692.8333333333334</ele><time>2026-03-28T16:51:41.312Z</time></trkpt><trkpt lat="44.3169315" lon="7.551616"><ele>691.6666666666667</ele><time>2026-03-28T16:51:43.312Z</time></trkpt><trkpt lat="44.3170057" lon="7.5515876"><ele>690.5</ele><time>2026-03-28T16:51:44.312Z</time></trkpt><trkpt lat="44.3170729" lon="7.5515451"><ele>689.3333333333334</ele><time>2026-03-28T16:51:45.312Z</time></trkpt><trkpt lat="44.3171355" lon="7.551486"><ele>688.1666666666666</ele><time>2026-03-28T16:51:46.312Z</time></trkpt><trkpt lat="44.3171839" lon="7.5514054"><ele>687.0</ele><time>2026-03-28T16:51:47.313Z</time></trkpt><trkpt lat="44.317214" lon="7.5513068"><ele>687.4000000000001</ele><time>2026-03-28T16:51:48.313Z</time></trkpt><trkpt lat="44.3172292" lon="7.5511977"><ele>687.8000000000001</ele><time>2026-03-28T16:51:49.313Z</time></trkpt><trkpt lat="44.3172379" lon="7.5510831"><ele>688.2</ele><time>2026-03-28T16:51:50.312Z</time></trkpt><trkpt lat="44.3172221" lon="7.5509566"><ele>688.6</ele><time>2026-03-28T16:51:51.312Z</time></trkpt><trkpt lat="44.3172117" lon="7.5508142"><ele>689.0</ele><time>2026-03-28T16:51:52.312Z</time></trkpt><trkpt lat="44.3171901" lon="7.5506771"><ele>689.0</ele><time>2026-03-28T16:51:53.313Z</time></trkpt><trkpt lat="44.3171877" lon="7.5505635"><ele>689.0</ele><time>2026-03-28T16:51:54.312Z</time></trkpt><trkpt lat="44.317214" lon="7.5504388"><ele>689.0</ele><time>2026-03-28T16:51:55.312Z</time></trkpt><trkpt lat="44.3172411" lon="7.5503073"><ele>689.0</ele><time>2026-03-28T16:51:56.312Z</time></trkpt><trkpt lat="44.3172678" lon="7.5501832"><ele>689.0</ele><time>2026-03-28T16:51:57.312Z</time></trkpt><trkpt lat="44.3172938" lon="7.5500838"><ele>689.0</ele><time>2026-03-28T16:51:58.312Z</time></trkpt><trkpt lat="44.3173809" lon="7.5501231"><ele>682.8000000000001</ele><time>2026-03-28T16:52:01.312Z</time></trkpt><trkpt lat="44.3174509" lon="7.5502519"><ele>676.6</ele><time>2026-03-28T16:52:03.313Z</time></trkpt><trkpt lat="44.3175215" lon="7.5502412"><ele>670.4</ele><time>2026-03-28T16:52:05.312Z</time></trkpt><trkpt lat="44.3175039" lon="7.5501192"><ele>664.2</ele><time>2026-03-28T16:52:08.312Z</time></trkpt><trkpt lat="44.3174389" lon="7.5500526"><ele>658.0</ele><time>2026-03-28T16:52:09.312Z</time></trkpt><trkpt lat="44.3173465" lon="7.5499795"><ele>658.0</ele><time>2026-03-28T16:52:10.312Z</time></trkpt><trkpt lat="44.3172567" lon="7.5499111"><ele>658.0</ele><time>2026-03-28T16:52:11.313Z</time></trkpt><trkpt lat="44.3171867" lon="7.5498632"><ele>658.0</ele><time>2026-03-28T16:52:12.313Z</time></trkpt><trkpt lat="44.3171865" lon="7.5497627"><ele>658.0</ele><time>2026-03-28T16:52:15.312Z</time></trkpt><trkpt lat="44.31733" lon="7.5498438"><ele>658.0</ele><time>2026-03-28T16:52:17.312Z</time></trkpt><trkpt lat="44.3174135" lon="7.5498715"><ele>658.0</ele><time>2026-03-28T16:52:18.312Z</time></trkpt><trkpt lat="44.317515" lon="7.549857"><ele>658.0</ele><time>2026-03-28T16:52:19.313Z</time></trkpt><trkpt lat="44.3175849" lon="7.5498475"><ele>658.0</ele><time>2026-03-28T16:52:20.313Z</time></trkpt><trkpt lat="44.31766" lon="7.5498412"><ele>658.0</ele><time>2026-03-28T16:52:21.312Z</time></trkpt><trkpt lat="44.3177576" lon="7.5498497"><ele>658.0</ele><time>2026-03-28T16:52:22.313Z</time></trkpt><trkpt lat="44.317871" lon="7.5498852"><ele>658.0</ele><time>2026-03-28T16:52:23.313Z</time></trkpt><trkpt lat="44.3179549" lon="7.5499144"><ele>658.0</ele><time>2026-03-28T16:52:24.313Z</time></trkpt><trkpt lat="44.3180395" lon="7.5499376"><ele>658.0</ele><time>2026-03-28T16:52:25.313Z</time></trkpt><trkpt lat="44.3181321" lon="7.549932"><ele>658.0</ele><time>2026-03-28T16:52:26.313Z</time></trkpt><trkpt lat="44.318222" lon="7.5499006"><ele>658.0</ele><time>2026-03-28T16:52:27.313Z</time></trkpt><trkpt lat="44.3183028" lon="7.549873"><ele>658.0</ele><time>2026-03-28T16:52:28.312Z</time></trkpt><trkpt lat="44.3183677" lon="7.5498946"><ele>655.0</ele><time>2026-03-28T16:52:29.312Z</time></trkpt><trkpt lat="44.3184387" lon="7.5499364"><ele>652.0</ele><time>2026-03-28T16:52:30.313Z</time></trkpt><trkpt lat="44.3185042" lon="7.5499941"><ele>649.0</ele><time>2026-03-28T16:52:31.312Z</time></trkpt><trkpt lat="44.3185785" lon="7.5499833"><ele>646.0</ele><time>2026-03-28T16:52:32.312Z</time></trkpt><trkpt lat="44.3186692" lon="7.5499375"><ele>643.0</ele><time>2026-03-28T16:52:33.312Z</time></trkpt><trkpt lat="44.3187665" lon="7.549903"><ele>640.0</ele><time>2026-03-28T16:52:34.312Z</time></trkpt><trkpt lat="44.3188758" lon="7.5499494"><ele>637.8</ele><time>2026-03-28T16:52:35.312Z</time></trkpt><trkpt lat="44.3189738" lon="7.5499811"><ele>635.6</ele><time>2026-03-28T16:52:36.313Z</time></trkpt><trkpt lat="44.3190726" lon="7.5499731"><ele>633.4</ele><time>2026-03-28T16:52:37.313Z</time></trkpt><trkpt lat="44.3191778" lon="7.5499313"><ele>631.2</ele><time>2026-03-28T16:52:38.312Z</time></trkpt><trkpt lat="44.319281" lon="7.5498953"><ele>629.0</ele><time>2026-03-28T16:52:39.312Z</time></trkpt><trkpt lat="44.3193834" lon="7.5498361"><ele>629.0</ele><time>2026-03-28T16:52:40.312Z</time></trkpt><trkpt lat="44.3194453" lon="7.54976"><ele>629.0</ele><time>2026-03-28T16:52:41.313Z</time></trkpt><trkpt lat="44.3195105" lon="7.5497023"><ele>629.0</ele><time>2026-03-28T16:52:42.312Z</time></trkpt><trkpt lat="44.3195779" lon="7.5496555"><ele>629.0</ele><time>2026-03-28T16:52:43.312Z</time></trkpt><trkpt lat="44.3196486" lon="7.5496263"><ele>629.0</ele><time>2026-03-28T16:52:44.313Z</time></trkpt><trkpt lat="44.3197173" lon="7.54962"><ele>629.0</ele><time>2026-03-28T16:52:45.313Z</time></trkpt><trkpt lat="44.3197906" lon="7.5496048"><ele>627.1666666666666</ele><time>2026-03-28T16:52:46.312Z</time></trkpt><trkpt lat="44.3198677" lon="7.5495632"><ele>625.3333333333333</ele><time>2026-03-28T16:52:47.313Z</time></trkpt><trkpt lat="44.3199425" lon="7.5495222"><ele>623.5</ele><time>2026-03-28T16:52:48.313Z</time></trkpt><trkpt lat="44.3200108" lon="7.5494302"><ele>621.6666666666666</ele><time>2026-03-28T16:52:49.312Z</time></trkpt><trkpt lat="44.3200651" lon="7.5493342"><ele>619.8333333333334</ele><time>2026-03-28T16:52:50.312Z</time></trkpt><trkpt lat="44.3201069" lon="7.549234"><ele>618.0</ele><time>2026-03-28T16:52:51.312Z</time></trkpt><trkpt lat="44.3201386" lon="7.5491335"><ele>617.6666666666666</ele><time>2026-03-28T16:52:52.312Z</time></trkpt><trkpt lat="44.3201766" lon="7.5490408"><ele>617.3333333333334</ele><time>2026-03-28T16:52:53.313Z</time></trkpt><trkpt lat="44.3202386" lon="7.5489709"><ele>617.0</ele><time>2026-03-28T16:52:54.313Z</time></trkpt><trkpt lat="44.3203258" lon="7.5489281"><ele>616.6666666666667</ele><time>2026-03-28T16:52:55.312Z</time></trkpt><trkpt lat="44.320415" lon="7.5488833"><ele>616.3333333333334</ele><time>2026-03-28T16:52:56.312Z</time></trkpt><trkpt lat="44.3204983" lon="7.5488343"><ele>616.0</ele><time>2026-03-28T16:52:57.312Z</time></trkpt><trkpt lat="44.3205654" lon="7.5487946"><ele>615.1666666666667</ele><time>2026-03-28T16:52:58.313Z</time></trkpt><trkpt lat="44.320655" lon="7.5487945"><ele>614.3333333333334</ele><time>2026-03-28T16:53:00.312Z</time></trkpt><trkpt lat="44.3207075" lon="7.5488524"><ele>613.5</ele><time>2026-03-28T16:53:01.312Z</time></trkpt><trkpt lat="44.3207697" lon="7.5489275"><ele>612.6666666666666</ele><time>2026-03-28T16:53:02.313Z</time></trkpt><trkpt lat="44.3208357" lon="7.5490071"><ele>611.8333333333333</ele><time>2026-03-28T16:53:03.312Z</time></trkpt><trkpt lat="44.3208966" lon="7.5490824"><ele>611.0</ele><time>2026-03-28T16:53:04.313Z</time></trkpt><trkpt lat="44.3209573" lon="7.5491526"><ele>611.0</ele><time>2026-03-28T16:53:05.312Z</time></trkpt><trkpt lat="44.3210251" lon="7.5492358"><ele>611.0</ele><time>2026-03-28T16:53:06.313Z</time></trkpt><trkpt lat="44.3210965" lon="7.5493307"><ele>611.0</ele><time>2026-03-28T16:53:07.312Z</time></trkpt><trkpt lat="44.3211739" lon="7.549436"><ele>611.0</ele><time>2026-03-28T16:53:08.312Z</time></trkpt><trkpt lat="44.3212497" lon="7.5495453"><ele>611.0</ele><time>2026-03-28T16:53:09.312Z</time></trkpt><trkpt lat="44.321316" lon="7.5496597"><ele>610.6</ele><time>2026-03-28T16:53:10.313Z</time></trkpt><trkpt lat="44.3213763" lon="7.5497762"><ele>610.2</ele><time>2026-03-28T16:53:11.312Z</time></trkpt><trkpt lat="44.3214426" lon="7.5498842"><ele>609.8</ele><time>2026-03-28T16:53:12.313Z</time></trkpt><trkpt lat="44.3215221" lon="7.5499662"><ele>609.4</ele><time>2026-03-28T16:53:13.312Z</time></trkpt><trkpt lat="44.3216144" lon="7.5500236"><ele>609.0</ele><time>2026-03-28T16:53:14.313Z</time></trkpt><trkpt lat="44.3217182" lon="7.5500572"><ele>609.0</ele><time>2026-03-28T16:53:15.312Z</time></trkpt><trkpt lat="44.3218219" lon="7.5500863"><ele>609.0</ele><time>2026-03-28T16:53:16.313Z</time></trkpt><trkpt lat="44.3219257" lon="7.5501237"><ele>609.0</ele><time>2026-03-28T16:53:17.313Z</time></trkpt><trkpt lat="44.3220341" lon="7.5501604"><ele>609.0</ele><time>2026-03-28T16:53:18.313Z</time></trkpt><trkpt lat="44.3221424" lon="7.5501966"><ele>609.0</ele><time>2026-03-28T16:53:19.312Z</time></trkpt><trkpt lat="44.3222496" lon="7.5502323"><ele>609.0</ele><time>2026-03-28T16:53:20.313Z</time></trkpt><trkpt lat="44.3223544" lon="7.5502636"><ele>609.0</ele><time>2026-03-28T16:53:21.312Z</time></trkpt><trkpt lat="44.3224629" lon="7.5502852"><ele>609.0</ele><time>2026-03-28T16:53:22.312Z</time></trkpt><trkpt lat="44.3225698" lon="7.5502896"><ele>609.0</ele><time>2026-03-28T16:53:23.312Z</time></trkpt><trkpt lat="44.322677" lon="7.5502825"><ele>609.0</ele><time>2026-03-28T16:53:24.313Z</time></trkpt><trkpt lat="44.3227928" lon="7.5502715"><ele>609.0</ele><time>2026-03-28T16:53:25.313Z</time></trkpt><trkpt lat="44.3229058" lon="7.5502636"><ele>609.0</ele><time>2026-03-28T16:53:26.312Z</time></trkpt><trkpt lat="44.3230133" lon="7.550254"><ele>609.0</ele><time>2026-03-28T16:53:27.312Z</time></trkpt><trkpt lat="44.3231204" lon="7.5502437"><ele>609.0</ele><time>2026-03-28T16:53:28.313Z</time></trkpt><trkpt lat="44.323221" lon="7.550234"><ele>609.0</ele><time>2026-03-28T16:53:29.312Z</time></trkpt><trkpt lat="44.3233226" lon="7.5502283"><ele>607.6</ele><time>2026-03-28T16:53:30.312Z</time></trkpt><trkpt lat="44.3234264" lon="7.5502196"><ele>606.2</ele><time>2026-03-28T16:53:31.312Z</time></trkpt><trkpt lat="44.3235299" lon="7.5502112"><ele>604.8000000000001</ele><time>2026-03-28T16:53:32.313Z</time></trkpt><trkpt lat="44.3236332" lon="7.5502032"><ele>603.4</ele><time>2026-03-28T16:53:33.312Z</time></trkpt><trkpt lat="44.3237333" lon="7.5501923"><ele>602.0</ele><time>2026-03-28T16:53:34.312Z</time></trkpt><trkpt lat="44.3238338" lon="7.5501864"><ele>601.6</ele><time>2026-03-28T16:53:35.313Z</time></trkpt><trkpt lat="44.323934" lon="7.5501763"><ele>601.2</ele><time>2026-03-28T16:53:36.313Z</time></trkpt><trkpt lat="44.3240356" lon="7.5501552"><ele>600.8</ele><time>2026-03-28T16:53:37.313Z</time></trkpt><trkpt lat="44.3241349" lon="7.5501248"><ele>600.4</ele><time>2026-03-28T16:53:38.312Z</time></trkpt><trkpt lat="44.3242374" lon="7.5500926"><ele>600.0</ele><time>2026-03-28T16:53:39.312Z</time></trkpt><trkpt lat="44.32434" lon="7.550063"><ele>600.0</ele><time>2026-03-28T16:53:40.312Z</time></trkpt><trkpt lat="44.32444" lon="7.5500483"><ele>600.0</ele><time>2026-03-28T16:53:41.313Z</time></trkpt><trkpt lat="44.3245403" lon="7.5500514"><ele>600.0</ele><time>2026-03-28T16:53:42.312Z</time></trkpt><trkpt lat="44.3246422" lon="7.550076"><ele>600.0</ele><time>2026-03-28T16:53:43.312Z</time></trkpt><trkpt lat="44.3247394" lon="7.5501218"><ele>600.0</ele><time>2026-03-28T16:53:44.313Z</time></trkpt><trkpt lat="44.3248353" lon="7.5501806"><ele>600.0</ele><time>2026-03-28T16:53:45.312Z</time></trkpt><trkpt lat="44.3249345" lon="7.55024"><ele>600.0</ele><time>2026-03-28T16:53:46.312Z</time></trkpt><trkpt lat="44.3250316" lon="7.5503"><ele>600.0</ele><time>2026-03-28T16:53:47.312Z</time></trkpt><trkpt lat="44.3251276" lon="7.5503573"><ele>600.0</ele><time>2026-03-28T16:53:48.313Z</time></trkpt><trkpt lat="44.3252216" lon="7.5503996"><ele>600.0</ele><time>2026-03-28T16:53:49.312Z</time></trkpt><trkpt lat="44.3253161" lon="7.5504326"><ele>599.5</ele><time>2026-03-28T16:53:50.313Z</time></trkpt><trkpt lat="44.3254042" lon="7.5504635"><ele>599.0</ele><time>2026-03-28T16:53:51.313Z</time></trkpt><trkpt lat="44.3254769" lon="7.5504961"><ele>598.5</ele><time>2026-03-28T16:53:52.313Z</time></trkpt><trkpt lat="44.3255671" lon="7.5505715"><ele>598.0</ele><time>2026-03-28T16:53:54.312Z</time></trkpt><trkpt lat="44.3256088" lon="7.5506539"><ele>597.5</ele><time>2026-03-28T16:53:58.313Z</time></trkpt><trkpt lat="44.3257052" lon="7.5506515"><ele>597.0</ele><time>2026-03-28T16:54:00.313Z</time></trkpt><trkpt lat="44.3257595" lon="7.5505973"><ele>597.0</ele><time>2026-03-28T16:54:01.313Z</time></trkpt><trkpt lat="44.3258271" lon="7.5505446"><ele>597.0</ele><time>2026-03-28T16:54:02.313Z</time></trkpt><trkpt lat="44.3258989" lon="7.5504903"><ele>597.0</ele><time>2026-03-28T16:54:03.313Z</time></trkpt><trkpt lat="44.3259642" lon="7.5504303"><ele>597.0</ele><time>2026-03-28T16:54:04.312Z</time></trkpt><trkpt lat="44.3260285" lon="7.5503673"><ele>597.0</ele><time>2026-03-28T16:54:05.312Z</time></trkpt><trkpt lat="44.3260879" lon="7.5502937"><ele>597.0</ele><time>2026-03-28T16:54:06.312Z</time></trkpt><trkpt lat="44.3261477" lon="7.5502131"><ele>597.0</ele><time>2026-03-28T16:54:07.313Z</time></trkpt><trkpt lat="44.3262115" lon="7.5501309"><ele>597.0</ele><time>2026-03-28T16:54:08.312Z</time></trkpt><trkpt lat="44.3262897" lon="7.5500541"><ele>597.0</ele><time>2026-03-28T16:54:09.312Z</time></trkpt><trkpt lat="44.3263781" lon="7.5499876"><ele>597.0</ele><time>2026-03-28T16:54:10.312Z</time></trkpt><trkpt lat="44.3264655" lon="7.5499226"><ele>597.0</ele><time>2026-03-28T16:54:11.313Z</time></trkpt><trkpt lat="44.3265539" lon="7.549868"><ele>596.4</ele><time>2026-03-28T16:54:12.312Z</time></trkpt><trkpt lat="44.3266433" lon="7.5498172"><ele>595.8000000000001</ele><time>2026-03-28T16:54:13.312Z</time></trkpt><trkpt lat="44.3267368" lon="7.5497767"><ele>595.2</ele><time>2026-03-28T16:54:14.312Z</time></trkpt><trkpt lat="44.3268296" lon="7.5497383"><ele>594.6</ele><time>2026-03-28T16:54:15.312Z</time></trkpt><trkpt lat="44.3269201" lon="7.5496958"><ele>594.0</ele><time>2026-03-28T16:54:16.312Z</time></trkpt><trkpt lat="44.32701" lon="7.5496493"><ele>594.0</ele><time>2026-03-28T16:54:17.313Z</time></trkpt><trkpt lat="44.3270995" lon="7.5495986"><ele>594.0</ele><time>2026-03-28T16:54:18.312Z</time></trkpt><trkpt lat="44.3271866" lon="7.5495445"><ele>594.0</ele><time>2026-03-28T16:54:19.313Z</time></trkpt><trkpt lat="44.3272713" lon="7.5494881"><ele>594.0</ele><time>2026-03-28T16:54:20.313Z</time></trkpt><trkpt lat="44.3273575" lon="7.5494298"><ele>594.0</ele><time>2026-03-28T16:54:21.313Z</time></trkpt><trkpt lat="44.3274426" lon="7.5493687"><ele>594.0</ele><time>2026-03-28T16:54:22.312Z</time></trkpt><trkpt lat="44.3275276" lon="7.5493064"><ele>594.0</ele><time>2026-03-28T16:54:23.313Z</time></trkpt><trkpt lat="44.3276118" lon="7.5492406"><ele>594.0</ele><time>2026-03-28T16:54:24.313Z</time></trkpt><trkpt lat="44.3276954" lon="7.5491666"><ele>594.0</ele><time>2026-03-28T16:54:25.312Z</time></trkpt><trkpt lat="44.3277814" lon="7.5490935"><ele>594.0</ele><time>2026-03-28T16:54:26.312Z</time></trkpt><trkpt lat="44.327865" lon="7.5490236"><ele>594.0</ele><time>2026-03-28T16:54:27.313Z</time></trkpt><trkpt lat="44.3279463" lon="7.548956"><ele>594.0</ele><time>2026-03-28T16:54:28.313Z</time></trkpt><trkpt lat="44.3280303" lon="7.5488913"><ele>594.0</ele><time>2026-03-28T16:54:29.313Z</time></trkpt><trkpt lat="44.3281133" lon="7.54883"><ele>594.0</ele><time>2026-03-28T16:54:30.313Z</time></trkpt><trkpt lat="44.3281983" lon="7.5487718"><ele>594.0</ele><time>2026-03-28T16:54:31.313Z</time></trkpt><trkpt lat="44.3282829" lon="7.5487167"><ele>593.6666666666666</ele><time>2026-03-28T16:54:32.312Z</time></trkpt><trkpt lat="44.3283672" lon="7.5486621"><ele>593.3333333333334</ele><time>2026-03-28T16:54:33.313Z</time></trkpt><trkpt lat="44.3284465" lon="7.5486115"><ele>593.0</ele><time>2026-03-28T16:54:34.312Z</time></trkpt><trkpt lat="44.3285241" lon="7.5485631"><ele>592.6666666666667</ele><time>2026-03-28T16:54:35.312Z</time></trkpt><trkpt lat="44.328593" lon="7.5485244"><ele>592.3333333333334</ele><time>2026-03-28T16:54:36.312Z</time></trkpt><trkpt lat="44.3286919" lon="7.5484598"><ele>592.0</ele><time>2026-03-28T16:54:38.313Z</time></trkpt><trkpt lat="44.3287999" lon="7.54836"><ele>592.0</ele><time>2026-03-28T16:54:40.312Z</time></trkpt><trkpt lat="44.3288605" lon="7.5482891"><ele>592.0</ele><time>2026-03-28T16:54:41.313Z</time></trkpt><trkpt lat="44.3289216" lon="7.5482148"><ele>592.0</ele><time>2026-03-28T16:54:42.312Z</time></trkpt><trkpt lat="44.3289839" lon="7.5481415"><ele>592.0</ele><time>2026-03-28T16:54:43.313Z</time></trkpt><trkpt lat="44.3290376" lon="7.5480489"><ele>592.0</ele><time>2026-03-28T16:54:44.313Z</time></trkpt><trkpt lat="44.3290915" lon="7.5479557"><ele>592.0</ele><time>2026-03-28T16:54:45.312Z</time></trkpt><trkpt lat="44.3291461" lon="7.5478667"><ele>591.4</ele><time>2026-03-28T16:54:46.313Z</time></trkpt><trkpt lat="44.3292085" lon="7.5477828"><ele>590.8000000000001</ele><time>2026-03-28T16:54:47.312Z</time></trkpt><trkpt lat="44.3292807" lon="7.5476996"><ele>590.2</ele><time>2026-03-28T16:54:48.313Z</time></trkpt><trkpt lat="44.3293585" lon="7.5476217"><ele>589.6</ele><time>2026-03-28T16:54:49.313Z</time></trkpt><trkpt lat="44.3294353" lon="7.5475462"><ele>589.0</ele><time>2026-03-28T16:54:50.312Z</time></trkpt><trkpt lat="44.3295077" lon="7.5474714"><ele>589.0</ele><time>2026-03-28T16:54:51.312Z</time></trkpt><trkpt lat="44.3295875" lon="7.5474046"><ele>589.0</ele><time>2026-03-28T16:54:52.312Z</time></trkpt><trkpt lat="44.3296708" lon="7.5473317"><ele>589.0</ele><time>2026-03-28T16:54:53.313Z</time></trkpt><trkpt lat="44.3297553" lon="7.5472594"><ele>589.0</ele><time>2026-03-28T16:54:54.312Z</time></trkpt><trkpt lat="44.3298409" lon="7.5471894"><ele>589.0</ele><time>2026-03-28T16:54:55.313Z</time></trkpt><trkpt lat="44.3299246" lon="7.5471222"><ele>588.6666666666667</ele><time>2026-03-28T16:54:56.312Z</time></trkpt><trkpt lat="44.3300083" lon="7.5470636"><ele>588.3333333333334</ele><time>2026-03-28T16:54:57.313Z</time></trkpt><trkpt lat="44.3300924" lon="7.5470172"><ele>588.0</ele><time>2026-03-28T16:54:58.313Z</time></trkpt><trkpt lat="44.330176" lon="7.5469739"><ele>587.6666666666666</ele><time>2026-03-28T16:54:59.312Z</time></trkpt><trkpt lat="44.3302595" lon="7.5469465"><ele>587.3333333333333</ele><time>2026-03-28T16:55:00.313Z</time></trkpt><trkpt lat="44.3303417" lon="7.5469195"><ele>587.0</ele><time>2026-03-28T16:55:01.312Z</time></trkpt><trkpt lat="44.3304306" lon="7.5468949"><ele>587.0</ele><time>2026-03-28T16:55:02.312Z</time></trkpt><trkpt lat="44.3305191" lon="7.5468642"><ele>587.0</ele><time>2026-03-28T16:55:03.313Z</time></trkpt><trkpt lat="44.3306082" lon="7.5468273"><ele>587.0</ele><time>2026-03-28T16:55:04.313Z</time></trkpt><trkpt lat="44.3306992" lon="7.5467848"><ele>587.0</ele><time>2026-03-28T16:55:05.312Z</time></trkpt><trkpt lat="44.3307903" lon="7.5467454"><ele>587.0</ele><time>2026-03-28T16:55:06.313Z</time></trkpt><trkpt lat="44.3308804" lon="7.546706"><ele>587.0</ele><time>2026-03-28T16:55:07.313Z</time></trkpt><trkpt lat="44.3309745" lon="7.546679"><ele>587.0</ele><time>2026-03-28T16:55:08.313Z</time></trkpt><trkpt lat="44.3310625" lon="7.5466312"><ele>587.0</ele><time>2026-03-28T16:55:09.312Z</time></trkpt><trkpt lat="44.3311414" lon="7.54657"><ele>587.0</ele><time>2026-03-28T16:55:10.312Z</time></trkpt><trkpt lat="44.3312238" lon="7.5465054"><ele>587.0</ele><time>2026-03-28T16:55:11.312Z</time></trkpt><trkpt lat="44.3313085" lon="7.5464404"><ele>586.8000000000001</ele><time>2026-03-28T16:55:12.312Z</time></trkpt><trkpt lat="44.3313974" lon="7.5463799"><ele>586.6</ele><time>2026-03-28T16:55:13.313Z</time></trkpt><trkpt lat="44.3314831" lon="7.5463202"><ele>586.4000000000001</ele><time>2026-03-28T16:55:14.313Z</time></trkpt><trkpt lat="44.3315719" lon="7.5462678"><ele>586.2</ele><time>2026-03-28T16:55:15.313Z</time></trkpt><trkpt lat="44.331661" lon="7.5462192"><ele>586.0</ele><time>2026-03-28T16:55:16.312Z</time></trkpt><trkpt lat="44.331749" lon="7.5461702"><ele>586.0</ele><time>2026-03-28T16:55:17.313Z</time></trkpt><trkpt lat="44.3318346" lon="7.5461285"><ele>586.0</ele><time>2026-03-28T16:55:18.313Z</time></trkpt><trkpt lat="44.3319212" lon="7.5460901"><ele>586.0</ele><time>2026-03-28T16:55:19.312Z</time></trkpt><trkpt lat="44.3320028" lon="7.546046"><ele>586.0</ele><time>2026-03-28T16:55:20.313Z</time></trkpt><trkpt lat="44.3320831" lon="7.546002"><ele>586.0</ele><time>2026-03-28T16:55:21.312Z</time></trkpt><trkpt lat="44.3321621" lon="7.5459609"><ele>586.0</ele><time>2026-03-28T16:55:22.313Z</time></trkpt><trkpt lat="44.3322422" lon="7.5459271"><ele>586.0</ele><time>2026-03-28T16:55:23.312Z</time></trkpt><trkpt lat="44.3323269" lon="7.5459108"><ele>586.0</ele><time>2026-03-28T16:55:24.313Z</time></trkpt><trkpt lat="44.3324201" lon="7.5459227"><ele>586.0</ele><time>2026-03-28T16:55:25.313Z</time></trkpt><trkpt lat="44.3325206" lon="7.5459528"><ele>586.0</ele><time>2026-03-28T16:55:26.313Z</time></trkpt><trkpt lat="44.3326173" lon="7.54598"><ele>586.0</ele><time>2026-03-28T16:55:27.313Z</time></trkpt><trkpt lat="44.3327123" lon="7.5460055"><ele>586.0</ele><time>2026-03-28T16:55:28.313Z</time></trkpt><trkpt lat="44.3327973" lon="7.5460195"><ele>586.0</ele><time>2026-03-28T16:55:29.312Z</time></trkpt><trkpt lat="44.3328763" lon="7.5460386"><ele>586.0</ele><time>2026-03-28T16:55:30.312Z</time></trkpt><trkpt lat="44.3329566" lon="7.5460597"><ele>586.0</ele><time>2026-03-28T16:55:31.312Z</time></trkpt><trkpt lat="44.3330243" lon="7.5460929"><ele>586.0</ele><time>2026-03-28T16:55:32.313Z</time></trkpt><trkpt lat="44.3331178" lon="7.5461347"><ele>586.0</ele><time>2026-03-28T16:55:34.312Z</time></trkpt><trkpt lat="44.3331753" lon="7.5461734"><ele>585.6</ele><time>2026-03-28T16:55:36.313Z</time></trkpt><trkpt lat="44.3332307" lon="7.5462231"><ele>585.2</ele><time>2026-03-28T16:55:39.312Z</time></trkpt><trkpt lat="44.333306" lon="7.5462331"><ele>584.8</ele><time>2026-03-28T16:55:41.313Z</time></trkpt><trkpt lat="44.333413" lon="7.5461697"><ele>584.4</ele><time>2026-03-28T16:55:43.313Z</time></trkpt><trkpt lat="44.3335169" lon="7.5460689"><ele>584.0</ele><time>2026-03-28T16:55:45.312Z</time></trkpt><trkpt lat="44.3335731" lon="7.5460021"><ele>584.0</ele><time>2026-03-28T16:55:46.313Z</time></trkpt><trkpt lat="44.3336308" lon="7.5459361"><ele>584.0</ele><time>2026-03-28T16:55:47.312Z</time></trkpt><trkpt lat="44.33369" lon="7.5458729"><ele>584.0</ele><time>2026-03-28T16:55:48.312Z</time></trkpt><trkpt lat="44.3337427" lon="7.5458107"><ele>584.0</ele><time>2026-03-28T16:55:49.312Z</time></trkpt><trkpt lat="44.3337956" lon="7.545747"><ele>584.0</ele><time>2026-03-28T16:55:50.312Z</time></trkpt><trkpt lat="44.3338554" lon="7.5457008"><ele>584.0</ele><time>2026-03-28T16:55:51.312Z</time></trkpt><trkpt lat="44.3339653" lon="7.5456349"><ele>583.6666666666666</ele><time>2026-03-28T16:55:53.312Z</time></trkpt><trkpt lat="44.3340366" lon="7.5455915"><ele>583.3333333333333</ele><time>2026-03-28T16:55:58.313Z</time></trkpt><trkpt lat="44.3340988" lon="7.5455441"><ele>583.0</ele><time>2026-03-28T16:56:06.313Z</time></trkpt><trkpt lat="44.3341878" lon="7.5455124"><ele>582.6666666666666</ele><time>2026-03-28T16:56:19.312Z</time></trkpt><trkpt lat="44.3342929" lon="7.5455072"><ele>582.3333333333334</ele><time>2026-03-28T16:56:21.313Z</time></trkpt><trkpt lat="44.3343745" lon="7.5454688"><ele>582.0</ele><time>2026-03-28T16:56:31.312Z</time></trkpt><trkpt lat="44.334459" lon="7.5453156"><ele>582.0</ele><time>2026-03-28T16:56:33.312Z</time></trkpt><trkpt lat="44.3345117" lon="7.5452136"><ele>582.0</ele><time>2026-03-28T16:56:34.313Z</time></trkpt><trkpt lat="44.3345693" lon="7.5451106"><ele>582.0</ele><time>2026-03-28T16:56:35.313Z</time></trkpt><trkpt lat="44.3346311" lon="7.545001"><ele>582.0</ele><time>2026-03-28T16:56:36.312Z</time></trkpt><trkpt lat="44.3346969" lon="7.5448931"><ele>582.0</ele><time>2026-03-28T16:56:37.313Z</time></trkpt><trkpt lat="44.3347642" lon="7.5447874"><ele>581.6</ele><time>2026-03-28T16:56:38.313Z</time></trkpt><trkpt lat="44.3348313" lon="7.5446793"><ele>581.2</ele><time>2026-03-28T16:56:39.313Z</time></trkpt><trkpt lat="44.334905" lon="7.544601"><ele>580.8</ele><time>2026-03-28T16:56:40.312Z</time></trkpt><trkpt lat="44.3349906" lon="7.5445346"><ele>580.4</ele><time>2026-03-28T16:56:41.313Z</time></trkpt><trkpt lat="44.3350812" lon="7.5444921"><ele>580.0</ele><time>2026-03-28T16:56:42.312Z</time></trkpt><trkpt lat="44.3351831" lon="7.5444739"><ele>579.8</ele><time>2026-03-28T16:56:43.312Z</time></trkpt><trkpt lat="44.3352891" lon="7.5444626"><ele>579.6</ele><time>2026-03-28T16:56:44.313Z</time></trkpt><trkpt lat="44.3353963" lon="7.5444646"><ele>579.4</ele><time>2026-03-28T16:56:45.313Z</time></trkpt><trkpt lat="44.3354999" lon="7.5444734"><ele>579.2</ele><time>2026-03-28T16:56:46.313Z</time></trkpt><trkpt lat="44.3356124" lon="7.5444881"><ele>579.0</ele><time>2026-03-28T16:56:47.313Z</time></trkpt><trkpt lat="44.335719" lon="7.5445021"><ele>579.0</ele><time>2026-03-28T16:56:48.312Z</time></trkpt><trkpt lat="44.3358219" lon="7.5445185"><ele>579.0</ele><time>2026-03-28T16:56:49.312Z</time></trkpt><trkpt lat="44.3359188" lon="7.5445343"><ele>579.0</ele><time>2026-03-28T16:56:50.312Z</time></trkpt><trkpt lat="44.3360165" lon="7.5445543"><ele>579.0</ele><time>2026-03-28T16:56:51.313Z</time></trkpt><trkpt lat="44.3361137" lon="7.5445756"><ele>579.0</ele><time>2026-03-28T16:56:52.313Z</time></trkpt><trkpt lat="44.3362106" lon="7.5446014"><ele>579.0</ele><time>2026-03-28T16:56:53.313Z</time></trkpt><trkpt lat="44.3363044" lon="7.5446325"><ele>579.0</ele><time>2026-03-28T16:56:54.313Z</time></trkpt><trkpt lat="44.3364019" lon="7.5446532"><ele>579.0</ele><time>2026-03-28T16:56:55.312Z</time></trkpt><trkpt lat="44.3364989" lon="7.5446767"><ele>579.0</ele><time>2026-03-28T16:56:56.313Z</time></trkpt><trkpt lat="44.3366014" lon="7.5446978"><ele>579.0</ele><time>2026-03-28T16:56:57.313Z</time></trkpt><trkpt lat="44.3367073" lon="7.5447194"><ele>578.8</ele><time>2026-03-28T16:56:58.313Z</time></trkpt><trkpt lat="44.3368191" lon="7.5447294"><ele>578.5999999999999</ele><time>2026-03-28T16:56:59.312Z</time></trkpt><trkpt lat="44.3369306" lon="7.5447251"><ele>578.4</ele><time>2026-03-28T16:57:00.312Z</time></trkpt><trkpt lat="44.3370362" lon="7.5447051"><ele>578.1999999999999</ele><time>2026-03-28T16:57:01.312Z</time></trkpt><trkpt lat="44.3371431" lon="7.5446883"><ele>578.0</ele><time>2026-03-28T16:57:02.312Z</time></trkpt><trkpt lat="44.3372461" lon="7.5446341"><ele>578.0</ele><time>2026-03-28T16:57:03.312Z</time></trkpt><trkpt lat="44.3373407" lon="7.5445806"><ele>578.0</ele><time>2026-03-28T16:57:04.312Z</time></trkpt><trkpt lat="44.337431" lon="7.544521"><ele>578.0</ele><time>2026-03-28T16:57:05.312Z</time></trkpt><trkpt lat="44.3375136" lon="7.5444517"><ele>578.0</ele><time>2026-03-28T16:57:06.312Z</time></trkpt><trkpt lat="44.3375889" lon="7.5443629"><ele>578.0</ele><time>2026-03-28T16:57:07.312Z</time></trkpt><trkpt lat="44.33766" lon="7.5442737"><ele>578.5</ele><time>2026-03-28T16:57:08.312Z</time></trkpt><trkpt lat="44.3377293" lon="7.5441938"><ele>579.0</ele><time>2026-03-28T16:57:09.312Z</time></trkpt><trkpt lat="44.3378053" lon="7.5441322"><ele>579.5</ele><time>2026-03-28T16:57:10.312Z</time></trkpt><trkpt lat="44.3378802" lon="7.5440686"><ele>580.0</ele><time>2026-03-28T16:57:11.313Z</time></trkpt><trkpt lat="44.3379578" lon="7.5440412"><ele>580.5</ele><time>2026-03-28T16:57:12.313Z</time></trkpt><trkpt lat="44.3380346" lon="7.5440034"><ele>581.0</ele><time>2026-03-28T16:57:13.313Z</time></trkpt><trkpt lat="44.3381271" lon="7.5440006"><ele>581.3333333333333</ele><time>2026-03-28T16:57:14.312Z</time></trkpt><trkpt lat="44.3382029" lon="7.544019"><ele>581.6666666666666</ele><time>2026-03-28T16:57:15.312Z</time></trkpt><trkpt lat="44.3382823" lon="7.544051"><ele>582.0</ele><time>2026-03-28T16:57:16.312Z</time></trkpt><trkpt lat="44.3383622" lon="7.54409"><ele>582.3333333333334</ele><time>2026-03-28T16:57:17.313Z</time></trkpt><trkpt lat="44.3384464" lon="7.5441355"><ele>582.6666666666667</ele><time>2026-03-28T16:57:18.312Z</time></trkpt><trkpt lat="44.3385349" lon="7.5441808"><ele>583.0</ele><time>2026-03-28T16:57:19.312Z</time></trkpt><trkpt lat="44.3386239" lon="7.5442343"><ele>583.0</ele><time>2026-03-28T16:57:20.313Z</time></trkpt><trkpt lat="44.3387124" lon="7.5442854"><ele>583.0</ele><time>2026-03-28T16:57:21.312Z</time></trkpt><trkpt lat="44.3388037" lon="7.5443447"><ele>583.0</ele><time>2026-03-28T16:57:22.313Z</time></trkpt><trkpt lat="44.3389044" lon="7.5444094"><ele>583.0</ele><time>2026-03-28T16:57:23.312Z</time></trkpt><trkpt lat="44.3390077" lon="7.5444736"><ele>583.0</ele><time>2026-03-28T16:57:24.312Z</time></trkpt><trkpt lat="44.339115" lon="7.5445398"><ele>582.25</ele><time>2026-03-28T16:57:25.313Z</time></trkpt><trkpt lat="44.3392237" lon="7.5446003"><ele>581.5</ele><time>2026-03-28T16:57:26.312Z</time></trkpt><trkpt lat="44.3393278" lon="7.5446587"><ele>580.75</ele><time>2026-03-28T16:57:27.312Z</time></trkpt><trkpt lat="44.3394321" lon="7.5447194"><ele>580.0</ele><time>2026-03-28T16:57:28.312Z</time></trkpt><trkpt lat="44.3395362" lon="7.5447777"><ele>580.0</ele><time>2026-03-28T16:57:29.313Z</time></trkpt><trkpt lat="44.3396434" lon="7.5448324"><ele>580.0</ele><time>2026-03-28T16:57:30.313Z</time></trkpt><trkpt lat="44.339752" lon="7.5448837"><ele>580.0</ele><time>2026-03-28T16:57:31.312Z</time></trkpt><trkpt lat="44.3398601" lon="7.5449272"><ele>580.0</ele><time>2026-03-28T16:57:32.312Z</time></trkpt><trkpt lat="44.3399769" lon="7.5449694"><ele>579.5</ele><time>2026-03-28T16:57:33.313Z</time></trkpt><trkpt lat="44.3400893" lon="7.5450041"><ele>579.0</ele><time>2026-03-28T16:57:34.312Z</time></trkpt><trkpt lat="44.3402003" lon="7.5450352"><ele>578.5</ele><time>2026-03-28T16:57:35.313Z</time></trkpt><trkpt lat="44.3403152" lon="7.5450587"><ele>578.0</ele><time>2026-03-28T16:57:36.312Z</time></trkpt><trkpt lat="44.3404318" lon="7.5450829"><ele>578.0</ele><time>2026-03-28T16:57:37.313Z</time></trkpt><trkpt lat="44.3405493" lon="7.5451014"><ele>578.0</ele><time>2026-03-28T16:57:38.312Z</time></trkpt><trkpt lat="44.3406605" lon="7.5451227"><ele>578.0</ele><time>2026-03-28T16:57:39.312Z</time></trkpt><trkpt lat="44.3407699" lon="7.5451381"><ele>578.0</ele><time>2026-03-28T16:57:40.312Z</time></trkpt><trkpt lat="44.3408873" lon="7.5451483"><ele>578.0</ele><time>2026-03-28T16:57:41.312Z</time></trkpt><trkpt lat="44.3409993" lon="7.5451606"><ele>578.0</ele><time>2026-03-28T16:57:42.313Z</time></trkpt><trkpt lat="44.3411087" lon="7.5451729"><ele>578.0</ele><time>2026-03-28T16:57:43.313Z</time></trkpt><trkpt lat="44.3412159" lon="7.5451916"><ele>578.0</ele><time>2026-03-28T16:57:44.313Z</time></trkpt><trkpt lat="44.3413241" lon="7.5452118"><ele>578.0</ele><time>2026-03-28T16:57:45.312Z</time></trkpt><trkpt lat="44.3414271" lon="7.5452266"><ele>577.6</ele><time>2026-03-28T16:57:46.313Z</time></trkpt><trkpt lat="44.3415285" lon="7.5452402"><ele>577.1999999999999</ele><time>2026-03-28T16:57:47.313Z</time></trkpt><trkpt lat="44.3416153" lon="7.5452512"><ele>576.8</ele><time>2026-03-28T16:57:48.313Z</time></trkpt><trkpt lat="44.3416926" lon="7.5452596"><ele>576.4</ele><time>2026-03-28T16:57:49.313Z</time></trkpt><trkpt lat="44.3417846" lon="7.5452761"><ele>576.0</ele><time>2026-03-28T16:57:51.313Z</time></trkpt><trkpt lat="44.3418748" lon="7.5452647"><ele>576.0</ele><time>2026-03-28T16:57:56.313Z</time></trkpt><trkpt lat="44.3418615" lon="7.5451498"><ele>576.0</ele><time>2026-03-28T16:57:58.312Z</time></trkpt><trkpt lat="44.3418234" lon="7.5449586"><ele>576.0</ele><time>2026-03-28T16:58:00.313Z</time></trkpt><trkpt lat="44.3417973" lon="7.5448289"><ele>576.0</ele><time>2026-03-28T16:58:01.313Z</time></trkpt><trkpt lat="44.3417621" lon="7.544689"><ele>576.0</ele><time>2026-03-28T16:58:02.312Z</time></trkpt><trkpt lat="44.3417248" lon="7.5445382"><ele>576.25</ele><time>2026-03-28T16:58:03.312Z</time></trkpt><trkpt lat="44.341682" lon="7.5443726"><ele>576.5</ele><time>2026-03-28T16:58:04.313Z</time></trkpt><trkpt lat="44.3416409" lon="7.5441832"><ele>576.75</ele><time>2026-03-28T16:58:05.313Z</time></trkpt><trkpt lat="44.3415979" lon="7.5439884"><ele>577.0</ele><time>2026-03-28T16:58:06.312Z</time></trkpt><trkpt lat="44.341565" lon="7.5437829"><ele>576.6666666666667</ele><time>2026-03-28T16:58:07.312Z</time></trkpt><trkpt lat="44.3415588" lon="7.5435385"><ele>576.3333333333334</ele><time>2026-03-28T16:58:08.312Z</time></trkpt><trkpt lat="44.3415673" lon="7.5432712"><ele>576.0</ele><time>2026-03-28T16:58:09.312Z</time></trkpt><trkpt lat="44.3415873" lon="7.5430087"><ele>576.3333333333334</ele><time>2026-03-28T16:58:10.312Z</time></trkpt><trkpt lat="44.3416034" lon="7.5427628"><ele>576.6666666666667</ele><time>2026-03-28T16:58:11.312Z</time></trkpt><trkpt lat="44.3416146" lon="7.5425347"><ele>577.0</ele><time>2026-03-28T16:58:12.313Z</time></trkpt><trkpt lat="44.3416152" lon="7.5423026"><ele>577.0</ele><time>2026-03-28T16:58:13.313Z</time></trkpt><trkpt lat="44.3416131" lon="7.5420715"><ele>577.0</ele><time>2026-03-28T16:58:14.313Z</time></trkpt><trkpt lat="44.3416119" lon="7.5418616"><ele>577.0</ele><time>2026-03-28T16:58:15.312Z</time></trkpt><trkpt lat="44.3416077" lon="7.5416785"><ele>577.0</ele><time>2026-03-28T16:58:16.312Z</time></trkpt><trkpt lat="44.3415821" lon="7.541527"><ele>577.1666666666667</ele><time>2026-03-28T16:58:17.312Z</time></trkpt><trkpt lat="44.341543" lon="7.5414061"><ele>577.3333333333334</ele><time>2026-03-28T16:58:18.312Z</time></trkpt><trkpt lat="44.3415028" lon="7.5413051"><ele>577.5</ele><time>2026-03-28T16:58:19.313Z</time></trkpt><trkpt lat="44.3414821" lon="7.5412205"><ele>577.6666666666666</ele><time>2026-03-28T16:58:20.312Z</time></trkpt><trkpt lat="44.3415443" lon="7.541101"><ele>577.8333333333333</ele><time>2026-03-28T16:58:22.313Z</time></trkpt><trkpt lat="44.3416275" lon="7.5410512"><ele>578.0</ele><time>2026-03-28T16:58:23.312Z</time></trkpt><trkpt lat="44.3417209" lon="7.5409921"><ele>578.0</ele><time>2026-03-28T16:58:24.313Z</time></trkpt><trkpt lat="44.3418165" lon="7.5409294"><ele>578.0</ele><time>2026-03-28T16:58:25.312Z</time></trkpt><trkpt lat="44.3419024" lon="7.5408687"><ele>578.0</ele><time>2026-03-28T16:58:26.313Z</time></trkpt><trkpt lat="44.3419739" lon="7.5408056"><ele>578.0</ele><time>2026-03-28T16:58:27.313Z</time></trkpt><trkpt lat="44.3420396" lon="7.5407483"><ele>578.0</ele><time>2026-03-28T16:58:28.313Z</time></trkpt><trkpt lat="44.3421122" lon="7.5406856"><ele>578.0</ele><time>2026-03-28T16:58:29.312Z</time></trkpt><trkpt lat="44.3421899" lon="7.5406188"><ele>578.4</ele><time>2026-03-28T16:58:30.312Z</time></trkpt><trkpt lat="44.3422654" lon="7.5405508"><ele>578.8</ele><time>2026-03-28T16:58:31.313Z</time></trkpt><trkpt lat="44.3423424" lon="7.5404743"><ele>579.2</ele><time>2026-03-28T16:58:32.312Z</time></trkpt><trkpt lat="44.3424243" lon="7.5403903"><ele>579.6</ele><time>2026-03-28T16:58:33.313Z</time></trkpt><trkpt lat="44.3425119" lon="7.5403035"><ele>580.0</ele><time>2026-03-28T16:58:34.312Z</time></trkpt><trkpt lat="44.3425905" lon="7.5402212"><ele>580.0</ele><time>2026-03-28T16:58:35.313Z</time></trkpt><trkpt lat="44.342675" lon="7.5401429"><ele>580.0</ele><time>2026-03-28T16:58:36.313Z</time></trkpt><trkpt lat="44.3427542" lon="7.5400679"><ele>580.0</ele><time>2026-03-28T16:58:37.312Z</time></trkpt><trkpt lat="44.3428275" lon="7.5400009"><ele>580.0</ele><time>2026-03-28T16:58:38.313Z</time></trkpt><trkpt lat="44.3428957" lon="7.5399533"><ele>580.0</ele><time>2026-03-28T16:58:39.312Z</time></trkpt><trkpt lat="44.342978" lon="7.5399143"><ele>580.0</ele><time>2026-03-28T16:58:40.313Z</time></trkpt><trkpt lat="44.3430635" lon="7.5398903"><ele>579.6666666666667</ele><time>2026-03-28T16:58:41.313Z</time></trkpt><trkpt lat="44.3431557" lon="7.5398833"><ele>579.3333333333334</ele><time>2026-03-28T16:58:42.313Z</time></trkpt><trkpt lat="44.3432355" lon="7.5398868"><ele>579.0</ele><time>2026-03-28T16:58:43.313Z</time></trkpt><trkpt lat="44.343305" lon="7.5398758"><ele>578.6666666666666</ele><time>2026-03-28T16:58:44.313Z</time></trkpt><trkpt lat="44.3433576" lon="7.5398271"><ele>578.3333333333333</ele><time>2026-03-28T16:58:45.313Z</time></trkpt><trkpt lat="44.3434087" lon="7.539679"><ele>578.0</ele><time>2026-03-28T16:58:47.312Z</time></trkpt><trkpt lat="44.3434248" lon="7.5395536"><ele>578.0</ele><time>2026-03-28T16:58:49.313Z</time></trkpt><trkpt lat="44.3433818" lon="7.5396889"><ele>578.0</ele><time>2026-03-28T16:58:53.312Z</time></trkpt><trkpt lat="44.3433935" lon="7.5398517"><ele>578.0</ele><time>2026-03-28T16:58:55.312Z</time></trkpt><trkpt lat="44.3434408" lon="7.5399161"><ele>578.0</ele><time>2026-03-28T16:58:56.312Z</time></trkpt><trkpt lat="44.343512" lon="7.5399558"><ele>578.0</ele><time>2026-03-28T16:58:57.313Z</time></trkpt><trkpt lat="44.3435938" lon="7.5399791"><ele>578.0</ele><time>2026-03-28T16:58:58.313Z</time></trkpt><trkpt lat="44.3436925" lon="7.5399891"><ele>578.0</ele><time>2026-03-28T16:58:59.312Z</time></trkpt><trkpt lat="44.3437911" lon="7.5400011"><ele>578.0</ele><time>2026-03-28T16:59:00.313Z</time></trkpt><trkpt lat="44.343894" lon="7.5400052"><ele>578.0</ele><time>2026-03-28T16:59:01.312Z</time></trkpt><trkpt lat="44.3439917" lon="7.5400147"><ele>578.0</ele><time>2026-03-28T16:59:02.312Z</time></trkpt><trkpt lat="44.3440952" lon="7.54002"><ele>578.0</ele><time>2026-03-28T16:59:03.312Z</time></trkpt><trkpt lat="44.3441924" lon="7.5400261"><ele>577.5</ele><time>2026-03-28T16:59:04.312Z</time></trkpt><trkpt lat="44.3442911" lon="7.5400279"><ele>577.0</ele><time>2026-03-28T16:59:05.313Z</time></trkpt><trkpt lat="44.3443836" lon="7.5400288"><ele>576.5</ele><time>2026-03-28T16:59:06.312Z</time></trkpt><trkpt lat="44.3444702" lon="7.5400372"><ele>576.0</ele><time>2026-03-28T16:59:07.312Z</time></trkpt><trkpt lat="44.3445454" lon="7.5400293"><ele>575.5</ele><time>2026-03-28T16:59:08.313Z</time></trkpt><trkpt lat="44.3446056" lon="7.5399813"><ele>575.0</ele><time>2026-03-28T16:59:09.312Z</time></trkpt><trkpt lat="44.3446424" lon="7.5398904"><ele>575.0</ele><time>2026-03-28T16:59:10.312Z</time></trkpt><trkpt lat="44.3446576" lon="7.5397553"><ele>575.0</ele><time>2026-03-28T16:59:11.312Z</time></trkpt><trkpt lat="44.3446731" lon="7.5395965"><ele>575.0</ele><time>2026-03-28T16:59:12.312Z</time></trkpt><trkpt lat="44.3446845" lon="7.5394322"><ele>575.0</ele><time>2026-03-28T16:59:13.312Z</time></trkpt><trkpt lat="44.3446976" lon="7.5392583"><ele>575.25</ele><time>2026-03-28T16:59:14.312Z</time></trkpt><trkpt lat="44.3447134" lon="7.5390782"><ele>575.5</ele><time>2026-03-28T16:59:15.313Z</time></trkpt><trkpt lat="44.3447285" lon="7.5388993"><ele>575.75</ele><time>2026-03-28T16:59:16.313Z</time></trkpt><trkpt lat="44.3447405" lon="7.5387122"><ele>576.0</ele><time>2026-03-28T16:59:17.313Z</time></trkpt><trkpt lat="44.3447549" lon="7.5385256"><ele>576.75</ele><time>2026-03-28T16:59:18.312Z</time></trkpt><trkpt lat="44.3447729" lon="7.5383462"><ele>577.5</ele><time>2026-03-28T16:59:19.313Z</time></trkpt><trkpt lat="44.3447912" lon="7.5381685"><ele>578.25</ele><time>2026-03-28T16:59:20.313Z</time></trkpt><trkpt lat="44.3448054" lon="7.5379973"><ele>579.0</ele><time>2026-03-28T16:59:21.312Z</time></trkpt><trkpt lat="44.3448209" lon="7.5378337"><ele>579.4</ele><time>2026-03-28T16:59:22.312Z</time></trkpt><trkpt lat="44.3448327" lon="7.5376769"><ele>579.8</ele><time>2026-03-28T16:59:23.313Z</time></trkpt><trkpt lat="44.3448425" lon="7.5375179"><ele>580.2</ele><time>2026-03-28T16:59:24.312Z</time></trkpt><trkpt lat="44.3448546" lon="7.5373631"><ele>580.6</ele><time>2026-03-28T16:59:25.312Z</time></trkpt><trkpt lat="44.3448694" lon="7.5372177"><ele>581.0</ele><time>2026-03-28T16:59:26.312Z</time></trkpt><trkpt lat="44.3448896" lon="7.5370801"><ele>581.1666666666666</ele><time>2026-03-28T16:59:27.313Z</time></trkpt><trkpt lat="44.3449091" lon="7.5369455"><ele>581.3333333333333</ele><time>2026-03-28T16:59:28.312Z</time></trkpt><trkpt lat="44.344926" lon="7.5368239"><ele>581.5</ele><time>2026-03-28T16:59:29.312Z</time></trkpt><trkpt lat="44.3449374" lon="7.5367116"><ele>581.6666666666666</ele><time>2026-03-28T16:59:30.312Z</time></trkpt><trkpt lat="44.3449446" lon="7.5365935"><ele>581.8333333333334</ele><time>2026-03-28T16:59:31.313Z</time></trkpt><trkpt lat="44.3449379" lon="7.5364626"><ele>582.0</ele><time>2026-03-28T16:59:32.312Z</time></trkpt><trkpt lat="44.3449243" lon="7.5363307"><ele>581.8333333333334</ele><time>2026-03-28T16:59:33.312Z</time></trkpt><trkpt lat="44.344915" lon="7.5362044"><ele>581.6666666666666</ele><time>2026-03-28T16:59:34.313Z</time></trkpt><trkpt lat="44.3449059" lon="7.5360819"><ele>581.5</ele><time>2026-03-28T16:59:35.313Z</time></trkpt><trkpt lat="44.344905" lon="7.5359673"><ele>581.3333333333333</ele><time>2026-03-28T16:59:36.312Z</time></trkpt><trkpt lat="44.3449252" lon="7.5358596"><ele>581.1666666666666</ele><time>2026-03-28T16:59:37.313Z</time></trkpt><trkpt lat="44.3449519" lon="7.5357633"><ele>581.0</ele><time>2026-03-28T16:59:38.312Z</time></trkpt><trkpt lat="44.3449852" lon="7.5356779"><ele>581.0</ele><time>2026-03-28T16:59:39.312Z</time></trkpt><trkpt lat="44.3450697" lon="7.5355977"><ele>581.0</ele><time>2026-03-28T16:59:41.313Z</time></trkpt><trkpt lat="44.3451846" lon="7.535622"><ele>581.0</ele><time>2026-03-28T16:59:43.313Z</time></trkpt><trkpt lat="44.345264" lon="7.5356647"><ele>581.0</ele><time>2026-03-28T16:59:44.313Z</time></trkpt><trkpt lat="44.3453599" lon="7.5357143"><ele>581.0</ele><time>2026-03-28T16:59:45.313Z</time></trkpt><trkpt lat="44.3454414" lon="7.5357497"><ele>581.0</ele><time>2026-03-28T16:59:46.313Z</time></trkpt><trkpt lat="44.3455277" lon="7.5357894"><ele>581.0</ele><time>2026-03-28T16:59:47.312Z</time></trkpt><trkpt lat="44.3456151" lon="7.5358201"><ele>581.0</ele><time>2026-03-28T16:59:48.312Z</time></trkpt><trkpt lat="44.3457049" lon="7.5358501"><ele>581.0</ele><time>2026-03-28T16:59:49.312Z</time></trkpt><trkpt lat="44.3457876" lon="7.5358906"><ele>581.0</ele><time>2026-03-28T16:59:50.312Z</time></trkpt><trkpt lat="44.3458762" lon="7.5359381"><ele>580.2</ele><time>2026-03-28T16:59:51.313Z</time></trkpt><trkpt lat="44.3459629" lon="7.5359806"><ele>579.4000000000001</ele><time>2026-03-28T16:59:52.313Z</time></trkpt><trkpt lat="44.346046" lon="7.5360375"><ele>578.6</ele><time>2026-03-28T16:59:53.312Z</time></trkpt><trkpt lat="44.3461347" lon="7.5360932"><ele>577.8000000000001</ele><time>2026-03-28T16:59:54.312Z</time></trkpt><trkpt lat="44.3462226" lon="7.5361341"><ele>577.0</ele><time>2026-03-28T16:59:55.312Z</time></trkpt><trkpt lat="44.3463007" lon="7.5361844"><ele>577.8000000000001</ele><time>2026-03-28T16:59:56.312Z</time></trkpt><trkpt lat="44.346379" lon="7.5362531"><ele>578.6</ele><time>2026-03-28T16:59:57.312Z</time></trkpt><trkpt lat="44.3464666" lon="7.5363542"><ele>579.4000000000001</ele><time>2026-03-28T16:59:58.313Z</time></trkpt><trkpt lat="44.3465569" lon="7.5364562"><ele>580.2</ele><time>2026-03-28T16:59:59.313Z</time></trkpt><trkpt lat="44.346651" lon="7.5365364"><ele>581.0</ele><time>2026-03-28T17:00:00.312Z</time></trkpt><trkpt lat="44.346747" lon="7.5366034"><ele>581.0</ele><time>2026-03-28T17:00:01.312Z</time></trkpt><trkpt lat="44.3468415" lon="7.5366641"><ele>581.0</ele><time>2026-03-28T17:00:02.312Z</time></trkpt><trkpt lat="44.34695" lon="7.536704"><ele>581.0</ele><time>2026-03-28T17:00:03.312Z</time></trkpt><trkpt lat="44.3470555" lon="7.5367409"><ele>581.0</ele><time>2026-03-28T17:00:04.313Z</time></trkpt><trkpt lat="44.34716" lon="7.5367697"><ele>581.0</ele><time>2026-03-28T17:00:05.313Z</time></trkpt><trkpt lat="44.3472567" lon="7.5367875"><ele>581.0</ele><time>2026-03-28T17:00:06.313Z</time></trkpt><trkpt lat="44.3473455" lon="7.5368144"><ele>581.0</ele><time>2026-03-28T17:00:07.312Z</time></trkpt><trkpt lat="44.3474298" lon="7.5368404"><ele>581.0</ele><time>2026-03-28T17:00:08.313Z</time></trkpt><trkpt lat="44.3475165" lon="7.5368689"><ele>581.0</ele><time>2026-03-28T17:00:09.312Z</time></trkpt><trkpt lat="44.3476065" lon="7.5368929"><ele>581.0</ele><time>2026-03-28T17:00:10.313Z</time></trkpt><trkpt lat="44.3476866" lon="7.5369225"><ele>581.0</ele><time>2026-03-28T17:00:11.313Z</time></trkpt><trkpt lat="44.3477829" lon="7.5369536"><ele>581.0</ele><time>2026-03-28T17:00:13.313Z</time></trkpt><trkpt lat="44.3478855" lon="7.5369768"><ele>581.0</ele><time>2026-03-28T17:00:16.312Z</time></trkpt><trkpt lat="44.3480154" lon="7.5370267"><ele>581.0</ele><time>2026-03-28T17:00:18.312Z</time></trkpt><trkpt lat="44.3480906" lon="7.5370571"><ele>581.0</ele><time>2026-03-28T17:00:19.312Z</time></trkpt><trkpt lat="44.3481699" lon="7.5370742"><ele>581.0</ele><time>2026-03-28T17:00:20.312Z</time></trkpt><trkpt lat="44.3482485" lon="7.5370953"><ele>580.4</ele><time>2026-03-28T17:00:21.312Z</time></trkpt><trkpt lat="44.3483255" lon="7.5371254"><ele>579.8</ele><time>2026-03-28T17:00:22.313Z</time></trkpt><trkpt lat="44.3484135" lon="7.5371785"><ele>579.1999999999999</ele><time>2026-03-28T17:00:23.313Z</time></trkpt><trkpt lat="44.3485092" lon="7.5372566"><ele>578.6</ele><time>2026-03-28T17:00:24.313Z</time></trkpt><trkpt lat="44.3486074" lon="7.5373414"><ele>578.0</ele><time>2026-03-28T17:00:25.312Z</time></trkpt><trkpt lat="44.3487015" lon="7.5374334"><ele>578.0</ele><time>2026-03-28T17:00:26.312Z</time></trkpt><trkpt lat="44.3487994" lon="7.5375284"><ele>578.0</ele><time>2026-03-28T17:00:27.313Z</time></trkpt><trkpt lat="44.3488994" lon="7.5376102"><ele>578.0</ele><time>2026-03-28T17:00:28.312Z</time></trkpt><trkpt lat="44.3489996" lon="7.5376864"><ele>578.0</ele><time>2026-03-28T17:00:29.313Z</time></trkpt><trkpt lat="44.3491014" lon="7.5377543"><ele>577.4</ele><time>2026-03-28T17:00:30.312Z</time></trkpt><trkpt lat="44.349204" lon="7.537828"><ele>576.8</ele><time>2026-03-28T17:00:31.313Z</time></trkpt><trkpt lat="44.3493057" lon="7.5379051"><ele>576.2</ele><time>2026-03-28T17:00:32.313Z</time></trkpt><trkpt lat="44.3493985" lon="7.5379775"><ele>575.6</ele><time>2026-03-28T17:00:33.312Z</time></trkpt><trkpt lat="44.349479" lon="7.5380561"><ele>575.0</ele><time>2026-03-28T17:00:34.313Z</time></trkpt><trkpt lat="44.3495407" lon="7.538159"><ele>575.0</ele><time>2026-03-28T17:00:35.312Z</time></trkpt><trkpt lat="44.3495885" lon="7.5382761"><ele>575.0</ele><time>2026-03-28T17:00:36.312Z</time></trkpt><trkpt lat="44.3496258" lon="7.5384265"><ele>575.0</ele><time>2026-03-28T17:00:37.313Z</time></trkpt><trkpt lat="44.3496525" lon="7.5385687"><ele>575.0</ele><time>2026-03-28T17:00:38.313Z</time></trkpt><trkpt lat="44.3496749" lon="7.5387167"><ele>575.0</ele><time>2026-03-28T17:00:39.312Z</time></trkpt><trkpt lat="44.3497225" lon="7.5388782"><ele>575.25</ele><time>2026-03-28T17:00:40.313Z</time></trkpt><trkpt lat="44.3497834" lon="7.5390414"><ele>575.5</ele><time>2026-03-28T17:00:41.312Z</time></trkpt><trkpt lat="44.349848" lon="7.5392022"><ele>575.75</ele><time>2026-03-28T17:00:42.313Z</time></trkpt><trkpt lat="44.3499173" lon="7.5393517"><ele>576.0</ele><time>2026-03-28T17:00:43.313Z</time></trkpt><trkpt lat="44.3499904" lon="7.539498"><ele>576.0</ele><time>2026-03-28T17:00:44.312Z</time></trkpt><trkpt lat="44.3500608" lon="7.5396288"><ele>576.0</ele><time>2026-03-28T17:00:45.313Z</time></trkpt><trkpt lat="44.3501279" lon="7.5397466"><ele>576.0</ele><time>2026-03-28T17:00:46.313Z</time></trkpt><trkpt lat="44.3502061" lon="7.5398559"><ele>576.0</ele><time>2026-03-28T17:00:47.312Z</time></trkpt><trkpt lat="44.3502954" lon="7.5399504"><ele>576.0</ele><time>2026-03-28T17:00:48.312Z</time></trkpt><trkpt lat="44.3504046" lon="7.5400467"><ele>576.0</ele><time>2026-03-28T17:00:49.312Z</time></trkpt><trkpt lat="44.3505243" lon="7.5401451"><ele>576.0</ele><time>2026-03-28T17:00:50.312Z</time></trkpt><trkpt lat="44.3506472" lon="7.5402471"><ele>576.0</ele><time>2026-03-28T17:00:51.313Z</time></trkpt><trkpt lat="44.3507562" lon="7.5403418"><ele>576.0</ele><time>2026-03-28T17:00:52.313Z</time></trkpt><trkpt lat="44.3508386" lon="7.5404378"><ele>576.0</ele><time>2026-03-28T17:00:53.313Z</time></trkpt><trkpt lat="44.3509228" lon="7.5405677"><ele>576.0</ele><time>2026-03-28T17:00:54.313Z</time></trkpt><trkpt lat="44.3509842" lon="7.5406893"><ele>576.0</ele><time>2026-03-28T17:00:55.312Z</time></trkpt><trkpt lat="44.3510323" lon="7.5408187"><ele>576.0</ele><time>2026-03-28T17:00:56.312Z</time></trkpt><trkpt lat="44.3510627" lon="7.5409353"><ele>576.0</ele><time>2026-03-28T17:00:57.313Z</time></trkpt><trkpt lat="44.3510971" lon="7.5410419"><ele>576.0</ele><time>2026-03-28T17:00:58.312Z</time></trkpt><trkpt lat="44.3511297" lon="7.5411383"><ele>576.0</ele><time>2026-03-28T17:00:59.312Z</time></trkpt><trkpt lat="44.3511773" lon="7.5412165"><ele>576.0</ele><time>2026-03-28T17:01:00.313Z</time></trkpt><trkpt lat="44.3512353" lon="7.5412848"><ele>576.0</ele><time>2026-03-28T17:01:01.312Z</time></trkpt><trkpt lat="44.3513246" lon="7.5413544"><ele>576.0</ele><time>2026-03-28T17:01:02.313Z</time></trkpt><trkpt lat="44.3514285" lon="7.5414379"><ele>576.0</ele><time>2026-03-28T17:01:03.312Z</time></trkpt><trkpt lat="44.3515372" lon="7.5415226"><ele>575.0</ele><time>2026-03-28T17:01:04.312Z</time></trkpt><trkpt lat="44.3516421" lon="7.5416019"><ele>574.0</ele><time>2026-03-28T17:01:05.312Z</time></trkpt><trkpt lat="44.3517475" lon="7.5416776"><ele>573.0</ele><time>2026-03-28T17:01:06.313Z</time></trkpt><trkpt lat="44.3518523" lon="7.5417518"><ele>572.0</ele><time>2026-03-28T17:01:07.312Z</time></trkpt><trkpt lat="44.3519518" lon="7.5418219"><ele>572.0</ele><time>2026-03-28T17:01:08.313Z</time></trkpt><trkpt lat="44.3520482" lon="7.5418966"><ele>572.0</ele><time>2026-03-28T17:01:09.312Z</time></trkpt><trkpt lat="44.3521466" lon="7.5419753"><ele>572.0</ele><time>2026-03-28T17:01:10.312Z</time></trkpt><trkpt lat="44.3522263" lon="7.5420771"><ele>572.0</ele><time>2026-03-28T17:01:11.312Z</time></trkpt><trkpt lat="44.3523047" lon="7.5421858"><ele>572.0</ele><time>2026-03-28T17:01:12.312Z</time></trkpt><trkpt lat="44.3523775" lon="7.5423011"><ele>571.8000000000001</ele><time>2026-03-28T17:01:13.312Z</time></trkpt><trkpt lat="44.352452" lon="7.5424013"><ele>571.6</ele><time>2026-03-28T17:01:14.313Z</time></trkpt><trkpt lat="44.3525182" lon="7.5425003"><ele>571.4000000000001</ele><time>2026-03-28T17:01:15.313Z</time></trkpt><trkpt lat="44.3525779" lon="7.5425951"><ele>571.2</ele><time>2026-03-28T17:01:16.313Z</time></trkpt><trkpt lat="44.3526397" lon="7.5426929"><ele>571.0</ele><time>2026-03-28T17:01:17.313Z</time></trkpt><trkpt lat="44.3526956" lon="7.5427976"><ele>571.6</ele><time>2026-03-28T17:01:18.312Z</time></trkpt><trkpt lat="44.352748" lon="7.5429113"><ele>572.2</ele><time>2026-03-28T17:01:19.312Z</time></trkpt><trkpt lat="44.352799" lon="7.5430253"><ele>572.8</ele><time>2026-03-28T17:01:20.312Z</time></trkpt><trkpt lat="44.3528524" lon="7.5431367"><ele>573.4</ele><time>2026-03-28T17:01:21.313Z</time></trkpt><trkpt lat="44.3529175" lon="7.5432164"><ele>574.0</ele><time>2026-03-28T17:01:22.312Z</time></trkpt><trkpt lat="44.3529918" lon="7.5432928"><ele>573.0</ele><time>2026-03-28T17:01:23.312Z</time></trkpt><trkpt lat="44.3530607" lon="7.5433643"><ele>572.0</ele><time>2026-03-28T17:01:24.312Z</time></trkpt><trkpt lat="44.3531274" lon="7.5434295"><ele>571.0</ele><time>2026-03-28T17:01:25.313Z</time></trkpt><trkpt lat="44.3531984" lon="7.5434829"><ele>570.0</ele><time>2026-03-28T17:01:26.312Z</time></trkpt><trkpt lat="44.3532813" lon="7.5435104"><ele>569.0</ele><time>2026-03-28T17:01:27.312Z</time></trkpt><trkpt lat="44.3533938" lon="7.5435899"><ele>569.0</ele><time>2026-03-28T17:01:29.313Z</time></trkpt><trkpt lat="44.3534842" lon="7.5436403"><ele>569.0</ele><time>2026-03-28T17:01:30.312Z</time></trkpt><trkpt lat="44.353588" lon="7.5436747"><ele>569.0</ele><time>2026-03-28T17:01:31.313Z</time></trkpt><trkpt lat="44.3536818" lon="7.5437011"><ele>569.0</ele><time>2026-03-28T17:01:32.312Z</time></trkpt><trkpt lat="44.353771" lon="7.5437128"><ele>569.0</ele><time>2026-03-28T17:01:33.313Z</time></trkpt><trkpt lat="44.3538552" lon="7.5437096"><ele>568.0</ele><time>2026-03-28T17:01:34.312Z</time></trkpt><trkpt lat="44.3539435" lon="7.5437043"><ele>567.0</ele><time>2026-03-28T17:01:35.313Z</time></trkpt><trkpt lat="44.3540102" lon="7.5436975"><ele>566.0</ele><time>2026-03-28T17:01:36.312Z</time></trkpt><trkpt lat="44.3540869" lon="7.5436726"><ele>565.0</ele><time>2026-03-28T17:01:38.313Z</time></trkpt><trkpt lat="44.3541474" lon="7.5436139"><ele>564.0</ele><time>2026-03-28T17:01:41.313Z</time></trkpt><trkpt lat="44.3542158" lon="7.5435524"><ele>563.0</ele><time>2026-03-28T17:01:43.312Z</time></trkpt><trkpt lat="44.3543163" lon="7.5434751"><ele>563.0</ele><time>2026-03-28T17:01:45.312Z</time></trkpt><trkpt lat="44.3544141" lon="7.5433768"><ele>563.0</ele><time>2026-03-28T17:01:47.312Z</time></trkpt><trkpt lat="44.3544704" lon="7.5433235"><ele>563.0</ele><time>2026-03-28T17:01:48.313Z</time></trkpt><trkpt lat="44.3545345" lon="7.5432574"><ele>563.0</ele><time>2026-03-28T17:01:49.312Z</time></trkpt><trkpt lat="44.3546039" lon="7.5431808"><ele>563.0</ele><time>2026-03-28T17:01:50.313Z</time></trkpt><trkpt lat="44.3546791" lon="7.5430893"><ele>562.1999999999999</ele><time>2026-03-28T17:01:51.313Z</time></trkpt><trkpt lat="44.3547568" lon="7.5429883"><ele>561.4</ele><time>2026-03-28T17:01:52.312Z</time></trkpt><trkpt lat="44.3548341" lon="7.5428828"><ele>560.5999999999999</ele><time>2026-03-28T17:01:53.312Z</time></trkpt><trkpt lat="44.3548997" lon="7.5427722"><ele>559.8</ele><time>2026-03-28T17:01:54.312Z</time></trkpt><trkpt lat="44.354963" lon="7.5426605"><ele>559.0</ele><time>2026-03-28T17:01:55.312Z</time></trkpt><trkpt lat="44.355023" lon="7.5425485"><ele>559.0</ele><time>2026-03-28T17:01:56.313Z</time></trkpt><trkpt lat="44.355085" lon="7.5424438"><ele>559.0</ele><time>2026-03-28T17:01:57.312Z</time></trkpt><trkpt lat="44.3551506" lon="7.5423643"><ele>559.0</ele><time>2026-03-28T17:01:58.313Z</time></trkpt><trkpt lat="44.3552165" lon="7.5423003"><ele>559.0</ele><time>2026-03-28T17:01:59.312Z</time></trkpt><trkpt lat="44.355321" lon="7.5423276"><ele>559.0</ele><time>2026-03-28T17:02:00.312Z</time></trkpt><trkpt lat="44.3554093" lon="7.5423774"><ele>559.0</ele><time>2026-03-28T17:02:01.312Z</time></trkpt><trkpt lat="44.3555064" lon="7.5424726"><ele>559.0</ele><time>2026-03-28T17:02:02.312Z</time></trkpt><trkpt lat="44.355608" lon="7.5426033"><ele>559.0</ele><time>2026-03-28T17:02:03.312Z</time></trkpt><trkpt lat="44.3557075" lon="7.5427228"><ele>559.0</ele><time>2026-03-28T17:02:04.313Z</time></trkpt><trkpt lat="44.3558037" lon="7.5428489"><ele>559.0</ele><time>2026-03-28T17:02:05.312Z</time></trkpt><trkpt lat="44.3558888" lon="7.5429623"><ele>559.0</ele><time>2026-03-28T17:02:06.312Z</time></trkpt><trkpt lat="44.3559679" lon="7.5430664"><ele>559.0</ele><time>2026-03-28T17:02:07.312Z</time></trkpt><trkpt lat="44.3560427" lon="7.5431563"><ele>559.0</ele><time>2026-03-28T17:02:08.313Z</time></trkpt><trkpt lat="44.3561408" lon="7.5432203"><ele>559.0</ele><time>2026-03-28T17:02:09.312Z</time></trkpt><trkpt lat="44.3562718" lon="7.5432486"><ele>558.25</ele><time>2026-03-28T17:02:10.312Z</time></trkpt><trkpt lat="44.3564066" lon="7.5432635"><ele>557.5</ele><time>2026-03-28T17:02:11.312Z</time></trkpt><trkpt lat="44.3565427" lon="7.5432832"><ele>556.75</ele><time>2026-03-28T17:02:12.313Z</time></trkpt><trkpt lat="44.3566691" lon="7.5433015"><ele>556.0</ele><time>2026-03-28T17:02:13.312Z</time></trkpt><trkpt lat="44.3567985" lon="7.5433061"><ele>556.0</ele><time>2026-03-28T17:02:14.312Z</time></trkpt><trkpt lat="44.3569232" lon="7.5433108"><ele>556.0</ele><time>2026-03-28T17:02:15.312Z</time></trkpt><trkpt lat="44.357047" lon="7.5433085"><ele>556.0</ele><time>2026-03-28T17:02:16.312Z</time></trkpt><trkpt lat="44.3571685" lon="7.5433061"><ele>556.0</ele><time>2026-03-28T17:02:17.312Z</time></trkpt><trkpt lat="44.3572793" lon="7.5432962"><ele>555.4</ele><time>2026-03-28T17:02:18.312Z</time></trkpt><trkpt lat="44.3573854" lon="7.5432897"><ele>554.8</ele><time>2026-03-28T17:02:19.313Z</time></trkpt><trkpt lat="44.3574884" lon="7.5432656"><ele>554.1999999999999</ele><time>2026-03-28T17:02:20.312Z</time></trkpt><trkpt lat="44.357589" lon="7.5432336"><ele>553.6</ele><time>2026-03-28T17:02:21.313Z</time></trkpt><trkpt lat="44.3576905" lon="7.5431975"><ele>553.0</ele><time>2026-03-28T17:02:22.312Z</time></trkpt><trkpt lat="44.3577856" lon="7.5431549"><ele>553.0</ele><time>2026-03-28T17:02:23.313Z</time></trkpt><trkpt lat="44.3578653" lon="7.5431205"><ele>553.0</ele><time>2026-03-28T17:02:24.313Z</time></trkpt><trkpt lat="44.3579586" lon="7.5431013"><ele>553.0</ele><time>2026-03-28T17:02:25.313Z</time></trkpt><trkpt lat="44.3580706" lon="7.5431122"><ele>553.0</ele><time>2026-03-28T17:02:26.313Z</time></trkpt><trkpt lat="44.3581862" lon="7.5431534"><ele>553.0</ele><time>2026-03-28T17:02:27.313Z</time></trkpt><trkpt lat="44.3582923" lon="7.5432229"><ele>553.5</ele><time>2026-03-28T17:02:28.312Z</time></trkpt><trkpt lat="44.3583943" lon="7.5433198"><ele>554.0</ele><time>2026-03-28T17:02:29.313Z</time></trkpt><trkpt lat="44.3584957" lon="7.5434377"><ele>554.5</ele><time>2026-03-28T17:02:30.312Z</time></trkpt><trkpt lat="44.3586156" lon="7.543548"><ele>555.0</ele><time>2026-03-28T17:02:31.313Z</time></trkpt><trkpt lat="44.3587304" lon="7.5436489"><ele>555.0</ele><time>2026-03-28T17:02:32.312Z</time></trkpt><trkpt lat="44.3588402" lon="7.5437614"><ele>555.0</ele><time>2026-03-28T17:02:33.313Z</time></trkpt><trkpt lat="44.3589412" lon="7.5438884"><ele>555.0</ele><time>2026-03-28T17:02:34.312Z</time></trkpt><trkpt lat="44.3590343" lon="7.5440371"><ele>555.0</ele><time>2026-03-28T17:02:35.313Z</time></trkpt><trkpt lat="44.3591234" lon="7.5441963"><ele>554.5</ele><time>2026-03-28T17:02:36.312Z</time></trkpt><trkpt lat="44.3592002" lon="7.5443519"><ele>554.0</ele><time>2026-03-28T17:02:37.312Z</time></trkpt><trkpt lat="44.359278" lon="7.5444954"><ele>553.5</ele><time>2026-03-28T17:02:38.312Z</time></trkpt><trkpt lat="44.359344" lon="7.5446147"><ele>553.0</ele><time>2026-03-28T17:02:39.312Z</time></trkpt><trkpt lat="44.3594104" lon="7.5447158"><ele>553.0</ele><time>2026-03-28T17:02:40.313Z</time></trkpt><trkpt lat="44.3594781" lon="7.5448015"><ele>553.0</ele><time>2026-03-28T17:02:41.313Z</time></trkpt><trkpt lat="44.3595638" lon="7.5448898"><ele>553.0</ele><time>2026-03-28T17:02:42.312Z</time></trkpt><trkpt lat="44.3596647" lon="7.5449903"><ele>553.0</ele><time>2026-03-28T17:02:43.312Z</time></trkpt><trkpt lat="44.3597719" lon="7.5451115"><ele>552.5</ele><time>2026-03-28T17:02:44.313Z</time></trkpt><trkpt lat="44.3598813" lon="7.5452403"><ele>552.0</ele><time>2026-03-28T17:02:45.312Z</time></trkpt><trkpt lat="44.3599963" lon="7.5453773"><ele>551.5</ele><time>2026-03-28T17:02:46.312Z</time></trkpt><trkpt lat="44.3601105" lon="7.5455187"><ele>551.0</ele><time>2026-03-28T17:02:47.312Z</time></trkpt><trkpt lat="44.3602231" lon="7.5456527"><ele>551.0</ele><time>2026-03-28T17:02:48.312Z</time></trkpt><trkpt lat="44.3603414" lon="7.5457852"><ele>551.0</ele><time>2026-03-28T17:02:49.312Z</time></trkpt><trkpt lat="44.3604787" lon="7.5458932"><ele>551.0</ele><time>2026-03-28T17:02:50.312Z</time></trkpt><trkpt lat="44.3606114" lon="7.5459786"><ele>550.0</ele><time>2026-03-28T17:02:51.312Z</time></trkpt><trkpt lat="44.360755" lon="7.5460284"><ele>549.0</ele><time>2026-03-28T17:02:52.312Z</time></trkpt><trkpt lat="44.3609082" lon="7.5460742"><ele>548.0</ele><time>2026-03-28T17:02:53.312Z</time></trkpt><trkpt lat="44.3610475" lon="7.5461341"><ele>548.0</ele><time>2026-03-28T17:02:54.313Z</time></trkpt><trkpt lat="44.3611943" lon="7.5462167"><ele>548.0</ele><time>2026-03-28T17:02:55.312Z</time></trkpt><trkpt lat="44.3613368" lon="7.5463049"><ele>548.0</ele><time>2026-03-28T17:02:56.312Z</time></trkpt><trkpt lat="44.3614844" lon="7.5464006"><ele>548.0</ele><time>2026-03-28T17:02:57.312Z</time></trkpt><trkpt lat="44.3616282" lon="7.546503"><ele>548.0</ele><time>2026-03-28T17:02:58.312Z</time></trkpt><trkpt lat="44.361769" lon="7.5465842"><ele>548.0</ele><time>2026-03-28T17:02:59.312Z</time></trkpt><trkpt lat="44.3619069" lon="7.5466443"><ele>548.0</ele><time>2026-03-28T17:03:00.313Z</time></trkpt><trkpt lat="44.3620684" lon="7.5466835"><ele>548.0</ele><time>2026-03-28T17:03:01.313Z</time></trkpt><trkpt lat="44.3622546" lon="7.5466998"><ele>548.0</ele><time>2026-03-28T17:03:02.313Z</time></trkpt><trkpt lat="44.3624207" lon="7.5467099"><ele>547.75</ele><time>2026-03-28T17:03:03.313Z</time></trkpt><trkpt lat="44.3625733" lon="7.5467213"><ele>547.5</ele><time>2026-03-28T17:03:04.312Z</time></trkpt><trkpt lat="44.3627054" lon="7.5467349"><ele>547.25</ele><time>2026-03-28T17:03:05.313Z</time></trkpt><trkpt lat="44.3628257" lon="7.5467612"><ele>547.0</ele><time>2026-03-28T17:03:06.312Z</time></trkpt><trkpt lat="44.3629334" lon="7.5468255"><ele>546.6666666666667</ele><time>2026-03-28T17:03:07.313Z</time></trkpt><trkpt lat="44.3630566" lon="7.5469463"><ele>546.3333333333334</ele><time>2026-03-28T17:03:08.313Z</time></trkpt><trkpt lat="44.3631822" lon="7.5471069"><ele>546.0</ele><time>2026-03-28T17:03:09.313Z</time></trkpt><trkpt lat="44.3632961" lon="7.5472619"><ele>546.5</ele><time>2026-03-28T17:03:10.312Z</time></trkpt><trkpt lat="44.3634037" lon="7.5473854"><ele>547.0</ele><time>2026-03-28T17:03:11.312Z</time></trkpt><trkpt lat="44.3635048" lon="7.5474935"><ele>547.5</ele><time>2026-03-28T17:03:12.313Z</time></trkpt><trkpt lat="44.3636085" lon="7.5475601"><ele>548.0</ele><time>2026-03-28T17:03:13.312Z</time></trkpt><trkpt lat="44.3637422" lon="7.5476099"><ele>547.0</ele><time>2026-03-28T17:03:14.312Z</time></trkpt><trkpt lat="44.3638928" lon="7.5476512"><ele>546.0</ele><time>2026-03-28T17:03:15.312Z</time></trkpt><trkpt lat="44.3640464" lon="7.5476808"><ele>545.0</ele><time>2026-03-28T17:03:16.312Z</time></trkpt><trkpt lat="44.3641961" lon="7.5477001"><ele>545.0</ele><time>2026-03-28T17:03:17.312Z</time></trkpt><trkpt lat="44.3643374" lon="7.5476949"><ele>545.0</ele><time>2026-03-28T17:03:18.313Z</time></trkpt><trkpt lat="44.3644677" lon="7.5476755"><ele>545.0</ele><time>2026-03-28T17:03:19.313Z</time></trkpt><trkpt lat="44.3645911" lon="7.5476763"><ele>545.0</ele><time>2026-03-28T17:03:20.313Z</time></trkpt><trkpt lat="44.3647052" lon="7.5477147"><ele>545.25</ele><time>2026-03-28T17:03:21.313Z</time></trkpt><trkpt lat="44.3648086" lon="7.5477982"><ele>545.5</ele><time>2026-03-28T17:03:22.312Z</time></trkpt><trkpt lat="44.3649188" lon="7.5479419"><ele>545.75</ele><time>2026-03-28T17:03:23.313Z</time></trkpt><trkpt lat="44.365032" lon="7.5481104"><ele>546.0</ele><time>2026-03-28T17:03:24.312Z</time></trkpt><trkpt lat="44.3651246" lon="7.5482722"><ele>546.0</ele><time>2026-03-28T17:03:25.312Z</time></trkpt><trkpt lat="44.3652122" lon="7.5484389"><ele>546.0</ele><time>2026-03-28T17:03:26.313Z</time></trkpt><trkpt lat="44.3653062" lon="7.5485807"><ele>546.0</ele><time>2026-03-28T17:03:27.312Z</time></trkpt><trkpt lat="44.3654063" lon="7.5487086"><ele>546.0</ele><time>2026-03-28T17:03:28.312Z</time></trkpt><trkpt lat="44.3655045" lon="7.5488288"><ele>545.6</ele><time>2026-03-28T17:03:29.312Z</time></trkpt><trkpt lat="44.3655941" lon="7.5489349"><ele>545.2</ele><time>2026-03-28T17:03:30.312Z</time></trkpt><trkpt lat="44.3656711" lon="7.5490262"><ele>544.8</ele><time>2026-03-28T17:03:31.312Z</time></trkpt><trkpt lat="44.3657321" lon="7.5490961"><ele>544.4</ele><time>2026-03-28T17:03:32.312Z</time></trkpt><trkpt lat="44.3657983" lon="7.5491383"><ele>544.0</ele><time>2026-03-28T17:03:33.312Z</time></trkpt><trkpt lat="44.3658824" lon="7.5491701"><ele>544.0</ele><time>2026-03-28T17:03:34.313Z</time></trkpt><trkpt lat="44.365979" lon="7.5492078"><ele>544.0</ele><time>2026-03-28T17:03:35.313Z</time></trkpt><trkpt lat="44.3660775" lon="7.5492487"><ele>544.0</ele><time>2026-03-28T17:03:36.312Z</time></trkpt><trkpt lat="44.3661678" lon="7.5492996"><ele>544.0</ele><time>2026-03-28T17:03:37.312Z</time></trkpt><trkpt lat="44.3662474" lon="7.5493502"><ele>544.0</ele><time>2026-03-28T17:03:38.313Z</time></trkpt><trkpt lat="44.3663358" lon="7.5494102"><ele>543.75</ele><time>2026-03-28T17:03:39.313Z</time></trkpt><trkpt lat="44.3664263" lon="7.549494"><ele>543.5</ele><time>2026-03-28T17:03:40.313Z</time></trkpt><trkpt lat="44.3665233" lon="7.5495885"><ele>543.25</ele><time>2026-03-28T17:03:41.312Z</time></trkpt><trkpt lat="44.3666162" lon="7.5496848"><ele>543.0</ele><time>2026-03-28T17:03:42.312Z</time></trkpt><trkpt lat="44.3667043" lon="7.5497767"><ele>543.0</ele><time>2026-03-28T17:03:43.312Z</time></trkpt><trkpt lat="44.3667908" lon="7.549872"><ele>543.0</ele><time>2026-03-28T17:03:44.313Z</time></trkpt><trkpt lat="44.3668813" lon="7.5499733"><ele>543.0</ele><time>2026-03-28T17:03:45.312Z</time></trkpt><trkpt lat="44.366977" lon="7.5500571"><ele>543.0</ele><time>2026-03-28T17:03:46.313Z</time></trkpt><trkpt lat="44.3670837" lon="7.5501277"><ele>543.0</ele><time>2026-03-28T17:03:47.313Z</time></trkpt><trkpt lat="44.3671929" lon="7.550208"><ele>543.0</ele><time>2026-03-28T17:03:48.312Z</time></trkpt><trkpt lat="44.3673033" lon="7.5503059"><ele>543.0</ele><time>2026-03-28T17:03:49.312Z</time></trkpt><trkpt lat="44.3674044" lon="7.5504069"><ele>543.0</ele><time>2026-03-28T17:03:50.312Z</time></trkpt><trkpt lat="44.3674912" lon="7.5505276"><ele>542.5</ele><time>2026-03-28T17:03:51.312Z</time></trkpt><trkpt lat="44.367575" lon="7.5506573"><ele>542.0</ele><time>2026-03-28T17:03:52.312Z</time></trkpt><trkpt lat="44.3676693" lon="7.5507746"><ele>541.5</ele><time>2026-03-28T17:03:53.313Z</time></trkpt><trkpt lat="44.3677686" lon="7.5508741"><ele>541.0</ele><time>2026-03-28T17:03:54.312Z</time></trkpt><trkpt lat="44.3678629" lon="7.5509949"><ele>541.0</ele><time>2026-03-28T17:03:55.312Z</time></trkpt><trkpt lat="44.3679562" lon="7.5511127"><ele>541.0</ele><time>2026-03-28T17:03:56.313Z</time></trkpt><trkpt lat="44.3680235" lon="7.5512169"><ele>541.0</ele><time>2026-03-28T17:03:57.313Z</time></trkpt><trkpt lat="44.3680776" lon="7.5513183"><ele>541.0</ele><time>2026-03-28T17:03:58.312Z</time></trkpt><trkpt lat="44.3680974" lon="7.5514297"><ele>541.0</ele><time>2026-03-28T17:03:59.313Z</time></trkpt><trkpt lat="44.3680934" lon="7.5515223"><ele>540.8</ele><time>2026-03-28T17:04:00.313Z</time></trkpt><trkpt lat="44.3680646" lon="7.55165"><ele>540.6</ele><time>2026-03-28T17:04:02.313Z</time></trkpt><trkpt lat="44.36803" lon="7.55174"><ele>540.4</ele><time>2026-03-28T17:04:16.312Z</time></trkpt><trkpt lat="44.3679604" lon="7.5519014"><ele>540.2</ele><time>2026-03-28T17:04:18.312Z</time></trkpt><trkpt lat="44.3679202" lon="7.5520142"><ele>540.0</ele><time>2026-03-28T17:04:19.313Z</time></trkpt><trkpt lat="44.3678928" lon="7.5521433"><ele>540.0</ele><time>2026-03-28T17:04:20.313Z</time></trkpt><trkpt lat="44.3678904" lon="7.5522749"><ele>540.0</ele><time>2026-03-28T17:04:21.313Z</time></trkpt><trkpt lat="44.3679179" lon="7.5524009"><ele>540.0</ele><time>2026-03-28T17:04:22.313Z</time></trkpt><trkpt lat="44.3679714" lon="7.5525097"><ele>540.0</ele><time>2026-03-28T17:04:23.313Z</time></trkpt><trkpt lat="44.3680497" lon="7.5526005"><ele>540.0</ele><time>2026-03-28T17:04:24.312Z</time></trkpt><trkpt lat="44.368138" lon="7.552663"><ele>539.8</ele><time>2026-03-28T17:04:25.312Z</time></trkpt><trkpt lat="44.3682339" lon="7.552685"><ele>539.6</ele><time>2026-03-28T17:04:26.312Z</time></trkpt><trkpt lat="44.3683326" lon="7.5526681"><ele>539.4</ele><time>2026-03-28T17:04:27.313Z</time></trkpt><trkpt lat="44.3684225" lon="7.5526084"><ele>539.2</ele><time>2026-03-28T17:04:28.312Z</time></trkpt><trkpt lat="44.3684957" lon="7.5525201"><ele>539.0</ele><time>2026-03-28T17:04:29.312Z</time></trkpt><trkpt lat="44.3685507" lon="7.552398"><ele>539.0</ele><time>2026-03-28T17:04:30.313Z</time></trkpt><trkpt lat="44.3685792" lon="7.5522591"><ele>539.0</ele><time>2026-03-28T17:04:31.312Z</time></trkpt><trkpt lat="44.3685797" lon="7.5521213"><ele>539.0</ele><time>2026-03-28T17:04:32.313Z</time></trkpt><trkpt lat="44.3685558" lon="7.5519885"><ele>539.0</ele><time>2026-03-28T17:04:33.313Z</time></trkpt><trkpt lat="44.3685136" lon="7.5518682"><ele>539.0</ele><time>2026-03-28T17:04:34.312Z</time></trkpt><trkpt lat="44.3684622" lon="7.5517469"><ele>538.8</ele><time>2026-03-28T17:04:35.312Z</time></trkpt><trkpt lat="44.3684287" lon="7.5516174"><ele>538.5999999999999</ele><time>2026-03-28T17:04:36.312Z</time></trkpt><trkpt lat="44.3684211" lon="7.5514748"><ele>538.4</ele><time>2026-03-28T17:04:37.313Z</time></trkpt><trkpt lat="44.3684407" lon="7.5513333"><ele>538.1999999999999</ele><time>2026-03-28T17:04:38.312Z</time></trkpt><trkpt lat="44.3684743" lon="7.5511995"><ele>538.0</ele><time>2026-03-28T17:04:39.313Z</time></trkpt><trkpt lat="44.3685229" lon="7.5510703"><ele>537.4</ele><time>2026-03-28T17:04:40.313Z</time></trkpt><trkpt lat="44.3685827" lon="7.5509388"><ele>536.8</ele><time>2026-03-28T17:04:41.313Z</time></trkpt><trkpt lat="44.3686463" lon="7.5508114"><ele>536.2</ele><time>2026-03-28T17:04:42.313Z</time></trkpt><trkpt lat="44.3687097" lon="7.5506879"><ele>535.6</ele><time>2026-03-28T17:04:43.313Z</time></trkpt><trkpt lat="44.3687796" lon="7.5505589"><ele>535.0</ele><time>2026-03-28T17:04:44.313Z</time></trkpt><trkpt lat="44.3688517" lon="7.5504271"><ele>533.5</ele><time>2026-03-28T17:04:45.313Z</time></trkpt><trkpt lat="44.3689293" lon="7.5502915"><ele>532.0</ele><time>2026-03-28T17:04:46.312Z</time></trkpt><trkpt lat="44.3690028" lon="7.5501537"><ele>530.5</ele><time>2026-03-28T17:04:47.312Z</time></trkpt><trkpt lat="44.3690702" lon="7.5500222"><ele>529.0</ele><time>2026-03-28T17:04:48.312Z</time></trkpt><trkpt lat="44.3691445" lon="7.549886"><ele>529.0</ele><time>2026-03-28T17:04:49.313Z</time></trkpt><trkpt lat="44.3692202" lon="7.5497504"><ele>529.0</ele><time>2026-03-28T17:04:50.312Z</time></trkpt><trkpt lat="44.3692949" lon="7.5496136"><ele>529.0</ele><time>2026-03-28T17:04:51.312Z</time></trkpt><trkpt lat="44.3693702" lon="7.5494787"><ele>529.0</ele><time>2026-03-28T17:04:52.312Z</time></trkpt><trkpt lat="44.3694444" lon="7.5493399"><ele>529.0</ele><time>2026-03-28T17:04:53.313Z</time></trkpt><trkpt lat="44.369516" lon="7.5492016"><ele>529.0</ele><time>2026-03-28T17:04:54.312Z</time></trkpt><trkpt lat="44.3695911" lon="7.5490616"><ele>529.0</ele><time>2026-03-28T17:04:55.312Z</time></trkpt><trkpt lat="44.369667" lon="7.5489286"><ele>529.0</ele><time>2026-03-28T17:04:56.312Z</time></trkpt><trkpt lat="44.3697403" lon="7.5487922"><ele>529.25</ele><time>2026-03-28T17:04:57.313Z</time></trkpt><trkpt lat="44.3698132" lon="7.5486569"><ele>529.5</ele><time>2026-03-28T17:04:58.312Z</time></trkpt><trkpt lat="44.3698837" lon="7.5485194"><ele>529.75</ele><time>2026-03-28T17:04:59.312Z</time></trkpt><trkpt lat="44.3699577" lon="7.5483823"><ele>530.0</ele><time>2026-03-28T17:05:00.313Z</time></trkpt><trkpt lat="44.3700321" lon="7.5482449"><ele>530.0</ele><time>2026-03-28T17:05:01.313Z</time></trkpt><trkpt lat="44.3701032" lon="7.5481075"><ele>530.0</ele><time>2026-03-28T17:05:02.312Z</time></trkpt><trkpt lat="44.3701794" lon="7.5479664"><ele>530.0</ele><time>2026-03-28T17:05:03.313Z</time></trkpt><trkpt lat="44.3702501" lon="7.5478257"><ele>530.0</ele><time>2026-03-28T17:05:04.312Z</time></trkpt><trkpt lat="44.3703233" lon="7.5476842"><ele>530.25</ele><time>2026-03-28T17:05:05.313Z</time></trkpt><trkpt lat="44.3703977" lon="7.5475434"><ele>530.5</ele><time>2026-03-28T17:05:06.313Z</time></trkpt><trkpt lat="44.3704694" lon="7.5474052"><ele>530.75</ele><time>2026-03-28T17:05:07.313Z</time></trkpt><trkpt lat="44.3705409" lon="7.5472656"><ele>531.0</ele><time>2026-03-28T17:05:08.313Z</time></trkpt><trkpt lat="44.3706157" lon="7.5471245"><ele>529.75</ele><time>2026-03-28T17:05:09.311Z</time></trkpt><trkpt lat="44.3706906" lon="7.5469854"><ele>528.5</ele><time>2026-03-28T17:05:10.313Z</time></trkpt><trkpt lat="44.370767" lon="7.5468479"><ele>527.25</ele><time>2026-03-28T17:05:11.312Z</time></trkpt><trkpt lat="44.3708413" lon="7.5467104"><ele>526.0</ele><time>2026-03-28T17:05:12.312Z</time></trkpt><trkpt lat="44.3709108" lon="7.5465742"><ele>526.0</ele><time>2026-03-28T17:05:13.312Z</time></trkpt><trkpt lat="44.370982" lon="7.5464349"><ele>526.0</ele><time>2026-03-28T17:05:14.312Z</time></trkpt><trkpt lat="44.3710579" lon="7.546299"><ele>526.0</ele><time>2026-03-28T17:05:15.313Z</time></trkpt><trkpt lat="44.371136" lon="7.5461603"><ele>526.0</ele><time>2026-03-28T17:05:16.312Z</time></trkpt><trkpt lat="44.3712065" lon="7.5460249"><ele>526.0</ele><time>2026-03-28T17:05:17.313Z</time></trkpt><trkpt lat="44.3712821" lon="7.5458835"><ele>526.0</ele><time>2026-03-28T17:05:18.313Z</time></trkpt><trkpt lat="44.371358" lon="7.5457497"><ele>526.0</ele><time>2026-03-28T17:05:19.312Z</time></trkpt><trkpt lat="44.3714315" lon="7.5456136"><ele>526.0</ele><time>2026-03-28T17:05:20.313Z</time></trkpt><trkpt lat="44.3715015" lon="7.5454763"><ele>526.25</ele><time>2026-03-28T17:05:21.312Z</time></trkpt><trkpt lat="44.3715709" lon="7.5453372"><ele>526.5</ele><time>2026-03-28T17:05:22.312Z</time></trkpt><trkpt lat="44.3716431" lon="7.5451983"><ele>526.75</ele><time>2026-03-28T17:05:23.313Z</time></trkpt><trkpt lat="44.3717158" lon="7.5450602"><ele>527.0</ele><time>2026-03-28T17:05:24.313Z</time></trkpt><trkpt lat="44.3717878" lon="7.5449224"><ele>527.0</ele><time>2026-03-28T17:05:25.312Z</time></trkpt><trkpt lat="44.3718572" lon="7.544787"><ele>527.0</ele><time>2026-03-28T17:05:26.312Z</time></trkpt><trkpt lat="44.3719341" lon="7.5446469"><ele>527.0</ele><time>2026-03-28T17:05:27.313Z</time></trkpt><trkpt lat="44.3720074" lon="7.5445065"><ele>527.0</ele><time>2026-03-28T17:05:28.313Z</time></trkpt><trkpt lat="44.3720787" lon="7.5443704"><ele>528.0</ele><time>2026-03-28T17:05:29.313Z</time></trkpt><trkpt lat="44.3721566" lon="7.5442354"><ele>529.0</ele><time>2026-03-28T17:05:30.313Z</time></trkpt><trkpt lat="44.3722353" lon="7.5440918"><ele>530.0</ele><time>2026-03-28T17:05:31.313Z</time></trkpt><trkpt lat="44.3723094" lon="7.5439493"><ele>531.0</ele><time>2026-03-28T17:05:32.312Z</time></trkpt><trkpt lat="44.3723836" lon="7.5438061"><ele>532.25</ele><time>2026-03-28T17:05:33.313Z</time></trkpt><trkpt lat="44.3724592" lon="7.5436663"><ele>533.5</ele><time>2026-03-28T17:05:34.312Z</time></trkpt><trkpt lat="44.3725323" lon="7.5435315"><ele>534.75</ele><time>2026-03-28T17:05:35.312Z</time></trkpt><trkpt lat="44.3726057" lon="7.5433943"><ele>536.0</ele><time>2026-03-28T17:05:36.313Z</time></trkpt><trkpt lat="44.3726809" lon="7.5432566"><ele>536.0</ele><time>2026-03-28T17:05:37.312Z</time></trkpt><trkpt lat="44.3727515" lon="7.5431246"><ele>536.0</ele><time>2026-03-28T17:05:38.313Z</time></trkpt><trkpt lat="44.3728239" lon="7.542988"><ele>536.0</ele><time>2026-03-28T17:05:39.312Z</time></trkpt><trkpt lat="44.372906" lon="7.5428478"><ele>536.0</ele><time>2026-03-28T17:05:40.313Z</time></trkpt><trkpt lat="44.3729857" lon="7.5427039"><ele>541.0</ele><time>2026-03-28T17:05:41.312Z</time></trkpt><trkpt lat="44.3730593" lon="7.5425593"><ele>546.0</ele><time>2026-03-28T17:05:42.313Z</time></trkpt><trkpt lat="44.3731339" lon="7.5424142"><ele>551.0</ele><time>2026-03-28T17:05:43.313Z</time></trkpt><trkpt lat="44.3732084" lon="7.5422691"><ele>556.0</ele><time>2026-03-28T17:05:44.313Z</time></trkpt><trkpt lat="44.3761731" lon="7.5368624"><ele>556.0</ele><time>2026-03-28T17:06:24.318Z</time></trkpt><trkpt lat="44.3762394" lon="7.5367452"><ele>556.0</ele><time>2026-03-28T17:06:25.309Z</time></trkpt><trkpt lat="44.3762916" lon="7.536619"><ele>556.0</ele><time>2026-03-28T17:06:26.312Z</time></trkpt><trkpt lat="44.3763565" lon="7.5364916"><ele>556.0</ele><time>2026-03-28T17:06:27.308Z</time></trkpt><trkpt lat="44.3764233" lon="7.5363654"><ele>556.0</ele><time>2026-03-28T17:06:28.319Z</time></trkpt><trkpt lat="44.3764855" lon="7.5362428"><ele>557.6</ele><time>2026-03-28T17:06:29.311Z</time></trkpt><trkpt lat="44.3765426" lon="7.5361232"><ele>559.2</ele><time>2026-03-28T17:06:30.31Z</time></trkpt><trkpt lat="44.3765928" lon="7.5360059"><ele>560.8</ele><time>2026-03-28T17:06:31.31Z</time></trkpt><trkpt lat="44.3766404" lon="7.5358928"><ele>562.4</ele><time>2026-03-28T17:06:32.311Z</time></trkpt><trkpt lat="44.3766891" lon="7.5357885"><ele>564.0</ele><time>2026-03-28T17:06:33.31Z</time></trkpt><trkpt lat="44.3767397" lon="7.5356881"><ele>564.0</ele><time>2026-03-28T17:06:34.31Z</time></trkpt><trkpt lat="44.3767863" lon="7.5355975"><ele>564.0</ele><time>2026-03-28T17:06:35.31Z</time></trkpt><trkpt lat="44.3768332" lon="7.5355163"><ele>564.0</ele><time>2026-03-28T17:06:36.31Z</time></trkpt><trkpt lat="44.3768823" lon="7.5354398"><ele>564.0</ele><time>2026-03-28T17:06:37.31Z</time></trkpt><trkpt lat="44.376937" lon="7.5353669"><ele>564.0</ele><time>2026-03-28T17:06:38.31Z</time></trkpt><trkpt lat="44.3770005" lon="7.5352988"><ele>564.0</ele><time>2026-03-28T17:06:39.311Z</time></trkpt><trkpt lat="44.3770532" lon="7.5352483"><ele>564.0</ele><time>2026-03-28T17:06:40.311Z</time></trkpt><trkpt lat="44.3771287" lon="7.5351627"><ele>564.0</ele><time>2026-03-28T17:06:42.311Z</time></trkpt><trkpt lat="44.3771731" lon="7.5350784"><ele>564.0</ele><time>2026-03-28T17:06:44.31Z</time></trkpt><trkpt lat="44.3772031" lon="7.5349193"><ele>564.0</ele><time>2026-03-28T17:06:46.31Z</time></trkpt><trkpt lat="44.3772257" lon="7.5348024"><ele>564.0</ele><time>2026-03-28T17:06:47.31Z</time></trkpt><trkpt lat="44.3772644" lon="7.534673"><ele>564.0</ele><time>2026-03-28T17:06:48.31Z</time></trkpt><trkpt lat="44.377315" lon="7.5345607"><ele>564.0</ele><time>2026-03-28T17:06:49.31Z</time></trkpt><trkpt lat="44.3773702" lon="7.5344463"><ele>564.0</ele><time>2026-03-28T17:06:50.311Z</time></trkpt><trkpt lat="44.377418" lon="7.5343429"><ele>564.0</ele><time>2026-03-28T17:06:51.311Z</time></trkpt><trkpt lat="44.3774741" lon="7.5342424"><ele>564.0</ele><time>2026-03-28T17:06:52.31Z</time></trkpt><trkpt lat="44.3775186" lon="7.5341488"><ele>564.0</ele><time>2026-03-28T17:06:53.31Z</time></trkpt><trkpt lat="44.377575" lon="7.5340483"><ele>564.0</ele><time>2026-03-28T17:06:54.31Z</time></trkpt><trkpt lat="44.3776358" lon="7.5339432"><ele>564.0</ele><time>2026-03-28T17:06:55.311Z</time></trkpt><trkpt lat="44.3776975" lon="7.5338323"><ele>564.0</ele><time>2026-03-28T17:06:56.31Z</time></trkpt><trkpt lat="44.3777566" lon="7.5337339"><ele>564.0</ele><time>2026-03-28T17:06:57.311Z</time></trkpt><trkpt lat="44.3778131" lon="7.5336365"><ele>564.0</ele><time>2026-03-28T17:06:58.311Z</time></trkpt><trkpt lat="44.3778677" lon="7.5335419"><ele>564.0</ele><time>2026-03-28T17:06:59.31Z</time></trkpt><trkpt lat="44.3779174" lon="7.5334477"><ele>564.1666666666666</ele><time>2026-03-28T17:07:00.31Z</time></trkpt><trkpt lat="44.3779614" lon="7.5333444"><ele>564.3333333333334</ele><time>2026-03-28T17:07:01.311Z</time></trkpt><trkpt lat="44.3780213" lon="7.5332404"><ele>564.5</ele><time>2026-03-28T17:07:02.311Z</time></trkpt><trkpt lat="44.378071" lon="7.533156"><ele>564.6666666666667</ele><time>2026-03-28T17:07:03.311Z</time></trkpt><trkpt lat="44.3781162" lon="7.5330819"><ele>564.8333333333334</ele><time>2026-03-28T17:07:04.31Z</time></trkpt><trkpt lat="44.3781554" lon="7.5330056"><ele>565.0</ele><time>2026-03-28T17:07:05.311Z</time></trkpt><trkpt lat="44.3781902" lon="7.532931"><ele>564.6666666666667</ele><time>2026-03-28T17:07:06.311Z</time></trkpt><trkpt lat="44.3782319" lon="7.5328491"><ele>564.3333333333334</ele><time>2026-03-28T17:07:07.311Z</time></trkpt><trkpt lat="44.3782735" lon="7.5327696"><ele>564.0</ele><time>2026-03-28T17:07:08.311Z</time></trkpt><trkpt lat="44.3783226" lon="7.532681"><ele>563.6666666666666</ele><time>2026-03-28T17:07:09.311Z</time></trkpt><trkpt lat="44.3783696" lon="7.5325918"><ele>563.3333333333333</ele><time>2026-03-28T17:07:10.311Z</time></trkpt><trkpt lat="44.37842" lon="7.5325011"><ele>563.0</ele><time>2026-03-28T17:07:11.31Z</time></trkpt><trkpt lat="44.3784674" lon="7.53241"><ele>563.0</ele><time>2026-03-28T17:07:12.31Z</time></trkpt><trkpt lat="44.3785141" lon="7.5323243"><ele>563.0</ele><time>2026-03-28T17:07:13.311Z</time></trkpt><trkpt lat="44.3785557" lon="7.5322427"><ele>563.0</ele><time>2026-03-28T17:07:14.31Z</time></trkpt><trkpt lat="44.378609" lon="7.5321619"><ele>563.0</ele><time>2026-03-28T17:07:15.31Z</time></trkpt><trkpt lat="44.3786491" lon="7.5320747"><ele>563.0</ele><time>2026-03-28T17:07:16.311Z</time></trkpt><trkpt lat="44.378695" lon="7.5319859"><ele>563.0</ele><time>2026-03-28T17:07:17.31Z</time></trkpt><trkpt lat="44.3787424" lon="7.5318985"><ele>563.1666666666666</ele><time>2026-03-28T17:07:18.311Z</time></trkpt><trkpt lat="44.3787881" lon="7.531816"><ele>563.3333333333333</ele><time>2026-03-28T17:07:19.311Z</time></trkpt><trkpt lat="44.3788384" lon="7.5317215"><ele>563.5</ele><time>2026-03-28T17:07:20.311Z</time></trkpt><trkpt lat="44.3788866" lon="7.5316286"><ele>563.6666666666666</ele><time>2026-03-28T17:07:21.31Z</time></trkpt><trkpt lat="44.3789421" lon="7.5315286"><ele>563.8333333333334</ele><time>2026-03-28T17:07:22.311Z</time></trkpt><trkpt lat="44.3789923" lon="7.5314274"><ele>564.0</ele><time>2026-03-28T17:07:23.31Z</time></trkpt><trkpt lat="44.3790397" lon="7.5313246"><ele>564.0</ele><time>2026-03-28T17:07:24.311Z</time></trkpt><trkpt lat="44.379091" lon="7.5312151"><ele>564.0</ele><time>2026-03-28T17:07:25.31Z</time></trkpt><trkpt lat="44.3791353" lon="7.5311047"><ele>564.0</ele><time>2026-03-28T17:07:26.31Z</time></trkpt><trkpt lat="44.3791898" lon="7.5309837"><ele>564.0</ele><time>2026-03-28T17:07:27.31Z</time></trkpt><trkpt lat="44.3792505" lon="7.5308597"><ele>564.0</ele><time>2026-03-28T17:07:28.311Z</time></trkpt><trkpt lat="44.3793194" lon="7.5307488"><ele>564.0</ele><time>2026-03-28T17:07:29.311Z</time></trkpt><trkpt lat="44.3793862" lon="7.5306367"><ele>564.0</ele><time>2026-03-28T17:07:30.31Z</time></trkpt><trkpt lat="44.3794524" lon="7.5305265"><ele>564.0</ele><time>2026-03-28T17:07:31.31Z</time></trkpt><trkpt lat="44.3795102" lon="7.5304155"><ele>564.0</ele><time>2026-03-28T17:07:32.31Z</time></trkpt><trkpt lat="44.3795638" lon="7.5303128"><ele>564.0</ele><time>2026-03-28T17:07:33.31Z</time></trkpt><trkpt lat="44.379616" lon="7.5302091"><ele>563.8333333333334</ele><time>2026-03-28T17:07:34.311Z</time></trkpt><trkpt lat="44.3796575" lon="7.5301192"><ele>563.6666666666666</ele><time>2026-03-28T17:07:35.31Z</time></trkpt><trkpt lat="44.3796961" lon="7.5300385"><ele>563.5</ele><time>2026-03-28T17:07:36.311Z</time></trkpt><trkpt lat="44.3797742" lon="7.5299303"><ele>563.3333333333333</ele><time>2026-03-28T17:07:38.311Z</time></trkpt><trkpt lat="44.3798345" lon="7.529882"><ele>563.1666666666666</ele><time>2026-03-28T17:07:41.311Z</time></trkpt><trkpt lat="44.3799275" lon="7.5298042"><ele>563.0</ele><time>2026-03-28T17:07:43.31Z</time></trkpt><trkpt lat="44.3799556" lon="7.5296582"><ele>562.8</ele><time>2026-03-28T17:07:45.31Z</time></trkpt><trkpt lat="44.3798522" lon="7.5295487"><ele>562.5999999999999</ele><time>2026-03-28T17:07:47.311Z</time></trkpt><trkpt lat="44.3797689" lon="7.5295071"><ele>562.4000000000001</ele><time>2026-03-28T17:07:48.31Z</time></trkpt><trkpt lat="44.3796853" lon="7.5294394"><ele>562.2</ele><time>2026-03-28T17:07:49.31Z</time></trkpt><trkpt lat="44.3796007" lon="7.5293584"><ele>562.0</ele><time>2026-03-28T17:07:50.31Z</time></trkpt><trkpt lat="44.3795139" lon="7.5292689"><ele>562.0</ele><time>2026-03-28T17:07:51.31Z</time></trkpt><trkpt lat="44.3794296" lon="7.5291913"><ele>562.0</ele><time>2026-03-28T17:07:52.311Z</time></trkpt><trkpt lat="44.3793387" lon="7.5291137"><ele>562.0</ele><time>2026-03-28T17:07:53.31Z</time></trkpt><trkpt lat="44.3792804" lon="7.5290316"><ele>562.0</ele><time>2026-03-28T17:07:54.311Z</time></trkpt><trkpt lat="44.3792278" lon="7.5289323"><ele>562.0</ele><time>2026-03-28T17:07:55.311Z</time></trkpt><trkpt lat="44.379214" lon="7.5288143"><ele>562.75</ele><time>2026-03-28T17:07:56.31Z</time></trkpt><trkpt lat="44.3792204" lon="7.528677"><ele>563.5</ele><time>2026-03-28T17:07:57.31Z</time></trkpt><trkpt lat="44.3792448" lon="7.5285225"><ele>564.25</ele><time>2026-03-28T17:07:58.311Z</time></trkpt><trkpt lat="44.3792686" lon="7.5283533"><ele>565.0</ele><time>2026-03-28T17:07:59.31Z</time></trkpt><trkpt lat="44.3792833" lon="7.5281843"><ele>565.0</ele><time>2026-03-28T17:08:00.31Z</time></trkpt><trkpt lat="44.3792865" lon="7.528027"><ele>565.0</ele><time>2026-03-28T17:08:01.311Z</time></trkpt><trkpt lat="44.3792657" lon="7.5278792"><ele>565.0</ele><time>2026-03-28T17:08:02.31Z</time></trkpt><trkpt lat="44.3792469" lon="7.5277348"><ele>565.0</ele><time>2026-03-28T17:08:03.311Z</time></trkpt><trkpt lat="44.379227" lon="7.5275926"><ele>565.0</ele><time>2026-03-28T17:08:04.31Z</time></trkpt><trkpt lat="44.3792047" lon="7.5274549"><ele>564.8</ele><time>2026-03-28T17:08:05.31Z</time></trkpt><trkpt lat="44.3791879" lon="7.5273234"><ele>564.6</ele><time>2026-03-28T17:08:06.311Z</time></trkpt><trkpt lat="44.3791655" lon="7.5271843"><ele>564.4</ele><time>2026-03-28T17:08:07.311Z</time></trkpt><trkpt lat="44.3791449" lon="7.5270467"><ele>564.2</ele><time>2026-03-28T17:08:08.31Z</time></trkpt><trkpt lat="44.3791055" lon="7.5269028"><ele>564.0</ele><time>2026-03-28T17:08:09.31Z</time></trkpt><trkpt lat="44.3790734" lon="7.5267598"><ele>564.0</ele><time>2026-03-28T17:08:10.31Z</time></trkpt><trkpt lat="44.3790356" lon="7.5266138"><ele>564.0</ele><time>2026-03-28T17:08:11.31Z</time></trkpt><trkpt lat="44.3789922" lon="7.5264626"><ele>564.0</ele><time>2026-03-28T17:08:12.311Z</time></trkpt><trkpt lat="44.3789568" lon="7.5262999"><ele>564.0</ele><time>2026-03-28T17:08:13.31Z</time></trkpt><trkpt lat="44.3789323" lon="7.5261227"><ele>564.8</ele><time>2026-03-28T17:08:14.311Z</time></trkpt><trkpt lat="44.3789131" lon="7.5259539"><ele>565.5999999999999</ele><time>2026-03-28T17:08:15.311Z</time></trkpt><trkpt lat="44.3789096" lon="7.5257897"><ele>566.4</ele><time>2026-03-28T17:08:16.31Z</time></trkpt><trkpt lat="44.3789269" lon="7.5256512"><ele>567.1999999999999</ele><time>2026-03-28T17:08:17.31Z</time></trkpt><trkpt lat="44.3789561" lon="7.525551"><ele>568.0</ele><time>2026-03-28T17:08:18.31Z</time></trkpt><trkpt lat="44.3789958" lon="7.5254514"><ele>568.0</ele><time>2026-03-28T17:08:20.31Z</time></trkpt><trkpt lat="44.3790023" lon="7.5253259"><ele>568.0</ele><time>2026-03-28T17:08:23.31Z</time></trkpt><trkpt lat="44.3789625" lon="7.525246"><ele>568.0</ele><time>2026-03-28T17:08:24.31Z</time></trkpt><trkpt lat="44.3789019" lon="7.5251622"><ele>568.0</ele><time>2026-03-28T17:08:25.31Z</time></trkpt><trkpt lat="44.3788254" lon="7.5250654"><ele>568.0</ele><time>2026-03-28T17:08:26.311Z</time></trkpt><trkpt lat="44.3787552" lon="7.5249598"><ele>568.0</ele><time>2026-03-28T17:08:27.311Z</time></trkpt><trkpt lat="44.3787052" lon="7.5248807"><ele>568.0</ele><time>2026-03-28T17:08:28.311Z</time></trkpt><trkpt lat="44.3786613" lon="7.5247905"><ele>568.0</ele><time>2026-03-28T17:08:29.31Z</time></trkpt><trkpt lat="44.3786396" lon="7.5247022"><ele>568.0</ele><time>2026-03-28T17:08:30.31Z</time></trkpt><trkpt lat="44.3786266" lon="7.5245756"><ele>568.0</ele><time>2026-03-28T17:08:32.311Z</time></trkpt><trkpt lat="44.3785767" lon="7.5244839"><ele>568.0</ele><time>2026-03-28T17:08:34.311Z</time></trkpt><trkpt lat="44.3786566" lon="7.5244446"><ele>569.0</ele><time>2026-03-28T17:08:45.311Z</time></trkpt><trkpt lat="44.3785765" lon="7.5243195"><ele>569.0</ele><time>2026-03-28T17:08:47.311Z</time></trkpt></trkseg></trk></gpx>